
Distance (Route):
Temperature : 11.9°C
Humidity : 51.7%
Pressure : 0hPa| Receiver | Frames | First received | Last received |
|---|---|---|---|
| IW2NTF | 447 | 2026-09-04 11:49:01 | 2026-09-04 13:16:38 |
| DO3MHA-11 | 380 | 2026-09-04 11:36:55 | 2026-09-04 13:13:00 |
| OE8JPQ-2 | 288 | 2026-09-04 11:27:51 | 2026-09-04 13:19:04 |
| DO3MHA-12 | 276 | 2026-09-04 11:38:27 | 2026-09-04 13:10:31 |
| IN3HCDX | 217 | 2026-09-04 11:14:22 | 2026-09-04 13:31:02 |
| 9A1FER-10 | 158 | 2026-09-04 11:41:32 | 2026-09-04 13:24:21 |
| OE5DRO-10 | 142 | 2026-09-04 11:51:55 | 2026-09-04 13:11:18 |
| 9A1FER-3 | 120 | 2026-09-04 11:49:21 | 2026-09-04 13:06:50 |
| OE5DXL-15 | 114 | 2026-09-04 11:48:32 | 2026-09-04 13:10:58 |
| PETON7-10 | 75 | 2026-09-04 12:37:05 | 2026-09-04 13:03:05 |
| IN3HCDX1 | 72 | 2026-09-04 12:19:58 | 2026-09-04 13:04:16 |
| IV3AMH | 66 | 2026-09-04 11:33:43 | 2026-09-04 13:36:24 |
| NBG1-10 | 65 | 2026-09-04 12:05:41 | 2026-09-04 13:07:19 |
| OE5MMP-10 | 57 | 2026-09-04 12:50:49 | 2026-09-04 13:01:42 |
| PG1ADW-2 | 40 | 2026-09-04 12:36:13 | 2026-09-04 13:02:32 |
| DB0UT-7 | 39 | 2026-09-04 12:32:24 | 2026-09-04 13:03:12 |
| OM5KV | 37 | 2026-09-04 11:54:28 | 2026-09-04 12:00:45 |
| SOBLACK | 19 | 2026-09-04 12:27:33 | 2026-09-04 12:40:09 |
| DL6DJ-15 | 9 | 2026-09-04 12:31:57 | 2026-09-04 12:44:53 |
| S52SK | 2 | 2026-09-04 11:54:16 | 2026-09-04 11:54:21 |
| DB0ND-19 | 1 | 2026-09-04 12:45:34 | 2026-09-04 12:45:34 |
| HARRO8 | 1 | 2026-09-04 12:59:51 | 2026-09-04 12:59:51 |
| Receiver | Date | Latitude | Longitude | Direction | Speed | Altitude | Climb | Temperature | Humidity | Pressure | Voltage | Killtimer | Uptime | BKT | XDATA |
|---|---|---|---|---|---|---|---|---|---|---|---|---|---|---|---|
| IV3AMH | 2026-09-04 13:36:24 | 45.59938 | 13.72240 | 97° | 18km/h | 2537m | -5.9m/s | 11.9°C | 51.7% | 0hPa | 2.5V | 00:00:00 | 00:00:00 | 00:00:00 | |
| IV3AMH | 2026-09-04 13:33:50 | 45.60388 | 13.71117 | 129° | 26km/h | 3379m | -5.6m/s | 8.3°C | 37.6% | 0hPa | 2.5V | 07:57:00 | 00:00:00 | 00:00:00 | |
| IV3AMH | 2026-09-04 13:33:13 | 45.60530 | 13.70876 | 136° | 24km/h | 3584m | -5.5m/s | 7.7°C | 19.8% | 0hPa | 2.5V | 07:57:00 | 00:00:00 | 00:00:00 | |
| IV3AMH | 2026-09-04 13:31:53 | 45.60900 | 13.70463 | 155° | 26km/h | 4054m | -6.0m/s | 4.0°C | 45.6% | 0hPa | 2.5V | 00:00:00 | 00:00:00 | 00:00:00 | |
| IN3HCDX | 2026-09-04 13:31:02 | 45.61264 | 13.70171 | 148° | 35km/h | 4373m | -6.4m/s | 2.1°C | 37.3% | 0hPa | 2.5V | 00:00:00 | 00:00:00 | 00:00:00 | |
| IN3HCDX | 2026-09-04 13:30:42 | 45.61417 | 13.70023 | 147° | 33km/h | 4507m | -6.6m/s | 0.9°C | 38.2% | 0hPa | 2.5V | 00:00:00 | 00:00:00 | 00:00:00 | |
| IV3AMH | 2026-09-04 13:30:20 | 45.61560 | 13.69877 | 145° | 33km/h | 4641m | -6.3m/s | -0.4°C | 40.6% | 0hPa | 2.5V | 08:00:00 | 00:00:00 | 00:00:00 | |
| IN3HCDX | 2026-09-04 13:30:18 | 45.61573 | 13.69863 | 146° | 31km/h | 4653m | -6.4m/s | -0.4°C | 40.7% | 0hPa | 2.5V | 08:00:00 | 00:00:00 | 00:00:00 | |
| IN3HCDX | 2026-09-04 13:29:57 | 45.61709 | 13.69728 | 149° | 31km/h | 4786m | -6.3m/s | -1.7°C | 42.9% | 0hPa | 2.5V | 08:00:00 | 00:00:00 | 00:00:00 | |
| IV3AMH | 2026-09-04 13:29:43 | 45.61805 | 13.69644 | 151° | 33km/h | 4875m | -6.1m/s | -2.5°C | 43.1% | 0hPa | 2.5V | 00:00:00 | 00:00:00 | 00:00:00 | |
| IN3HCDX | 2026-09-04 13:29:36 | 45.61857 | 13.69601 | 154° | 33km/h | 4919m | -6.5m/s | -2.7°C | 42.0% | 0hPa | 2.5V | 08:01:00 | 00:00:00 | 00:00:00 | |
| IN3HCDX | 2026-09-04 13:29:15 | 45.62031 | 13.69477 | 149° | 40km/h | 5051m | -6.2m/s | -3.6°C | 43.0% | 0hPa | 2.5V | 08:01:00 | 00:00:00 | 00:00:00 | |
| IV3AMH | 2026-09-04 13:29:06 | 45.62109 | 13.69402 | 147° | 42km/h | 5108m | -6.5m/s | -3.8°C | 37.0% | 0hPa | 2.5V | 00:00:00 | 00:00:00 | 00:00:00 | |
| IN3HCDX | 2026-09-04 13:28:55 | 45.62209 | 13.69300 | 145° | 47km/h | 5178m | -6.3m/s | -4.2°C | 35.3% | 0hPa | 2.5V | 08:02:00 | 00:00:00 | 00:00:00 | |
| IN3HCDX | 2026-09-04 13:28:34 | 45.62419 | 13.69070 | 143° | 51km/h | 5310m | -6.4m/s | -5.1°C | 36.9% | 0hPa | 2.5V | 08:02:00 | 00:00:00 | 00:00:00 | |
| IV3AMH | 2026-09-04 13:28:28 | 45.62479 | 13.68999 | 142° | 51km/h | 5348m | -6.5m/s | -5.3°C | 37.3% | 0hPa | 2.5V | 00:00:00 | 00:00:00 | 00:00:00 | |
| IN3HCDX | 2026-09-04 13:28:13 | 45.62627 | 13.68830 | 142° | 51km/h | 5441m | -5.9m/s | -6.0°C | 36.8% | 0hPa | 2.5V | 08:02:00 | 00:00:00 | 00:00:00 | |
| IN3HCDX | 2026-09-04 13:27:52 | 45.62840 | 13.68594 | 145° | 51km/h | 5572m | -6.1m/s | -7.0°C | 36.8% | 0hPa | 2.5V | 08:03:00 | 00:00:00 | 00:00:00 | |
| IV3AMH | 2026-09-04 13:27:50 | 45.62860 | 13.68573 | 145° | 51km/h | 5585m | -6.2m/s | -7.1°C | 37.0% | 0hPa | 2.5V | 08:03:00 | 00:00:00 | 00:00:00 | |
| IN3HCDX | 2026-09-04 13:27:25 | 45.63129 | 13.68309 | 147° | 51km/h | 5743m | -6.5m/s | -8.2°C | 38.7% | 0hPa | 2.5V | 08:03:00 | 00:00:00 | 00:00:00 | |
| IN3HCDX | 2026-09-04 13:27:04 | 45.63356 | 13.68097 | 149° | 53km/h | 5876m | -6.4m/s | -9.4°C | 39.2% | 0hPa | 2.5V | 08:04:00 | 00:00:00 | 00:00:00 | |
| IN3HCDX | 2026-09-04 13:26:43 | 45.63608 | 13.67881 | 151° | 57km/h | 6010m | -6.3m/s | -10.3°C | 39.5% | 0hPa | 2.5V | 08:04:00 | 00:00:00 | 00:00:00 | |
| IV3AMH | 2026-09-04 13:26:36 | 45.63694 | 13.67810 | 150° | 57km/h | 6054m | -6.4m/s | -10.8°C | 38.4% | 0hPa | 2.5V | 00:00:00 | 00:00:00 | 00:00:00 | |
| IN3HCDX | 2026-09-04 13:26:22 | 45.63869 | 13.67664 | 150° | 58km/h | 6144m | -6.5m/s | -11.3°C | 37.3% | 0hPa | 2.5V | 08:04:00 | 00:00:00 | 00:00:00 | |
| IN3HCDX | 2026-09-04 13:26:01 | 45.64142 | 13.67428 | 149° | 57km/h | 6277m | -6.3m/s | -11.6°C | 23.1% | 0hPa | 2.5V | 08:04:00 | 00:00:00 | 00:00:00 | |
| IV3AMH | 2026-09-04 13:25:58 | 45.64179 | 13.67396 | 149° | 55km/h | 6296m | -6.3m/s | -11.6°C | 21.7% | 0hPa | 2.5V | 00:00:00 | 00:00:00 | 00:00:00 | |
| IN3HCDX | 2026-09-04 13:25:41 | 45.64383 | 13.67220 | 151° | 55km/h | 6403m | -6.2m/s | -12.0°C | 19.1% | 0hPa | 2.5V | 08:04:00 | 00:00:00 | 00:00:00 | |
| IV3AMH | 2026-09-04 13:25:20 | 45.64639 | 13.67015 | 153° | 55km/h | 6535m | -6.4m/s | -12.9°C | 19.7% | 0hPa | 2.5V | 00:00:00 | 00:00:00 | 00:00:00 | |
| IN3HCDX | 2026-09-04 13:24:59 | 45.64875 | 13.66822 | 151° | 49km/h | 6668m | -6.5m/s | -14.0°C | 17.0% | 0hPa | 2.5V | 00:00:00 | 00:00:00 | 00:00:00 | |
| IV3AMH | 2026-09-04 13:24:47 | 45.65008 | 13.66706 | 148° | 53km/h | 6744m | -6.4m/s | -14.4°C | 16.3% | 0hPa | 2.5V | 00:00:00 | 00:00:00 | 00:00:00 | |
| IN3HCDX | 2026-09-04 13:24:38 | 45.65111 | 13.66601 | 144° | 57km/h | 6801m | -6.3m/s | -14.7°C | 14.6% | 0hPa | 2.5V | 08:06:00 | 00:00:00 | 00:00:00 | |
| 9A1FER-10 | 2026-09-04 13:24:21 | 45.65315 | 13.66360 | 140° | 55km/h | 6915m | -6.2m/s | -15.2°C | 12.8% | 0hPa | 2.5V | 00:00:00 | 02:58:07 | 00:00:00 | |
| IN3HCDX | 2026-09-04 13:24:17 | 45.65348 | 13.66320 | 140° | 57km/h | 6934m | -6.4m/s | -15.3°C | 11.7% | 0hPa | 2.5V | 08:06:00 | 00:00:00 | 00:00:00 | |
| IV3AMH | 2026-09-04 13:24:10 | 45.65423 | 13.66230 | 142° | 53km/h | 6979m | -6.4m/s | -15.5°C | 11.5% | 0hPa | 2.5V | 00:00:00 | 00:00:00 | 00:00:00 | |
| 9A1FER-10 | 2026-09-04 13:24:06 | 45.65474 | 13.66170 | 142° | 51km/h | 7011m | -6.3m/s | -15.7°C | 12.3% | 0hPa | 2.5V | 00:00:00 | 02:57:52 | 00:00:00 | |
| IN3HCDX | 2026-09-04 13:23:56 | 45.65561 | 13.66064 | 140° | 51km/h | 7068m | -6.5m/s | -16.0°C | 10.8% | 0hPa | 2.5V | 08:06:00 | 00:00:00 | 00:00:00 | |
| 9A1FER-10 | 2026-09-04 13:23:51 | 45.65618 | 13.65992 | 139° | 53km/h | 7107m | -6.5m/s | -16.0°C | 10.1% | 0hPa | 2.5V | 00:00:00 | 02:57:37 | 00:00:00 | |
| 9A1FER-10 | 2026-09-04 13:23:36 | 45.65765 | 13.65793 | 137° | 55km/h | 7203m | -6.6m/s | -16.6°C | 9.3% | 0hPa | 2.6V | 00:00:00 | 02:57:22 | 00:00:00 | |
| IN3HCDX | 2026-09-04 13:23:35 | 45.65765 | 13.65793 | 137° | 55km/h | 7203m | -6.7m/s | -16.6°C | 8.6% | 0hPa | 2.6V | 08:07:00 | 00:00:00 | 00:00:00 | |
| IV3AMH | 2026-09-04 13:23:32 | 45.65795 | 13.65751 | 136° | 57km/h | 7223m | -6.6m/s | -16.7°C | 8.5% | 0hPa | 2.6V | 08:07:00 | 00:00:00 | 00:00:00 | |
| 9A1FER-10 | 2026-09-04 13:23:21 | 45.65913 | 13.65580 | 135° | 55km/h | 7302m | -6.4m/s | -17.1°C | 7.6% | 0hPa | 2.6V | 00:00:00 | 02:57:07 | 00:00:00 | |
| IN3HCDX | 2026-09-04 13:23:14 | 45.65972 | 13.65495 | 135° | 55km/h | 7341m | -6.5m/s | -17.4°C | 6.5% | 0hPa | 2.6V | 08:07:00 | 00:00:00 | 00:00:00 | |
| 9A1FER-10 | 2026-09-04 13:23:06 | 45.66059 | 13.65367 | 135° | 53km/h | 7401m | -6.5m/s | -17.5°C | 6.9% | 0hPa | 2.6V | 08:07:00 | 02:56:52 | 00:00:00 | |
| IV3AMH | 2026-09-04 13:22:55 | 45.66155 | 13.65227 | 135° | 53km/h | 7467m | -6.6m/s | -18.0°C | 5.9% | 0hPa | 2.5V | 00:00:00 | 00:00:00 | 00:00:00 | |
| IN3HCDX | 2026-09-04 13:22:54 | 45.66164 | 13.65213 | 135° | 53km/h | 7473m | -6.5m/s | -18.1°C | 5.9% | 0hPa | 2.5V | 08:08:00 | 00:00:00 | 00:00:00 | |
| 9A1FER-10 | 2026-09-04 13:22:49 | 45.66218 | 13.65132 | 134° | 49km/h | 7513m | -6.4m/s | -18.3°C | 6.8% | 0hPa | 2.5V | 00:00:00 | 02:56:35 | 00:00:00 | |
| IN3HCDX | 2026-09-04 13:22:34 | 45.66344 | 13.64935 | 131° | 47km/h | 7614m | -6.8m/s | -19.1°C | 7.2% | 0hPa | 2.5V | 08:08:00 | 00:00:00 | 00:00:00 | |
| IV3AMH | 2026-09-04 13:22:18 | 45.66464 | 13.64732 | 132° | 51km/h | 7714m | -6.8m/s | -19.9°C | 7.3% | 0hPa | 2.5V | 00:00:00 | 00:00:00 | 00:00:00 | |
| 9A1FER-10 | 2026-09-04 13:22:13 | 45.66517 | 13.64651 | 134° | 53km/h | 7755m | -6.8m/s | -20.1°C | 8.3% | 0hPa | 2.5V | 00:00:00 | 02:55:59 | 00:00:00 | |
| IN3HCDX | 2026-09-04 13:22:12 | 45.66517 | 13.64651 | 134° | 51km/h | 7755m | -6.8m/s | -20.2°C | 7.5% | 0hPa | 2.5V | 08:08:00 | 00:00:00 | 00:00:00 | |
| 9A1FER-10 | 2026-09-04 13:21:55 | 45.66683 | 13.64412 | 135° | 51km/h | 7877m | -6.9m/s | -21.1°C | 9.8% | 0hPa | 2.5V | 00:00:00 | 02:55:41 | 00:00:00 | |
| IN3HCDX | 2026-09-04 13:21:51 | 45.66711 | 13.64372 | 136° | 51km/h | 7897m | -7.2m/s | -21.3°C | 9.0% | 0hPa | 2.5V | 08:09:00 | 00:00:00 | 00:00:00 | |
| IV3AMH | 2026-09-04 13:21:40 | 45.66811 | 13.64225 | 135° | 53km/h | 7973m | -7.1m/s | -22.0°C | 9.1% | 0hPa | 2.5V | 00:00:00 | 00:00:00 | 00:00:00 | |
| IN3HCDX | 2026-09-04 13:21:30 | 45.66902 | 13.64091 | 135° | 51km/h | 8043m | -6.9m/s | -22.6°C | 9.3% | 0hPa | 2.5V | 08:09:00 | 00:00:00 | 00:00:00 | |
| 9A1FER-10 | 2026-09-04 13:21:20 | 45.66999 | 13.63942 | 133° | 49km/h | 8121m | -7.0m/s | -23.2°C | 10.2% | 0hPa | 2.5V | 00:00:00 | 02:55:06 | 00:00:00 | |
| IN3HCDX | 2026-09-04 13:21:09 | 45.67087 | 13.63810 | 135° | 49km/h | 8191m | -7.0m/s | -23.7°C | 8.3% | 0hPa | 2.5V | 08:10:00 | 00:00:00 | 00:00:00 | |
| 9A1FER-10 | 2026-09-04 13:21:00 | 45.67169 | 13.63680 | 132° | 47km/h | 8262m | -7.0m/s | -24.1°C | 8.5% | 0hPa | 2.5V | 00:00:00 | 02:54:46 | 00:00:00 | |
| IN3HCDX | 2026-09-04 13:20:48 | 45.67256 | 13.63535 | 130° | 47km/h | 8339m | -7.2m/s | -24.8°C | 7.7% | 0hPa | 2.5V | 08:10:00 | 00:00:00 | 00:00:00 | |
| 9A1FER-10 | 2026-09-04 13:20:45 | 45.67286 | 13.63482 | 129° | 47km/h | 8367m | -6.8m/s | -25.0°C | 9.2% | 0hPa | 2.5V | 00:00:00 | 02:54:31 | 00:00:00 | |
| IV3AMH | 2026-09-04 13:20:35 | 45.67355 | 13.63358 | 129° | 47km/h | 8431m | -7.0m/s | -25.7°C | 10.4% | 0hPa | 2.5V | 00:00:00 | 00:00:00 | 00:00:00 | |
| IN3HCDX | 2026-09-04 13:20:27 | 45.67414 | 13.63252 | 129° | 47km/h | 8487m | -7.1m/s | -26.0°C | 13.5% | 0hPa | 2.5V | 08:10:00 | 00:00:00 | 00:00:00 | |
| 9A1FER-10 | 2026-09-04 13:20:23 | 45.67450 | 13.63184 | 128° | 47km/h | 8522m | -7.0m/s | -26.4°C | 15.9% | 0hPa | 2.5V | 08:10:00 | 02:54:09 | 00:00:00 | |
| IN3HCDX | 2026-09-04 13:20:06 | 45.67566 | 13.62967 | 125° | 47km/h | 8635m | -7.0m/s | -27.5°C | 15.9% | 0hPa | 2.6V | 08:10:00 | 00:00:00 | 00:00:00 | |
| 9A1FER-10 | 2026-09-04 13:20:01 | 45.67606 | 13.62882 | 125° | 46km/h | 8678m | -7.1m/s | -27.6°C | 16.9% | 0hPa | 2.6V | 00:00:00 | 02:53:47 | 00:00:00 | |
| IN3HCDX | 2026-09-04 13:19:46 | 45.67693 | 13.62684 | 121° | 46km/h | 8777m | -6.9m/s | -28.4°C | 14.5% | 0hPa | 2.6V | 08:10:00 | 00:00:00 | 00:00:00 | |
| 9A1FER-10 | 2026-09-04 13:19:40 | 45.67731 | 13.62585 | 118° | 40km/h | 8827m | -7.4m/s | -28.8°C | 16.2% | 0hPa | 2.6V | 00:00:00 | 02:53:26 | 00:00:00 | |
| IV3AMH | 2026-09-04 13:19:29 | 45.67777 | 13.62443 | 112° | 42km/h | 8900m | -7.2m/s | -29.4°C | 15.1% | 0hPa | 2.6V | 00:00:00 | 00:00:00 | 00:00:00 | |
| IN3HCDX | 2026-09-04 13:19:25 | 45.67792 | 13.62386 | 111° | 42km/h | 8929m | -7.5m/s | -29.7°C | 15.0% | 0hPa | 2.6V | 00:00:00 | 00:00:00 | 00:00:00 | |
| OE8JPQ-2 | 2026-09-04 13:19:04 | 45.67868 | 13.62092 | 114° | 42km/h | 9092m | -7.2m/s | -30.4°C | 13.5% | 0hPa | 2.6V | 00:00:00 | 00:00:00 | 00:00:00 | |
| 9A1FER-10 | 2026-09-04 13:19:03 | 45.67872 | 13.62079 | 114° | 47km/h | 9099m | -7.3m/s | -30.4°C | 13.4% | 0hPa | 2.6V | 00:00:00 | 02:52:49 | 00:00:00 | |
| IV3AMH | 2026-09-04 13:18:52 | 45.67919 | 13.61949 | 122° | 42km/h | 9172m | -7.3m/s | -30.9°C | 10.9% | 0hPa | 2.6V | 00:00:00 | 00:00:00 | 00:00:00 | |
| OE8JPQ-2 | 2026-09-04 13:18:44 | 45.67972 | 13.61824 | 121° | 49km/h | 9239m | -7.3m/s | -31.4°C | 12.0% | 0hPa | 2.6V | 00:00:00 | 02:52:30 | 00:00:00 | |
| IN3HCDX | 2026-09-04 13:18:39 | 45.67996 | 13.61764 | 120° | 47km/h | 9268m | -7.4m/s | -31.7°C | 10.0% | 0hPa | 2.6V | 00:00:00 | 00:00:00 | 00:00:00 | |
| 9A1FER-10 | 2026-09-04 13:18:36 | 45.68020 | 13.61702 | 118° | 51km/h | 9298m | -7.3m/s | -31.8°C | 10.8% | 0hPa | 2.6V | 00:00:00 | 02:52:22 | 00:00:00 | |
| OE8JPQ-2 | 2026-09-04 13:18:24 | 45.68086 | 13.61506 | 115° | 51km/h | 9387m | -7.3m/s | -32.5°C | 9.3% | 0hPa | 2.6V | 00:00:00 | 00:00:00 | 00:00:00 | |
| 9A1FER-10 | 2026-09-04 13:18:18 | 45.68117 | 13.61403 | 113° | 49km/h | 9431m | -7.5m/s | -32.8°C | 9.2% | 0hPa | 2.5V | 00:00:00 | 02:52:04 | 00:00:00 | |
| IV3AMH | 2026-09-04 13:18:15 | 45.68127 | 13.61368 | 113° | 51km/h | 9446m | -7.6m/s | -33.0°C | 7.7% | 0hPa | 2.5V | 00:00:00 | 00:00:00 | 00:00:00 | |
| OE8JPQ-2 | 2026-09-04 13:18:04 | 45.68181 | 13.61160 | 110° | 51km/h | 9538m | -7.7m/s | -33.7°C | 9.4% | 0hPa | 2.5V | 00:00:00 | 00:00:00 | 00:00:00 | |
| IN3HCDX | 2026-09-04 13:17:57 | 45.68207 | 13.61055 | 110° | 51km/h | 9584m | -7.9m/s | -34.1°C | 8.2% | 0hPa | 2.5V | 00:00:00 | 00:00:00 | 00:00:00 | |
| OE8JPQ-2 | 2026-09-04 13:17:44 | 45.68261 | 13.60816 | 107° | 49km/h | 9692m | -7.6m/s | -35.1°C | 10.3% | 0hPa | 2.5V | 00:00:00 | 02:51:30 | 00:00:00 | |
| IV3AMH | 2026-09-04 13:17:37 | 45.68282 | 13.60710 | 106° | 51km/h | 9739m | -7.6m/s | -35.3°C | 7.8% | 0hPa | 2.5V | 08:13:00 | 00:00:00 | 00:00:00 | |
| IN3HCDX | 2026-09-04 13:17:34 | 45.68292 | 13.60657 | 106° | 51km/h | 9762m | -7.8m/s | -35.5°C | 7.7% | 0hPa | 2.5V | 00:00:00 | 00:00:00 | 00:00:00 | |
| OE8JPQ-2 | 2026-09-04 13:17:24 | 45.68326 | 13.60469 | 105° | 49km/h | 9847m | -7.4m/s | -36.2°C | 10.6% | 0hPa | 2.5V | 08:13:00 | 00:00:00 | 00:00:00 | |
| OE8JPQ-2 | 2026-09-04 13:17:04 | 45.68392 | 13.60129 | 106° | 49km/h | 10002m | -7.9m/s | -37.5°C | 11.3% | 0hPa | 2.6V | 00:00:00 | 00:00:00 | 00:00:00 | |
| IV3AMH | 2026-09-04 13:16:59 | 45.68405 | 13.60061 | 107° | 49km/h | 10034m | -8.3m/s | -37.9°C | 9.8% | 0hPa | 2.6V | 00:00:00 | 00:00:00 | 00:00:00 | |
| OE8JPQ-2 | 2026-09-04 13:16:44 | 45.68467 | 13.59790 | 111° | 47km/h | 10162m | -7.9m/s | -38.9°C | 12.1% | 0hPa | 2.6V | 00:00:00 | 02:50:30 | 00:00:00 | |
| IW2NTF | 2026-09-04 13:16:38 | 45.68520 | 13.59611 | 115° | 47km/h | 10251m | -7.9m/s | -39.6°C | 12.5% | 0hPa | 2.6V | 08:13:56 | 02:50:19 | 00:00:00 | |
| 9A1FER-10 | 2026-09-04 13:16:29 | 45.68540 | 13.59550 | 117° | 44km/h | 10284m | -8.2m/s | -39.9°C | 12.7% | 0hPa | 2.5V | 00:00:00 | 02:50:15 | 00:00:00 | |
| IW2NTF | 2026-09-04 13:16:28 | 45.68573 | 13.59461 | 118° | 46km/h | 10333m | -8.1m/s | -40.4°C | 13% | 0hPa | 2.5V | 08:14:06 | 02:50:09 | 00:00:00 | |
| OE8JPQ-2 | 2026-09-04 13:16:24 | 45.68567 | 13.59475 | 119° | 44km/h | 10325m | -8.1m/s | -40.2°C | 12.9% | 0hPa | 2.5V | 00:00:00 | 00:00:00 | 00:00:00 | |
| IV3AMH | 2026-09-04 13:16:22 | 45.68573 | 13.59461 | 120° | 46km/h | 10333m | -8.1m/s | -40.4°C | 10.7% | 0hPa | 2.6V | 00:00:00 | 00:00:00 | 00:00:00 | |
| IW2NTF | 2026-09-04 13:16:18 | 45.68628 | 13.59320 | 119° | 44km/h | 10414m | -8.1m/s | -41.1°C | 13.9% | 0hPa | 2.6V | 08:14:16 | 02:49:59 | 00:00:00 | |
| IW2NTF | 2026-09-04 13:16:08 | 45.68683 | 13.59181 | 121° | 44km/h | 10496m | -8.3m/s | -41.9°C | 15.1% | 0hPa | 2.6V | 08:14:26 | 02:49:49 | 00:00:00 | |
| OE8JPQ-2 | 2026-09-04 13:16:04 | 45.68677 | 13.59195 | 122° | 44km/h | 10488m | -8.3m/s | -41.8°C | 15.0% | 0hPa | 2.5V | 00:00:00 | 00:00:00 | 00:00:00 | |
| 9A1FER-10 | 2026-09-04 13:16:02 | 45.68689 | 13.59168 | 122° | 44km/h | 10504m | -8.0m/s | -41.9°C | 15.2% | 0hPa | 2.5V | 00:00:00 | 02:49:48 | 00:00:00 | |
| IV3AMH | 2026-09-04 13:15:49 | 45.68756 | 13.59008 | 122° | 44km/h | 10603m | -8.3m/s | -42.9°C | 13.8% | 0hPa | 2.5V | 00:00:00 | 00:00:00 | 00:00:00 | |
| OE8JPQ-2 | 2026-09-04 13:15:44 | 45.68790 | 13.58925 | 121° | 46km/h | 10652m | -8.2m/s | -43.3°C | 16.9% | 0hPa | 2.5V | 00:00:00 | 02:49:30 | 00:00:00 | |
| 9A1FER-10 | 2026-09-04 13:15:39 | 45.68819 | 13.58855 | 121° | 46km/h | 10693m | -7.8m/s | -43.7°C | 16.7% | 0hPa | 2.5V | 00:00:00 | 02:49:25 | 00:00:00 | |
| OE8JPQ-2 | 2026-09-04 13:15:24 | 45.68910 | 13.58642 | 124° | 47km/h | 10826m | -10.0m/s | -44.8°C | 16.8% | 0hPa | 2.5V | 00:00:00 | 00:00:00 | 00:00:00 | |
| IV3AMH | 2026-09-04 13:15:16 | 45.68954 | 13.58543 | 123° | 47km/h | 10898m | -11.3m/s | -45.5°C | 14.8% | 0hPa | 2.5V | 00:00:00 | 00:00:00 | 00:00:00 | |
| 9A1FER-10 | 2026-09-04 13:15:15 | 45.68967 | 13.58513 | 121° | 49km/h | 10918m | -9.4m/s | -45.6°C | 18.2% | 0hPa | 2.5V | 08:15:00 | 02:49:01 | 00:00:00 | |
| OE8JPQ-2 | 2026-09-04 13:15:04 | 45.69036 | 13.58352 | 125° | 44km/h | 11025m | -10.1m/s | -46.4°C | 19.3% | 0hPa | 2.5V | 00:00:00 | 00:00:00 | 00:00:00 | |
| 9A1FER-10 | 2026-09-04 13:14:59 | 45.69068 | 13.58285 | 124° | 44km/h | 11073m | -10.2m/s | -46.7°C | 20.7% | 0hPa | 2.5V | 00:00:00 | 02:48:45 | 00:00:00 | |
| IW2NTF | 2026-09-04 13:14:56 | 45.69106 | 13.58204 | 122° | 44km/h | 11129m | -9m/s | -47.3°C | 22.5% | 0hPa | 2.5V | 08:15:36 | 02:48:39 | 00:00:00 | |
| OE8JPQ-2 | 2026-09-04 13:14:44 | 45.69161 | 13.58084 | 124° | 46km/h | 11210m | -9.2m/s | -48.0°C | 24.6% | 0hPa | 2.5V | 00:00:00 | 02:48:30 | 00:00:00 | |
| IV3AMH | 2026-09-04 13:14:37 | 45.69200 | 13.58001 | 124° | 47km/h | 11264m | -9.8m/s | -48.5°C | 21.1% | 0hPa | 2.5V | 00:00:00 | 00:00:00 | 00:00:00 | |
| 9A1FER-10 | 2026-09-04 13:14:29 | 45.69258 | 13.57881 | 126° | 20km/h | 11350m | -10.3m/s | -49.1°C | 25.1% | 0hPa | 2.5V | 00:00:00 | 02:48:15 | 00:00:00 | |
| OE8JPQ-2 | 2026-09-04 13:14:24 | 45.69290 | 13.57818 | 126° | 42km/h | 11402m | -9.7m/s | -49.7°C | 25.0% | 0hPa | 2.5V | 08:16:00 | 00:00:00 | 00:00:00 | |
| OE8JPQ-2 | 2026-09-04 13:14:04 | 45.69422 | 13.57575 | 132° | 44km/h | 11595m | -10.1m/s | -51.1°C | 21.6% | 0hPa | 2.5V | 00:00:00 | 00:00:00 | 00:00:00 | |
| OE8JPQ-2 | 2026-09-04 13:13:44 | 45.69566 | 13.57332 | 129° | 47km/h | 11804m | -10.8m/s | -52.9°C | 24.6% | 0hPa | 2.5V | 00:00:00 | 02:47:30 | 00:00:00 | |
| OE8JPQ-2 | 2026-09-04 13:13:24 | 45.69719 | 13.57059 | 130° | 46km/h | 12026m | -12.6m/s | -54.9°C | 27.5% | 0hPa | 2.5V | 00:00:00 | 00:00:00 | 00:00:00 | |
| IN3HCDX | 2026-09-04 13:13:16 | 45.69774 | 13.56970 | 133° | 46km/h | 12112m | -11.2m/s | -55.6°C | 24.1% | 0hPa | 2.5V | 00:00:00 | 00:00:00 | 00:00:00 | |
| IW2NTF | 2026-09-04 13:13:08 | 45.69852 | 13.56849 | 130° | 44km/h | 12219m | -13.3m/s | -56.6°C | 33.7% | 0hPa | 2.5V | 08:17:22 | 02:46:53 | 00:00:00 | |
| OE8JPQ-2 | 2026-09-04 13:13:04 | 45.69873 | 13.56812 | 132° | 44km/h | 12256m | -12.3m/s | -56.9°C | 34.7% | 0hPa | 2.5V | 00:00:00 | 00:00:00 | 00:00:00 | |
| DO3MHA-11 | 2026-09-04 13:13:00 | 45.69904 | 13.56764 | 135° | 42km/h | 12306m | -11.9m/s | -57.3°C | 36.2% | 0hPa | 2.5V | 00:00:00 | 02:46:46 | 00:00:00 | |
| IN3HCDX | 2026-09-04 13:12:54 | 45.69944 | 13.56709 | 139° | 42km/h | 12364m | -10.4m/s | -57.9°C | 30.7% | 0hPa | 2.5V | 00:00:00 | 00:00:00 | 00:00:00 | |
| IW2NTF | 2026-09-04 13:12:48 | 45.70037 | 13.56586 | 134° | 42km/h | 12503m | -12.5m/s | -59°C | 39.3% | 0hPa | 2.5V | 08:17:46 | 02:46:29 | 00:00:00 | |
| DO3MHA-11 | 2026-09-04 13:12:48 | 45.69999 | 13.56638 | 139° | 42km/h | 12444m | -11.6m/s | -58.6°C | 38.9% | 0hPa | 2.6V | 00:00:00 | 02:46:34 | 00:00:00 | |
| OE8JPQ-2 | 2026-09-04 13:12:44 | 45.70030 | 13.56597 | 135° | 42km/h | 12491m | -12.0m/s | -58.8°C | 39.0% | 0hPa | 2.6V | 00:00:00 | 02:46:30 | 00:00:00 | |
| DO3MHA-11 | 2026-09-04 13:12:38 | 45.70073 | 13.56532 | 132° | 42km/h | 12563m | -12.0m/s | -59.4°C | 40.3% | 0hPa | 2.6V | 00:00:00 | 02:46:24 | 00:00:00 | |
| IV3AMH | 2026-09-04 13:12:36 | 45.70079 | 13.56521 | 132° | 40km/h | 12575m | -12.4m/s | -59.5°C | 32.5% | 0hPa | 2.6V | 00:00:00 | 00:00:00 | 00:00:00 | |
| IW2NTF | 2026-09-04 13:12:35 | 45.70108 | 13.56476 | 133° | 42km/h | 12624m | -12.5m/s | -59.7°C | 40.4% | 0hPa | 2.6V | 08:17:56 | 02:46:19 | 00:00:00 | |
| IN3HCDX | 2026-09-04 13:12:34 | 45.70093 | 13.56499 | 134° | 42km/h | 12599m | -12.4m/s | -59.6°C | 32.3% | 0hPa | 2.5V | 08:18:00 | 00:00:00 | 00:00:00 | |
| DO3MHA-11 | 2026-09-04 13:12:26 | 45.70162 | 13.56395 | 135° | 46km/h | 12714m | -12.9m/s | -60.1°C | 42.3% | 0hPa | 2.5V | 00:00:00 | 02:46:12 | 00:00:00 | |
| OE8JPQ-2 | 2026-09-04 13:12:24 | 45.70179 | 13.56372 | 137° | 47km/h | 12740m | -13.3m/s | -60.4°C | 43.1% | 0hPa | 2.5V | 00:00:00 | 00:00:00 | 00:00:00 | |
| DO3MHA-11 | 2026-09-04 13:12:13 | 45.70280 | 13.56252 | 144° | 55km/h | 12882m | -13.4m/s | -61.5°C | 46.1% | 0hPa | 2.6V | 00:00:00 | 02:45:59 | 00:00:00 | |
| OE8JPQ-2 | 2026-09-04 13:12:04 | 45.70372 | 13.56156 | 147° | 49km/h | 12998m | -12.4m/s | -62.5°C | 48.5% | 0hPa | 2.6V | 00:00:00 | 00:00:00 | 00:00:00 | |
| IV3AMH | 2026-09-04 13:11:59 | 45.70414 | 13.56114 | 145° | 51km/h | 13048m | -12.6m/s | -62.9°C | 39.3% | 0hPa | 2.6V | 00:00:00 | 00:00:00 | 00:00:00 | |
| IN3HCDX | 2026-09-04 13:11:52 | 45.70484 | 13.56038 | 143° | 49km/h | 13138m | -13.2m/s | -63.5°C | 39.9% | 0hPa | 2.6V | 00:00:00 | 00:00:00 | 00:00:00 | |
| OE8JPQ-2 | 2026-09-04 13:11:44 | 45.70568 | 13.55939 | 139° | 51km/h | 13256m | -14.0m/s | -64.4°C | 48.2% | 0hPa | 2.6V | 00:00:00 | 02:45:30 | 00:00:00 | |
| IN3HCDX | 2026-09-04 13:11:31 | 45.70682 | 13.55797 | 141° | 51km/h | 13416m | -14.6m/s | -65.7°C | 35.7% | 0hPa | 2.6V | 00:00:00 | 00:00:00 | 00:00:00 | |
| OE8JPQ-2 | 2026-09-04 13:11:24 | 45.70765 | 13.55699 | 141° | 60km/h | 13531m | -14.6m/s | -66.6°C | 43.6% | 0hPa | 2.6V | 08:19:00 | 00:00:00 | 00:00:00 | |
| OE5DRO-10 | 2026-09-04 13:11:18 | 45.70869 | 13.55580 | 143° | 58km/h | 13663m | -15.3m/s | -67.5°C | 40.5% | 0hPa | 2.6V | 00:00:00 | 00:00:00 | 00:00:00 | |
| DO3MHA-11 | 2026-09-04 13:11:13 | 45.70894 | 13.55552 | 142° | 62km/h | 13692m | -14.6m/s | -67.7°C | 40.3% | 0hPa | 2.5V | 08:19:00 | 02:44:59 | 00:00:00 | |
| IN3HCDX | 2026-09-04 13:11:11 | 45.70919 | 13.55524 | 142° | 62km/h | 13721m | -14.4m/s | -68.0°C | 30.0% | 0hPa | 2.5V | 00:00:00 | 00:00:00 | 00:00:00 | |
| OE8JPQ-2 | 2026-09-04 13:11:04 | 45.71007 | 13.55428 | 145° | 58km/h | 13825m | -14.8m/s | -68.4°C | 38.3% | 0hPa | 2.5V | 00:00:00 | 00:00:00 | 00:00:00 | |
| DO3MHA-11 | 2026-09-04 13:11:03 | 45.71019 | 13.55415 | 145° | 60km/h | 13840m | -15.4m/s | -68.5°C | 37.9% | 0hPa | 2.5V | 00:00:00 | 02:44:49 | 00:00:00 | |
| OE5DXL-15 | 2026-09-04 13:10:58 | 45.71083 | 13.55351 | 145° | 60km/h | 13913m | -14.4m/s | -68.7°C | 35.0% | 0hPa | 2.5V | 08:19:00 | 00:00:00 | 00:00:00 | |
| IW2NTF | 2026-09-04 13:10:53 | 45.71183 | 13.55239 | 136° | 55km/h | 14044m | -14.1m/s | -67.5°C | 27.6% | 0hPa | 2.5V | 08:19:40 | 02:44:35 | 00:00:00 | |
| DO3MHA-11 | 2026-09-04 13:10:53 | 45.71141 | 13.55290 | 142° | 57km/h | 13987m | -14.4m/s | -68.3°C | 31.9% | 0hPa | 2.5V | 00:00:00 | 02:44:39 | 00:00:00 | |
| OE5DRO-10 | 2026-09-04 13:10:52 | 45.71162 | 13.55265 | 141° | 62km/h | 14016m | -14.4m/s | -68.0°C | 29.9% | 0hPa | 2.5V | 00:00:00 | 00:00:00 | 00:00:00 | |
| IN3HCDX | 2026-09-04 13:10:49 | 45.71173 | 13.55252 | 140° | 55km/h | 14030m | -13.9m/s | -67.9°C | 20.3% | 0hPa | 2.5V | 08:20:00 | 00:00:00 | 00:00:00 | |
| OE8JPQ-2 | 2026-09-04 13:10:44 | 45.71234 | 13.55163 | 134° | 66km/h | 14113m | -13.4m/s | -67.0°C | 24.5% | 0hPa | 2.5V | 00:00:00 | 02:44:30 | 00:00:00 | |
| DO3MHA-11 | 2026-09-04 13:10:43 | 45.71245 | 13.55147 | 134° | 68km/h | 14125m | -11.8m/s | -66.9°C | 24.3% | 0hPa | 2.5V | 00:00:00 | 02:44:29 | 00:00:00 | |
| DO3MHA-11 | 2026-09-04 13:10:33 | 45.71367 | 13.54977 | 139° | 64km/h | 14247m | -13.0m/s | -66.3°C | 19.4% | 0hPa | 2.5V | 00:00:00 | 02:44:19 | 00:00:00 | |
| DO3MHA-12 | 2026-09-04 13:10:31 | 45.71392 | 13.54946 | 140° | 64km/h | 14275m | -14.5m/s | -66.3°C | 18.5% | 0hPa | 2.5V | 00:00:00 | 02:44:17 | 00:00:00 | |
| IW2NTF | 2026-09-04 13:10:30 | 45.71468 | 13.54859 | 142° | 62km/h | 14364m | -14.4m/s | -66.3°C | 16.5% | 0hPa | 2.5V | 08:20:04 | 02:44:11 | 00:00:00 | |
| IN3HCDX | 2026-09-04 13:10:28 | 45.71418 | 13.54916 | 143° | 66km/h | 14305m | -14.6m/s | -66.4°C | 11.1% | 0hPa | 2.5V | 08:20:00 | 00:00:00 | 00:00:00 | |
| OE5DXL-15 | 2026-09-04 13:10:27 | 45.71443 | 13.54887 | 142° | 69km/h | 14334m | -14.4m/s | -66.3°C | 17.0% | 0hPa | 2.5V | 00:00:00 | 00:00:00 | 00:00:00 | |
| OE8JPQ-2 | 2026-09-04 13:10:24 | 45.71480 | 13.54845 | 142° | 60km/h | 14378m | -14.5m/s | -66.2°C | 16.6% | 0hPa | 2.5V | 00:00:00 | 00:00:00 | 00:00:00 | |
| DO3MHA-11 | 2026-09-04 13:10:23 | 45.71493 | 13.54832 | 141° | 60km/h | 14392m | -13.4m/s | -66.1°C | 16.5% | 0hPa | 2.6V | 00:00:00 | 02:44:09 | 00:00:00 | |
| IW2NTF | 2026-09-04 13:10:21 | 45.71587 | 13.54723 | 139° | 58km/h | 14487m | -11.7m/s | -65.2°C | 14.7% | 0hPa | 2.6V | 08:20:14 | 02:44:01 | 00:00:00 | |
| DO3MHA-12 | 2026-09-04 13:10:20 | 45.71528 | 13.54790 | 142° | 60km/h | 14429m | -11.8m/s | -65.6°C | 15.5% | 0hPa | 2.6V | 00:00:00 | 02:44:06 | 00:00:00 | |
| DO3MHA-11 | 2026-09-04 13:10:13 | 45.71610 | 13.54694 | 139° | 62km/h | 14511m | -11.7m/s | -64.8°C | 13.9% | 0hPa | 2.5V | 00:00:00 | 02:43:59 | 00:00:00 | |
| IW2NTF | 2026-09-04 13:10:10 | 45.71702 | 13.54570 | 134° | 64km/h | 14604m | -12m/s | -64.2°C | 12.1% | 0hPa | 2.5V | 08:20:24 | 02:43:51 | 00:00:00 | |
| DO3MHA-12 | 2026-09-04 13:10:09 | 45.71656 | 13.54634 | 137° | 66km/h | 14558m | -11.7m/s | -64.7°C | 13.0% | 0hPa | 2.6V | 00:00:00 | 02:43:55 | 00:00:00 | |
| IN3HCDX | 2026-09-04 13:10:08 | 45.71656 | 13.54634 | 138° | 62km/h | 14558m | -11.8m/s | -64.8°C | 7.4% | 0hPa | 2.6V | 08:21:00 | 00:00:00 | 00:00:00 | |
| OE5DRO-10 | 2026-09-04 13:10:06 | 45.71713 | 13.54554 | 135° | 69km/h | 14616m | -11.6m/s | -63.9°C | 11.7% | 0hPa | 2.6V | 08:20:00 | 00:00:00 | 00:00:00 | |
| OE8JPQ-2 | 2026-09-04 13:10:04 | 45.71713 | 13.54554 | 135° | 69km/h | 14616m | -11.6m/s | -63.9°C | 11.7% | 0hPa | 2.5V | 00:00:00 | 00:00:00 | 00:00:00 | |
| DO3MHA-11 | 2026-09-04 13:10:03 | 45.71725 | 13.54537 | 136° | 68km/h | 14628m | -11.8m/s | -63.8°C | 11.5% | 0hPa | 2.5V | 00:00:00 | 02:43:49 | 00:00:00 | |
| IW2NTF | 2026-09-04 13:10:00 | 45.71829 | 13.54409 | 140° | 71km/h | 14726m | -13.2m/s | -62.7°C | 9.7% | 0hPa | 2.5V | 08:20:34 | 02:43:41 | 00:00:00 | |
| DO3MHA-12 | 2026-09-04 13:09:59 | 45.71775 | 13.54472 | 140° | 71km/h | 14676m | -12.3m/s | -63.2°C | 10.7% | 0hPa | 2.5V | 00:00:00 | 02:43:45 | 00:00:00 | |
| DO3MHA-11 | 2026-09-04 13:09:53 | 45.71857 | 13.54376 | 140° | 71km/h | 14756m | -17.1m/s | -62.7°C | 9.5% | 0hPa | 2.5V | 00:00:00 | 02:43:39 | 00:00:00 | |
| IW2NTF | 2026-09-04 13:09:50 | 45.71966 | 13.54241 | 139° | 69km/h | 14874m | -13.1m/s | -62.3°C | 9% | 0hPa | 2.5V | 08:20:44 | 02:43:31 | 00:00:00 | |
| DO3MHA-12 | 2026-09-04 13:09:49 | 45.71912 | 13.54308 | 139° | 69km/h | 14820m | -15.3m/s | -62.3°C | 9.0% | 0hPa | 2.5V | 08:20:00 | 02:43:35 | 00:00:00 | |
| IN3HCDX | 2026-09-04 13:09:47 | 45.71925 | 13.54291 | 139° | 71km/h | 14835m | -13.9m/s | -62.4°C | 4.6% | 0hPa | 2.6V | 08:21:00 | 00:00:00 | 00:00:00 | |
| OE5DRO-10 | 2026-09-04 13:09:46 | 45.71979 | 13.54225 | 140° | 55km/h | 14887m | -12.7m/s | -62.0°C | 8.7% | 0hPa | 2.6V | 00:00:00 | 00:00:00 | 00:00:00 | |
| OE8JPQ-2 | 2026-09-04 13:09:44 | 45.71979 | 13.54225 | 140° | 62km/h | 14887m | -12.7m/s | -62.0°C | 8.7% | 0hPa | 2.6V | 00:00:00 | 02:43:30 | 00:00:00 | |
| DO3MHA-11 | 2026-09-04 13:09:43 | 45.71992 | 13.54208 | 140° | 68km/h | 14900m | -11.9m/s | -62.0°C | 8.7% | 0hPa | 2.6V | 08:20:00 | 02:43:29 | 00:00:00 | |
| DO3MHA-12 | 2026-09-04 13:09:39 | 45.72046 | 13.54143 | 140° | 62km/h | 14950m | -12.4m/s | -61.9°C | 8.7% | 0hPa | 2.6V | 00:00:00 | 02:43:25 | 00:00:00 | |
| IW2NTF | 2026-09-04 13:09:38 | 45.72097 | 13.54083 | 140° | 64km/h | 15001m | -13.1m/s | -61.6°C | 8.3% | 0hPa | 2.6V | 08:20:54 | 02:43:21 | 00:00:00 | |
| OE5DXL-15 | 2026-09-04 13:09:36 | 45.72085 | 13.54097 | 142° | 49km/h | 14988m | -13.2m/s | -61.6°C | 8.3% | 0hPa | 2.6V | 00:00:00 | 00:00:00 | 00:00:00 | |
| DO3MHA-11 | 2026-09-04 13:09:33 | 45.72121 | 13.54054 | 142° | 55km/h | 15027m | -13.5m/s | -61.6°C | 8.2% | 0hPa | 2.6V | 00:00:00 | 02:43:19 | 00:00:00 | |
| DO3MHA-12 | 2026-09-04 13:09:29 | 45.72166 | 13.54001 | 139° | 51km/h | 15085m | -15.7m/s | -61.6°C | 8.0% | 0hPa | 2.6V | 00:00:00 | 02:43:15 | 00:00:00 | |
| IW2NTF | 2026-09-04 13:09:28 | 45.72205 | 13.53951 | 135° | 51km/h | 15150m | -16.7m/s | -61.3°C | 7.7% | 0hPa | 2.6V | 08:21:04 | 02:43:11 | 00:00:00 | |
| IN3HCDX | 2026-09-04 13:09:27 | 45.72186 | 13.53976 | 138° | 53km/h | 15117m | -16.3m/s | -61.6°C | 3.9% | 0hPa | 2.6V | 08:21:00 | 00:00:00 | 00:00:00 | |
| DO3MHA-11 | 2026-09-04 13:09:23 | 45.72224 | 13.53926 | 138° | 46km/h | 15183m | -16.1m/s | -61.4°C | 7.6% | 0hPa | 2.6V | 00:00:00 | 02:43:09 | 00:00:00 | |
| OE5DRO-10 | 2026-09-04 13:09:22 | 45.72252 | 13.53891 | 139° | 46km/h | 15233m | -16.2m/s | -61.4°C | 7.5% | 0hPa | 2.6V | 00:00:00 | 00:00:00 | 00:00:00 | |
| DO3MHA-12 | 2026-09-04 13:09:19 | 45.72261 | 13.53880 | 144° | 44km/h | 15249m | -17.0m/s | -61.4°C | 7.4% | 0hPa | 2.6V | 00:00:00 | 02:43:05 | 00:00:00 | |
| IW2NTF | 2026-09-04 13:09:18 | 45.72297 | 13.53840 | 142° | 44km/h | 15317m | -17.8m/s | -61.8°C | 7.5% | 0hPa | 2.6V | 08:21:14 | 02:43:01 | 00:00:00 | |
| DO3MHA-11 | 2026-09-04 13:09:13 | 45.72314 | 13.53821 | 143° | 46km/h | 15352m | -17.4m/s | -61.8°C | 7.4% | 0hPa | 2.6V | 00:00:00 | 02:42:59 | 00:00:00 | |
| DO3MHA-12 | 2026-09-04 13:09:09 | 45.72349 | 13.53780 | 141° | 46km/h | 15417m | -13.8m/s | -61.9°C | 7.5% | 0hPa | 2.6V | 00:00:00 | 02:42:55 | 00:00:00 | |
| IW2NTF | 2026-09-04 13:09:07 | 45.72384 | 13.53738 | 140° | 46km/h | 15471m | -14.2m/s | -62.2°C | 7.5% | 0hPa | 2.6V | 08:21:24 | 02:42:51 | 00:00:00 | |
| OE5DXL-15 | 2026-09-04 13:09:06 | 45.72375 | 13.53749 | 141° | 42km/h | 15457m | -13.8m/s | -62.2°C | 7.6% | 0hPa | 2.6V | 00:00:00 | 00:00:00 | 00:00:00 | |
| IN3HCDX | 2026-09-04 13:09:05 | 45.72375 | 13.53749 | 142° | 47km/h | 15457m | -13.9m/s | -62.2°C | 3.5% | 0hPa | 2.6V | 08:21:00 | 00:00:00 | 00:00:00 | |
| OE8JPQ-2 | 2026-09-04 13:09:04 | 45.72393 | 13.53727 | 139° | 44km/h | 15485m | -15.3m/s | -62.1°C | 7.5% | 0hPa | 2.6V | 00:00:00 | 00:00:00 | 00:00:00 | |
| DO3MHA-11 | 2026-09-04 13:09:03 | 45.72401 | 13.53717 | 141° | 44km/h | 15500m | -15.0m/s | -62.2°C | 7.5% | 0hPa | 2.6V | 00:00:00 | 02:42:49 | 00:00:00 | |
| DO3MHA-12 | 2026-09-04 13:08:59 | 45.72437 | 13.53674 | 139° | 42km/h | 15560m | -14.4m/s | -62.3°C | 7.7% | 0hPa | 2.6V | 00:00:00 | 02:42:45 | 00:00:00 | |
| IW2NTF | 2026-09-04 13:08:57 | 45.72470 | 13.53634 | 138° | 40km/h | 15619m | -15.7m/s | -62.5°C | 7.7% | 0hPa | 2.6V | 08:21:34 | 02:42:41 | 00:00:00 | |
| DO3MHA-11 | 2026-09-04 13:08:53 | 45.72485 | 13.53614 | 139° | 44km/h | 15651m | -16.7m/s | -62.6°C | 7.8% | 0hPa | 2.6V | 00:00:00 | 02:42:39 | 00:00:00 | |
| DO3MHA-12 | 2026-09-04 13:08:49 | 45.72517 | 13.53572 | 136° | 42km/h | 15719m | -17.0m/s | -62.5°C | 7.6% | 0hPa | 2.6V | 00:00:00 | 02:42:35 | 00:00:00 | |
| IW2NTF | 2026-09-04 13:08:47 | 45.72552 | 13.53532 | 142° | 46km/h | 15790m | -18.3m/s | -62.7°C | 7.5% | 0hPa | 2.5V | 08:21:44 | 02:42:31 | 00:00:00 | |
| OE8JPQ-2 | 2026-09-04 13:08:44 | 45.72561 | 13.53522 | 145° | 38km/h | 15808m | -18.7m/s | -62.7°C | 7.5% | 0hPa | 2.6V | 00:00:00 | 02:42:30 | 00:00:00 | |
| DO3MHA-11 | 2026-09-04 13:08:43 | 45.72569 | 13.53512 | 142° | 38km/h | 15826m | -18.4m/s | -62.7°C | 7.5% | 0hPa | 2.6V | 00:00:00 | 02:42:29 | 00:00:00 | |
| DO3MHA-12 | 2026-09-04 13:08:39 | 45.72601 | 13.53477 | 144° | 37km/h | 15898m | -17.8m/s | -61.9°C | 6.9% | 0hPa | 2.6V | 00:00:00 | 02:42:25 | 00:00:00 | |
| IW2NTF | 2026-09-04 13:08:37 | 45.72629 | 13.53444 | 136° | 35km/h | 15963m | -16.1m/s | -61.9°C | 7.1% | 0hPa | 2.6V | 08:21:54 | 02:42:21 | 00:00:00 | |
| OE5DXL-15 | 2026-09-04 13:08:36 | 45.72623 | 13.53452 | 138° | 37km/h | 15947m | -16.2m/s | -61.8°C | 7.0% | 0hPa | 2.5V | 00:00:00 | 00:00:00 | 00:00:00 | |
| DO3MHA-11 | 2026-09-04 13:08:33 | 45.72642 | 13.53426 | 136° | 38km/h | 15992m | -14.0m/s | -61.8°C | 7.2% | 0hPa | 2.5V | 00:00:00 | 02:42:19 | 00:00:00 | |
| DO3MHA-12 | 2026-09-04 13:08:29 | 45.72664 | 13.53385 | 125° | 42km/h | 16050m | -16.3m/s | -61.7°C | 7.1% | 0hPa | 2.5V | 00:00:00 | 02:42:15 | 00:00:00 | |
| IW2NTF | 2026-09-04 13:08:27 | 45.72688 | 13.53338 | 127° | 40km/h | 16122m | -19.5m/s | -61.6°C | 7.1% | 0hPa | 2.5V | 08:22:04 | 02:42:11 | 00:00:00 | |
| OE8JPQ-2 | 2026-09-04 13:08:24 | 45.72695 | 13.53325 | 126° | 38km/h | 16142m | -20.1m/s | -61.5°C | 7.1% | 0hPa | 2.6V | 08:22:00 | 00:00:00 | 00:00:00 | |
| DO3MHA-11 | 2026-09-04 13:08:23 | 45.72701 | 13.53312 | 129° | 40km/h | 16162m | -19.6m/s | -61.5°C | 7.2% | 0hPa | 2.5V | 00:00:00 | 02:42:09 | 00:00:00 | |
| DO3MHA-12 | 2026-09-04 13:08:19 | 45.72731 | 13.53264 | 136° | 37km/h | 16249m | -23.9m/s | -61.3°C | 7.0% | 0hPa | 2.5V | 08:22:00 | 02:42:05 | 00:00:00 | |
| IW2NTF | 2026-09-04 13:08:17 | 45.72771 | 13.53205 | 132° | 37km/h | 16393m | -23.9m/s | -61°C | 6.9% | 0hPa | 2.6V | 08:22:16 | 02:41:59 | 00:00:00 | |
| IW2NTF | 2026-09-04 13:08:09 | 45.72816 | 13.53108 | 117° | 26km/h | 16646m | -24.5m/s | -58.7°C | 5.6% | 0hPa | 2.6V | 08:22:26 | 02:41:49 | 00:00:00 | |
| DO3MHA-12 | 2026-09-04 13:08:09 | 45.72791 | 13.53165 | 124° | 29km/h | 16494m | -25.0m/s | -60.2°C | 6.3% | 0hPa | 2.6V | 00:00:00 | 02:41:55 | 00:00:00 | |
| OE5DXL-15 | 2026-09-04 13:08:06 | 45.72804 | 13.53135 | 124° | 27km/h | 16570m | -25.0m/s | -59.9°C | 6.3% | 0hPa | 2.6V | 00:00:00 | 00:00:00 | 00:00:00 | |
| OE8JPQ-2 | 2026-09-04 13:08:04 | 45.72812 | 13.53117 | 122° | 26km/h | 16621m | -25.5m/s | -58.9°C | 5.8% | 0hPa | 2.6V | 00:00:00 | 00:00:00 | 00:00:00 | |
| DO3MHA-11 | 2026-09-04 13:08:03 | 45.72816 | 13.53108 | 118° | 27km/h | 16646m | -24.4m/s | -58.6°C | 5.6% | 0hPa | 2.6V | 00:00:00 | 02:41:49 | 00:00:00 | |
| DO3MHA-12 | 2026-09-04 13:07:59 | 45.72829 | 13.53073 | 121° | 27km/h | 16747m | -25.5m/s | -58.0°C | 5.2% | 0hPa | 2.6V | 00:00:00 | 02:41:45 | 00:00:00 | |
| IW2NTF | 2026-09-04 13:07:57 | 45.72850 | 13.53019 | 125° | 27km/h | 16896m | -25.8m/s | -58.3°C | 5.3% | 0hPa | 2.6V | 08:22:36 | 02:41:39 | 00:00:00 | |
| OE5DRO-10 | 2026-09-04 13:07:55 | 45.72850 | 13.53019 | 126° | 20km/h | 16897m | -25.8m/s | -58.3°C | 5.3% | 0hPa | 2.6V | 00:00:00 | 00:00:00 | 00:00:00 | |
| DO3MHA-11 | 2026-09-04 13:07:53 | 45.72850 | 13.53019 | 126° | 26km/h | 16897m | -25.8m/s | -58.3°C | 5.3% | 0hPa | 2.6V | 00:00:00 | 02:41:39 | 00:00:00 | |
| DO3MHA-12 | 2026-09-04 13:07:49 | 45.72863 | 13.52987 | 118° | 26km/h | 17000m | -25.6m/s | -58.2°C | 5.3% | 0hPa | 2.6V | 00:00:00 | 02:41:35 | 00:00:00 | |
| IW2NTF | 2026-09-04 13:07:46 | 45.72886 | 13.52918 | 120° | 29km/h | 17210m | -28.3m/s | -57.7°C | 4.9% | 0hPa | 2.6V | 08:22:48 | 02:41:27 | 00:00:00 | |
| OE8JPQ-2 | 2026-09-04 13:07:44 | 45.72877 | 13.52945 | 115° | 22km/h | 17131m | -27.0m/s | -57.7°C | 5.0% | 0hPa | 2.6V | 00:00:00 | 02:41:30 | 00:00:00 | |
| DO3MHA-11 | 2026-09-04 13:07:43 | 45.72880 | 13.52937 | 113° | 27km/h | 17157m | -27.2m/s | -57.7°C | 5.0% | 0hPa | 2.6V | 00:00:00 | 02:41:29 | 00:00:00 | |
| DO3MHA-12 | 2026-09-04 13:07:39 | 45.72895 | 13.52902 | 136° | 24km/h | 17265m | -27.7m/s | -57.8°C | 4.9% | 0hPa | 2.6V | 00:00:00 | 02:41:25 | 00:00:00 | |
| IW2NTF | 2026-09-04 13:07:37 | 45.72932 | 13.52853 | 135° | 16km/h | 17481m | -25.7m/s | -58°C | 4.9% | 0hPa | 2.6V | 08:22:58 | 02:41:17 | 00:00:00 | |
| OE5DXL-15 | 2026-09-04 13:07:36 | 45.72910 | 13.52881 | 137° | 22km/h | 17348m | -27.2m/s | -57.9°C | 4.9% | 0hPa | 2.6V | 00:00:00 | 00:00:00 | 00:00:00 | |
| DO3MHA-11 | 2026-09-04 13:07:33 | 45.72924 | 13.52861 | 148° | 18km/h | 17430m | -26.5m/s | -58.3°C | 5.1% | 0hPa | 2.6V | 00:00:00 | 02:41:19 | 00:00:00 | |
| DO3MHA-12 | 2026-09-04 13:07:28 | 45.72939 | 13.52840 | 123° | 22km/h | 17560m | -27.4m/s | -57.9°C | 4.9% | 0hPa | 2.6V | 00:00:00 | 02:41:14 | 00:00:00 | |
| IW2NTF | 2026-09-04 13:07:26 | 45.72939 | 13.52790 | 79° | 22km/h | 17757m | -26.9m/s | -59°C | 5.3% | 0hPa | 2.6V | 08:23:08 | 02:41:07 | 00:00:00 | |
| OE8JPQ-2 | 2026-09-04 13:07:24 | 45.72941 | 13.52815 | 82° | 24km/h | 17674m | -28.0m/s | -58.4°C | 5.0% | 0hPa | 2.6V | 00:00:00 | 00:00:00 | 00:00:00 | |
| DO3MHA-11 | 2026-09-04 13:07:23 | 45.72940 | 13.52807 | 79° | 24km/h | 17703m | -28.5m/s | -58.5°C | 5.1% | 0hPa | 2.6V | 00:00:00 | 02:41:09 | 00:00:00 | |
| NBG1-10 | 2026-09-04 13:07:19 | 45.72936 | 13.52774 | 74° | 27km/h | 17809m | -25.9m/s | -59.2°C | 5.5% | 0hPa | 2.6V | 00:00:00 | 02:41:05 | 00:00:00 | |
| IW2NTF | 2026-09-04 13:07:16 | 45.72935 | 13.52708 | 99° | 20km/h | 18031m | -27.8m/s | -59.4°C | 5.6% | 0hPa | 2.6V | 08:23:18 | 02:40:57 | 00:00:00 | |
| DO3MHA-12 | 2026-09-04 13:07:14 | 45.72932 | 13.52731 | 99° | 22km/h | 17946m | -28.5m/s | -59.5°C | 5.6% | 0hPa | 2.6V | 00:00:00 | 02:41:00 | 00:00:00 | |
| DO3MHA-11 | 2026-09-04 13:07:13 | 45.72933 | 13.52723 | 103° | 22km/h | 17975m | -29.1m/s | -59.4°C | 5.6% | 0hPa | 2.6V | 00:00:00 | 02:40:59 | 00:00:00 | |
| IW2NTF | 2026-09-04 13:07:06 | 45.72944 | 13.52624 | 96° | 27km/h | 18320m | -29.1m/s | -58.2°C | 5.1% | 0hPa | 2.6V | 08:23:28 | 02:40:47 | 00:00:00 | |
| OE5DXL-15 | 2026-09-04 13:07:06 | 45.72941 | 13.52669 | 100° | 31km/h | 18173m | -28.4m/s | -59.1°C | 5.6% | 0hPa | 2.6V | 00:00:00 | 00:00:00 | 00:00:00 | |
| DO3MHA-12 | 2026-09-04 13:07:04 | 45.72942 | 13.52652 | 93° | 26km/h | 18232m | -30.1m/s | -58.8°C | 5.4% | 0hPa | 2.6V | 00:00:00 | 02:40:50 | 00:00:00 | |
| DO3MHA-11 | 2026-09-04 13:07:03 | 45.72943 | 13.52643 | 98° | 27km/h | 18261m | -29.3m/s | -58.6°C | 5.4% | 0hPa | 2.6V | 00:00:00 | 02:40:49 | 00:00:00 | |
| IW2NTF | 2026-09-04 13:06:56 | 45.72955 | 13.52527 | 106° | 31km/h | 18608m | -29.3m/s | -58°C | 5.2% | 0hPa | 2.6V | 08:23:38 | 02:40:37 | 00:00:00 | |
| DO3MHA-12 | 2026-09-04 13:06:54 | 45.72949 | 13.52559 | 103° | 31km/h | 18524m | -27.2m/s | -58.7°C | 5.5% | 0hPa | 2.6V | 00:00:00 | 02:40:40 | 00:00:00 | |
| DO3MHA-11 | 2026-09-04 13:06:53 | 45.72951 | 13.52548 | 103° | 31km/h | 18552m | -28.5m/s | -58.6°C | 5.5% | 0hPa | 2.6V | 00:00:00 | 02:40:39 | 00:00:00 | |
| 9A1FER-3 | 2026-09-04 13:06:50 | 45.72957 | 13.52517 | 110° | 35km/h | 18638m | -29.0m/s | -57.6°C | 5.0% | 0hPa | 2.6V | 08:23:00 | 02:40:36 | 00:00:00 | |
| IW2NTF | 2026-09-04 13:06:46 | 45.72989 | 13.52419 | 125° | 38km/h | 18896m | -28.3m/s | -57.8°C | 5.2% | 0hPa | 2.6V | 08:23:48 | 02:40:27 | 00:00:00 | |
| OE8JPQ-2 | 2026-09-04 13:06:44 | 45.72974 | 13.52454 | 118° | 31km/h | 18810m | -28.7m/s | -57.5°C | 5.0% | 0hPa | 2.6V | 00:00:00 | 02:40:30 | 00:00:00 | |
| DO3MHA-11 | 2026-09-04 13:06:43 | 45.72979 | 13.52442 | 121° | 38km/h | 18839m | -28.7m/s | -57.5°C | 5.0% | 0hPa | 2.6V | 08:23:00 | 02:40:29 | 00:00:00 | |
| DO3MHA-12 | 2026-09-04 13:06:42 | 45.72983 | 13.52430 | 123° | 40km/h | 18867m | -28.5m/s | -57.6°C | 5.1% | 0hPa | 2.6V | 08:23:00 | 02:40:28 | 00:00:00 | |
| IW2NTF | 2026-09-04 13:06:36 | 45.73046 | 13.52324 | 145° | 27km/h | 19175m | -28.6m/s | -56.9°C | 5% | 0hPa | 2.6V | 08:23:58 | 02:40:17 | 00:00:00 | |
| OE5DXL-15 | 2026-09-04 13:06:36 | 45.73019 | 13.52364 | 129° | 16km/h | 19041m | -26.7m/s | -57.1°C | 5.2% | 0hPa | 2.6V | 00:00:00 | 00:00:00 | 00:00:00 | |
| DO3MHA-11 | 2026-09-04 13:06:33 | 45.73035 | 13.52337 | 137° | 18km/h | 19120m | -26.8m/s | -56.8°C | 5.0% | 0hPa | 2.6V | 00:00:00 | 02:40:19 | 00:00:00 | |
| 9A1FER-3 | 2026-09-04 13:06:32 | 45.73041 | 13.52330 | 145° | 11km/h | 19147m | -28.2m/s | -56.8°C | 5.1% | 0hPa | 2.6V | 00:00:00 | 02:40:18 | 00:00:00 | |
| IN3HCDX | 2026-09-04 13:06:27 | 45.73062 | 13.52310 | 146° | 22km/h | 19262m | -29.8m/s | -57.0°C | 1.6% | 0hPa | 2.6V | 08:24:00 | 00:00:00 | 00:00:00 | |
| IW2NTF | 2026-09-04 13:06:24 | 45.73093 | 13.52302 | 174° | 16km/h | 19478m | -30.9m/s | -55.5°C | 4.4% | 0hPa | 2.6V | 08:24:08 | 02:40:07 | 00:00:00 | |
| OE8JPQ-2 | 2026-09-04 13:06:24 | 45.73080 | 13.52302 | 176° | 11km/h | 19386m | -30.7m/s | -55.5°C | 4.4% | 0hPa | 2.6V | 00:00:00 | 00:00:00 | 00:00:00 | |
| IW2NTF | 2026-09-04 13:06:16 | 45.73112 | 13.52311 | 299° | 7km/h | 19785m | -31.5m/s | -54.6°C | 3.9% | 0hPa | 2.7V | 08:24:18 | 02:39:57 | 00:00:00 | |
| NBG1-10 | 2026-09-04 13:06:11 | 45.73112 | 13.52311 | 300° | 11km/h | 19785m | -31.4m/s | -54.6°C | 3.9% | 0hPa | 2.6V | 00:00:00 | 02:39:57 | 00:00:00 | |
| 9A1FER-3 | 2026-09-04 13:06:10 | 45.73111 | 13.52313 | 320° | 7km/h | 19816m | -31.2m/s | -54.8°C | 4.0% | 0hPa | 2.6V | 00:00:00 | 02:39:56 | 00:00:00 | |
| OE5DXL-15 | 2026-09-04 13:06:06 | 45.73105 | 13.52319 | 342° | 11km/h | 19935m | -29.5m/s | -55.4°C | 4.3% | 0hPa | 2.6V | 08:24:00 | 00:00:00 | 00:00:00 | |
| IN3HCDX | 2026-09-04 13:06:05 | 45.73104 | 13.52319 | 343° | 9km/h | 19935m | -29.5m/s | -55.5°C | 1.3% | 0hPa | 2.6V | 08:24:00 | 00:00:00 | 00:00:00 | |
| IW2NTF | 2026-09-04 13:06:04 | 45.73094 | 13.52330 | 339° | 7km/h | 20089m | -30.5m/s | -56.6°C | 4.8% | 0hPa | 2.6V | 08:24:28 | 02:39:47 | 00:00:00 | |
| OE8JPQ-2 | 2026-09-04 13:06:04 | 45.73100 | 13.52322 | 322° | 7km/h | 19995m | -31.2m/s | -55.8°C | 4.3% | 0hPa | 2.6V | 00:00:00 | 00:00:00 | 00:00:00 | |
| IW2NTF | 2026-09-04 13:05:54 | 45.73095 | 13.52331 | 89° | 7km/h | 20381m | -28.5m/s | -56.8°C | 5% | 0hPa | 2.6V | 08:24:38 | 02:39:37 | 00:00:00 | |
| DO3MHA-11 | 2026-09-04 13:05:50 | 45.73095 | 13.52328 | 102° | 15km/h | 20410m | -28.5m/s | -56.9°C | 5.2% | 0hPa | 2.6V | 00:00:00 | 02:39:36 | 00:00:00 | |
| OE5DRO-10 | 2026-09-04 13:05:49 | 45.73101 | 13.52311 | 125° | 5km/h | 20522m | -28.2m/s | -56.2°C | 4.8% | 0hPa | 2.6V | 00:00:00 | 00:00:00 | 00:00:00 | |
| IN3HCDX | 2026-09-04 13:05:45 | 45.73101 | 13.52311 | 125° | 16km/h | 20522m | -28.3m/s | -56.2°C | 1.4% | 0hPa | 2.7V | 00:00:00 | 00:00:00 | 00:00:00 | |
| OE8JPQ-2 | 2026-09-04 13:05:44 | 45.73105 | 13.52301 | 124° | 13km/h | 20577m | -26.8m/s | -56.5°C | 5.1% | 0hPa | 2.7V | 00:00:00 | 02:39:30 | 00:00:00 | |
| IW2NTF | 2026-09-04 13:05:43 | 45.73116 | 13.52285 | 143° | 20km/h | 20657m | -26.6m/s | -55.5°C | 4.6% | 0hPa | 2.7V | 08:24:48 | 02:39:27 | 00:00:00 | |
| 9A1FER-3 | 2026-09-04 13:05:42 | 45.73112 | 13.52290 | 139° | 15km/h | 20631m | -26.6m/s | -56.0°C | 4.9% | 0hPa | 2.6V | 00:00:00 | 02:39:28 | 00:00:00 | |
| DO3MHA-11 | 2026-09-04 13:05:40 | 45.73120 | 13.52282 | 163° | 9km/h | 20685m | -27.7m/s | -55.0°C | 4.4% | 0hPa | 2.6V | 00:00:00 | 02:39:26 | 00:00:00 | |
| NBG1-10 | 2026-09-04 13:05:38 | 45.73129 | 13.52280 | 178° | 18km/h | 20741m | -28.8m/s | -54.8°C | 4.3% | 0hPa | 2.6V | 00:00:00 | 02:39:24 | 00:00:00 | |
| OE5DXL-15 | 2026-09-04 13:05:36 | 45.73138 | 13.52280 | 180° | 5km/h | 20798m | -29.3m/s | -54.8°C | 4.3% | 0hPa | 2.6V | 00:00:00 | 00:00:00 | 00:00:00 | |
| IW2NTF | 2026-09-04 13:05:33 | 45.73154 | 13.52280 | 184° | 9km/h | 20952m | -31.5m/s | -54.3°C | 4.2% | 0hPa | 2.6V | 08:24:58 | 02:39:17 | 00:00:00 | |
| 9A1FER-3 | 2026-09-04 13:05:27 | 45.73162 | 13.52279 | 139° | 4km/h | 21075m | -31.9m/s | -54.2°C | 4.1% | 0hPa | 2.6V | 00:00:00 | 02:39:13 | 00:00:00 | |
| IN3HCDX | 2026-09-04 13:05:25 | 45.73162 | 13.52277 | 0° | 0km/h | 21138m | -30.7m/s | -54.6°C | 1.3% | 0hPa | 2.6V | 00:00:00 | 00:00:00 | 00:00:00 | |
| OE8JPQ-2 | 2026-09-04 13:05:24 | 45.73162 | 13.52277 | 96° | 4km/h | 21168m | -30.9m/s | -54.7°C | 4.3% | 0hPa | 2.6V | 08:25:00 | 00:00:00 | 00:00:00 | |
| IW2NTF | 2026-09-04 13:05:23 | 45.73162 | 13.52273 | 82° | 7km/h | 21262m | -32.6m/s | -54.9°C | 4.4% | 0hPa | 2.6V | 08:25:08 | 02:39:07 | 00:00:00 | |
| OE5DRO-10 | 2026-09-04 13:05:17 | 45.73160 | 13.52261 | 104° | 4km/h | 21464m | -32.2m/s | -54.7°C | 4.4% | 0hPa | 2.6V | 00:00:00 | 00:00:00 | 00:00:00 | |
| DO3MHA-11 | 2026-09-04 13:05:15 | 45.73160 | 13.52261 | 104° | 4km/h | 21464m | -32.2m/s | -54.7°C | 4.4% | 0hPa | 2.6V | 00:00:00 | 02:39:01 | 00:00:00 | |
| 9A1FER-3 | 2026-09-04 13:05:12 | 45.73160 | 13.52259 | 211° | 5km/h | 21556m | -29.2m/s | -54.6°C | 4.5% | 0hPa | 2.6V | 00:00:00 | 02:38:58 | 00:00:00 | |
| DO3MHA-12 | 2026-09-04 13:05:10 | 45.73161 | 13.52257 | 93° | 5km/h | 21616m | -30.9m/s | -54.1°C | 4.2% | 0hPa | 2.6V | 00:00:00 | 02:38:56 | 00:00:00 | |
| OE5DXL-15 | 2026-09-04 13:05:06 | 45.73164 | 13.52254 | 144° | 16km/h | 21744m | -31.8m/s | -54.1°C | 4.3% | 0hPa | 2.6V | 00:00:00 | 02:38:52 | 00:00:00 | |
| OE8JPQ-2 | 2026-09-04 13:05:04 | 45.73165 | 13.52251 | 113° | 16km/h | 21808m | -32.5m/s | -53.8°C | 4.1% | 0hPa | 2.6V | 00:00:00 | 00:00:00 | 00:00:00 | |
| IN3HCDX | 2026-09-04 13:05:03 | 45.73165 | 13.52251 | 113° | 5km/h | 21808m | -32.5m/s | -53.8°C | 1.2% | 0hPa | 2.6V | 08:26:00 | 00:00:00 | 00:00:00 | |
| IW2NTF | 2026-09-04 13:05:02 | 45.73151 | 13.52246 | 347° | 20km/h | 22043m | -34.9m/s | -53.5°C | 4% | 0hPa | 2.6V | 08:25:32 | 02:38:43 | 00:00:00 | |
| DO3MHA-11 | 2026-09-04 13:05:02 | 45.73166 | 13.52248 | 16° | 15km/h | 21873m | -33.0m/s | -53.7°C | 4.1% | 0hPa | 2.6V | 00:00:00 | 02:38:48 | 00:00:00 | |
| DO3MHA-12 | 2026-09-04 13:05:00 | 45.73163 | 13.52246 | 21° | 20km/h | 21940m | -34.2m/s | -53.7°C | 4.0% | 0hPa | 2.6V | 00:00:00 | 02:38:46 | 00:00:00 | |
| 9A1FER-3 | 2026-09-04 13:04:57 | 45.73151 | 13.52246 | 348° | 20km/h | 22043m | -34.9m/s | -53.5°C | 4.0% | 0hPa | 2.6V | 00:00:00 | 02:38:43 | 00:00:00 | |
| NBG1-10 | 2026-09-04 13:04:55 | 45.73141 | 13.52248 | 354° | 15km/h | 22112m | -34.3m/s | -53.2°C | 4.0% | 0hPa | 2.7V | 00:00:00 | 02:38:41 | 00:00:00 | |
| DO3MHA-11 | 2026-09-04 13:04:52 | 45.73123 | 13.52249 | 1° | 20km/h | 22214m | -34.2m/s | -52.8°C | 3.8% | 0hPa | 2.6V | 00:00:00 | 02:38:38 | 00:00:00 | |
| DO3MHA-12 | 2026-09-04 13:04:50 | 45.73112 | 13.52248 | 3° | 20km/h | 22281m | -33.7m/s | -53.1°C | 3.9% | 0hPa | 2.6V | 00:00:00 | 02:38:36 | 00:00:00 | |
| IW2NTF | 2026-09-04 13:04:46 | 45.73087 | 13.52242 | 7° | 18km/h | 22449m | -33.7m/s | -53.8°C | 4.1% | 0hPa | 2.6V | 08:25:44 | 02:38:31 | 00:00:00 | |
| OE8JPQ-2 | 2026-09-04 13:04:44 | 45.73082 | 13.52240 | 12° | 13km/h | 22484m | -33.7m/s | -53.8°C | 4.1% | 0hPa | 2.6V | 00:00:00 | 02:38:30 | 00:00:00 | |
| IN3HCDX | 2026-09-04 13:04:43 | 45.73078 | 13.52238 | 21° | 18km/h | 22518m | -34.6m/s | -53.9°C | 1.2% | 0hPa | 2.6V | 08:26:00 | 00:00:00 | 00:00:00 | |
| 9A1FER-3 | 2026-09-04 13:04:42 | 45.73073 | 13.52236 | 19° | 15km/h | 22552m | -33.7m/s | -53.8°C | 4.2% | 0hPa | 2.6V | 00:00:00 | 02:38:28 | 00:00:00 | |
| IW2NTF | 2026-09-04 13:04:40 | 45.73050 | 13.52214 | 67° | 15km/h | 22784m | -33.1m/s | -53.6°C | 4.3% | 0hPa | 2.6V | 08:25:54 | 02:38:21 | 00:00:00 | |
| DO3MHA-12 | 2026-09-04 13:04:40 | 45.73064 | 13.52232 | 31° | 15km/h | 22619m | -33.6m/s | -53.9°C | 4.3% | 0hPa | 2.6V | 00:00:00 | 02:38:26 | 00:00:00 | |
| OE5DRO-10 | 2026-09-04 13:04:39 | 45.73057 | 13.52225 | 28° | 13km/h | 22685m | -32.0m/s | -53.7°C | 4.2% | 0hPa | 2.6V | 08:25:00 | 00:00:00 | 00:00:00 | |
| OE5DXL-15 | 2026-09-04 13:04:36 | 45.73051 | 13.52218 | 58° | 7km/h | 22752m | -33.1m/s | -53.6°C | 4.2% | 0hPa | 2.7V | 00:00:00 | 00:00:00 | 00:00:00 | |
| DO3MHA-11 | 2026-09-04 13:04:31 | 45.73048 | 13.52197 | 102° | 7km/h | 22924m | -37.3m/s | -53.0°C | 4.0% | 0hPa | 2.6V | 08:25:00 | 02:38:17 | 00:00:00 | |
| DO3MHA-12 | 2026-09-04 13:04:30 | 45.73049 | 13.52192 | 109° | 5km/h | 22961m | -36.7m/s | -52.9°C | 4.0% | 0hPa | 2.6V | 00:00:00 | 02:38:16 | 00:00:00 | |
| IW2NTF | 2026-09-04 13:04:27 | 45.73055 | 13.52182 | 153° | 5km/h | 23148m | -37.3m/s | -53.5°C | 4.3% | 0hPa | 2.6V | 08:26:04 | 02:38:11 | 00:00:00 | |
| 9A1FER-3 | 2026-09-04 13:04:27 | 45.73053 | 13.52185 | 122° | 5km/h | 23072m | -37.4m/s | -53.1°C | 4.1% | 0hPa | 2.6V | 00:00:00 | 02:38:13 | 00:00:00 | |
| OE8JPQ-2 | 2026-09-04 13:04:24 | 45.73056 | 13.52182 | 88° | 7km/h | 23185m | -36.5m/s | -53.6°C | 4.3% | 0hPa | 2.6V | 00:00:00 | 00:00:00 | 00:00:00 | |
| NBG1-10 | 2026-09-04 13:04:22 | 45.73056 | 13.52180 | 94° | 9km/h | 23259m | -38.0m/s | -53.5°C | 4.4% | 0hPa | 2.7V | 00:00:00 | 02:38:08 | 00:00:00 | |
| DO3MHA-11 | 2026-09-04 13:04:21 | 45.73057 | 13.52179 | 74° | 5km/h | 23297m | -37.5m/s | -53.5°C | 4.4% | 0hPa | 2.7V | 00:00:00 | 02:38:07 | 00:00:00 | |
| DO3MHA-12 | 2026-09-04 13:04:20 | 45.73056 | 13.52179 | 331° | 5km/h | 23336m | -39.1m/s | -53.2°C | 4.2% | 0hPa | 2.7V | 00:00:00 | 02:38:06 | 00:00:00 | |
| IV3AMH | 2026-09-04 13:04:18 | 45.73056 | 13.52179 | 0° | 0km/h | 23375m | -39.8m/s | -52.9°C | 1.0% | 0hPa | 2.7V | 00:00:00 | 00:00:00 | 00:00:00 | |
| IW2NTF | 2026-09-04 13:04:17 | 45.73062 | 13.52179 | 213° | 9km/h | 23568m | -37.2m/s | -52°C | 3.8% | 0hPa | 2.7V | 08:26:15 | 02:38:00 | 00:00:00 | |
| IN3HCDX1 | 2026-09-04 13:04:16 | 45.73057 | 13.52179 | 157° | 2km/h | 23454m | -39.1m/s | -52.3°C | 1.1% | 0hPa | 2.7V | 08:27:00 | 00:00:00 | 00:00:00 | |
| 9A1FER-10 | 2026-09-04 13:04:13 | 45.73064 | 13.52181 | 235° | 13km/h | 23606m | -36.2m/s | -51.8°C | 3.7% | 0hPa | 2.7V | 00:00:00 | 02:37:59 | 00:00:00 | |
| DO3MHA-11 | 2026-09-04 13:04:11 | 45.73066 | 13.52185 | 229° | 13km/h | 23676m | -34.2m/s | -51.7°C | 3.7% | 0hPa | 2.7V | 00:00:00 | 02:37:57 | 00:00:00 | |
| DO3MHA-12 | 2026-09-04 13:04:10 | 45.73067 | 13.52187 | 241° | 11km/h | 23711m | -35.8m/s | -51.6°C | 3.7% | 0hPa | 2.7V | 00:00:00 | 02:37:56 | 00:00:00 | |
| IW2NTF | 2026-09-04 13:04:07 | 45.73070 | 13.52216 | 265° | 18km/h | 23920m | -34.3m/s | -51.3°C | 3.7% | 0hPa | 2.7V | 08:26:25 | 02:37:50 | 00:00:00 | |
| OE5DXL-15 | 2026-09-04 13:04:06 | 45.73069 | 13.52205 | 265° | 11km/h | 23852m | -33.1m/s | -51.5°C | 3.7% | 0hPa | 2.7V | 00:00:00 | 00:00:00 | 00:00:00 | |
| OE8JPQ-2 | 2026-09-04 13:04:04 | 45.73070 | 13.52216 | 266° | 13km/h | 23920m | -34.2m/s | -51.3°C | 3.7% | 0hPa | 2.7V | 00:00:00 | 00:00:00 | 00:00:00 | |
| IN3HCDX | 2026-09-04 13:04:01 | 45.73069 | 13.52231 | 291° | 11km/h | 24025m | -35.6m/s | -51.4°C | 1.0% | 0hPa | 2.7V | 00:00:00 | 00:00:00 | 00:00:00 | |
| IW2NTF | 2026-09-04 13:03:58 | 45.73051 | 13.52252 | 355° | 13km/h | 24283m | -38.6m/s | -51.7°C | 3.8% | 0hPa | 2.7V | 08:26:35 | 02:37:40 | 00:00:00 | |
| IN3HCDX1 | 2026-09-04 13:03:56 | 45.73058 | 13.52251 | 327° | 13km/h | 24207m | -37.7m/s | -51.6°C | 1.0% | 0hPa | 2.6V | 08:27:00 | 00:00:00 | 00:00:00 | |
| 9A1FER-3 | 2026-09-04 13:03:55 | 45.73055 | 13.52252 | 352° | 11km/h | 24245m | -38.1m/s | -51.7°C | 3.9% | 0hPa | 2.6V | 00:00:00 | 02:37:41 | 00:00:00 | |
| DO3MHA-11 | 2026-09-04 13:03:51 | 45.73043 | 13.52252 | 14° | 11km/h | 24401m | -38.9m/s | -51.7°C | 3.9% | 0hPa | 2.6V | 00:00:00 | 02:37:37 | 00:00:00 | |
| IW2NTF | 2026-09-04 13:03:47 | 45.73042 | 13.52228 | 114° | 15km/h | 24678m | -40.1m/s | -51.2°C | 3.8% | 0hPa | 2.6V | 08:26:45 | 02:37:30 | 00:00:00 | |
| OE8JPQ-2 | 2026-09-04 13:03:44 | 45.73041 | 13.52228 | 115° | 9km/h | 24678m | -40.1m/s | -51.1°C | 3.8% | 0hPa | 2.6V | 00:00:00 | 02:37:30 | 00:00:00 | |
| 9A1FER-10 | 2026-09-04 13:03:43 | 45.73043 | 13.52225 | 124° | 7km/h | 24718m | -39.9m/s | -51.1°C | 3.8% | 0hPa | 2.6V | 00:00:00 | 02:37:29 | 00:00:00 | |
| IN3HCDX | 2026-09-04 13:03:41 | 45.73046 | 13.52219 | 128° | 7km/h | 24797m | -39.5m/s | -51.2°C | 1.0% | 0hPa | 2.7V | 00:00:00 | 00:00:00 | 00:00:00 | |
| 9A1FER-3 | 2026-09-04 13:03:40 | 45.73047 | 13.52216 | 115° | 7km/h | 24837m | -40.0m/s | -51.0°C | 3.9% | 0hPa | 2.7V | 00:00:00 | 02:37:26 | 00:00:00 | |
| IW2NTF | 2026-09-04 13:03:38 | 45.73052 | 13.52204 | 109° | 9km/h | 25083m | -42m/s | -50.1°C | 3.6% | 0hPa | 2.7V | 08:26:55 | 02:37:20 | 00:00:00 | |
| DO3MHA-12 | 2026-09-04 13:03:37 | 45.73050 | 13.52211 | 131° | 11km/h | 24959m | -41.5m/s | -50.3°C | 3.7% | 0hPa | 2.6V | 00:00:00 | 02:37:23 | 00:00:00 | |
| OE5DXL-15 | 2026-09-04 13:03:36 | 45.73051 | 13.52209 | 113° | 9km/h | 25001m | -41.1m/s | -50.2°C | 3.7% | 0hPa | 2.6V | 00:00:00 | 00:00:00 | 00:00:00 | |
| IN3HCDX1 | 2026-09-04 13:03:34 | 45.73051 | 13.52206 | 109° | 7km/h | 25042m | -41.6m/s | -50.2°C | 1.0% | 0hPa | 2.6V | 08:27:00 | 00:00:00 | 00:00:00 | |
| DO3MHA-11 | 2026-09-04 13:03:31 | 45.73055 | 13.52194 | 110° | 9km/h | 25212m | -42.5m/s | -49.9°C | 3.6% | 0hPa | 2.6V | 00:00:00 | 02:37:17 | 00:00:00 | |
| 9A1FER-10 | 2026-09-04 13:03:28 | 45.73059 | 13.52184 | 126° | 9km/h | 25334m | -40.2m/s | -49.7°C | 3.6% | 0hPa | 2.7V | 00:00:00 | 02:37:14 | 00:00:00 | |
| IW2NTF | 2026-09-04 13:03:27 | 45.73070 | 13.52173 | 159° | 11km/h | 25487m | -35.8m/s | -49.5°C | 3.6% | 0hPa | 2.7V | 08:27:05 | 02:37:10 | 00:00:00 | |
| DO3MHA-12 | 2026-09-04 13:03:26 | 45.73064 | 13.52176 | 144° | 7km/h | 25412m | -39.3m/s | -49.6°C | 3.6% | 0hPa | 2.6V | 08:27:00 | 02:37:12 | 00:00:00 | |
| 9A1FER-3 | 2026-09-04 13:03:25 | 45.73067 | 13.52174 | 173° | 7km/h | 25450m | -37.6m/s | -49.5°C | 3.6% | 0hPa | 2.6V | 00:00:00 | 02:37:11 | 00:00:00 | |
| OE5DRO-10 | 2026-09-04 13:03:24 | 45.73073 | 13.52171 | 75° | 7km/h | 25593m | -34.6m/s | -49.0°C | 3.5% | 0hPa | 2.6V | 00:00:00 | 00:00:00 | 00:00:00 | |
| DO3MHA-11 | 2026-09-04 13:03:21 | 45.73073 | 13.52171 | 75° | 5km/h | 25593m | -34.6m/s | -49.0°C | 3.5% | 0hPa | 2.6V | 00:00:00 | 02:37:07 | 00:00:00 | |
| IW2NTF | 2026-09-04 13:03:17 | 45.73066 | 13.52156 | 75° | 7km/h | 25835m | -32.8m/s | -47.4°C | 3% | 0hPa | 2.6V | 08:27:15 | 02:37:00 | 00:00:00 | |
| DO3MHA-12 | 2026-09-04 13:03:16 | 45.73068 | 13.52162 | 62° | 9km/h | 25768m | -34.3m/s | -47.6°C | 3.1% | 0hPa | 2.7V | 00:00:00 | 02:37:02 | 00:00:00 | |
| IN3HCDX1 | 2026-09-04 13:03:13 | 45.73066 | 13.52156 | 76° | 7km/h | 25835m | -32.8m/s | -47.4°C | 0.8% | 0hPa | 2.7V | 08:27:00 | 00:00:00 | 00:00:00 | |
| DB0UT-7 | 2026-09-04 13:03:12 | 45.73066 | 13.52151 | 119° | 9km/h | 25900m | -32.6m/s | -47.1°C | 2.9% | 0hPa | 2.7V | 00:00:00 | 00:00:00 | 00:00:00 | |
| DO3MHA-11 | 2026-09-04 13:03:11 | 45.73067 | 13.52150 | 149° | 7km/h | 25932m | -31.2m/s | -47.1°C | 2.9% | 0hPa | 2.7V | 00:00:00 | 02:36:57 | 00:00:00 | |
| IW2NTF | 2026-09-04 13:03:08 | 45.73077 | 13.52157 | 253° | 11km/h | 26180m | -38.5m/s | -48.1°C | 3.2% | 0hPa | 2.7V | 08:27:25 | 02:36:50 | 00:00:00 | |
| DO3MHA-12 | 2026-09-04 13:03:06 | 45.73076 | 13.52151 | 241° | 16km/h | 26104m | -37.1m/s | -47.8°C | 3.1% | 0hPa | 2.6V | 00:00:00 | 02:36:52 | 00:00:00 | |
| PETON7-10 | 2026-09-04 13:03:05 | 45.73077 | 13.52154 | 252° | 11km/h | 26141m | -38.4m/s | -47.9°C | 3.1% | 0hPa | 2.6V | 00:00:00 | 02:36:51 | 00:00:00 | |
| OE8JPQ-2 | 2026-09-04 13:03:04 | 45.73077 | 13.52157 | 254° | 11km/h | 26180m | -38.4m/s | -48.1°C | 3.2% | 0hPa | 2.6V | 00:00:00 | 00:00:00 | 00:00:00 | |
| 9A1FER-10 | 2026-09-04 13:03:03 | 45.73078 | 13.52160 | 263° | 11km/h | 26218m | -38.1m/s | -48.2°C | 3.2% | 0hPa | 2.6V | 00:00:00 | 02:36:49 | 00:00:00 | |
| DO3MHA-11 | 2026-09-04 13:03:01 | 45.73077 | 13.52161 | 38° | 11km/h | 26295m | -39.2m/s | -48.4°C | 3.3% | 0hPa | 2.6V | 08:27:00 | 02:36:47 | 00:00:00 | |
| IW2NTF | 2026-09-04 13:02:57 | 45.73063 | 13.52142 | 64° | 13km/h | 26562m | -37.7m/s | -48.2°C | 3.3% | 0hPa | 2.6V | 08:27:35 | 02:36:40 | 00:00:00 | |
| 9A1FER-3 | 2026-09-04 13:02:53 | 45.73061 | 13.52138 | 73° | 11km/h | 26599m | -36.5m/s | -48.0°C | 3.3% | 0hPa | 2.7V | 00:00:00 | 02:36:39 | 00:00:00 | |
| DO3MHA-11 | 2026-09-04 13:02:51 | 45.73061 | 13.52130 | 115° | 13km/h | 26673m | -38.3m/s | -47.7°C | 3.2% | 0hPa | 2.7V | 00:00:00 | 02:36:37 | 00:00:00 | |
| PETON7-10 | 2026-09-04 13:02:50 | 45.73063 | 13.52125 | 116° | 11km/h | 26711m | -38.1m/s | -47.7°C | 3.2% | 0hPa | 2.7V | 08:27:00 | 00:00:00 | 00:00:00 | |
| 9A1FER-10 | 2026-09-04 13:02:49 | 45.73066 | 13.52115 | 110° | 11km/h | 26787m | -38.7m/s | -47.7°C | 3.2% | 0hPa | 2.6V | 08:27:00 | 02:36:34 | 00:00:00 | |
| IW2NTF | 2026-09-04 13:02:47 | 45.73068 | 13.52103 | 88° | 5km/h | 26946m | -41.1m/s | -47.8°C | 3.3% | 0hPa | 2.7V | 08:27:45 | 02:36:30 | 00:00:00 | |
| OE8JPQ-2 | 2026-09-04 13:02:44 | 45.73068 | 13.52103 | 89° | 9km/h | 26946m | -41.1m/s | -47.7°C | 3.3% | 0hPa | 2.7V | 00:00:00 | 02:36:30 | 00:00:00 | |
| NBG1-10 | 2026-09-04 13:02:43 | 45.73068 | 13.52100 | 83° | 11km/h | 26987m | -42.0m/s | -47.7°C | 3.2% | 0hPa | 2.7V | 08:27:00 | 02:36:29 | 00:00:00 | |
| DB0UT-7 | 2026-09-04 13:02:42 | 45.73067 | 13.52097 | 66° | 15km/h | 27030m | -43.4m/s | -47.7°C | 3.3% | 0hPa | 2.7V | 00:00:00 | 02:36:28 | 00:00:00 | |
| DO3MHA-11 | 2026-09-04 13:02:41 | 45.73067 | 13.52095 | 106° | 18km/h | 27073m | -41.9m/s | -47.7°C | 3.3% | 0hPa | 2.7V | 00:00:00 | 02:36:27 | 00:00:00 | |
| 9A1FER-3 | 2026-09-04 13:02:38 | 45.73068 | 13.52086 | 111° | 9km/h | 27194m | -41.5m/s | -47.4°C | 3.2% | 0hPa | 2.7V | 00:00:00 | 02:36:24 | 00:00:00 | |
| IW2NTF | 2026-09-04 13:02:37 | 45.73075 | 13.52073 | 131° | 15km/h | 27361m | -42.5m/s | -47.1°C | 3.1% | 0hPa | 2.6V | 08:27:55 | 02:36:20 | 00:00:00 | |
| OE5DXL-15 | 2026-09-04 13:02:36 | 45.73071 | 13.52079 | 136° | 15km/h | 27276m | -42.0m/s | -47.2°C | 3.2% | 0hPa | 2.7V | 00:00:00 | 00:00:00 | 00:00:00 | |
| PETON7-10 | 2026-09-04 13:02:35 | 45.73073 | 13.52076 | 132° | 9km/h | 27319m | -42.5m/s | -47.1°C | 3.1% | 0hPa | 2.7V | 00:00:00 | 00:00:00 | 00:00:00 | |
| 9A1FER-10 | 2026-09-04 13:02:33 | 45.73077 | 13.52069 | 136° | 9km/h | 27403m | -41.8m/s | -46.9°C | 3.1% | 0hPa | 2.7V | 00:00:00 | 02:36:19 | 00:00:00 | |
| PG1ADW-2 | 2026-09-04 13:02:32 | 45.73079 | 13.52067 | 131° | 11km/h | 27445m | -41.1m/s | -46.7°C | 3.0% | 0hPa | 2.7V | 00:00:00 | 00:00:00 | 00:00:00 | |
| IW2NTF | 2026-09-04 13:02:27 | 45.73081 | 13.52080 | 303° | 5km/h | 27778m | -41.3m/s | -46.1°C | 2.9% | 0hPa | 2.7V | 08:28:05 | 02:36:10 | 00:00:00 | |
| OE5DRO-10 | 2026-09-04 13:02:26 | 45.73082 | 13.52078 | 300° | 18km/h | 27737m | -41.6m/s | -46.1°C | 2.9% | 0hPa | 2.7V | 00:00:00 | 00:00:00 | 00:00:00 | |
| OE8JPQ-2 | 2026-09-04 13:02:24 | 45.73081 | 13.52080 | 304° | 20km/h | 27778m | -41.3m/s | -46.0°C | 2.9% | 0hPa | 2.7V | 08:28:00 | 00:00:00 | 00:00:00 | |
| 9A1FER-3 | 2026-09-04 13:02:23 | 45.73080 | 13.52081 | 345° | 18km/h | 27819m | -40.9m/s | -46.0°C | 2.9% | 0hPa | 2.6V | 00:00:00 | 02:36:09 | 00:00:00 | |
| PETON7-10 | 2026-09-04 13:02:20 | 45.73071 | 13.52083 | 2° | 22km/h | 27943m | -42.8m/s | -45.9°C | 2.9% | 0hPa | 2.6V | 00:00:00 | 02:36:06 | 00:00:00 | |
| IW2NTF | 2026-09-04 13:02:18 | 45.73044 | 13.52077 | 19° | 20km/h | 28199m | -45.4m/s | -46.6°C | 3.2% | 0hPa | 2.6V | 08:28:15 | 02:36:00 | 00:00:00 | |
| IN3HCDX1 | 2026-09-04 13:02:12 | 45.73033 | 13.52070 | 30° | 27km/h | 28287m | -43.8m/s | -46.2°C | 0.8% | 0hPa | 2.6V | 08:28:00 | 00:00:00 | 00:00:00 | |
| NBG1-10 | 2026-09-04 13:02:10 | 45.73022 | 13.52060 | 42° | 16km/h | 28374m | -44.2m/s | -45.7°C | 3.0% | 0hPa | 2.6V | 00:00:00 | 02:35:56 | 00:00:00 | |
| DO3MHA-11 | 2026-09-04 13:02:08 | 45.73011 | 13.52047 | 39° | 20km/h | 28463m | -43.9m/s | -45.7°C | 3.0% | 0hPa | 2.6V | 00:00:00 | 02:35:54 | 00:00:00 | |
| IW2NTF | 2026-09-04 13:02:07 | 45.72994 | 13.52021 | 60° | 22km/h | 28647m | -48m/s | -45.4°C | 2.9% | 0hPa | 2.7V | 08:28:25 | 02:35:50 | 00:00:00 | |
| OE5DXL-15 | 2026-09-04 13:02:06 | 45.73001 | 13.52033 | 43° | 16km/h | 28552m | -46.2m/s | -45.6°C | 3.0% | 0hPa | 2.7V | 00:00:00 | 00:00:00 | 00:00:00 | |
| DO3MHA-12 | 2026-09-04 13:02:05 | 45.72997 | 13.52027 | 49° | 16km/h | 28600m | -48.0m/s | -45.5°C | 3.0% | 0hPa | 2.7V | 00:00:00 | 02:35:51 | 00:00:00 | |
| OE8JPQ-2 | 2026-09-04 13:02:04 | 45.72994 | 13.52021 | 61° | 16km/h | 28647m | -47.9m/s | -45.4°C | 2.9% | 0hPa | 2.6V | 00:00:00 | 00:00:00 | 00:00:00 | |
| 9A1FER-10 | 2026-09-04 13:02:03 | 45.72992 | 13.52014 | 63° | 15km/h | 28695m | -48.4m/s | -45.4°C | 3.0% | 0hPa | 2.6V | 00:00:00 | 02:35:49 | 00:00:00 | |
| IN3HCDX | 2026-09-04 13:01:59 | 45.72987 | 13.51998 | 67° | 15km/h | 28834m | -45.7m/s | -45.6°C | 0.7% | 0hPa | 2.7V | 08:28:00 | 00:00:00 | 00:00:00 | |
| DO3MHA-11 | 2026-09-04 13:01:58 | 45.72983 | 13.51989 | 44° | 15km/h | 28925m | -44.4m/s | -45.0°C | 2.9% | 0hPa | 2.7V | 00:00:00 | 02:35:44 | 00:00:00 | |
| IW2NTF | 2026-09-04 13:01:56 | 45.72974 | 13.51976 | 55° | 13km/h | 29104m | -44.2m/s | -44.1°C | 2.7% | 0hPa | 2.7V | 08:28:35 | 02:35:40 | 00:00:00 | |
| DO3MHA-12 | 2026-09-04 13:01:55 | 45.72976 | 13.51980 | 49° | 16km/h | 29060m | -44.9m/s | -44.1°C | 2.7% | 0hPa | 2.7V | 00:00:00 | 02:35:41 | 00:00:00 | |
| 9A1FER-3 | 2026-09-04 13:01:53 | 45.72972 | 13.51972 | 74° | 16km/h | 29149m | -46.7m/s | -44.1°C | 2.7% | 0hPa | 2.7V | 08:28:00 | 02:35:39 | 00:00:00 | |
| PG1ADW-2 | 2026-09-04 13:01:52 | 45.72971 | 13.51966 | 75° | 16km/h | 29195m | -46.1m/s | -44.2°C | 2.8% | 0hPa | 2.6V | 00:00:00 | 00:00:00 | 00:00:00 | |
| IN3HCDX1 | 2026-09-04 13:01:50 | 45.72970 | 13.51960 | 75° | 18km/h | 29240m | -43.6m/s | -44.4°C | 0.7% | 0hPa | 2.6V | 08:28:00 | 00:00:00 | 00:00:00 | |
| PETON7-10 | 2026-09-04 13:01:49 | 45.72967 | 13.51947 | 73° | 16km/h | 29326m | -43.7m/s | -44.1°C | 2.8% | 0hPa | 2.6V | 00:00:00 | 00:00:00 | 00:00:00 | |
| 9A1FER-10 | 2026-09-04 13:01:48 | 45.72966 | 13.51941 | 71° | 16km/h | 29370m | -43.8m/s | -44.1°C | 2.8% | 0hPa | 2.6V | 00:00:00 | 02:35:34 | 00:00:00 | |
| IW2NTF | 2026-09-04 13:01:46 | 45.72960 | 13.51916 | 63° | 16km/h | 29537m | -43.8m/s | -44°C | 2.9% | 0hPa | 2.6V | 08:28:45 | 02:35:30 | 00:00:00 | |
| DO3MHA-12 | 2026-09-04 13:01:45 | 45.72962 | 13.51922 | 74° | 13km/h | 29495m | -41.3m/s | -43.9°C | 2.8% | 0hPa | 2.7V | 00:00:00 | 02:35:31 | 00:00:00 | |
| OE8JPQ-2 | 2026-09-04 13:01:44 | 45.72960 | 13.51916 | 64° | 15km/h | 29538m | -43.8m/s | -43.9°C | 2.9% | 0hPa | 2.7V | 00:00:00 | 02:35:30 | 00:00:00 | |
| OE5MMP-10 | 2026-09-04 13:01:42 | 45.72955 | 13.51906 | 53° | 16km/h | 29623m | -41.3m/s | -44.1°C | 3.0% | 0hPa | 2.7V | 00:00:00 | 02:35:28 | 00:00:00 | |
| OE5DRO-10 | 2026-09-04 13:01:40 | 45.72943 | 13.51892 | 43° | 15km/h | 29784m | -41.5m/s | -43.2°C | 2.8% | 0hPa | 2.7V | 00:00:00 | 00:00:00 | 00:00:00 | |
| DO3MHA-11 | 2026-09-04 13:01:38 | 45.72943 | 13.51892 | 43° | 16km/h | 29784m | -41.5m/s | -43.2°C | 2.8% | 0hPa | 2.7V | 00:00:00 | 02:35:24 | 00:00:00 | |
| IN3HCDX | 2026-09-04 13:01:37 | 45.72943 | 13.51892 | 43° | 15km/h | 29784m | -41.6m/s | -43.2°C | 0.7% | 0hPa | 2.7V | 00:00:00 | 00:00:00 | 00:00:00 | |
| IW2NTF | 2026-09-04 13:01:36 | 45.72937 | 13.51872 | 77° | 13km/h | 29945m | -39.1m/s | -42.4°C | 2.6% | 0hPa | 2.7V | 08:28:55 | 02:35:20 | 00:00:00 | |
| OE5DXL-15 | 2026-09-04 13:01:36 | 45.72938 | 13.51882 | 72° | 15km/h | 29866m | -41.5m/s | -43.0°C | 2.8% | 0hPa | 2.6V | 08:28:00 | 00:00:00 | 00:00:00 | |
| PETON7-10 | 2026-09-04 13:01:33 | 45.72936 | 13.51867 | 85° | 15km/h | 29984m | -39.4m/s | -42.0°C | 2.6% | 0hPa | 2.6V | 00:00:00 | 02:35:19 | 00:00:00 | |
| OE5MMP-10 | 2026-09-04 13:01:32 | 45.72936 | 13.51860 | 99° | 13km/h | 30024m | -40.2m/s | -41.7°C | 2.5% | 0hPa | 2.6V | 00:00:00 | 02:35:18 | 00:00:00 | |
| NBG1-10 | 2026-09-04 13:01:31 | 45.72937 | 13.51855 | 96° | 13km/h | 30063m | -39.3m/s | -41.5°C | 2.5% | 0hPa | 2.6V | 00:00:00 | 02:35:17 | 00:00:00 | |
| PG1ADW-2 | 2026-09-04 13:01:30 | 45.72937 | 13.51849 | 98° | 16km/h | 30101m | -38.3m/s | -41.4°C | 2.5% | 0hPa | 2.6V | 00:00:00 | 02:35:16 | 00:00:00 | |
| IW2NTF | 2026-09-04 13:01:29 | 45.72939 | 13.51825 | 55° | 5km/h | 30348m | -43.5m/s | -41°C | 2.4% | 0hPa | 2.6V | 08:29:05 | 02:35:10 | 00:00:00 | |
| DO3MHA-11 | 2026-09-04 13:01:28 | 45.72938 | 13.51838 | 97° | 7km/h | 30182m | -42.3m/s | -41.1°C | 2.4% | 0hPa | 2.6V | 00:00:00 | 02:35:14 | 00:00:00 | |
| OE8JPQ-2 | 2026-09-04 13:01:24 | 45.72939 | 13.51825 | 56° | 16km/h | 30348m | -43.5m/s | -40.9°C | 2.4% | 0hPa | 2.6V | 00:00:00 | 00:00:00 | 00:00:00 | |
| 9A1FER-3 | 2026-09-04 13:01:23 | 45.72938 | 13.51823 | 40° | 16km/h | 30391m | -42.3m/s | -40.8°C | 2.4% | 0hPa | 2.6V | 00:00:00 | 02:35:09 | 00:00:00 | |
| OE5MMP-10 | 2026-09-04 13:01:22 | 45.72935 | 13.51821 | 16° | 18km/h | 30435m | -47.2m/s | -40.4°C | 2.3% | 0hPa | 2.6V | 08:29:00 | 02:35:08 | 00:00:00 | |
| IN3HCDX | 2026-09-04 13:01:18 | 45.72917 | 13.51814 | 15° | 22km/h | 30617m | -42.8m/s | -39.6°C | 0.5% | 0hPa | 2.7V | 00:00:00 | 00:00:00 | 00:00:00 | |
| IW2NTF | 2026-09-04 13:01:15 | 45.72900 | 13.51803 | 22° | 15km/h | 30780m | -42.4m/s | -40.1°C | 2.2% | 0hPa | 2.7V | 08:29:15 | 02:35:00 | 00:00:00 | |
| OE5MMP-10 | 2026-09-04 13:01:12 | 45.72892 | 13.51796 | 45° | 15km/h | 30870m | -45.4m/s | -39.8°C | 2.2% | 0hPa | 2.7V | 00:00:00 | 02:34:58 | 00:00:00 | |
| IW2NTF | 2026-09-04 13:01:09 | 45.72886 | 13.51758 | 141° | 13km/h | 31220m | -40.2m/s | -40.2°C | 2.3% | 0hPa | 2.7V | 08:29:25 | 02:34:50 | 00:00:00 | |
| PG1ADW-2 | 2026-09-04 13:01:06 | 45.72882 | 13.51766 | 102° | 9km/h | 31139m | -41.2m/s | -40.1°C | 2.3% | 0hPa | 2.6V | 00:00:00 | 00:00:00 | 00:00:00 | |
| OE8JPQ-2 | 2026-09-04 13:01:04 | 45.72885 | 13.51758 | 142° | 9km/h | 31220m | -40.1m/s | -40.2°C | 2.3% | 0hPa | 2.6V | 00:00:00 | 00:00:00 | 00:00:00 | |
| PETON7-10 | 2026-09-04 13:01:03 | 45.72888 | 13.51756 | 165° | 9km/h | 31261m | -42.6m/s | -40.1°C | 2.3% | 0hPa | 2.6V | 00:00:00 | 00:00:00 | 00:00:00 | |
| OE5MMP-10 | 2026-09-04 13:01:02 | 45.72891 | 13.51756 | 189° | 11km/h | 31303m | -42.4m/s | -39.9°C | 2.3% | 0hPa | 2.6V | 00:00:00 | 02:34:48 | 00:00:00 | |
| IW2NTF | 2026-09-04 13:00:59 | 45.72898 | 13.51786 | 331° | 5km/h | 31672m | -45.8m/s | -39.4°C | 2.1% | 0hPa | 2.6V | 08:30:00 | 02:34:40 | 00:00:00 | |
| NBG1-10 | 2026-09-04 13:00:58 | 45.72901 | 13.51770 | 255° | 13km/h | 31485m | -48.1m/s | -38.5°C | 2.0% | 0hPa | 2.7V | 00:00:00 | 02:34:44 | 00:00:00 | |
| IN3HCDX | 2026-09-04 13:00:57 | 45.72900 | 13.51770 | 256° | 15km/h | 31485m | -48.2m/s | -38.6°C | 0.4% | 0hPa | 2.7V | 00:00:00 | 00:00:00 | 00:00:00 | |
| 9A1FER-3 | 2026-09-04 13:00:53 | 45.72898 | 13.51786 | 316° | 7km/h | 31718m | -44.8m/s | -39.5°C | 2.1% | 0hPa | 2.7V | 00:00:00 | 02:34:39 | 00:00:00 | |
| OE5MMP-10 | 2026-09-04 13:00:52 | 45.72897 | 13.51786 | 47° | 7km/h | 31762m | -44.5m/s | -39.6°C | 2.2% | 0hPa | 2.7V | 00:00:00 | 02:34:38 | 00:00:00 | |
| PETON7-10 | 2026-09-04 13:00:48 | 45.72895 | 13.51787 | 270° | 9km/h | 31946m | -46.2m/s | -40.3°C | 2.4% | 0hPa | 2.7V | 00:00:00 | 02:34:34 | 00:00:00 | |
| IW2NTF | 2026-09-04 13:00:47 | 45.72891 | 13.51802 | 280° | 15km/h | 32134m | -48.4m/s | -39.8°C | 2.3% | 0hPa | 2.7V | 08:30:00 | 02:34:30 | 00:00:00 | |
| DO3MHA-11 | 2026-09-04 13:00:47 | 45.72895 | 13.51789 | 282° | 9km/h | 31992m | -46.0m/s | -40.3°C | 2.4% | 0hPa | 2.7V | 00:00:00 | 02:34:33 | 00:00:00 | |
| PG1ADW-2 | 2026-09-04 13:00:46 | 45.72893 | 13.51793 | 296° | 16km/h | 32038m | -46.7m/s | -40.2°C | 2.4% | 0hPa | 2.7V | 00:00:00 | 00:00:00 | 00:00:00 | |
| OE8JPQ-2 | 2026-09-04 13:00:44 | 45.72891 | 13.51802 | 281° | 15km/h | 32134m | -48.3m/s | -39.7°C | 2.3% | 0hPa | 2.7V | 00:00:00 | 02:34:30 | 00:00:00 | |
| OE5MMP-10 | 2026-09-04 13:00:42 | 45.72889 | 13.51810 | 278° | 9km/h | 32228m | -46.0m/s | -39.1°C | 2.2% | 0hPa | 2.7V | 00:00:00 | 02:34:28 | 00:00:00 | |
| OE5DRO-10 | 2026-09-04 13:00:41 | 45.72889 | 13.51812 | 247° | 15km/h | 32273m | -46.3m/s | -39.0°C | 2.2% | 0hPa | 2.7V | 00:00:00 | 00:00:00 | 00:00:00 | |
| IW2NTF | 2026-09-04 13:00:40 | 45.72900 | 13.51816 | 258° | 9km/h | 32583m | -39.1m/s | -38.9°C | 2.2% | 0hPa | 2.7V | 08:30:00 | 02:34:20 | 00:00:00 | |
| 9A1FER-3 | 2026-09-04 13:00:38 | 45.72894 | 13.51814 | 189° | 16km/h | 32412m | -45.0m/s | -38.5°C | 2.1% | 0hPa | 2.6V | 00:00:00 | 02:34:24 | 00:00:00 | |
| DO3MHA-11 | 2026-09-04 13:00:37 | 45.72896 | 13.51813 | 164° | 18km/h | 32457m | -45.2m/s | -38.5°C | 2.1% | 0hPa | 2.6V | 00:00:00 | 02:34:23 | 08:30:00 | |
| DO3MHA-12 | 2026-09-04 13:00:36 | 45.72898 | 13.51813 | 174° | 13km/h | 32501m | -43.1m/s | -38.6°C | 2.2% | 0hPa | 2.6V | 00:00:00 | 02:34:22 | 00:00:00 | |
| PETON7-10 | 2026-09-04 13:00:33 | 45.72899 | 13.51820 | 277° | 20km/h | 32621m | -37.8m/s | -38.8°C | 2.2% | 0hPa | 2.7V | 00:00:00 | 00:00:00 | 08:30:00 | |
| OE5MMP-10 | 2026-09-04 13:00:32 | 45.72898 | 13.51827 | 287° | 20km/h | 32660m | -39.1m/s | -38.8°C | 2.2% | 0hPa | 2.6V | 00:00:00 | 02:34:18 | 00:00:00 | |
| IN3HCDX1 | 2026-09-04 13:00:28 | 45.72892 | 13.51856 | 284° | 31km/h | 32775m | -39.0m/s | -38.4°C | 0.5% | 0hPa | 2.6V | 00:00:00 | 00:00:00 | 00:00:00 | |
| IW2NTF | 2026-09-04 13:00:27 | 45.72897 | 13.51886 | 204° | 11km/h | 32967m | -37.1m/s | -37.8°C | 2% | 0hPa | 2.6V | 08:30:00 | 02:34:10 | 00:00:00 | |
| DO3MHA-11 | 2026-09-04 13:00:27 | 45.72891 | 13.51874 | 258° | 20km/h | 32853m | -38.9m/s | -38.0°C | 2.0% | 0hPa | 2.6V | 00:00:00 | 02:34:13 | 00:00:00 | |
| PG1ADW-2 | 2026-09-04 13:00:26 | 45.72892 | 13.51880 | 240° | 18km/h | 32892m | -39.1m/s | -37.9°C | 2.0% | 0hPa | 2.6V | 00:00:00 | 00:00:00 | 00:00:00 | |
| NBG1-10 | 2026-09-04 13:00:25 | 45.72894 | 13.51884 | 226° | 20km/h | 32930m | -38.5m/s | -37.8°C | 2.0% | 0hPa | 2.6V | 00:00:00 | 02:34:11 | 00:00:00 | |
| OE8JPQ-2 | 2026-09-04 13:00:24 | 45.72896 | 13.51886 | 205° | 26km/h | 32968m | -37.0m/s | -37.7°C | 2.0% | 0hPa | 2.6V | 00:00:00 | 00:00:00 | 00:00:00 | |
| 9A1FER-3 | 2026-09-04 13:00:23 | 45.72898 | 13.51888 | 205° | 29km/h | 33005m | -36.3m/s | -37.7°C | 2.0% | 0hPa | 2.6V | 00:00:00 | 02:34:09 | 00:00:00 | |
| OE5MMP-10 | 2026-09-04 13:00:22 | 45.72899 | 13.51889 | 266° | 38km/h | 33040m | -35.1m/s | -37.7°C | 2.1% | 0hPa | 2.6V | 00:00:00 | 02:34:08 | 00:00:00 | |
| IW2NTF | 2026-09-04 13:00:18 | 45.72840 | 13.51975 | 317° | 37km/h | 33287m | -40.1m/s | -37.3°C | 1.9% | 0hPa | 2.7V | 08:30:00 | 02:34:00 | 00:00:00 | |
| OE5MMP-10 | 2026-09-04 13:00:12 | 45.72832 | 13.51983 | 12° | 22km/h | 33367m | -40.1m/s | -37.1°C | 1.8% | 0hPa | 2.7V | 00:00:00 | 02:33:58 | 00:00:00 | |
| 9A1FER-3 | 2026-09-04 13:00:08 | 45.72831 | 13.51957 | 47° | 26km/h | 33537m | -51.1m/s | -36.9°C | 1.8% | 0hPa | 2.7V | 00:00:00 | 02:33:54 | 00:00:00 | |
| IW2NTF | 2026-09-04 13:00:07 | 45.72810 | 13.51961 | 345° | 26km/h | 33745m | -40.5m/s | -37.7°C | 1.9% | 0hPa | 2.7V | 08:30:00 | 02:33:50 | 00:00:00 | |
| OE5DXL-15 | 2026-09-04 13:00:06 | 45.72821 | 13.51957 | 351° | 24km/h | 33651m | -54.4m/s | -37.4°C | 1.9% | 0hPa | 2.6V | 00:00:00 | 00:00:00 | 00:00:00 | |
| OE8JPQ-2 | 2026-09-04 13:00:04 | 45.72810 | 13.51961 | 346° | 24km/h | 33746m | -40.5m/s | -37.6°C | 1.9% | 0hPa | 2.7V | 00:00:00 | 00:00:00 | 00:00:00 | |
| OE5MMP-10 | 2026-09-04 13:00:02 | 45.72796 | 13.51967 | 341° | 31km/h | 33811m | -24.2m/s | -37.5°C | 2.0% | 0hPa | 2.7V | 00:00:00 | 02:33:48 | 00:00:00 | |
| IW2NTF | 2026-09-04 12:59:54 | 45.72717 | 13.52010 | 359° | 11km/h | 33778m | 6.5m/s | -37.9°C | 2% | 0hPa | 2.7V | 08:30:00 | 02:33:35 | 00:00:00 | |
| HARRO8 | 2026-09-04 12:59:51 | 45.72720 | 13.52011 | 20° | 11km/h | 33784m | 5.8m/s | 0°C | -1.0% | -1.0hPa | 2.6V | 00:00:00 | 00:00:00 | 00:00:00 | |
| 9A1FER-10 | 2026-09-04 12:59:48 | 45.72714 | 13.52011 | 336° | 22km/h | 33772m | 6.6m/s | -37.7°C | 2.0% | 0hPa | 2.6V | 00:00:00 | 02:33:34 | 00:00:00 | |
| IN3HCDX1 | 2026-09-04 12:59:47 | 45.72714 | 13.52011 | 336° | 13km/h | 33772m | 6.7m/s | -37.7°C | 0.4% | 0hPa | 2.7V | 00:00:00 | 00:00:00 | 00:00:00 | |
| PETON7-10 | 2026-09-04 12:59:46 | 45.72707 | 13.52019 | 319° | 24km/h | 33759m | 5.9m/s | -37.7°C | 2.0% | 0hPa | 2.7V | 00:00:00 | 00:00:00 | 00:00:00 | |
| OE8JPQ-2 | 2026-09-04 12:59:44 | 45.72697 | 13.52030 | 328° | 22km/h | 33748m | 5.2m/s | -37.8°C | 2.0% | 0hPa | 2.7V | 00:00:00 | 02:33:30 | 00:00:00 | |
| OE5DRO-10 | 2026-09-04 12:59:43 | 45.72692 | 13.52034 | 340° | 22km/h | 33742m | 5.8m/s | -38.0°C | 2.1% | 0hPa | 2.7V | 00:00:00 | 00:00:00 | 00:00:00 | |
| OE5MMP-10 | 2026-09-04 12:59:42 | 45.72686 | 13.52036 | 354° | 24km/h | 33736m | 7.1m/s | -38.1°C | 2.1% | 0hPa | 2.7V | 00:00:00 | 02:33:28 | 00:00:00 | |
| IW2NTF | 2026-09-04 12:59:40 | 45.72671 | 13.52031 | 15° | 20km/h | 33717m | 4.9m/s | -37.9°C | 2.1% | 0hPa | 2.7V | 08:30:00 | 02:33:25 | 00:00:00 | |
| NBG1-10 | 2026-09-04 12:59:40 | 45.72676 | 13.52033 | 20° | 24km/h | 33722m | 5.6m/s | -38.0°C | 2.1% | 0hPa | 2.7V | 00:00:00 | 02:33:26 | 00:00:00 | |
| 9A1FER-3 | 2026-09-04 12:59:38 | 45.72666 | 13.52030 | 1° | 26km/h | 33712m | 5.2m/s | -37.7°C | 2.1% | 0hPa | 2.7V | 00:00:00 | 02:33:24 | 08:30:00 | |
| OE5DXL-15 | 2026-09-04 12:59:36 | 45.72655 | 13.52035 | 327° | 26km/h | 33699m | 6.5m/s | -37.7°C | 2.1% | 0hPa | 2.7V | 00:00:00 | 00:00:00 | 00:00:00 | |
| IW2NTF | 2026-09-04 12:59:34 | 45.72627 | 13.52072 | 356° | 13km/h | 33658m | 5.4m/s | -37.6°C | 2.1% | 0hPa | 2.7V | 08:30:00 | 02:33:15 | 00:00:00 | |
| 9A1FER-10 | 2026-09-04 12:59:33 | 45.72640 | 13.52057 | 308° | 24km/h | 33683m | 5.6m/s | -37.8°C | 2.1% | 0hPa | 2.7V | 00:00:00 | 02:33:19 | 00:00:00 | |
| OE5MMP-10 | 2026-09-04 12:59:32 | 45.72636 | 13.52064 | 309° | 24km/h | 33677m | 6.4m/s | -37.7°C | 2.1% | 0hPa | 2.7V | 00:00:00 | 02:33:18 | 00:00:00 | |
| PETON7-10 | 2026-09-04 12:59:31 | 45.72633 | 13.52069 | 319° | 24km/h | 33671m | 6.4m/s | -37.6°C | 2.0% | 0hPa | 2.7V | 00:00:00 | 00:00:00 | 00:00:00 | |
| IN3HCDX1 | 2026-09-04 12:59:27 | 45.72623 | 13.52073 | 358° | 18km/h | 33653m | 4.9m/s | -37.7°C | 0.5% | 0hPa | 2.7V | 00:00:00 | 00:00:00 | 00:00:00 | |
| OE8JPQ-2 | 2026-09-04 12:59:24 | 45.72597 | 13.52088 | 326° | 27km/h | 33629m | 5.7m/s | -37.4°C | 2.0% | 0hPa | 2.7V | 00:00:00 | 00:00:00 | 08:30:00 | |
| 9A1FER-3 | 2026-09-04 12:59:23 | 45.72589 | 13.52095 | 322° | 22km/h | 33623m | 5.1m/s | -37.3°C | 2.0% | 0hPa | 2.6V | 00:00:00 | 02:33:09 | 00:00:00 | |
| OE5MMP-10 | 2026-09-04 12:59:22 | 45.72582 | 13.52104 | 319° | 26km/h | 33617m | 6.0m/s | -37.4°C | 2.0% | 0hPa | 2.6V | 00:00:00 | 02:33:08 | 00:00:00 | |
| IW2NTF | 2026-09-04 12:59:20 | 45.72569 | 13.52122 | 313° | 16km/h | 33599m | 5.4m/s | -37.3°C | 2% | 0hPa | 2.7V | 08:30:00 | 02:33:05 | 00:00:00 | |
| 9A1FER-10 | 2026-09-04 12:59:18 | 45.72566 | 13.52126 | 315° | 27km/h | 33594m | 5.3m/s | -37.3°C | 2.0% | 0hPa | 2.7V | 00:00:00 | 02:33:04 | 00:00:00 | |
| PETON7-10 | 2026-09-04 12:59:16 | 45.72560 | 13.52135 | 321° | 29km/h | 33582m | 6.3m/s | -37.2°C | 2.0% | 0hPa | 2.7V | 00:00:00 | 02:33:02 | 00:00:00 | |
| IW2NTF | 2026-09-04 12:59:14 | 45.72514 | 13.52163 | 330° | 20km/h | 33541m | 5.4m/s | -37.7°C | 2% | 0hPa | 2.7V | 08:30:00 | 02:32:55 | 00:00:00 | |
| DB0UT-7 | 2026-09-04 12:59:12 | 45.72532 | 13.52155 | 344° | 27km/h | 33558m | 5.4m/s | -37.4°C | 1.9% | 0hPa | 2.6V | 00:00:00 | 00:00:00 | 00:00:00 | |
| NBG1-10 | 2026-09-04 12:59:08 | 45.72507 | 13.52174 | 301° | 24km/h | 33531m | 5.4m/s | -37.6°C | 2.0% | 0hPa | 2.6V | 00:00:00 | 02:32:53 | 00:00:00 | |
| IN3HCDX1 | 2026-09-04 12:59:07 | 45.72507 | 13.52174 | 301° | 24km/h | 33531m | 5.4m/s | -37.6°C | 0.5% | 0hPa | 2.7V | 00:00:00 | 00:00:00 | 00:00:00 | |
| OE5DXL-15 | 2026-09-04 12:59:06 | 45.72503 | 13.52182 | 299° | 29km/h | 33525m | 6.0m/s | -37.5°C | 2.0% | 0hPa | 2.7V | 00:00:00 | 00:00:00 | 00:00:00 | |
| OE5DRO-10 | 2026-09-04 12:59:05 | 45.72499 | 13.52192 | 304° | 31km/h | 33519m | 5.7m/s | -37.4°C | 2.0% | 0hPa | 2.7V | 00:00:00 | 00:00:00 | 00:00:00 | |
| OE8JPQ-2 | 2026-09-04 12:59:04 | 45.72493 | 13.52203 | 313° | 29km/h | 33514m | 5.2m/s | -37.3°C | 2.0% | 0hPa | 2.7V | 00:00:00 | 00:00:00 | 00:00:00 | |
| 9A1FER-10 | 2026-09-04 12:59:03 | 45.72486 | 13.52212 | 324° | 31km/h | 33509m | 4.8m/s | -37.2°C | 2.0% | 0hPa | 2.7V | 00:00:00 | 02:32:49 | 00:00:00 | |
| OE5MMP-10 | 2026-09-04 12:59:02 | 45.72478 | 13.52219 | 336° | 26km/h | 33504m | 5.0m/s | -37.1°C | 2.0% | 0hPa | 2.7V | 00:00:00 | 02:32:48 | 00:00:00 | |
| PETON7-10 | 2026-09-04 12:59:01 | 45.72470 | 13.52223 | 349° | 29km/h | 33499m | 5.6m/s | -37.1°C | 2.0% | 0hPa | 2.7V | 00:00:00 | 00:00:00 | 00:00:00 | |
| IW2NTF | 2026-09-04 12:59:00 | 45.72456 | 13.52223 | 16° | 22km/h | 33486m | 6.1m/s | -37.1°C | 2% | 0hPa | 2.6V | 08:30:00 | 02:32:45 | 00:00:00 | |
| IW2NTF | 2026-09-04 12:58:54 | 45.72400 | 13.52286 | 336° | 38km/h | 33431m | 5.6m/s | -37.4°C | 2% | 0hPa | 2.7V | 08:30:00 | 02:32:35 | 00:00:00 | |
| 9A1FER-3 | 2026-09-04 12:58:53 | 45.72436 | 13.52245 | 308° | 40km/h | 33454m | 6.5m/s | -37.4°C | 2.0% | 0hPa | 2.6V | 00:00:00 | 02:32:39 | 00:00:00 | |
| OE5MMP-10 | 2026-09-04 12:58:52 | 45.72428 | 13.52258 | 315° | 29km/h | 33448m | 6.0m/s | -37.4°C | 2.0% | 0hPa | 2.6V | 00:00:00 | 02:32:38 | 00:00:00 | |
| 9A1FER-10 | 2026-09-04 12:58:48 | 45.72392 | 13.52290 | 344° | 22km/h | 33425m | 6.3m/s | -37.3°C | 2.0% | 0hPa | 2.6V | 00:00:00 | 02:32:34 | 00:00:00 | |
| PETON7-10 | 2026-09-04 12:58:46 | 45.72382 | 13.52294 | 348° | 22km/h | 33413m | 6.2m/s | -37.2°C | 1.9% | 0hPa | 2.6V | 00:00:00 | 00:00:00 | 00:00:00 | |
| IN3HCDX1 | 2026-09-04 12:58:45 | 45.72382 | 13.52294 | 348° | 15km/h | 33413m | 6.2m/s | -37.2°C | 0.4% | 0hPa | 2.6V | 00:00:00 | 00:00:00 | 00:00:00 | |
| OE8JPQ-2 | 2026-09-04 12:58:44 | 45.72376 | 13.52298 | 317° | 24km/h | 33401m | 5.7m/s | -37.1°C | 1.9% | 0hPa | 2.6V | 00:00:00 | 02:32:30 | 00:00:00 | |
| OE5MMP-10 | 2026-09-04 12:58:42 | 45.72369 | 13.52309 | 311° | 24km/h | 33389m | 5.8m/s | -37.2°C | 2.0% | 0hPa | 2.6V | 00:00:00 | 02:32:28 | 00:00:00 | |
| DO3MHA-11 | 2026-09-04 12:58:41 | 45.72364 | 13.52317 | 314° | 24km/h | 33384m | 5.5m/s | -37.3°C | 1.9% | 0hPa | 2.6V | 00:00:00 | 02:32:27 | 00:00:00 | |
| IW2NTF | 2026-09-04 12:58:39 | 45.72340 | 13.52345 | 328° | 24km/h | 33361m | 6m/s | -37.1°C | 1.9% | 0hPa | 2.6V | 08:30:00 | 02:32:23 | 00:00:00 | |
| 9A1FER-3 | 2026-09-04 12:58:38 | 45.72346 | 13.52340 | 325° | 29km/h | 33367m | 6.3m/s | -37.1°C | 1.9% | 0hPa | 2.6V | 00:00:00 | 02:32:24 | 00:00:00 | |
| OE5DXL-15 | 2026-09-04 12:58:36 | 45.72336 | 13.52349 | 330° | 22km/h | 33355m | 5.3m/s | -37.0°C | 1.9% | 0hPa | 2.6V | 00:00:00 | 00:00:00 | 00:00:00 | |
| 9A1FER-10 | 2026-09-04 12:58:33 | 45.72328 | 13.52361 | 296° | 26km/h | 33339m | 6.0m/s | -37.2°C | 1.9% | 0hPa | 2.7V | 00:00:00 | 02:32:19 | 00:00:00 | |
| IW2NTF | 2026-09-04 12:58:32 | 45.72305 | 13.52401 | 342° | 24km/h | 33305m | 6.8m/s | -37.6°C | 2% | 0hPa | 2.7V | 08:30:00 | 02:32:13 | 00:00:00 | |
| OE5MMP-10 | 2026-09-04 12:58:32 | 45.72326 | 13.52368 | 295° | 26km/h | 33333m | 6.2m/s | -37.3°C | 2.0% | 0hPa | 2.7V | 00:00:00 | 02:32:18 | 00:00:00 | |
| DO3MHA-11 | 2026-09-04 12:58:31 | 45.72323 | 13.52375 | 299° | 26km/h | 33327m | 5.3m/s | -37.3°C | 1.9% | 0hPa | 2.7V | 00:00:00 | 02:32:17 | 00:00:00 | |
| OE5DRO-10 | 2026-09-04 12:58:27 | 45.72305 | 13.52401 | 343° | 22km/h | 33305m | 6.7m/s | -37.6°C | 2.0% | 0hPa | 2.7V | 00:00:00 | 00:00:00 | 00:00:00 | |
| OE8JPQ-2 | 2026-09-04 12:58:24 | 45.72287 | 13.52403 | 353° | 22km/h | 33290m | 4.3m/s | -37.7°C | 2.0% | 0hPa | 2.6V | 00:00:00 | 00:00:00 | 00:00:00 | |
| OE5MMP-10 | 2026-09-04 12:58:22 | 45.72276 | 13.52410 | 321° | 22km/h | 33278m | 6.6m/s | -37.5°C | 2.0% | 0hPa | 2.7V | 00:00:00 | 02:32:08 | 08:30:00 | |
| DO3MHA-11 | 2026-09-04 12:58:21 | 45.72271 | 13.52418 | 306° | 22km/h | 33272m | 6.2m/s | -37.5°C | 2.0% | 0hPa | 2.7V | 00:00:00 | 02:32:07 | 00:00:00 | |
| IW2NTF | 2026-09-04 12:58:19 | 45.72261 | 13.52455 | 283° | 20km/h | 33248m | 6.2m/s | -37.7°C | 2% | 0hPa | 2.7V | 08:30:00 | 02:32:03 | 00:00:00 | |
| 9A1FER-10 | 2026-09-04 12:58:18 | 45.72262 | 13.52447 | 286° | 20km/h | 33255m | 6.4m/s | -37.6°C | 2.0% | 0hPa | 2.6V | 00:00:00 | 02:32:04 | 08:30:00 | |
| PETON7-10 | 2026-09-04 12:58:16 | 45.72260 | 13.52462 | 288° | 20km/h | 33243m | 5.2m/s | -37.7°C | 2.0% | 0hPa | 2.7V | 00:00:00 | 00:00:00 | 08:30:00 | |
| IW2NTF | 2026-09-04 12:58:12 | 45.72229 | 13.52497 | 320° | 15km/h | 33192m | 4.9m/s | -38°C | 2% | 0hPa | 2.6V | 08:30:00 | 02:31:53 | 00:00:00 | |
| OE5MMP-10 | 2026-09-04 12:58:12 | 45.72249 | 13.52480 | 323° | 22km/h | 33220m | 5.2m/s | -37.8°C | 2.0% | 0hPa | 2.6V | 00:00:00 | 02:31:58 | 00:00:00 | |
| DO3MHA-11 | 2026-09-04 12:58:11 | 45.72245 | 13.52484 | 328° | 22km/h | 33215m | 4.7m/s | -37.7°C | 2.0% | 0hPa | 2.6V | 00:00:00 | 02:31:57 | 00:00:00 | |
| OE5DRO-10 | 2026-09-04 12:58:08 | 45.72232 | 13.52494 | 335° | 22km/h | 33198m | 5.7m/s | -37.8°C | 2.0% | 0hPa | 2.6V | 00:00:00 | 00:00:00 | 00:00:00 | |
| OE5DXL-15 | 2026-09-04 12:58:06 | 45.72227 | 13.52501 | 301° | 22km/h | 33188m | 4.5m/s | -38.0°C | 2.1% | 0hPa | 2.6V | 00:00:00 | 00:00:00 | 00:00:00 | |
| OE8JPQ-2 | 2026-09-04 12:58:04 | 45.72223 | 13.52516 | 284° | 22km/h | 33177m | 6.9m/s | -38.0°C | 2.1% | 0hPa | 2.6V | 00:00:00 | 00:00:00 | 00:00:00 | |
| 9A1FER-10 | 2026-09-04 12:58:03 | 45.72221 | 13.52527 | 281° | 22km/h | 33170m | 5.9m/s | -37.9°C | 2.1% | 0hPa | 2.6V | 00:00:00 | 02:31:49 | 00:00:00 | |
| OE5MMP-10 | 2026-09-04 12:58:02 | 45.72220 | 13.52539 | 280° | 20km/h | 33165m | 4.5m/s | -37.8°C | 2.1% | 0hPa | 2.6V | 00:00:00 | 02:31:48 | 00:00:00 | |
| 9A1FER-3 | 2026-09-04 12:58:01 | 45.72218 | 13.52550 | 283° | 16km/h | 33160m | 4.4m/s | -37.8°C | 2.0% | 0hPa | 2.6V | 00:00:00 | 02:31:47 | 00:00:00 | |
| NBG1-10 | 2026-09-04 12:58:00 | 45.72217 | 13.52559 | 287° | 24km/h | 33155m | 6.0m/s | -37.8°C | 2.1% | 0hPa | 2.6V | 00:00:00 | 02:31:46 | 00:00:00 | |
| IW2NTF | 2026-09-04 12:57:59 | 45.72211 | 13.52572 | 332° | 9km/h | 33137m | 4.9m/s | -37.6°C | 2% | 0hPa | 2.6V | 08:30:00 | 02:31:43 | 00:00:00 | |
| PG1ADW-2 | 2026-09-04 12:57:54 | 45.72204 | 13.52582 | 297° | 24km/h | 33120m | 5.8m/s | -37.4°C | 1.9% | 0hPa | 2.7V | 00:00:00 | 00:00:00 | 00:00:00 | |
| IW2NTF | 2026-09-04 12:57:52 | 45.72195 | 13.52644 | 278° | 20km/h | 33082m | 5m/s | -37.8°C | 2% | 0hPa | 2.7V | 08:30:00 | 02:31:33 | 00:00:00 | |
| OE5MMP-10 | 2026-09-04 12:57:52 | 45.72200 | 13.52599 | 283° | 26km/h | 33110m | 4.8m/s | -37.4°C | 1.9% | 0hPa | 2.6V | 00:00:00 | 02:31:38 | 00:00:00 | |
| DO3MHA-11 | 2026-09-04 12:57:51 | 45.72199 | 13.52610 | 281° | 26km/h | 33105m | 5.0m/s | -37.5°C | 1.9% | 0hPa | 2.6V | 00:00:00 | 02:31:37 | 08:30:00 | |
| OE5DRO-10 | 2026-09-04 12:57:49 | 45.72197 | 13.52629 | 279° | 26km/h | 33093m | 5.9m/s | -37.6°C | 2.0% | 0hPa | 2.7V | 00:00:00 | 00:00:00 | 00:00:00 | |
| 9A1FER-10 | 2026-09-04 12:57:48 | 45.72196 | 13.52637 | 279° | 24km/h | 33087m | 5.3m/s | -37.7°C | 2.0% | 0hPa | 2.7V | 00:00:00 | 02:31:34 | 00:00:00 | |
| PETON7-10 | 2026-09-04 12:57:46 | 45.72194 | 13.52652 | 280° | 26km/h | 33077m | 5.7m/s | -37.8°C | 2.0% | 0hPa | 2.7V | 00:00:00 | 02:31:32 | 00:00:00 | |
| OE8JPQ-2 | 2026-09-04 12:57:44 | 45.72192 | 13.52669 | 282° | 22km/h | 33065m | 5.6m/s | -37.6°C | 2.0% | 0hPa | 2.7V | 00:00:00 | 02:31:30 | 00:00:00 | |
| IN3HCDX1 | 2026-09-04 12:57:43 | 45.72192 | 13.52669 | 283° | 27km/h | 33065m | 5.6m/s | -37.7°C | 0.5% | 0hPa | 2.7V | 00:00:00 | 00:00:00 | 00:00:00 | |
| DO3MHA-11 | 2026-09-04 12:57:41 | 45.72187 | 13.52695 | 290° | 27km/h | 33050m | 5.8m/s | -37.5°C | 2.0% | 0hPa | 2.7V | 00:00:00 | 02:31:27 | 00:00:00 | |
| IW2NTF | 2026-09-04 12:57:39 | 45.72181 | 13.52719 | 280° | 20km/h | 33029m | 4.3m/s | -37.8°C | 1.9% | 0hPa | 2.7V | 08:30:00 | 02:31:23 | 00:00:00 | |
| OE5DXL-15 | 2026-09-04 12:57:36 | 45.72180 | 13.52727 | 275° | 22km/h | 33024m | 6.3m/s | -37.9°C | 1.9% | 0hPa | 2.7V | 00:00:00 | 00:00:00 | 00:00:00 | |
| PG1ADW-2 | 2026-09-04 12:57:34 | 45.72180 | 13.52752 | 268° | 24km/h | 33011m | 5.9m/s | -37.9°C | 2.0% | 0hPa | 2.7V | 00:00:00 | 00:00:00 | 00:00:00 | |
| 9A1FER-10 | 2026-09-04 12:57:33 | 45.72180 | 13.52767 | 267° | 24km/h | 33006m | 4.2m/s | -37.9°C | 2.0% | 0hPa | 2.7V | 00:00:00 | 02:31:19 | 00:00:00 | |
| OE5MMP-10 | 2026-09-04 12:57:32 | 45.72181 | 13.52781 | 265° | 18km/h | 33002m | 3.7m/s | -37.9°C | 2.0% | 0hPa | 2.6V | 00:00:00 | 02:31:18 | 00:00:00 | |
| IW2NTF | 2026-09-04 12:57:32 | 45.72182 | 13.52811 | 328° | 5km/h | 32974m | 4.8m/s | -38.2°C | 2% | 0hPa | 2.7V | 08:30:00 | 02:31:13 | 00:00:00 | |
| DO3MHA-11 | 2026-09-04 12:57:31 | 45.72182 | 13.52793 | 264° | 20km/h | 32998m | 4.9m/s | -37.9°C | 2.0% | 0hPa | 2.6V | 00:00:00 | 02:31:17 | 00:00:00 | |
| OE5DRO-10 | 2026-09-04 12:57:30 | 45.72183 | 13.52802 | 265° | 20km/h | 32992m | 6.6m/s | -38.0°C | 2.0% | 0hPa | 2.6V | 00:00:00 | 00:00:00 | 08:30:00 | |
| NBG1-10 | 2026-09-04 12:57:27 | 45.72182 | 13.52811 | 329° | 15km/h | 32974m | 4.8m/s | -38.2°C | 2.0% | 0hPa | 2.7V | 00:00:00 | 02:31:13 | 08:30:00 | |
| OE8JPQ-2 | 2026-09-04 12:57:24 | 45.72178 | 13.52824 | 276° | 22km/h | 32959m | 5.6m/s | -38.0°C | 2.0% | 0hPa | 2.6V | 00:00:00 | 00:00:00 | 00:00:00 | |
| IN3HCDX1 | 2026-09-04 12:57:23 | 45.72178 | 13.52824 | 276° | 22km/h | 32959m | 5.7m/s | -38.0°C | 0.5% | 0hPa | 2.7V | 00:00:00 | 00:00:00 | 00:00:00 | |
| OE5MMP-10 | 2026-09-04 12:57:22 | 45.72179 | 13.52844 | 264° | 22km/h | 32948m | 5.0m/s | -38.0°C | 2.0% | 0hPa | 2.7V | 00:00:00 | 02:31:08 | 00:00:00 | |
| DO3MHA-11 | 2026-09-04 12:57:21 | 45.72180 | 13.52856 | 265° | 22km/h | 32943m | 4.8m/s | -38.0°C | 2.0% | 0hPa | 2.7V | 00:00:00 | 02:31:07 | 00:00:00 | |
| IW2NTF | 2026-09-04 12:57:19 | 45.72174 | 13.52890 | 317° | 18km/h | 32920m | 5.9m/s | -38.3°C | 2.1% | 0hPa | 2.7V | 08:30:00 | 02:31:03 | 00:00:00 | |
| 9A1FER-10 | 2026-09-04 12:57:18 | 45.72177 | 13.52884 | 299° | 18km/h | 32926m | 6.1m/s | -38.3°C | 2.1% | 0hPa | 2.6V | 00:00:00 | 02:31:04 | 00:00:00 | |
| PETON7-10 | 2026-09-04 12:57:16 | 45.72171 | 13.52894 | 330° | 18km/h | 32915m | 5.1m/s | -38.1°C | 2.1% | 0hPa | 2.6V | 00:00:00 | 00:00:00 | 00:00:00 | |
| PG1ADW-2 | 2026-09-04 12:57:14 | 45.72164 | 13.52901 | 308° | 18km/h | 32905m | 4.7m/s | -38.0°C | 2.1% | 0hPa | 2.6V | 00:00:00 | 02:31:00 | 00:00:00 | |
| IW2NTF | 2026-09-04 12:57:12 | 45.72173 | 13.52949 | 273° | 15km/h | 32865m | 5.8m/s | -38.1°C | 2% | 0hPa | 2.6V | 08:30:00 | 02:30:53 | 00:00:00 | |
| DB0UT-7 | 2026-09-04 12:57:12 | 45.72163 | 13.52912 | 258° | 16km/h | 32893m | 6.5m/s | -38.0°C | 2.0% | 0hPa | 2.6V | 00:00:00 | 00:00:00 | 00:00:00 | |
| DO3MHA-11 | 2026-09-04 12:57:11 | 45.72165 | 13.52920 | 247° | 20km/h | 32887m | 5.4m/s | -38.0°C | 2.0% | 0hPa | 2.6V | 00:00:00 | 02:30:57 | 00:00:00 | |
| OE5DXL-15 | 2026-09-04 12:57:06 | 45.72172 | 13.52954 | 300° | 15km/h | 32860m | 5.4m/s | -38.1°C | 2.0% | 0hPa | 2.6V | 00:00:00 | 00:00:00 | 08:30:00 | |
| OE8JPQ-2 | 2026-09-04 12:57:04 | 45.72167 | 13.52963 | 311° | 15km/h | 32849m | 5.9m/s | -38.2°C | 2.0% | 0hPa | 2.6V | 00:00:00 | 00:00:00 | 00:00:00 | |
| 9A1FER-10 | 2026-09-04 12:57:03 | 45.72164 | 13.52969 | 303° | 16km/h | 32843m | 5.8m/s | -38.3°C | 2.0% | 0hPa | 2.6V | 00:00:00 | 02:30:49 | 00:00:00 | |
| OE5MMP-10 | 2026-09-04 12:57:02 | 45.72162 | 13.52976 | 295° | 15km/h | 32837m | 5.1m/s | -38.4°C | 2.0% | 0hPa | 2.6V | 00:00:00 | 02:30:48 | 00:00:00 | |
| DO3MHA-11 | 2026-09-04 12:57:01 | 45.72160 | 13.52983 | 284° | 15km/h | 32832m | 4.5m/s | -38.5°C | 2.0% | 0hPa | 2.6V | 00:00:00 | 02:30:47 | 00:00:00 | |
| IW2NTF | 2026-09-04 12:57:00 | 45.72163 | 13.53001 | 186° | 11km/h | 32809m | 6.7m/s | -38.7°C | 2.1% | 0hPa | 2.6V | 08:30:00 | 02:30:43 | 00:00:00 | |
| PG1ADW-2 | 2026-09-04 12:56:54 | 45.72173 | 13.53001 | 194° | 11km/h | 32793m | 5.3m/s | -38.7°C | 2.1% | 0hPa | 2.6V | 00:00:00 | 00:00:00 | 00:00:00 | |
| IW2NTF | 2026-09-04 12:56:52 | 45.72185 | 13.53028 | 152° | 4km/h | 32752m | 5.8m/s | -39.2°C | 2.1% | 0hPa | 2.6V | 08:30:00 | 02:30:33 | 00:00:00 | |
| OE5MMP-10 | 2026-09-04 12:56:52 | 45.72180 | 13.53008 | 234° | 13km/h | 32781m | 6.0m/s | -38.9°C | 2.1% | 0hPa | 2.6V | 00:00:00 | 02:30:38 | 08:30:00 | |
| DO3MHA-11 | 2026-09-04 12:56:51 | 45.72182 | 13.53014 | 247° | 13km/h | 32775m | 4.8m/s | -39.1°C | 2.1% | 0hPa | 2.6V | 00:00:00 | 02:30:37 | 00:00:00 | |
| 9A1FER-10 | 2026-09-04 12:56:49 | 45.72184 | 13.53027 | 258° | 9km/h | 32759m | 6.4m/s | -39.2°C | 2.1% | 0hPa | 2.7V | 00:00:00 | 02:30:34 | 00:00:00 | |
| PETON7-10 | 2026-09-04 12:56:46 | 45.72186 | 13.53027 | 146° | 11km/h | 32747m | 5.2m/s | -39.1°C | 2.2% | 0hPa | 2.6V | 00:00:00 | 00:00:00 | 00:00:00 | |
| OE8JPQ-2 | 2026-09-04 12:56:44 | 45.72192 | 13.53024 | 176° | 11km/h | 32736m | 5.9m/s | -39.0°C | 2.2% | 0hPa | 2.6V | 00:00:00 | 02:30:30 | 00:00:00 | |
| OE5MMP-10 | 2026-09-04 12:56:43 | 45.72200 | 13.53027 | 210° | 9km/h | 32724m | 5.8m/s | -39.1°C | 2.2% | 0hPa | 2.6V | 00:00:00 | 02:30:28 | 00:00:00 | |
| DO3MHA-11 | 2026-09-04 12:56:41 | 45.72204 | 13.53030 | 221° | 7km/h | 32718m | 5.3m/s | -39.2°C | 2.2% | 0hPa | 2.6V | 00:00:00 | 02:30:27 | 00:00:00 | |
| IW2NTF | 2026-09-04 12:56:39 | 45.72211 | 13.53041 | 150° | 2km/h | 32693m | 6.1m/s | -39.4°C | 2.2% | 0hPa | 2.6V | 08:30:00 | 02:30:23 | 00:00:00 | |
| NBG1-10 | 2026-09-04 12:56:37 | 45.72211 | 13.53041 | 151° | 11km/h | 32694m | 6.1m/s | -39.4°C | 2.2% | 0hPa | 2.7V | 00:00:00 | 02:30:23 | 00:00:00 | |
| OE5DXL-15 | 2026-09-04 12:56:36 | 45.72211 | 13.53040 | 80° | 11km/h | 32688m | 5.4m/s | -39.4°C | 2.2% | 0hPa | 2.7V | 00:00:00 | 00:00:00 | 00:00:00 | |
| PG1ADW-2 | 2026-09-04 12:56:34 | 45.72212 | 13.53040 | 237° | 11km/h | 32677m | 6.4m/s | -39.3°C | 2.2% | 0hPa | 2.7V | 00:00:00 | 00:00:00 | 00:00:00 | |
| 9A1FER-10 | 2026-09-04 12:56:33 | 45.72212 | 13.53041 | 231° | 13km/h | 32671m | 6.3m/s | -39.2°C | 2.2% | 0hPa | 2.7V | 00:00:00 | 02:30:19 | 00:00:00 | |
| IW2NTF | 2026-09-04 12:56:32 | 45.72235 | 13.53046 | 160° | 16km/h | 32635m | 4.7m/s | -39°C | 2.1% | 0hPa | 2.7V | 08:30:00 | 02:30:13 | 00:00:00 | |
| OE5MMP-10 | 2026-09-04 12:56:32 | 45.72214 | 13.53044 | 221° | 13km/h | 32665m | 5.5m/s | -39.0°C | 2.1% | 0hPa | 2.6V | 00:00:00 | 02:30:18 | 00:00:00 | |
| DO3MHA-11 | 2026-09-04 12:56:31 | 45.72217 | 13.53047 | 207° | 15km/h | 32659m | 5.0m/s | -38.9°C | 2.1% | 0hPa | 2.6V | 00:00:00 | 02:30:17 | 00:00:00 | |
| OE8JPQ-2 | 2026-09-04 12:56:24 | 45.72241 | 13.53046 | 261° | 13km/h | 32618m | 6.6m/s | -38.8°C | 2.1% | 0hPa | 2.6V | 00:00:00 | 00:00:00 | 08:30:00 | |
| OE5MMP-10 | 2026-09-04 12:56:22 | 45.72240 | 13.53052 | 312° | 13km/h | 32606m | 5.6m/s | -38.8°C | 2.1% | 0hPa | 2.7V | 00:00:00 | 02:30:08 | 00:00:00 | |
| IN3HCDX1 | 2026-09-04 12:56:21 | 45.72240 | 13.53052 | 312° | 11km/h | 32606m | 5.7m/s | -38.9°C | 0.5% | 0hPa | 2.7V | 00:00:00 | 00:00:00 | 00:00:00 | |
| IW2NTF | 2026-09-04 12:56:19 | 45.72234 | 13.53049 | 136° | 9km/h | 32576m | 5m/s | -38.9°C | 2.1% | 0hPa | 2.7V | 08:30:00 | 02:30:03 | 00:00:00 | |
| 9A1FER-10 | 2026-09-04 12:56:18 | 45.72233 | 13.53052 | 96° | 15km/h | 32581m | 5.1m/s | -38.8°C | 2.1% | 0hPa | 2.7V | 00:00:00 | 02:30:04 | 00:00:00 | |
| PETON7-10 | 2026-09-04 12:56:16 | 45.72236 | 13.53047 | 169° | 15km/h | 32571m | 5.9m/s | -38.9°C | 2.1% | 0hPa | 2.7V | 00:00:00 | 02:30:02 | 00:00:00 | |
| PG1ADW-2 | 2026-09-04 12:56:14 | 45.72245 | 13.53050 | 207° | 16km/h | 32557m | 6.3m/s | -39.0°C | 2.2% | 0hPa | 2.7V | 00:00:00 | 00:00:00 | 00:00:00 | |
| IW2NTF | 2026-09-04 12:56:12 | 45.72257 | 13.53067 | 7° | 15km/h | 32516m | 5.5m/s | -38.8°C | 2.1% | 0hPa | 2.7V | 08:30:00 | 02:29:53 | 00:00:00 | |
| OE5MMP-10 | 2026-09-04 12:56:12 | 45.72255 | 13.53059 | 219° | 15km/h | 32547m | 4.7m/s | -38.8°C | 2.2% | 0hPa | 2.6V | 00:00:00 | 02:29:58 | 00:00:00 | |
| DO3MHA-11 | 2026-09-04 12:56:11 | 45.72258 | 13.53064 | 221° | 11km/h | 32541m | 5.7m/s | -38.7°C | 2.2% | 0hPa | 2.6V | 00:00:00 | 02:29:57 | 00:00:00 | |
| OE5DXL-15 | 2026-09-04 12:56:06 | 45.72253 | 13.53066 | 356° | 22km/h | 32510m | 6.7m/s | -38.7°C | 2.1% | 0hPa | 2.6V | 00:00:00 | 00:00:00 | 00:00:00 | |
| OE5DRO-10 | 2026-09-04 12:56:05 | 45.72247 | 13.53070 | 318° | 15km/h | 32498m | 5.3m/s | -38.5°C | 2.0% | 0hPa | 2.6V | 00:00:00 | 00:00:00 | 00:00:00 | |
| OE8JPQ-2 | 2026-09-04 12:56:04 | 45.72247 | 13.53070 | 318° | 22km/h | 32498m | 5.3m/s | -38.5°C | 2.0% | 0hPa | 2.6V | 00:00:00 | 00:00:00 | 00:00:00 | |
| 9A1FER-10 | 2026-09-04 12:56:03 | 45.72245 | 13.53074 | 293° | 18km/h | 32493m | 5.3m/s | -38.6°C | 2.0% | 0hPa | 2.6V | 00:00:00 | 02:29:49 | 08:30:00 | |
| OE5MMP-10 | 2026-09-04 12:56:02 | 45.72245 | 13.53077 | 258° | 18km/h | 32486m | 6.9m/s | -38.7°C | 2.0% | 0hPa | 2.7V | 00:00:00 | 02:29:48 | 00:00:00 | |
| DO3MHA-11 | 2026-09-04 12:56:01 | 45.72246 | 13.53080 | 221° | 18km/h | 32479m | 6.7m/s | -38.7°C | 2.1% | 0hPa | 2.7V | 00:00:00 | 02:29:47 | 00:00:00 | |
| IW2NTF | 2026-09-04 12:56:00 | 45.72263 | 13.53097 | 227° | 26km/h | 32454m | 5.9m/s | -38.5°C | 2.1% | 0hPa | 2.7V | 08:30:00 | 02:29:43 | 00:00:00 | |
| NBG1-10 | 2026-09-04 12:55:58 | 45.72258 | 13.53091 | 217° | 26km/h | 32461m | 6.7m/s | -38.5°C | 2.1% | 0hPa | 2.7V | 00:00:00 | 02:29:44 | 00:00:00 | |
| IW2NTF | 2026-09-04 12:55:52 | 45.72238 | 13.53132 | 263° | 27km/h | 32397m | 8m/s | -39°C | 2.1% | 0hPa | 2.7V | 08:30:00 | 02:29:33 | 00:00:00 | |
| OE5MMP-10 | 2026-09-04 12:55:52 | 45.72259 | 13.53118 | 3° | 31km/h | 32424m | 7.3m/s | -38.9°C | 2.1% | 0hPa | 2.7V | 00:00:00 | 02:29:38 | 00:00:00 | |
| DO3MHA-11 | 2026-09-04 12:55:51 | 45.72253 | 13.53117 | 6° | 31km/h | 32418m | 4.8m/s | -38.9°C | 2.1% | 0hPa | 2.7V | 00:00:00 | 02:29:37 | 00:00:00 | |
| 9A1FER-3 | 2026-09-04 12:55:50 | 45.72247 | 13.53117 | 356° | 33km/h | 32414m | 3.4m/s | -38.9°C | 2.0% | 0hPa | 2.7V | 00:00:00 | 02:29:36 | 00:00:00 | |
| 9A1FER-10 | 2026-09-04 12:55:48 | 45.72238 | 13.53124 | 297° | 27km/h | 32405m | 6.6m/s | -38.9°C | 2.1% | 0hPa | 2.7V | 00:00:00 | 02:29:34 | 00:00:00 | |
| PETON7-10 | 2026-09-04 12:55:46 | 45.72240 | 13.53143 | 245° | 29km/h | 32390m | 7.4m/s | -39.0°C | 2.1% | 0hPa | 2.7V | 00:00:00 | 00:00:00 | 00:00:00 | |
| OE8JPQ-2 | 2026-09-04 12:55:44 | 45.72253 | 13.53168 | 223° | 26km/h | 32378m | 4.6m/s | -39.0°C | 2.1% | 0hPa | 2.7V | 00:00:00 | 02:29:30 | 00:00:00 | |
| OE5MMP-10 | 2026-09-04 12:55:42 | 45.72269 | 13.53182 | 201° | 26km/h | 32369m | 5.3m/s | -39.2°C | 2.2% | 0hPa | 2.7V | 00:00:00 | 02:29:28 | 00:00:00 | |
| DO3MHA-11 | 2026-09-04 12:55:41 | 45.72273 | 13.53184 | 175° | 24km/h | 32363m | 5.9m/s | -39.2°C | 2.2% | 0hPa | 2.7V | 00:00:00 | 02:29:27 | 00:00:00 | |
| IN3HCDX1 | 2026-09-04 12:55:40 | 45.72273 | 13.53184 | 176° | 13km/h | 32363m | 6.0m/s | -39.3°C | 0.5% | 0hPa | 2.7V | 00:00:00 | 00:00:00 | 00:00:00 | |
| IN3HCDX | 2026-09-04 12:55:38 | 45.72272 | 13.53180 | 29° | 18km/h | 32349m | 7.6m/s | -39.4°C | 0.5% | 0hPa | 2.7V | 00:00:00 | 00:00:00 | 00:00:00 | |
| IW2NTF | 2026-09-04 12:55:37 | 45.72248 | 13.53186 | 310° | 24km/h | 32326m | 3.7m/s | -39.5°C | 2.1% | 0hPa | 2.7V | 08:30:00 | 02:29:21 | 00:00:00 | |
| OE5DXL-15 | 2026-09-04 12:55:36 | 45.72253 | 13.53180 | 335° | 20km/h | 32331m | 4.0m/s | -39.4°C | 2.1% | 0hPa | 2.7V | 00:00:00 | 00:00:00 | 00:00:00 | |
| 9A1FER-10 | 2026-09-04 12:55:33 | 45.72247 | 13.53199 | 240° | 24km/h | 32316m | 7.3m/s | -39.5°C | 2.1% | 0hPa | 2.7V | 00:00:00 | 02:29:19 | 00:00:00 | |
| DO3MHA-11 | 2026-09-04 12:55:31 | 45.72258 | 13.53208 | 190° | 31km/h | 32300m | 7.4m/s | -39.4°C | 2.2% | 0hPa | 2.7V | 00:00:00 | 02:29:17 | 00:00:00 | |
| IW2NTF | 2026-09-04 12:55:27 | 45.72279 | 13.53210 | 340° | 26km/h | 32266m | 8.2m/s | -39.5°C | 2.1% | 0hPa | 2.7V | 08:30:00 | 02:29:11 | 00:00:00 | |
| OE8JPQ-2 | 2026-09-04 12:55:24 | 45.72272 | 13.53214 | 344° | 18km/h | 32259m | 7.1m/s | -39.5°C | 2.1% | 0hPa | 2.7V | 00:00:00 | 00:00:00 | 00:00:00 | |
| OE5MMP-10 | 2026-09-04 12:55:21 | 45.72245 | 13.53221 | 360° | 15km/h | 32243m | 4.9m/s | -39.6°C | 2.1% | 0hPa | 2.6V | 00:00:00 | 02:29:07 | 08:30:00 | |
| IN3HCDX1 | 2026-09-04 12:55:20 | 45.72245 | 13.53221 | 361° | 26km/h | 32243m | 5.0m/s | -39.6°C | 0.5% | 0hPa | 2.7V | 00:00:00 | 00:00:00 | 00:00:00 | |
| 9A1FER-10 | 2026-09-04 12:55:18 | 45.72240 | 13.53216 | 154° | 15km/h | 32225m | 6.7m/s | -39.5°C | 2.1% | 0hPa | 2.7V | 00:00:00 | 02:29:04 | 00:00:00 | |
| IW2NTF | 2026-09-04 12:55:17 | 45.72252 | 13.53217 | 203° | 20km/h | 32203m | 6.1m/s | -39.8°C | 2.2% | 0hPa | 2.6V | 08:30:00 | 02:29:01 | 00:00:00 | |
| PETON7-10 | 2026-09-04 12:55:16 | 45.72247 | 13.53215 | 189° | 15km/h | 32210m | 7.0m/s | -39.7°C | 2.2% | 0hPa | 2.6V | 00:00:00 | 00:00:00 | 00:00:00 | |
| PG1ADW-2 | 2026-09-04 12:55:15 | 45.72252 | 13.53217 | 204° | 18km/h | 32204m | 6.0m/s | -39.7°C | 2.2% | 0hPa | 2.6V | 00:00:00 | 00:00:00 | 08:30:00 | |
| IN3HCDX | 2026-09-04 12:55:13 | 45.72256 | 13.53221 | 219° | 18km/h | 32198m | 5.2m/s | -39.7°C | 0.5% | 0hPa | 2.7V | 00:00:00 | 00:00:00 | 00:00:00 | |
| DB0UT-7 | 2026-09-04 12:55:12 | 45.72260 | 13.53229 | 257° | 16km/h | 32187m | 5.7m/s | -39.7°C | 2.2% | 0hPa | 2.7V | 00:00:00 | 00:00:00 | 00:00:00 | |
| DO3MHA-11 | 2026-09-04 12:55:11 | 45.72260 | 13.53232 | 296° | 13km/h | 32181m | 7.0m/s | -39.8°C | 2.2% | 0hPa | 2.7V | 00:00:00 | 02:28:57 | 00:00:00 | |
| OE5DRO-10 | 2026-09-04 12:55:07 | 45.72246 | 13.53232 | 4° | 18km/h | 32155m | 6.3m/s | -39.9°C | 2.2% | 0hPa | 2.7V | 00:00:00 | 00:00:00 | 00:00:00 | |
| IW2NTF | 2026-09-04 12:55:07 | 45.72236 | 13.53233 | 348° | 16km/h | 32143m | 4.8m/s | -40.3°C | 2.2% | 0hPa | 2.7V | 08:30:00 | 02:28:51 | 00:00:00 | |
| OE5DXL-15 | 2026-09-04 12:55:06 | 45.72241 | 13.53232 | 357° | 18km/h | 32148m | 6.3m/s | -40.1°C | 2.2% | 0hPa | 2.7V | 00:00:00 | 00:00:00 | 00:00:00 | |
| OE8JPQ-2 | 2026-09-04 12:55:04 | 45.72234 | 13.53234 | 333° | 16km/h | 32138m | 4.5m/s | -40.4°C | 2.2% | 0hPa | 2.7V | 00:00:00 | 00:00:00 | 00:00:00 | |
| 9A1FER-10 | 2026-09-04 12:55:03 | 45.72234 | 13.53234 | 182° | 18km/h | 32133m | 6.2m/s | -40.5°C | 2.3% | 0hPa | 2.7V | 00:00:00 | 02:28:49 | 00:00:00 | |
| DO3MHA-11 | 2026-09-04 12:55:01 | 45.72241 | 13.53232 | 166° | 29km/h | 32118m | 7.5m/s | -40.5°C | 2.3% | 0hPa | 2.7V | 00:00:00 | 02:28:47 | 00:00:00 | |
| IN3HCDX1 | 2026-09-04 12:54:59 | 45.72248 | 13.53230 | 168° | 31km/h | 32111m | 5.2m/s | -40.6°C | 0.6% | 0hPa | 2.7V | 00:00:00 | 00:00:00 | 00:00:00 | |
| IW2NTF | 2026-09-04 12:54:56 | 45.72262 | 13.53228 | 354° | 16km/h | 32082m | 7.5m/s | -40.7°C | 2.3% | 0hPa | 2.7V | 08:30:00 | 02:28:41 | 00:00:00 | |
| IN3HCDX | 2026-09-04 12:54:52 | 45.72250 | 13.53227 | 9° | 29km/h | 32068m | 6.2m/s | -40.9°C | 0.6% | 0hPa | 2.6V | 00:00:00 | 00:00:00 | 00:00:00 | |
| OE5MMP-10 | 2026-09-04 12:54:51 | 45.72237 | 13.53224 | 11° | 16km/h | 32058m | 4.4m/s | -40.6°C | 2.3% | 0hPa | 2.6V | 00:00:00 | 02:28:37 | 00:00:00 | |
| 9A1FER-3 | 2026-09-04 12:54:50 | 45.72232 | 13.53223 | 6° | 11km/h | 32053m | 5.5m/s | -40.5°C | 2.3% | 0hPa | 2.7V | 00:00:00 | 02:28:36 | 08:30:00 | |
| IV3AMH | 2026-09-04 12:54:49 | 45.72233 | 13.53223 | 7° | 15km/h | 32053m | 5.6m/s | -40.5°C | 0.6% | 0hPa | 2.7V | 00:00:00 | 00:00:00 | 00:00:00 | |
| 9A1FER-10 | 2026-09-04 12:54:48 | 45.72229 | 13.53224 | 211° | 18km/h | 32041m | 6.4m/s | -40.5°C | 2.3% | 0hPa | 2.7V | 00:00:00 | 02:28:34 | 00:00:00 | |
| IW2NTF | 2026-09-04 12:54:47 | 45.72239 | 13.53219 | 145° | 24km/h | 32021m | 7.2m/s | -40.6°C | 2.3% | 0hPa | 2.7V | 08:30:00 | 02:28:31 | 00:00:00 | |
| PETON7-10 | 2026-09-04 12:54:46 | 45.72235 | 13.53222 | 158° | 16km/h | 32028m | 6.2m/s | -40.5°C | 2.3% | 0hPa | 2.6V | 00:00:00 | 02:28:32 | 00:00:00 | |
| OE8JPQ-2 | 2026-09-04 12:54:44 | 45.72244 | 13.53213 | 133° | 16km/h | 32015m | 5.7m/s | -40.6°C | 2.3% | 0hPa | 2.6V | 00:00:00 | 02:28:30 | 00:00:00 | |
| DB0UT-7 | 2026-09-04 12:54:42 | 45.72249 | 13.53199 | 105° | 16km/h | 32005m | 4.4m/s | -40.5°C | 2.3% | 0hPa | 2.6V | 00:00:00 | 02:28:28 | 00:00:00 | |
| OE5MMP-10 | 2026-09-04 12:54:41 | 45.72249 | 13.53194 | 74° | 16km/h | 32000m | 6.5m/s | -40.4°C | 2.3% | 0hPa | 2.6V | 00:00:00 | 02:28:27 | 00:00:00 | |
| IN3HCDX1 | 2026-09-04 12:54:39 | 45.72248 | 13.53192 | 10° | 11km/h | 31993m | 7.5m/s | -40.4°C | 0.5% | 0hPa | 2.6V | 00:00:00 | 00:00:00 | 00:00:00 | |
| IW2NTF | 2026-09-04 12:54:36 | 45.72221 | 13.53207 | 349° | 16km/h | 31962m | 5.9m/s | -40.2°C | 2.3% | 0hPa | 2.6V | 08:30:00 | 02:28:21 | 00:00:00 | |
| OE5DXL-15 | 2026-09-04 12:54:36 | 45.72226 | 13.53205 | 339° | 16km/h | 31969m | 5.8m/s | -40.3°C | 2.3% | 0hPa | 2.7V | 00:00:00 | 00:00:00 | 00:00:00 | |
| 9A1FER-10 | 2026-09-04 12:54:33 | 45.72217 | 13.53206 | 93° | 16km/h | 31951m | 5.9m/s | -40.2°C | 2.3% | 0hPa | 2.7V | 00:00:00 | 02:28:19 | 00:00:00 | |
| OE5MMP-10 | 2026-09-04 12:54:31 | 45.72220 | 13.53201 | 157° | 16km/h | 31938m | 6.8m/s | -40.2°C | 2.3% | 0hPa | 2.6V | 00:00:00 | 02:28:17 | 00:00:00 | |
| PETON7-10 | 2026-09-04 12:54:30 | 45.72223 | 13.53201 | 175° | 15km/h | 31932m | 5.5m/s | -40.1°C | 2.3% | 0hPa | 2.6V | 00:00:00 | 00:00:00 | 00:00:00 | |
| OE5DRO-10 | 2026-09-04 12:54:29 | 45.72225 | 13.53201 | 191° | 18km/h | 31927m | 4.6m/s | -40.0°C | 2.3% | 0hPa | 2.6V | 00:00:00 | 00:00:00 | 00:00:00 | |
| IW2NTF | 2026-09-04 12:54:26 | 45.72215 | 13.53200 | 6° | 26km/h | 31903m | 6.5m/s | -40.2°C | 2.3% | 0hPa | 2.6V | 08:30:00 | 02:28:11 | 00:00:00 | |
| IN3HCDX | 2026-09-04 12:54:25 | 45.72220 | 13.53201 | 8° | 18km/h | 31910m | 7.1m/s | -40.2°C | 0.5% | 0hPa | 2.6V | 00:00:00 | 00:00:00 | 00:00:00 | |
| OE8JPQ-2 | 2026-09-04 12:54:24 | 45.72207 | 13.53199 | 1° | 20km/h | 31897m | 5.1m/s | -40.2°C | 2.3% | 0hPa | 2.6V | 00:00:00 | 00:00:00 | 00:00:00 | |
| OE5MMP-10 | 2026-09-04 12:54:21 | 45.72187 | 13.53207 | 322° | 15km/h | 31880m | 6.5m/s | -39.9°C | 2.3% | 0hPa | 2.6V | 00:00:00 | 02:28:07 | 00:00:00 | |
| IN3HCDX1 | 2026-09-04 12:54:19 | 45.72181 | 13.53220 | 288° | 18km/h | 31869m | 4.9m/s | -39.9°C | 0.5% | 0hPa | 2.6V | 00:00:00 | 00:00:00 | 00:00:00 | |
| 9A1FER-10 | 2026-09-04 12:54:18 | 45.72180 | 13.53226 | 281° | 18km/h | 31863m | 6.0m/s | -39.9°C | 2.3% | 0hPa | 2.6V | 00:00:00 | 02:28:04 | 00:00:00 | |
| IW2NTF | 2026-09-04 12:54:17 | 45.72178 | 13.53233 | 348° | 7km/h | 31845m | 5.3m/s | -39.7°C | 2.3% | 0hPa | 2.6V | 08:30:00 | 02:28:01 | 00:00:00 | |
| PETON7-10 | 2026-09-04 12:54:15 | 45.72177 | 13.53233 | 349° | 20km/h | 31845m | 5.3m/s | -39.7°C | 2.3% | 0hPa | 2.6V | 00:00:00 | 00:00:00 | 00:00:00 | |
| OE5MMP-10 | 2026-09-04 12:54:11 | 45.72163 | 13.53242 | 330° | 24km/h | 31821m | 5.2m/s | -39.9°C | 2.2% | 0hPa | 2.6V | 00:00:00 | 02:27:57 | 00:00:00 | |
| OE5DRO-10 | 2026-09-04 12:54:10 | 45.72157 | 13.53247 | 331° | 20km/h | 31816m | 5.5m/s | -39.9°C | 2.2% | 0hPa | 2.6V | 00:00:00 | 00:00:00 | 08:30:00 | |
| IW2NTF | 2026-09-04 12:54:06 | 45.72133 | 13.53274 | 291° | 24km/h | 31787m | 6.9m/s | -39.6°C | 2.3% | 0hPa | 2.7V | 08:30:00 | 02:27:51 | 00:00:00 | |
| OE5DXL-15 | 2026-09-04 12:54:06 | 45.72136 | 13.53267 | 307° | 16km/h | 31793m | 5.7m/s | -39.7°C | 2.3% | 0hPa | 2.7V | 00:00:00 | 00:00:00 | 00:00:00 | |
| NBG1-10 | 2026-09-04 12:54:05 | 45.72133 | 13.53274 | 292° | 26km/h | 31787m | 6.9m/s | -39.5°C | 2.3% | 0hPa | 2.7V | 00:00:00 | 02:27:51 | 00:00:00 | |
| OE8JPQ-2 | 2026-09-04 12:54:04 | 45.72131 | 13.53282 | 276° | 15km/h | 31781m | 5.7m/s | -39.5°C | 2.3% | 0hPa | 2.7V | 00:00:00 | 00:00:00 | 00:00:00 | |
| 9A1FER-10 | 2026-09-04 12:54:03 | 45.72131 | 13.53291 | 266° | 16km/h | 31776m | 4.5m/s | -39.6°C | 2.3% | 0hPa | 2.7V | 00:00:00 | 02:27:49 | 00:00:00 | |
| OE5MMP-10 | 2026-09-04 12:54:01 | 45.72132 | 13.53303 | 259° | 16km/h | 31765m | 6.5m/s | -39.7°C | 2.3% | 0hPa | 2.7V | 00:00:00 | 02:27:47 | 00:00:00 | |
| PETON7-10 | 2026-09-04 12:54:00 | 45.72133 | 13.53306 | 283° | 15km/h | 31759m | 6.6m/s | -39.6°C | 2.2% | 0hPa | 2.7V | 00:00:00 | 02:27:46 | 00:00:00 | |
| IN3HCDX1 | 2026-09-04 12:53:58 | 45.72132 | 13.53306 | 358° | 5km/h | 31753m | 5.5m/s | -39.7°C | 0.5% | 0hPa | 2.7V | 00:00:00 | 00:00:00 | 00:00:00 | |
| IW2NTF | 2026-09-04 12:53:56 | 45.72120 | 13.53317 | 298° | 24km/h | 31730m | 5.8m/s | -39.6°C | 2.2% | 0hPa | 2.7V | 08:30:00 | 02:27:41 | 00:00:00 | |
| OE5DRO-10 | 2026-09-04 12:53:52 | 45.72119 | 13.53351 | 246° | 13km/h | 31709m | 6.3m/s | -39.2°C | 2.2% | 0hPa | 2.7V | 00:00:00 | 00:00:00 | 00:00:00 | |
| OE5MMP-10 | 2026-09-04 12:53:51 | 45.72119 | 13.53351 | 246° | 15km/h | 31709m | 6.3m/s | -39.2°C | 2.2% | 0hPa | 2.7V | 00:00:00 | 02:27:37 | 08:30:00 | |
| PG1ADW-2 | 2026-09-04 12:53:50 | 45.72121 | 13.53356 | 224° | 13km/h | 31703m | 6.4m/s | -39.2°C | 2.3% | 0hPa | 2.6V | 00:00:00 | 00:00:00 | 00:00:00 | |
| 9A1FER-10 | 2026-09-04 12:53:48 | 45.72126 | 13.53358 | 182° | 15km/h | 31691m | 4.7m/s | -39.0°C | 2.2% | 0hPa | 2.6V | 00:00:00 | 02:27:34 | 08:30:00 | |
| IW2NTF | 2026-09-04 12:53:46 | 45.72129 | 13.53364 | 274° | 15km/h | 31675m | 6.2m/s | -39.2°C | 2.1% | 0hPa | 2.7V | 08:30:00 | 02:27:31 | 00:00:00 | |
| PETON7-10 | 2026-09-04 12:53:45 | 45.72128 | 13.53364 | 275° | 15km/h | 31675m | 6.1m/s | -39.2°C | 2.1% | 0hPa | 2.7V | 00:00:00 | 00:00:00 | 08:30:00 | |
| OE8JPQ-2 | 2026-09-04 12:53:44 | 45.72128 | 13.53371 | 275° | 16km/h | 31669m | 5.6m/s | -39.2°C | 2.2% | 0hPa | 2.6V | 00:00:00 | 02:27:30 | 00:00:00 | |
| OE5MMP-10 | 2026-09-04 12:53:41 | 45.72130 | 13.53396 | 252° | 13km/h | 31653m | 6.3m/s | -39.0°C | 2.2% | 0hPa | 2.6V | 00:00:00 | 02:27:27 | 00:00:00 | |
| IN3HCDX1 | 2026-09-04 12:53:38 | 45.72135 | 13.53408 | 222° | 16km/h | 31641m | 5.6m/s | -39.0°C | 0.5% | 0hPa | 2.6V | 00:00:00 | 00:00:00 | 00:00:00 | |
| IW2NTF | 2026-09-04 12:53:36 | 45.72145 | 13.53418 | 217° | 5km/h | 31618m | 4.7m/s | -38.8°C | 2.2% | 0hPa | 2.6V | 08:30:00 | 02:27:21 | 00:00:00 | |
| OE5DXL-15 | 2026-09-04 12:53:36 | 45.72143 | 13.53416 | 216° | 13km/h | 31624m | 5.3m/s | -38.7°C | 2.2% | 0hPa | 2.7V | 00:00:00 | 00:00:00 | 00:00:00 | |
| 9A1FER-10 | 2026-09-04 12:53:33 | 45.72147 | 13.53419 | 179° | 16km/h | 31609m | 5.7m/s | -38.8°C | 2.2% | 0hPa | 2.7V | 00:00:00 | 02:27:19 | 00:00:00 | |
| OE5DRO-10 | 2026-09-04 12:53:32 | 45.72149 | 13.53419 | 176° | 15km/h | 31603m | 6.4m/s | -38.6°C | 2.1% | 0hPa | 2.7V | 00:00:00 | 00:00:00 | 00:00:00 | |
| OE5MMP-10 | 2026-09-04 12:53:31 | 45.72152 | 13.53419 | 186° | 18km/h | 31597m | 5.0m/s | -38.6°C | 2.1% | 0hPa | 2.7V | 00:00:00 | 02:27:17 | 00:00:00 | |
| PG1ADW-2 | 2026-09-04 12:53:30 | 45.72155 | 13.53421 | 210° | 15km/h | 31592m | 4.5m/s | -38.6°C | 2.1% | 0hPa | 2.7V | 00:00:00 | 00:00:00 | 00:00:00 | |
| IN3HCDX | 2026-09-04 12:53:28 | 45.72158 | 13.53424 | 231° | 16km/h | 31587m | 5.6m/s | -38.7°C | 0.5% | 0hPa | 2.7V | 00:00:00 | 00:00:00 | 00:00:00 | |
| IW2NTF | 2026-09-04 12:53:26 | 45.72166 | 13.53453 | 246° | 22km/h | 31566m | 4.6m/s | -38.8°C | 2.1% | 0hPa | 2.7V | 08:30:00 | 02:27:11 | 00:00:00 | |
| OE8JPQ-2 | 2026-09-04 12:53:24 | 45.72168 | 13.53459 | 230° | 13km/h | 31561m | 5.8m/s | -38.6°C | 2.1% | 0hPa | 2.7V | 00:00:00 | 00:00:00 | 08:30:00 | |
| OE5MMP-10 | 2026-09-04 12:53:21 | 45.72180 | 13.53464 | 173° | 11km/h | 31544m | 4.4m/s | -38.6°C | 2.1% | 0hPa | 2.6V | 00:00:00 | 02:27:07 | 00:00:00 | |
| 9A1FER-10 | 2026-09-04 12:53:18 | 45.72191 | 13.53464 | 217° | 11km/h | 31529m | 5.2m/s | -38.5°C | 2.1% | 0hPa | 2.6V | 00:00:00 | 02:27:04 | 00:00:00 | |
| IN3HCDX1 | 2026-09-04 12:53:17 | 45.72191 | 13.53464 | 218° | 9km/h | 31529m | 5.3m/s | -38.5°C | 0.5% | 0hPa | 2.6V | 00:00:00 | 00:00:00 | 00:00:00 | |
| IW2NTF | 2026-09-04 12:53:16 | 45.72195 | 13.53475 | 244° | 11km/h | 31514m | 5.1m/s | -38.7°C | 2% | 0hPa | 2.6V | 08:30:00 | 02:27:01 | 00:00:00 | |
| PETON7-10 | 2026-09-04 12:53:15 | 45.72195 | 13.53475 | 245° | 16km/h | 31514m | 5.1m/s | -38.7°C | 2.0% | 0hPa | 2.7V | 00:00:00 | 02:27:01 | 00:00:00 | |
| OE5DRO-10 | 2026-09-04 12:53:13 | 45.72197 | 13.53479 | 200° | 15km/h | 31503m | 5.6m/s | -38.5°C | 2.0% | 0hPa | 2.7V | 00:00:00 | 00:00:00 | 00:00:00 | |
| DB0UT-7 | 2026-09-04 12:53:12 | 45.72199 | 13.53480 | 174° | 15km/h | 31498m | 5.1m/s | -38.5°C | 2.0% | 0hPa | 2.7V | 00:00:00 | 00:00:00 | 00:00:00 | |
| OE5MMP-10 | 2026-09-04 12:53:11 | 45.72201 | 13.53479 | 168° | 13km/h | 31493m | 4.7m/s | -38.6°C | 2.0% | 0hPa | 2.6V | 00:00:00 | 02:26:57 | 00:00:00 | |
| PG1ADW-2 | 2026-09-04 12:53:10 | 45.72204 | 13.53479 | 181° | 16km/h | 31488m | 4.5m/s | -38.7°C | 2.0% | 0hPa | 2.6V | 00:00:00 | 02:26:56 | 00:00:00 | |
| IN3HCDX | 2026-09-04 12:53:07 | 45.72207 | 13.53482 | 233° | 11km/h | 31477m | 5.9m/s | -39.0°C | 0.5% | 0hPa | 2.7V | 00:00:00 | 00:00:00 | 00:00:00 | |
| IW2NTF | 2026-09-04 12:53:06 | 45.72215 | 13.53493 | 207° | 18km/h | 31462m | 5m/s | -39.1°C | 2.1% | 0hPa | 2.7V | 08:30:00 | 02:26:51 | 00:00:00 | |
| OE5DXL-15 | 2026-09-04 12:53:06 | 45.72211 | 13.53489 | 225° | 15km/h | 31467m | 4.0m/s | -38.9°C | 2.1% | 0hPa | 2.6V | 00:00:00 | 00:00:00 | 00:00:00 | |
| OE8JPQ-2 | 2026-09-04 12:53:04 | 45.72219 | 13.53495 | 192° | 16km/h | 31457m | 6.5m/s | -39.3°C | 2.1% | 0hPa | 2.6V | 00:00:00 | 00:00:00 | 00:00:00 | |
| 9A1FER-10 | 2026-09-04 12:53:03 | 45.72225 | 13.53495 | 179° | 16km/h | 31451m | 5.9m/s | -39.4°C | 2.1% | 0hPa | 2.6V | 00:00:00 | 02:26:49 | 00:00:00 | |
| OE5MMP-10 | 2026-09-04 12:53:01 | 45.72237 | 13.53493 | 172° | 16km/h | 31441m | 4.1m/s | -39.4°C | 2.1% | 0hPa | 2.7V | 00:00:00 | 02:26:47 | 00:00:00 | |
| PETON7-10 | 2026-09-04 12:53:00 | 45.72243 | 13.53492 | 177° | 15km/h | 31436m | 5.4m/s | -39.6°C | 2.1% | 0hPa | 2.7V | 00:00:00 | 00:00:00 | 00:00:00 | |
| IW2NTF | 2026-09-04 12:52:56 | 45.72255 | 13.53502 | 201° | 11km/h | 31409m | 5.5m/s | -40°C | 2.2% | 0hPa | 2.7V | 08:30:00 | 02:26:41 | 00:00:00 | |
| 9A1FER-3 | 2026-09-04 12:52:56 | 45.72253 | 13.53499 | 229° | 13km/h | 31415m | 4.6m/s | -39.8°C | 2.2% | 0hPa | 2.7V | 00:00:00 | 02:26:42 | 00:00:00 | |
| OE5DRO-10 | 2026-09-04 12:52:54 | 45.72258 | 13.53502 | 178° | 13km/h | 31404m | 5.6m/s | -40.0°C | 2.2% | 0hPa | 2.7V | 00:00:00 | 00:00:00 | 00:00:00 | |
| IV3AMH | 2026-09-04 12:52:52 | 45.72262 | 13.53501 | 168° | 20km/h | 31399m | 5.0m/s | -40.1°C | 0.6% | 0hPa | 2.7V | 00:00:00 | 00:00:00 | 00:00:00 | |
| OE5MMP-10 | 2026-09-04 12:52:51 | 45.72273 | 13.53497 | 164° | 13km/h | 31389m | 5.4m/s | -40.1°C | 2.3% | 0hPa | 2.7V | 00:00:00 | 02:26:37 | 00:00:00 | |
| IW2NTF | 2026-09-04 12:52:50 | 45.72291 | 13.53484 | 110° | 11km/h | 31356m | 5.1m/s | -40.3°C | 2.3% | 0hPa | 2.6V | 08:30:00 | 02:26:31 | 00:00:00 | |
| PG1ADW-2 | 2026-09-04 12:52:50 | 45.72277 | 13.53495 | 166° | 11km/h | 31383m | 5.9m/s | -40.1°C | 2.3% | 0hPa | 2.7V | 00:00:00 | 00:00:00 | 00:00:00 | |
| 9A1FER-10 | 2026-09-04 12:52:48 | 45.72285 | 13.53492 | 158° | 11km/h | 31373m | 4.9m/s | -40.2°C | 2.3% | 0hPa | 2.7V | 00:00:00 | 02:26:34 | 00:00:00 | |
| IN3HCDX | 2026-09-04 12:52:46 | 45.72287 | 13.53490 | 143° | 11km/h | 31368m | 5.5m/s | -40.2°C | 0.5% | 0hPa | 2.7V | 00:00:00 | 00:00:00 | 00:00:00 | |
| PETON7-10 | 2026-09-04 12:52:45 | 45.72291 | 13.53484 | 111° | 9km/h | 31356m | 5.0m/s | -40.3°C | 2.3% | 0hPa | 2.7V | 00:00:00 | 00:00:00 | 00:00:00 | |
| OE8JPQ-2 | 2026-09-04 12:52:44 | 45.72291 | 13.53480 | 97° | 11km/h | 31351m | 4.6m/s | -40.3°C | 2.3% | 0hPa | 2.7V | 00:00:00 | 02:26:30 | 00:00:00 | |
| DB0UT-7 | 2026-09-04 12:52:42 | 45.72290 | 13.53474 | 41° | 13km/h | 31341m | 6.6m/s | -40.3°C | 2.3% | 0hPa | 2.7V | 00:00:00 | 02:26:28 | 00:00:00 | |
| OE5MMP-10 | 2026-09-04 12:52:41 | 45.72289 | 13.53473 | 12° | 11km/h | 31334m | 6.0m/s | -40.4°C | 2.3% | 0hPa | 2.7V | 00:00:00 | 02:26:27 | 00:00:00 | |
| IW2NTF | 2026-09-04 12:52:37 | 45.72295 | 13.53459 | 139° | 18km/h | 31302m | 4.5m/s | -40.4°C | 2.3% | 0hPa | 2.7V | 08:30:00 | 02:26:21 | 00:00:00 | |
| OE5DXL-15 | 2026-09-04 12:52:36 | 45.72291 | 13.53463 | 138° | 15km/h | 31307m | 4.8m/s | -40.3°C | 2.3% | 0hPa | 2.7V | 00:00:00 | 00:00:00 | 08:30:00 | |
| OE5DRO-10 | 2026-09-04 12:52:35 | 45.72295 | 13.53459 | 140° | 13km/h | 31302m | 4.5m/s | -40.4°C | 2.3% | 0hPa | 2.6V | 00:00:00 | 00:00:00 | 00:00:00 | |
| 9A1FER-10 | 2026-09-04 12:52:33 | 45.72301 | 13.53452 | 141° | 13km/h | 31291m | 5.6m/s | -40.4°C | 2.3% | 0hPa | 2.6V | 00:00:00 | 02:26:19 | 00:00:00 | |
| IW2NTF | 2026-09-04 12:52:31 | 45.72291 | 13.53420 | 53° | 18km/h | 31248m | 5.6m/s | -40.3°C | 2.3% | 0hPa | 2.6V | 08:30:00 | 02:26:11 | 00:00:00 | |
| PETON7-10 | 2026-09-04 12:52:30 | 45.72301 | 13.53447 | 54° | 15km/h | 31276m | 5.5m/s | -40.3°C | 2.3% | 0hPa | 2.7V | 00:00:00 | 02:26:16 | 00:00:00 | |
| OE8JPQ-2 | 2026-09-04 12:52:24 | 45.72288 | 13.53416 | 42° | 15km/h | 31243m | 6.5m/s | -40.3°C | 2.3% | 0hPa | 2.7V | 00:00:00 | 00:00:00 | 00:00:00 | |
| OE5MMP-10 | 2026-09-04 12:52:21 | 45.72281 | 13.53408 | 68° | 13km/h | 31226m | 5.5m/s | -40.3°C | 2.3% | 0hPa | 2.6V | 00:00:00 | 02:26:07 | 08:30:00 | |
| 9A1FER-10 | 2026-09-04 12:52:18 | 45.72283 | 13.53394 | 115° | 16km/h | 31209m | 4.6m/s | -40.2°C | 2.3% | 0hPa | 2.7V | 00:00:00 | 02:26:04 | 00:00:00 | |
| OE5DRO-10 | 2026-09-04 12:52:16 | 45.72285 | 13.53384 | 92° | 22km/h | 31199m | 6.0m/s | -40.2°C | 2.3% | 0hPa | 2.6V | 00:00:00 | 00:00:00 | 00:00:00 | |
| IW2NTF | 2026-09-04 12:52:16 | 45.72285 | 13.53381 | 51° | 9km/h | 31192m | 6.1m/s | -40.1°C | 2.2% | 0hPa | 2.7V | 08:30:00 | 02:26:01 | 00:00:00 | |
| PETON7-10 | 2026-09-04 12:52:15 | 45.72285 | 13.53381 | 52° | 16km/h | 31192m | 6.1m/s | -40.1°C | 2.2% | 0hPa | 2.7V | 00:00:00 | 00:00:00 | 00:00:00 | |
| IN3HCDX1 | 2026-09-04 12:52:14 | 45.72285 | 13.53381 | 53° | 9km/h | 31192m | 6.1m/s | -40.1°C | 0.5% | 0hPa | 2.7V | 00:00:00 | 00:00:00 | 00:00:00 | |
| DB0UT-7 | 2026-09-04 12:52:12 | 45.72275 | 13.53373 | 35° | 20km/h | 31176m | 5.9m/s | -40.1°C | 2.2% | 0hPa | 2.7V | 00:00:00 | 00:00:00 | 00:00:00 | |
| OE5MMP-10 | 2026-09-04 12:52:11 | 45.72271 | 13.53368 | 46° | 16km/h | 31169m | 6.3m/s | 0°C | 0% | 0hPa | 2.7V | 00:00:00 | 02:25:57 | 00:00:00 | |
| IW2NTF | 2026-09-04 12:52:10 | 45.72255 | 13.53337 | 58° | 11km/h | 31134m | 5.1m/s | -40.4°C | 2.3% | 0hPa | 2.7V | 08:30:00 | 02:25:51 | 00:00:00 | |
| PG1ADW-2 | 2026-09-04 12:52:10 | 45.72268 | 13.53362 | 55° | 22km/h | 31163m | 5.7m/s | -40.2°C | 2.3% | 0hPa | 2.7V | 00:00:00 | 00:00:00 | 00:00:00 | |
| OE5DXL-15 | 2026-09-04 12:52:06 | 45.72257 | 13.53341 | 50° | 22km/h | 31140m | 5.4m/s | -40.3°C | 2.3% | 0hPa | 2.6V | 00:00:00 | 00:00:00 | 00:00:00 | |
| OE8JPQ-2 | 2026-09-04 12:52:04 | 45.72254 | 13.53333 | 72° | 22km/h | 31129m | 6.6m/s | -40.4°C | 2.3% | 0hPa | 2.6V | 00:00:00 | 00:00:00 | 00:00:00 | |
| IN3HCDX | 2026-09-04 12:52:03 | 45.72253 | 13.53329 | 79° | 15km/h | 31122m | 6.2m/s | -40.4°C | 0.6% | 0hPa | 2.6V | 00:00:00 | 00:00:00 | 00:00:00 | |
| OE5MMP-10 | 2026-09-04 12:52:01 | 45.72250 | 13.53319 | 59° | 24km/h | 31112m | 5.0m/s | 0°C | 0% | 0hPa | 2.6V | 00:00:00 | 02:25:47 | 00:00:00 | |
| PETON7-10 | 2026-09-04 12:52:00 | 45.72247 | 13.53314 | 39° | 24km/h | 31106m | 6.2m/s | -40.5°C | 2.3% | 0hPa | 2.6V | 00:00:00 | 00:00:00 | 00:00:00 | |
| IW2NTF | 2026-09-04 12:51:56 | 45.72218 | 13.53296 | 36° | 29km/h | 31074m | 6.6m/s | -40.7°C | 2.4% | 0hPa | 2.6V | 08:30:00 | 02:25:41 | 00:00:00 | |
| 9A1FER-3 | 2026-09-04 12:51:56 | 45.72225 | 13.53301 | 25° | 24km/h | 31081m | 6.1m/s | -40.6°C | 2.3% | 0hPa | 2.6V | 00:00:00 | 02:25:42 | 00:00:00 | |
| IN3HCDX1 | 2026-09-04 12:51:54 | 45.72218 | 13.53296 | 37° | 29km/h | 31075m | 6.6m/s | -40.7°C | 0.6% | 0hPa | 2.7V | 00:00:00 | 00:00:00 | 00:00:00 | |
| OE5MMP-10 | 2026-09-04 12:51:51 | 45.72200 | 13.53265 | 49° | 20km/h | 31052m | 6.6m/s | 0°C | 0% | 0hPa | 2.7V | 00:00:00 | 02:25:37 | 00:00:00 | |
| IW2NTF | 2026-09-04 12:51:50 | 45.72179 | 13.53240 | 49° | 18km/h | 31014m | 4.9m/s | -40.4°C | 2.3% | 0hPa | 2.7V | 08:30:00 | 02:25:31 | 00:00:00 | |
| PG1ADW-2 | 2026-09-04 12:51:50 | 45.72196 | 13.53260 | 40° | 20km/h | 31045m | 6.5m/s | -40.6°C | 2.4% | 0hPa | 2.6V | 00:00:00 | 02:25:36 | 00:00:00 | |
| 9A1FER-10 | 2026-09-04 12:51:48 | 45.72188 | 13.53252 | 32° | 22km/h | 31033m | 6.0m/s | -40.4°C | 2.3% | 0hPa | 2.6V | 00:00:00 | 02:25:34 | 00:00:00 | |
| PETON7-10 | 2026-09-04 12:51:45 | 45.72179 | 13.53240 | 50° | 22km/h | 31015m | 4.9m/s | -40.4°C | 2.3% | 0hPa | 2.6V | 00:00:00 | 02:25:31 | 00:00:00 | |
| OE8JPQ-2 | 2026-09-04 12:51:44 | 45.72176 | 13.53235 | 43° | 26km/h | 31009m | 5.1m/s | -40.4°C | 2.3% | 0hPa | 2.6V | 00:00:00 | 02:25:30 | 00:00:00 | |
| DB0UT-7 | 2026-09-04 12:51:42 | 45.72165 | 13.53224 | 30° | 24km/h | 30997m | 6.9m/s | -40.3°C | 2.3% | 0hPa | 2.6V | 00:00:00 | 02:25:28 | 08:30:00 | |
| 9A1FER-3 | 2026-09-04 12:51:41 | 45.72158 | 13.53219 | 27° | 22km/h | 30991m | 5.8m/s | -40.3°C | 2.3% | 0hPa | 2.7V | 00:00:00 | 02:25:27 | 00:00:00 | |
| IW2NTF | 2026-09-04 12:51:36 | 45.72129 | 13.53184 | 49° | 13km/h | 30955m | 5.6m/s | -40.2°C | 2.3% | 0hPa | 2.7V | 08:30:00 | 02:25:21 | 00:00:00 | |
| OE5DXL-15 | 2026-09-04 12:51:36 | 45.72132 | 13.53188 | 60° | 26km/h | 30961m | 5.0m/s | -40.1°C | 2.3% | 0hPa | 2.7V | 00:00:00 | 00:00:00 | 00:00:00 | |
| 9A1FER-10 | 2026-09-04 12:51:33 | 45.72124 | 13.53181 | 3° | 26km/h | 30943m | 6.0m/s | -40.0°C | 2.3% | 0hPa | 2.7V | 00:00:00 | 02:25:19 | 08:30:00 | |
| OE5MMP-10 | 2026-09-04 12:51:30 | 45.72108 | 13.53178 | 17° | 27km/h | 30926m | 6.7m/s | 0°C | 0% | 0hPa | 2.7V | 00:00:00 | 02:25:16 | 00:00:00 | |
| IW2NTF | 2026-09-04 12:51:29 | 45.72074 | 13.53149 | 26° | 31km/h | 30896m | 6.9m/s | -40°C | 2.3% | 0hPa | 2.7V | 08:30:00 | 02:25:11 | 00:00:00 | |
| IV3AMH | 2026-09-04 12:51:27 | 45.72095 | 13.53169 | 36° | 33km/h | 30913m | 6.0m/s | -40.0°C | 0.6% | 0hPa | 2.6V | 00:00:00 | 00:00:00 | 00:00:00 | |
| OE8JPQ-2 | 2026-09-04 12:51:24 | 45.72067 | 13.53145 | 18° | 27km/h | 30889m | 6.2m/s | -40.1°C | 2.3% | 0hPa | 2.6V | 00:00:00 | 00:00:00 | 00:00:00 | |
| IN3HCDX | 2026-09-04 12:51:21 | 45.72054 | 13.53140 | 11° | 22km/h | 30878m | 6.0m/s | -40.1°C | 0.6% | 0hPa | 2.6V | 00:00:00 | 00:00:00 | 00:00:00 | |
| OE5MMP-10 | 2026-09-04 12:51:20 | 45.72045 | 13.53138 | 16° | 24km/h | 30865m | 5.7m/s | 0°C | 0% | 0hPa | 2.6V | 00:00:00 | 02:25:06 | 00:00:00 | |
| 9A1FER-10 | 2026-09-04 12:51:18 | 45.72038 | 13.53135 | 9° | 29km/h | 30854m | 5.7m/s | -40.3°C | 2.3% | 0hPa | 2.6V | 00:00:00 | 02:25:04 | 00:00:00 | |
| IW2NTF | 2026-09-04 12:51:16 | 45.72022 | 13.53135 | 3° | 27km/h | 30835m | 5.4m/s | -40.3°C | 2.3% | 0hPa | 2.6V | 08:30:00 | 02:25:01 | 00:00:00 | |
| PETON7-10 | 2026-09-04 12:51:15 | 45.72022 | 13.53135 | 4° | 31km/h | 30835m | 5.3m/s | -40.3°C | 2.3% | 0hPa | 2.7V | 00:00:00 | 00:00:00 | 00:00:00 | |
| IN3HCDX1 | 2026-09-04 12:51:13 | 45.72014 | 13.53133 | 12° | 31km/h | 30830m | 5.1m/s | -40.3°C | 0.6% | 0hPa | 2.7V | 00:00:00 | 00:00:00 | 00:00:00 | |
| DB0UT-7 | 2026-09-04 12:51:12 | 45.71999 | 13.53125 | 29° | 15km/h | 30817m | 7.0m/s | -40.3°C | 2.3% | 0hPa | 2.7V | 00:00:00 | 00:00:00 | 00:00:00 | |
| OE5MMP-10 | 2026-09-04 12:51:10 | 45.71985 | 13.53113 | 30° | 31km/h | 30806m | 4.8m/s | 0°C | 0% | 0hPa | 2.7V | 00:00:00 | 02:24:56 | 00:00:00 | |
| IW2NTF | 2026-09-04 12:51:06 | 45.71947 | 13.53117 | 334° | 37km/h | 30776m | 5.2m/s | -40.1°C | 2.3% | 0hPa | 2.7V | 08:30:00 | 02:24:51 | 00:00:00 | |
| OE5DXL-15 | 2026-09-04 12:51:06 | 45.71955 | 13.53112 | 337° | 24km/h | 30781m | 5.5m/s | -40.1°C | 2.3% | 0hPa | 2.7V | 00:00:00 | 00:00:00 | 00:00:00 | |
| 9A1FER-10 | 2026-09-04 12:51:04 | 45.71931 | 13.53126 | 345° | 27km/h | 30764m | 6.5m/s | -40.0°C | 2.3% | 0hPa | 2.6V | 00:00:00 | 02:24:49 | 00:00:00 | |
| OE5MMP-10 | 2026-09-04 12:51:00 | 45.71912 | 13.53127 | 9° | 29km/h | 30746m | 5.3m/s | 0°C | 0% | 0hPa | 2.6V | 00:00:00 | 02:24:46 | 00:00:00 | |
| OE5DRO-10 | 2026-09-04 12:50:57 | 45.71889 | 13.53123 | 3° | 22km/h | 30727m | 5.7m/s | -39.8°C | 2.3% | 0hPa | 2.6V | 00:00:00 | 00:00:00 | 00:00:00 | |
| IW2NTF | 2026-09-04 12:50:56 | 45.71872 | 13.53122 | 4° | 35km/h | 30717m | 4.9m/s | -39.8°C | 2.3% | 0hPa | 2.6V | 08:30:00 | 02:24:41 | 00:00:00 | |
| NBG1-10 | 2026-09-04 12:50:56 | 45.71880 | 13.53123 | 3° | 20km/h | 30722m | 4.7m/s | -39.7°C | 2.3% | 0hPa | 2.6V | 00:00:00 | 02:24:42 | 00:00:00 | |
| IN3HCDX1 | 2026-09-04 12:50:53 | 45.71863 | 13.53121 | 9° | 33km/h | 30712m | 6.6m/s | -39.8°C | 0.6% | 0hPa | 2.6V | 00:00:00 | 00:00:00 | 00:00:00 | |
| PG1ADW-2 | 2026-09-04 12:50:50 | 45.71838 | 13.53117 | 348° | 16km/h | 30686m | 7.1m/s | -39.4°C | 2.2% | 0hPa | 2.6V | 00:00:00 | 00:00:00 | 00:00:00 | |
| IW2NTF | 2026-09-04 12:50:49 | 45.71818 | 13.53131 | 353° | 13km/h | 30653m | 6.3m/s | -39.3°C | 2.1% | 0hPa | 2.6V | 08:30:00 | 02:24:31 | 00:00:00 | |
| OE5MMP-10 | 2026-09-04 12:50:49 | 45.71834 | 13.53119 | 334° | 18km/h | 30679m | 6.7m/s | 0°C | 0% | 0hPa | 2.6V | 00:00:00 | 02:24:35 | 00:00:00 | |
| DO3MHA-11 | 2026-09-04 12:50:48 | 45.71829 | 13.53123 | 328° | 18km/h | 30673m | 5.7m/s | -39.4°C | 2.2% | 0hPa | 2.6V | 00:00:00 | 02:24:34 | 00:00:00 | |
| PETON7-10 | 2026-09-04 12:50:45 | 45.71818 | 13.53130 | 354° | 18km/h | 30654m | 6.2m/s | -39.2°C | 2.1% | 0hPa | 2.6V | 00:00:00 | 00:00:00 | 00:00:00 | |
| OE8JPQ-2 | 2026-09-04 12:50:44 | 45.71815 | 13.53131 | 4° | 15km/h | 30648m | 5.1m/s | -39.2°C | 2.1% | 0hPa | 2.7V | 00:00:00 | 02:24:30 | 00:00:00 | |
| 9A1FER-3 | 2026-09-04 12:50:40 | 45.71796 | 13.53134 | 347° | 15km/h | 30623m | 5.9m/s | -39.2°C | 2.1% | 0hPa | 2.7V | 00:00:00 | 02:24:26 | 00:00:00 | |
| IN3HCDX | 2026-09-04 12:50:39 | 45.71796 | 13.53134 | 347° | 22km/h | 30623m | 6.0m/s | -39.3°C | 0.5% | 0hPa | 2.7V | 00:00:00 | 00:00:00 | 00:00:00 | |
| OE5DRO-10 | 2026-09-04 12:50:38 | 45.71786 | 13.53136 | 358° | 11km/h | 30611m | 7.2m/s | -39.3°C | 2.1% | 0hPa | 2.7V | 00:00:00 | 00:00:00 | 00:00:00 | |
| DO3MHA-11 | 2026-09-04 12:50:37 | 45.71781 | 13.53136 | 8° | 15km/h | 30604m | 6.5m/s | -39.4°C | 2.2% | 0hPa | 2.7V | 00:00:00 | 02:24:23 | 00:00:00 | |
| IW2NTF | 2026-09-04 12:50:36 | 45.71774 | 13.53134 | 0° | 15km/h | 30592m | 5.5m/s | -39.5°C | 2.2% | 0hPa | 2.7V | 08:30:00 | 02:24:21 | 00:00:00 | |
| OE5DXL-15 | 2026-09-04 12:50:36 | 45.71777 | 13.53135 | 11° | 11km/h | 30598m | 5.5m/s | -39.5°C | 2.2% | 0hPa | 2.6V | 00:00:00 | 00:00:00 | 00:00:00 | |
| 9A1FER-10 | 2026-09-04 12:50:33 | 45.71766 | 13.53137 | 336° | 9km/h | 30579m | 6.6m/s | -39.7°C | 2.2% | 0hPa | 2.6V | 00:00:00 | 02:24:19 | 00:00:00 | |
| IN3HCDX1 | 2026-09-04 12:50:32 | 45.71766 | 13.53137 | 337° | 16km/h | 30579m | 6.7m/s | -39.8°C | 0.5% | 0hPa | 2.6V | 00:00:00 | 00:00:00 | 00:00:00 | |
| PETON7-10 | 2026-09-04 12:50:30 | 45.71755 | 13.53145 | 339° | 7km/h | 30562m | 6.6m/s | -39.8°C | 2.2% | 0hPa | 2.6V | 00:00:00 | 00:00:00 | 00:00:00 | |
| IW2NTF | 2026-09-04 12:50:27 | 45.71745 | 13.53141 | 7° | 5km/h | 30531m | 6.9m/s | -40°C | 2.2% | 0hPa | 2.6V | 08:30:00 | 02:24:11 | 00:00:00 | |
| OE8JPQ-2 | 2026-09-04 12:50:24 | 45.71744 | 13.53141 | 332° | 11km/h | 30525m | 6.4m/s | -40.0°C | 2.2% | 0hPa | 2.7V | 00:00:00 | 00:00:00 | 08:30:00 | |
| DO3MHA-12 | 2026-09-04 12:50:23 | 45.71742 | 13.53143 | 308° | 13km/h | 30519m | 5.6m/s | -40.1°C | 2.2% | 0hPa | 2.6V | 00:00:00 | 02:24:09 | 00:00:00 | |
| NBG1-10 | 2026-09-04 12:50:22 | 45.71742 | 13.53144 | 285° | 15km/h | 30514m | 5.2m/s | -40.2°C | 2.2% | 0hPa | 2.6V | 00:00:00 | 02:24:08 | 00:00:00 | |
| OE5DRO-10 | 2026-09-04 12:50:19 | 45.71743 | 13.53143 | 104° | 13km/h | 30495m | 5.7m/s | -40.4°C | 2.3% | 0hPa | 2.6V | 00:00:00 | 00:00:00 | 08:30:00 | |
| 9A1FER-10 | 2026-09-04 12:50:18 | 45.71743 | 13.53141 | 75° | 13km/h | 30489m | 5.4m/s | -40.3°C | 2.2% | 0hPa | 2.6V | 00:00:00 | 02:24:04 | 00:00:00 | |
| DO3MHA-11 | 2026-09-04 12:50:17 | 45.71742 | 13.53138 | 42° | 13km/h | 30483m | 6.6m/s | -40.3°C | 2.2% | 0hPa | 2.6V | 00:00:00 | 02:24:03 | 00:00:00 | |
| IW2NTF | 2026-09-04 12:50:16 | 45.71736 | 13.53136 | 7° | 16km/h | 30470m | 5.5m/s | -40.5°C | 2.3% | 0hPa | 2.6V | 08:30:00 | 02:24:01 | 00:00:00 | |
| PETON7-10 | 2026-09-04 12:50:15 | 45.71736 | 13.53136 | 8° | 15km/h | 30470m | 5.4m/s | -40.5°C | 2.3% | 0hPa | 2.7V | 00:00:00 | 02:24:01 | 00:00:00 | |
| IN3HCDX1 | 2026-09-04 12:50:11 | 45.71725 | 13.53131 | 37° | 15km/h | 30453m | 7.1m/s | -40.6°C | 0.6% | 0hPa | 2.7V | 00:00:00 | 00:00:00 | 00:00:00 | |
| PG1ADW-2 | 2026-09-04 12:50:10 | 45.71719 | 13.53123 | 48° | 11km/h | 30440m | 5.4m/s | -40.5°C | 2.3% | 0hPa | 2.7V | 00:00:00 | 00:00:00 | 00:00:00 | |
| 9A1FER-3 | 2026-09-04 12:50:09 | 45.71717 | 13.53121 | 39° | 11km/h | 30434m | 6.8m/s | -40.6°C | 2.3% | 0hPa | 2.6V | 00:00:00 | 02:23:55 | 08:30:00 | |
| DO3MHA-12 | 2026-09-04 12:50:07 | 45.71712 | 13.53118 | 11° | 11km/h | 30421m | 5.3m/s | -40.9°C | 2.4% | 0hPa | 2.7V | 00:00:00 | 02:23:53 | 00:00:00 | |
| IW2NTF | 2026-09-04 12:50:06 | 45.71707 | 13.53115 | 30° | 13km/h | 30409m | 6.8m/s | -40.9°C | 2.4% | 0hPa | 2.7V | 08:30:00 | 02:23:51 | 00:00:00 | |
| OE5DXL-15 | 2026-09-04 12:50:06 | 45.71710 | 13.53117 | 17° | 15km/h | 30416m | 5.3m/s | -41.0°C | 2.4% | 0hPa | 2.6V | 00:00:00 | 00:00:00 | 00:00:00 | |
| OE8JPQ-2 | 2026-09-04 12:50:04 | 45.71704 | 13.53112 | 46° | 13km/h | 30403m | 6.7m/s | -40.9°C | 2.4% | 0hPa | 2.6V | 00:00:00 | 00:00:00 | 00:00:00 | |
| IW2NTF | 2026-09-04 12:50:01 | 45.71689 | 13.53090 | 113° | 11km/h | 30349m | 5.9m/s | -41.1°C | 2.4% | 0hPa | 2.6V | 08:30:00 | 02:23:41 | 00:00:00 | |
| PETON7-10 | 2026-09-04 12:50:00 | 45.71694 | 13.53096 | 27° | 13km/h | 30379m | 6.6m/s | -41.1°C | 2.4% | 0hPa | 2.7V | 00:00:00 | 00:00:00 | 00:00:00 | |
| IN3HCDX | 2026-09-04 12:49:58 | 45.71690 | 13.53094 | 10° | 5km/h | 30368m | 4.6m/s | -41.1°C | 0.6% | 0hPa | 2.6V | 00:00:00 | 00:00:00 | 00:00:00 | |
| DO3MHA-12 | 2026-09-04 12:49:57 | 45.71688 | 13.53094 | 46° | 15km/h | 30362m | 6.3m/s | -41.2°C | 2.4% | 0hPa | 2.6V | 00:00:00 | 02:23:43 | 08:30:00 | |
| 9A1FER-3 | 2026-09-04 12:49:54 | 45.71690 | 13.53086 | 112° | 16km/h | 30343m | 5.0m/s | -41.0°C | 2.4% | 0hPa | 2.6V | 00:00:00 | 02:23:40 | 00:00:00 | |
| PG1ADW-2 | 2026-09-04 12:49:50 | 45.71690 | 13.53072 | 68° | 18km/h | 30319m | 5.1m/s | -41.2°C | 2.5% | 0hPa | 2.6V | 00:00:00 | 00:00:00 | 00:00:00 | |
| DB0UT-7 | 2026-09-04 12:49:49 | 45.71689 | 13.53068 | 74° | 18km/h | 30314m | 5.3m/s | -41.1°C | 2.4% | 0hPa | 2.6V | 00:00:00 | 02:23:35 | 00:00:00 | |
| 9A1FER-10 | 2026-09-04 12:49:48 | 45.71688 | 13.53062 | 81° | 20km/h | 30308m | 7.0m/s | -41.0°C | 2.4% | 0hPa | 2.6V | 00:00:00 | 02:23:34 | 00:00:00 | |
| IW2NTF | 2026-09-04 12:49:47 | 45.71688 | 13.53036 | 90° | 26km/h | 30288m | 5.4m/s | -41.2°C | 2.4% | 0hPa | 2.6V | 08:30:00 | 02:23:31 | 00:00:00 | |
| DO3MHA-11 | 2026-09-04 12:49:47 | 45.71688 | 13.53054 | 87° | 20km/h | 30301m | 6.9m/s | -41.0°C | 2.4% | 0hPa | 2.7V | 00:00:00 | 02:23:33 | 00:00:00 | |
| PETON7-10 | 2026-09-04 12:49:45 | 45.71688 | 13.53036 | 91° | 20km/h | 30289m | 5.4m/s | -41.2°C | 2.4% | 0hPa | 2.7V | 00:00:00 | 00:00:00 | 00:00:00 | |
| OE8JPQ-2 | 2026-09-04 12:49:44 | 45.71688 | 13.53027 | 88° | 18km/h | 30283m | 6.8m/s | -41.3°C | 2.4% | 0hPa | 2.7V | 00:00:00 | 02:23:30 | 00:00:00 | |
| OE5DRO-10 | 2026-09-04 12:49:41 | 45.71687 | 13.53008 | 93° | 18km/h | 30265m | 4.8m/s | -41.1°C | 2.4% | 0hPa | 2.7V | 00:00:00 | 00:00:00 | 00:00:00 | |
| IW2NTF | 2026-09-04 12:49:40 | 45.71693 | 13.52966 | 93° | 16km/h | 30228m | 6.5m/s | -41°C | 2.4% | 0hPa | 2.7V | 08:30:00 | 02:23:21 | 00:00:00 | |
| 9A1FER-3 | 2026-09-04 12:49:39 | 45.71688 | 13.52995 | 105° | 16km/h | 30253m | 6.6m/s | -41.2°C | 2.4% | 0hPa | 2.7V | 00:00:00 | 02:23:25 | 00:00:00 | |
| DO3MHA-11 | 2026-09-04 12:49:37 | 45.71692 | 13.52980 | 107° | 20km/h | 30241m | 5.6m/s | -41.2°C | 2.4% | 0hPa | 2.7V | 00:00:00 | 02:23:23 | 00:00:00 | |
| OE5DXL-15 | 2026-09-04 12:49:36 | 45.71693 | 13.52973 | 103° | 16km/h | 30235m | 6.4m/s | -41.0°C | 2.4% | 0hPa | 2.7V | 00:00:00 | 00:00:00 | 00:00:00 | |
| 9A1FER-10 | 2026-09-04 12:49:33 | 45.71693 | 13.52955 | 83° | 16km/h | 30218m | 4.7m/s | -41.0°C | 2.4% | 0hPa | 2.6V | 00:00:00 | 02:23:19 | 00:00:00 | |
| IW2NTF | 2026-09-04 12:49:30 | 45.71700 | 13.52904 | 109° | 11km/h | 30170m | 5.2m/s | -41.2°C | 2.4% | 0hPa | 2.6V | 08:30:00 | 02:23:11 | 00:00:00 | |
| DO3MHA-11 | 2026-09-04 12:49:27 | 45.71697 | 13.52912 | 109° | 15km/h | 30182m | 6.8m/s | -41.3°C | 2.4% | 0hPa | 2.6V | 00:00:00 | 02:23:13 | 08:30:00 | |
| OE8JPQ-2 | 2026-09-04 12:49:24 | 45.71700 | 13.52900 | 109° | 15km/h | 30165m | 6.0m/s | -41.2°C | 2.4% | 0hPa | 2.7V | 00:00:00 | 00:00:00 | 00:00:00 | |
| OE5DRO-10 | 2026-09-04 12:49:22 | 45.71703 | 13.52877 | 86° | 15km/h | 30142m | 5.8m/s | -41.4°C | 2.3% | 0hPa | 2.6V | 00:00:00 | 00:00:00 | 00:00:00 | |
| IW2NTF | 2026-09-04 12:49:20 | 45.71698 | 13.52854 | 80° | 16km/h | 30112m | 6.8m/s | -41.5°C | 2.3% | 0hPa | 2.6V | 08:30:00 | 02:23:01 | 00:00:00 | |
| DO3MHA-12 | 2026-09-04 12:49:20 | 45.71703 | 13.52877 | 86° | 15km/h | 30142m | 5.8m/s | -41.4°C | 2.3% | 0hPa | 2.6V | 00:00:00 | 02:23:06 | 00:00:00 | |
| DB0UT-7 | 2026-09-04 12:49:19 | 45.71702 | 13.52871 | 76° | 15km/h | 30135m | 6.8m/s | -41.5°C | 2.3% | 0hPa | 2.6V | 00:00:00 | 00:00:00 | 00:00:00 | |
| 9A1FER-10 | 2026-09-04 12:49:18 | 45.71701 | 13.52867 | 63° | 15km/h | 30129m | 5.8m/s | -41.6°C | 2.3% | 0hPa | 2.7V | 00:00:00 | 02:23:04 | 08:30:00 | |
| DO3MHA-11 | 2026-09-04 12:49:17 | 45.71700 | 13.52863 | 61° | 13km/h | 30123m | 5.0m/s | -41.5°C | 2.3% | 0hPa | 2.6V | 00:00:00 | 02:23:03 | 00:00:00 | |
| PETON7-10 | 2026-09-04 12:49:15 | 45.71697 | 13.52853 | 81° | 16km/h | 30112m | 6.7m/s | -41.4°C | 2.3% | 0hPa | 2.6V | 00:00:00 | 00:00:00 | 08:30:00 | |
| IN3HCDX | 2026-09-04 12:49:14 | 45.71697 | 13.52853 | 81° | 16km/h | 30112m | 6.8m/s | -41.5°C | 0.6% | 0hPa | 2.6V | 00:00:00 | 00:00:00 | 00:00:00 | |
| DO3MHA-12 | 2026-09-04 12:49:10 | 45.71699 | 13.52824 | 107° | 7km/h | 30083m | 6.2m/s | -41.6°C | 2.4% | 0hPa | 2.6V | 00:00:00 | 02:22:56 | 00:00:00 | |
| IN3HCDX1 | 2026-09-04 12:49:09 | 45.71699 | 13.52824 | 108° | 9km/h | 30083m | 6.3m/s | -41.7°C | 0.6% | 0hPa | 2.6V | 00:00:00 | 00:00:00 | 00:00:00 | |
| IW2NTF | 2026-09-04 12:49:09 | 45.71702 | 13.52804 | 94° | 20km/h | 30054m | 5m/s | -42.1°C | 2.5% | 0hPa | 2.7V | 08:30:00 | 02:22:51 | 00:00:00 | |
| DO3MHA-11 | 2026-09-04 12:49:07 | 45.71701 | 13.52815 | 100° | 16km/h | 30066m | 6.3m/s | -41.9°C | 2.4% | 0hPa | 2.6V | 00:00:00 | 02:22:53 | 00:00:00 | |
| OE5DXL-15 | 2026-09-04 12:49:06 | 45.71701 | 13.52810 | 97° | 18km/h | 30060m | 5.8m/s | -42.0°C | 2.4% | 0hPa | 2.6V | 00:00:00 | 00:00:00 | 00:00:00 | |
| OE8JPQ-2 | 2026-09-04 12:49:04 | 45.71702 | 13.52796 | 93° | 16km/h | 30050m | 4.7m/s | -42.3°C | 2.4% | 0hPa | 2.6V | 00:00:00 | 00:00:00 | 00:00:00 | |
| 9A1FER-10 | 2026-09-04 12:49:03 | 45.71702 | 13.52789 | 91° | 16km/h | 30044m | 6.2m/s | -42.3°C | 2.5% | 0hPa | 2.6V | 00:00:00 | 02:22:49 | 00:00:00 | |
| OE5DRO-10 | 2026-09-04 12:49:02 | 45.71702 | 13.52778 | 84° | 16km/h | 30033m | 5.0m/s | -42.4°C | 2.4% | 0hPa | 2.6V | 00:00:00 | 00:00:00 | 00:00:00 | |
| IW2NTF | 2026-09-04 12:49:00 | 45.71699 | 13.52739 | 80° | 18km/h | 30001m | 4.8m/s | -42.5°C | 2.4% | 0hPa | 2.6V | 08:30:00 | 02:22:41 | 00:00:00 | |
| PETON7-10 | 2026-09-04 12:49:00 | 45.71701 | 13.52773 | 83° | 16km/h | 30028m | 4.8m/s | -42.4°C | 2.4% | 0hPa | 2.6V | 00:00:00 | 00:00:00 | 00:00:00 | |
| DO3MHA-11 | 2026-09-04 12:48:57 | 45.71700 | 13.52754 | 87° | 16km/h | 30011m | 5.5m/s | -42.4°C | 2.4% | 0hPa | 2.6V | 00:00:00 | 02:22:43 | 00:00:00 | |
| IN3HCDX | 2026-09-04 12:48:54 | 45.71699 | 13.52739 | 81° | 18km/h | 30001m | 4.8m/s | -42.5°C | 0.6% | 0hPa | 2.6V | 00:00:00 | 00:00:00 | 00:00:00 | |
| DO3MHA-12 | 2026-09-04 12:48:53 | 45.71697 | 13.52730 | 50° | 18km/h | 29989m | 6.3m/s | -42.7°C | 2.4% | 0hPa | 2.6V | 00:00:00 | 02:22:39 | 00:00:00 | |
| 9A1FER-3 | 2026-09-04 12:48:50 | 45.71690 | 13.52723 | 47° | 20km/h | 29973m | 6.0m/s | -42.7°C | 2.5% | 0hPa | 2.6V | 00:00:00 | 02:22:36 | 00:00:00 | |
| DB0UT-7 | 2026-09-04 12:48:49 | 45.71688 | 13.52718 | 64° | 20km/h | 29967m | 5.6m/s | -42.8°C | 2.5% | 0hPa | 2.6V | 00:00:00 | 02:22:35 | 00:00:00 | |
| IW2NTF | 2026-09-04 12:48:48 | 45.71682 | 13.52690 | 66° | 18km/h | 29945m | 6m/s | -43.1°C | 2.6% | 0hPa | 2.6V | 08:30:00 | 02:22:31 | 00:00:00 | |
| 9A1FER-10 | 2026-09-04 12:48:48 | 45.71686 | 13.52712 | 71° | 22km/h | 29961m | 5.0m/s | -42.9°C | 2.5% | 0hPa | 2.7V | 00:00:00 | 02:22:34 | 00:00:00 | |
| DO3MHA-11 | 2026-09-04 12:48:47 | 45.71685 | 13.52704 | 74° | 20km/h | 29956m | 4.6m/s | -42.9°C | 2.6% | 0hPa | 2.7V | 00:00:00 | 02:22:33 | 00:00:00 | |
| PETON7-10 | 2026-09-04 12:48:45 | 45.71682 | 13.52690 | 67° | 22km/h | 29945m | 6.0m/s | -43.1°C | 2.6% | 0hPa | 2.7V | 00:00:00 | 02:22:31 | 00:00:00 | |
| OE8JPQ-2 | 2026-09-04 12:48:44 | 45.71679 | 13.52684 | 60° | 22km/h | 29940m | 5.4m/s | -43.1°C | 2.6% | 0hPa | 2.7V | 00:00:00 | 02:22:30 | 00:00:00 | |
| OE5DRO-10 | 2026-09-04 12:48:43 | 45.71675 | 13.52674 | 57° | 22km/h | 29930m | 5.5m/s | -43.3°C | 2.6% | 0hPa | 2.7V | 00:00:00 | 00:00:00 | 00:00:00 | |
| IW2NTF | 2026-09-04 12:48:40 | 45.71645 | 13.52639 | 21° | 26km/h | 29891m | 4.2m/s | -44°C | 2.6% | 0hPa | 2.7V | 08:30:00 | 02:22:21 | 00:00:00 | |
| DO3MHA-12 | 2026-09-04 12:48:38 | 45.71662 | 13.52649 | 38° | 22km/h | 29908m | 5.9m/s | -43.6°C | 2.6% | 0hPa | 2.6V | 00:00:00 | 02:22:24 | 00:00:00 | |
| DO3MHA-11 | 2026-09-04 12:48:37 | 45.71657 | 13.52645 | 25° | 24km/h | 29901m | 6.0m/s | -43.7°C | 2.6% | 0hPa | 2.6V | 00:00:00 | 02:22:23 | 00:00:00 | |
| OE5DXL-15 | 2026-09-04 12:48:36 | 45.71651 | 13.52642 | 20° | 20km/h | 29896m | 4.7m/s | -43.8°C | 2.6% | 0hPa | 2.6V | 00:00:00 | 00:00:00 | 00:00:00 | |
| IN3HCDX | 2026-09-04 12:48:34 | 45.71645 | 13.52639 | 22° | 26km/h | 29892m | 4.2m/s | -44.0°C | 0.7% | 0hPa | 2.6V | 00:00:00 | 00:00:00 | 00:00:00 | |
| 9A1FER-10 | 2026-09-04 12:48:33 | 45.71634 | 13.52629 | 44° | 20km/h | 29881m | 6.2m/s | -43.9°C | 2.7% | 0hPa | 2.6V | 00:00:00 | 02:22:19 | 00:00:00 | |
| PETON7-10 | 2026-09-04 12:48:30 | 45.71623 | 13.52606 | 60° | 20km/h | 29865m | 4.6m/s | -43.6°C | 2.7% | 0hPa | 2.7V | 00:00:00 | 00:00:00 | 00:00:00 | |
| IW2NTF | 2026-09-04 12:48:28 | 45.71606 | 13.52588 | 24° | 13km/h | 29839m | 5.4m/s | -43.9°C | 2.6% | 0hPa | 2.6V | 08:30:00 | 02:22:11 | 00:00:00 | |
| DO3MHA-11 | 2026-09-04 12:48:27 | 45.71613 | 13.52591 | 23° | 20km/h | 29849m | 4.7m/s | -43.7°C | 2.7% | 0hPa | 2.6V | 00:00:00 | 02:22:13 | 00:00:00 | |
| DO3MHA-12 | 2026-09-04 12:48:26 | 45.71610 | 13.52589 | 17° | 22km/h | 29844m | 4.2m/s | -43.8°C | 2.7% | 0hPa | 2.7V | 00:00:00 | 02:22:12 | 00:00:00 | |
| OE8JPQ-2 | 2026-09-04 12:48:24 | 45.71603 | 13.52585 | 40° | 18km/h | 29834m | 6.0m/s | -43.8°C | 2.6% | 0hPa | 2.7V | 00:00:00 | 00:00:00 | 00:00:00 | |
| IW2NTF | 2026-09-04 12:48:20 | 45.71563 | 13.52539 | 47° | 22km/h | 29785m | 6.1m/s | -43.9°C | 2.6% | 0hPa | 2.6V | 08:30:00 | 02:22:01 | 00:00:00 | |
| DB0UT-7 | 2026-09-04 12:48:19 | 45.71584 | 13.52557 | 32° | 18km/h | 29806m | 6.0m/s | -43.6°C | 2.6% | 0hPa | 2.7V | 00:00:00 | 00:00:00 | 00:00:00 | |
| 9A1FER-10 | 2026-09-04 12:48:18 | 45.71579 | 13.52553 | 26° | 16km/h | 29801m | 4.5m/s | -43.6°C | 2.6% | 0hPa | 2.7V | 00:00:00 | 02:22:04 | 00:00:00 | |
| DO3MHA-11 | 2026-09-04 12:48:16 | 45.71568 | 13.52544 | 35° | 15km/h | 29791m | 5.6m/s | -43.8°C | 2.6% | 0hPa | 2.7V | 00:00:00 | 02:22:02 | 00:00:00 | |
| PETON7-10 | 2026-09-04 12:48:15 | 45.71563 | 13.52538 | 48° | 18km/h | 29786m | 6.0m/s | -43.9°C | 2.6% | 0hPa | 2.7V | 00:00:00 | 00:00:00 | 00:00:00 | |
| IN3HCDX | 2026-09-04 12:48:13 | 45.71560 | 13.52532 | 62° | 20km/h | 29780m | 5.3m/s | -44.0°C | 0.7% | 0hPa | 2.7V | 00:00:00 | 00:00:00 | 00:00:00 | |
| PG1ADW-2 | 2026-09-04 12:48:10 | 45.71557 | 13.52516 | 81° | 18km/h | 29757m | 4.7m/s | -44.2°C | 2.7% | 0hPa | 2.7V | 00:00:00 | 00:00:00 | 08:30:00 | |
| IW2NTF | 2026-09-04 12:48:08 | 45.71552 | 13.52494 | 56° | 20km/h | 29731m | 4.5m/s | -44.5°C | 2.7% | 0hPa | 2.7V | 08:30:00 | 02:21:51 | 00:00:00 | |
| NBG1-10 | 2026-09-04 12:48:08 | 45.71556 | 13.52510 | 82° | 18km/h | 29747m | 5.9m/s | -44.4°C | 2.7% | 0hPa | 2.6V | 00:00:00 | 02:21:54 | 08:30:00 | |
| DO3MHA-12 | 2026-09-04 12:48:06 | 45.71554 | 13.52500 | 70° | 20km/h | 29736m | 4.8m/s | -44.5°C | 2.7% | 0hPa | 2.7V | 00:00:00 | 02:21:52 | 08:30:00 | |
| 9A1FER-10 | 2026-09-04 12:48:03 | 45.71544 | 13.52483 | 28° | 20km/h | 29720m | 6.1m/s | -44.5°C | 2.7% | 0hPa | 2.6V | 00:00:00 | 02:21:49 | 00:00:00 | |
| IW2NTF | 2026-09-04 12:48:00 | 45.71508 | 13.52454 | 41° | 16km/h | 29676m | 6.2m/s | -44.9°C | 2.8% | 0hPa | 2.6V | 08:30:00 | 02:21:41 | 00:00:00 | |
| PETON7-10 | 2026-09-04 12:48:00 | 45.71527 | 13.52476 | 19° | 18km/h | 29705m | 4.7m/s | -44.6°C | 2.8% | 0hPa | 2.6V | 00:00:00 | 02:21:46 | 00:00:00 | |
| DO3MHA-12 | 2026-09-04 12:47:56 | 45.71511 | 13.52458 | 50° | 18km/h | 29682m | 5.3m/s | -44.8°C | 2.9% | 0hPa | 2.6V | 00:00:00 | 02:21:42 | 00:00:00 | |
| DO3MHA-11 | 2026-09-04 12:47:55 | 45.71508 | 13.52454 | 42° | 18km/h | 29677m | 6.2m/s | -44.8°C | 2.8% | 0hPa | 2.6V | 00:00:00 | 02:21:41 | 08:30:00 | |
| IN3HCDX | 2026-09-04 12:47:52 | 45.71501 | 13.52448 | 28° | 16km/h | 29666m | 4.3m/s | -45.0°C | 0.7% | 0hPa | 2.6V | 00:00:00 | 00:00:00 | 00:00:00 | |
| PG1ADW-2 | 2026-09-04 12:47:50 | 45.71490 | 13.52436 | 51° | 20km/h | 29649m | 5.5m/s | -44.9°C | 2.9% | 0hPa | 2.6V | 00:00:00 | 02:21:36 | 00:00:00 | |
| DB0UT-7 | 2026-09-04 12:47:49 | 45.71487 | 13.52430 | 50° | 22km/h | 29644m | 4.7m/s | -44.8°C | 2.9% | 0hPa | 2.6V | 00:00:00 | 02:21:35 | 00:00:00 | |
| IW2NTF | 2026-09-04 12:47:48 | 45.71475 | 13.52413 | 54° | 15km/h | 29622m | 5m/s | -44.5°C | 2.8% | 0hPa | 2.6V | 08:30:00 | 02:21:31 | 00:00:00 | |
| 9A1FER-3 | 2026-09-04 12:47:48 | 45.71484 | 13.52425 | 46° | 18km/h | 29639m | 5.9m/s | -44.6°C | 2.8% | 0hPa | 2.7V | 00:00:00 | 02:21:34 | 08:30:00 | |
| IN3HCDX1 | 2026-09-04 12:47:47 | 45.71484 | 13.52425 | 47° | 18km/h | 29639m | 5.9m/s | -44.6°C | 0.7% | 0hPa | 2.6V | 00:00:00 | 00:00:00 | 00:00:00 | |
| DO3MHA-12 | 2026-09-04 12:47:46 | 45.71477 | 13.52417 | 43° | 16km/h | 29627m | 4.9m/s | -44.4°C | 2.8% | 0hPa | 2.6V | 00:00:00 | 02:21:32 | 00:00:00 | |
| PETON7-10 | 2026-09-04 12:47:45 | 45.71475 | 13.52413 | 55° | 20km/h | 29622m | 4.9m/s | -44.4°C | 2.8% | 0hPa | 2.6V | 00:00:00 | 00:00:00 | 00:00:00 | |
| OE8JPQ-2 | 2026-09-04 12:47:44 | 45.71473 | 13.52408 | 68° | 22km/h | 29617m | 6.4m/s | -44.4°C | 2.8% | 0hPa | 2.7V | 00:00:00 | 02:21:30 | 00:00:00 | |
| OE5DRO-10 | 2026-09-04 12:47:43 | 45.71470 | 13.52380 | 78° | 26km/h | 29596m | 5.6m/s | -44.4°C | 2.7% | 0hPa | 2.7V | 00:00:00 | 00:00:00 | 00:00:00 | |
| IW2NTF | 2026-09-04 12:47:40 | 45.71460 | 13.52356 | 66° | 22km/h | 29569m | 6.2m/s | -44.5°C | 2.8% | 0hPa | 2.7V | 08:30:00 | 02:21:21 | 00:00:00 | |
| DO3MHA-12 | 2026-09-04 12:47:36 | 45.71462 | 13.52362 | 56° | 24km/h | 29575m | 4.9m/s | -44.5°C | 2.8% | 0hPa | 2.7V | 00:00:00 | 02:21:22 | 00:00:00 | |
| NBG1-10 | 2026-09-04 12:47:35 | 45.71460 | 13.52356 | 67° | 26km/h | 29570m | 6.2m/s | -44.4°C | 2.8% | 0hPa | 2.6V | 00:00:00 | 02:21:21 | 00:00:00 | |
| 9A1FER-3 | 2026-09-04 12:47:33 | 45.71456 | 13.52338 | 80° | 27km/h | 29558m | 5.2m/s | -44.4°C | 2.8% | 0hPa | 2.6V | 00:00:00 | 02:21:19 | 00:00:00 | |
| IN3HCDX | 2026-09-04 12:47:31 | 45.71455 | 13.52328 | 82° | 31km/h | 29553m | 4.8m/s | -44.5°C | 0.7% | 0hPa | 2.6V | 00:00:00 | 00:00:00 | 00:00:00 | |
| PETON7-10 | 2026-09-04 12:47:30 | 45.71453 | 13.52308 | 81° | 27km/h | 29541m | 5.9m/s | -44.5°C | 2.8% | 0hPa | 2.6V | 00:00:00 | 00:00:00 | 00:00:00 | |
| IW2NTF | 2026-09-04 12:47:28 | 45.71448 | 13.52265 | 77° | 27km/h | 29513m | 5m/s | -44.7°C | 2.7% | 0hPa | 2.6V | 08:30:00 | 02:21:11 | 00:00:00 | |
| IN3HCDX1 | 2026-09-04 12:47:27 | 45.71451 | 13.52292 | 83° | 22km/h | 29531m | 5.1m/s | -44.6°C | 0.7% | 0hPa | 2.6V | 00:00:00 | 00:00:00 | 00:00:00 | |
| DO3MHA-12 | 2026-09-04 12:47:26 | 45.71449 | 13.52275 | 82° | 31km/h | 29519m | 5.5m/s | -44.6°C | 2.7% | 0hPa | 2.6V | 00:00:00 | 02:21:12 | 00:00:00 | |
| DO3MHA-11 | 2026-09-04 12:47:25 | 45.71448 | 13.52265 | 78° | 31km/h | 29514m | 4.9m/s | -44.6°C | 2.7% | 0hPa | 2.6V | 00:00:00 | 02:21:11 | 00:00:00 | |
| OE8JPQ-2 | 2026-09-04 12:47:24 | 45.71446 | 13.52256 | 72° | 26km/h | 29509m | 5.5m/s | -44.7°C | 2.7% | 0hPa | 2.7V | 00:00:00 | 00:00:00 | 08:30:00 | |
| OE5DRO-10 | 2026-09-04 12:47:22 | 45.71433 | 13.52221 | 66° | 24km/h | 29486m | 5.5m/s | -44.7°C | 2.8% | 0hPa | 2.6V | 00:00:00 | 00:00:00 | 00:00:00 | |
| IW2NTF | 2026-09-04 12:47:20 | 45.71426 | 13.52162 | 88° | 24km/h | 29459m | 6.5m/s | -44.6°C | 2.8% | 0hPa | 2.6V | 08:30:00 | 02:21:01 | 00:00:00 | |
| DB0UT-7 | 2026-09-04 12:47:19 | 45.71430 | 13.52209 | 72° | 20km/h | 29480m | 6.6m/s | -44.7°C | 2.8% | 0hPa | 2.7V | 00:00:00 | 00:00:00 | 00:00:00 | |
| 9A1FER-3 | 2026-09-04 12:47:18 | 45.71428 | 13.52197 | 80° | 24km/h | 29474m | 5.0m/s | -44.5°C | 2.7% | 0hPa | 2.7V | 00:00:00 | 02:21:04 | 00:00:00 | |
| DO3MHA-12 | 2026-09-04 12:47:16 | 45.71426 | 13.52172 | 88° | 22km/h | 29465m | 4.9m/s | -44.5°C | 2.8% | 0hPa | 2.7V | 00:00:00 | 02:21:02 | 00:00:00 | |
| DO3MHA-11 | 2026-09-04 12:47:15 | 45.71426 | 13.52162 | 89° | 22km/h | 29459m | 6.5m/s | -44.5°C | 2.8% | 0hPa | 2.7V | 00:00:00 | 02:21:01 | 00:00:00 | |
| IV3AMH | 2026-09-04 12:47:12 | 45.71425 | 13.52149 | 76° | 13km/h | 29447m | 5.0m/s | -44.6°C | 0.8% | 0hPa | 2.7V | 00:00:00 | 00:00:00 | 00:00:00 | |
| IW2NTF | 2026-09-04 12:47:10 | 45.71410 | 13.52090 | 62° | 20km/h | 29402m | 6.1m/s | -44.9°C | 2.8% | 0hPa | 2.7V | 08:30:00 | 02:20:51 | 00:00:00 | |
| PG1ADW-2 | 2026-09-04 12:47:10 | 45.71421 | 13.52133 | 72° | 18km/h | 29431m | 6.0m/s | -44.6°C | 2.8% | 0hPa | 2.7V | 00:00:00 | 00:00:00 | 00:00:00 | |
| IN3HCDX1 | 2026-09-04 12:47:08 | 45.71417 | 13.52116 | 75° | 27km/h | 29420m | 4.8m/s | -44.8°C | 0.7% | 0hPa | 2.7V | 00:00:00 | 00:00:00 | 00:00:00 | |
| DO3MHA-12 | 2026-09-04 12:47:06 | 45.71413 | 13.52097 | 68° | 15km/h | 29409m | 6.6m/s | -44.8°C | 2.8% | 0hPa | 2.7V | 00:00:00 | 02:20:52 | 00:00:00 | |
| DO3MHA-11 | 2026-09-04 12:47:05 | 45.71410 | 13.52090 | 63° | 13km/h | 29403m | 6.1m/s | -44.9°C | 2.8% | 0hPa | 2.6V | 00:00:00 | 02:20:51 | 00:00:00 | |
| 9A1FER-10 | 2026-09-04 12:47:04 | 45.71406 | 13.52080 | 66° | 16km/h | 29391m | 6.3m/s | -44.8°C | 2.9% | 0hPa | 2.6V | 00:00:00 | 02:20:49 | 08:30:00 | |
| 9A1FER-3 | 2026-09-04 12:47:03 | 45.71406 | 13.52080 | 66° | 16km/h | 29391m | 6.3m/s | -44.8°C | 2.9% | 0hPa | 2.6V | 00:00:00 | 02:20:49 | 00:00:00 | |
| NBG1-10 | 2026-09-04 12:47:02 | 45.71405 | 13.52075 | 72° | 16km/h | 29385m | 5.9m/s | -44.7°C | 2.8% | 0hPa | 2.7V | 00:00:00 | 02:20:48 | 00:00:00 | |
| PETON7-10 | 2026-09-04 12:47:00 | 45.71403 | 13.52066 | 67° | 16km/h | 29375m | 4.6m/s | -44.6°C | 2.8% | 0hPa | 2.7V | 00:00:00 | 00:00:00 | 08:30:00 | |
| IW2NTF | 2026-09-04 12:46:58 | 45.71394 | 13.52054 | 56° | 16km/h | 29346m | 6.8m/s | -44.7°C | 2.7% | 0hPa | 2.6V | 08:30:00 | 02:20:41 | 00:00:00 | |
| DO3MHA-12 | 2026-09-04 12:46:56 | 45.71397 | 13.52057 | 45° | 20km/h | 29352m | 4.9m/s | -44.7°C | 2.7% | 0hPa | 2.6V | 00:00:00 | 02:20:42 | 00:00:00 | |
| DO3MHA-11 | 2026-09-04 12:46:55 | 45.71394 | 13.52053 | 57° | 20km/h | 29346m | 6.8m/s | -44.6°C | 2.7% | 0hPa | 2.6V | 00:00:00 | 02:20:41 | 00:00:00 | |
| IW2NTF | 2026-09-04 12:46:50 | 45.71357 | 13.52021 | 331° | 9km/h | 29287m | 4.9m/s | -44.9°C | 2.9% | 0hPa | 2.6V | 08:30:00 | 02:20:31 | 00:00:00 | |
| PG1ADW-2 | 2026-09-04 12:46:50 | 45.71377 | 13.52021 | 28° | 15km/h | 29317m | 6.5m/s | -44.8°C | 2.8% | 0hPa | 2.7V | 00:00:00 | 00:00:00 | 00:00:00 | |
| DB0UT-7 | 2026-09-04 12:46:49 | 45.71372 | 13.52018 | 10° | 13km/h | 29311m | 6.0m/s | -44.8°C | 2.8% | 0hPa | 2.7V | 00:00:00 | 02:20:35 | 00:00:00 | |
| 9A1FER-3 | 2026-09-04 12:46:48 | 45.71367 | 13.52018 | 358° | 13km/h | 29305m | 5.9m/s | -44.8°C | 2.9% | 0hPa | 2.7V | 00:00:00 | 02:20:34 | 00:00:00 | |
| DO3MHA-12 | 2026-09-04 12:46:46 | 45.71359 | 13.52019 | 344° | 11km/h | 29292m | 6.0m/s | -44.8°C | 2.9% | 0hPa | 2.7V | 00:00:00 | 02:20:32 | 00:00:00 | |
| DO3MHA-11 | 2026-09-04 12:46:45 | 45.71356 | 13.52021 | 332° | 11km/h | 29287m | 4.8m/s | -44.8°C | 2.9% | 0hPa | 2.7V | 00:00:00 | 02:20:31 | 00:00:00 | |
| OE8JPQ-2 | 2026-09-04 12:46:44 | 45.71355 | 13.52023 | 320° | 13km/h | 29282m | 5.5m/s | -44.8°C | 2.9% | 0hPa | 2.7V | 00:00:00 | 02:20:30 | 00:00:00 | |
| OE5DRO-10 | 2026-09-04 12:46:43 | 45.71352 | 13.52025 | 317° | 13km/h | 29276m | 6.8m/s | -44.8°C | 2.9% | 0hPa | 2.7V | 00:00:00 | 00:00:00 | 00:00:00 | |
| IW2NTF | 2026-09-04 12:46:38 | 45.71334 | 13.52017 | 19° | 11km/h | 29230m | 6.1m/s | -44.7°C | 2.8% | 0hPa | 2.7V | 08:30:00 | 02:20:21 | 00:00:00 | |
| DO3MHA-12 | 2026-09-04 12:46:36 | 45.71336 | 13.52019 | 48° | 13km/h | 29236m | 4.8m/s | -44.6°C | 2.8% | 0hPa | 2.7V | 00:00:00 | 02:20:22 | 08:30:00 | |
| DO3MHA-11 | 2026-09-04 12:46:35 | 45.71334 | 13.52017 | 20° | 13km/h | 29231m | 6.0m/s | -44.7°C | 2.8% | 0hPa | 2.7V | 00:00:00 | 02:20:21 | 00:00:00 | |
| 9A1FER-3 | 2026-09-04 12:46:33 | 45.71327 | 13.52018 | 337° | 13km/h | 29219m | 5.2m/s | -44.6°C | 2.8% | 0hPa | 2.7V | 00:00:00 | 02:20:19 | 00:00:00 | |
| PG1ADW-2 | 2026-09-04 12:46:30 | 45.71317 | 13.52023 | 8° | 11km/h | 29203m | 6.3m/s | -44.4°C | 2.7% | 0hPa | 2.7V | 00:00:00 | 02:20:16 | 00:00:00 | |
| NBG1-10 | 2026-09-04 12:46:29 | 45.71316 | 13.52022 | 61° | 13km/h | 29196m | 6.2m/s | -44.4°C | 2.7% | 0hPa | 2.7V | 00:00:00 | 02:20:15 | 00:00:00 | |
| IW2NTF | 2026-09-04 12:46:28 | 45.71316 | 13.52007 | 79° | 9km/h | 29173m | 5.8m/s | -44.4°C | 2.7% | 0hPa | 2.6V | 08:30:00 | 02:20:11 | 00:00:00 | |
| DO3MHA-12 | 2026-09-04 12:46:26 | 45.71316 | 13.52010 | 100° | 13km/h | 29179m | 5.9m/s | -44.4°C | 2.7% | 0hPa | 2.6V | 00:00:00 | 02:20:12 | 00:00:00 | |
| DO3MHA-11 | 2026-09-04 12:46:25 | 45.71316 | 13.52006 | 80° | 13km/h | 29173m | 5.7m/s | -44.3°C | 2.7% | 0hPa | 2.6V | 00:00:00 | 02:20:11 | 08:30:00 | |
| OE8JPQ-2 | 2026-09-04 12:46:24 | 45.71315 | 13.52004 | 45° | 13km/h | 29168m | 5.2m/s | -44.4°C | 2.7% | 0hPa | 2.7V | 00:00:00 | 00:00:00 | 00:00:00 | |
| IW2NTF | 2026-09-04 12:46:20 | 45.71295 | 13.51976 | 140° | 2km/h | 29115m | 5m/s | -44.3°C | 2.7% | 0hPa | 2.6V | 08:30:00 | 02:20:01 | 00:00:00 | |
| 9A1FER-3 | 2026-09-04 12:46:18 | 45.71297 | 13.51980 | 55° | 11km/h | 29134m | 5.7m/s | -44.3°C | 2.7% | 0hPa | 2.7V | 00:00:00 | 02:20:04 | 00:00:00 | |
| DO3MHA-12 | 2026-09-04 12:46:16 | 45.71295 | 13.51977 | 69° | 11km/h | 29121m | 5.9m/s | -44.3°C | 2.8% | 0hPa | 2.6V | 00:00:00 | 02:20:02 | 00:00:00 | |
| DO3MHA-11 | 2026-09-04 12:46:15 | 45.71295 | 13.51976 | 141° | 13km/h | 29115m | 5.0m/s | -44.2°C | 2.7% | 0hPa | 2.6V | 00:00:00 | 02:20:01 | 00:00:00 | |
| PETON7-10 | 2026-09-04 12:46:14 | 45.71296 | 13.51975 | 123° | 13km/h | 29110m | 5.4m/s | -44.2°C | 2.7% | 0hPa | 2.6V | 00:00:00 | 00:00:00 | 00:00:00 | |
| PG1ADW-2 | 2026-09-04 12:46:10 | 45.71295 | 13.51957 | 64° | 11km/h | 29087m | 5.4m/s | -44.4°C | 2.6% | 0hPa | 2.7V | 00:00:00 | 00:00:00 | 00:00:00 | |
| IW2NTF | 2026-09-04 12:46:08 | 45.71280 | 13.51942 | 41° | 11km/h | 29059m | 5.8m/s | -44.9°C | 2.7% | 0hPa | 2.7V | 08:30:00 | 02:19:51 | 00:00:00 | |
| DO3MHA-12 | 2026-09-04 12:46:06 | 45.71283 | 13.51944 | 23° | 13km/h | 29065m | 4.0m/s | -44.9°C | 2.7% | 0hPa | 2.7V | 00:00:00 | 02:19:52 | 00:00:00 | |
| DO3MHA-11 | 2026-09-04 12:46:05 | 45.71280 | 13.51942 | 42° | 13km/h | 29060m | 5.7m/s | -44.9°C | 2.7% | 0hPa | 2.6V | 00:00:00 | 02:19:51 | 00:00:00 | |
| OE8JPQ-2 | 2026-09-04 12:46:04 | 45.71279 | 13.51939 | 77° | 11km/h | 29053m | 6.7m/s | -44.9°C | 2.8% | 0hPa | 2.6V | 00:00:00 | 00:00:00 | 00:00:00 | |
| 9A1FER-3 | 2026-09-04 12:46:03 | 45.71279 | 13.51935 | 105° | 9km/h | 29047m | 6.3m/s | -45.0°C | 2.8% | 0hPa | 2.6V | 00:00:00 | 02:19:49 | 00:00:00 | |
| IW2NTF | 2026-09-04 12:46:01 | 45.71294 | 13.51908 | 100° | 11km/h | 28998m | 5.4m/s | -45°C | 2.8% | 0hPa | 2.6V | 08:30:00 | 02:19:41 | 00:00:00 | |
| PETON7-10 | 2026-09-04 12:45:59 | 45.71288 | 13.51919 | 149° | 9km/h | 29022m | 5.3m/s | -44.9°C | 2.8% | 0hPa | 2.6V | 00:00:00 | 00:00:00 | 00:00:00 | |
| NBG1-10 | 2026-09-04 12:45:56 | 45.71293 | 13.51912 | 114° | 15km/h | 29004m | 6.3m/s | -45.0°C | 2.8% | 0hPa | 2.6V | 00:00:00 | 02:19:42 | 00:00:00 | |
| DO3MHA-12 | 2026-09-04 12:45:55 | 45.71294 | 13.51908 | 101° | 9km/h | 28998m | 5.4m/s | -45.0°C | 2.8% | 0hPa | 2.6V | 00:00:00 | 02:19:41 | 00:00:00 | |
| PG1ADW-2 | 2026-09-04 12:45:50 | 45.71290 | 13.51900 | 57° | 13km/h | 28969m | 5.7m/s | -45.2°C | 2.9% | 0hPa | 2.6V | 00:00:00 | 00:00:00 | 00:00:00 | |
| 9A1FER-3 | 2026-09-04 12:45:48 | 45.71290 | 13.51893 | 97° | 13km/h | 28956m | 6.3m/s | -45.4°C | 2.8% | 0hPa | 2.6V | 00:00:00 | 02:19:34 | 00:00:00 | |
| IN3HCDX | 2026-09-04 12:45:47 | 45.71290 | 13.51893 | 97° | 15km/h | 28956m | 6.3m/s | -45.5°C | 0.7% | 0hPa | 2.6V | 00:00:00 | 00:00:00 | 00:00:00 | |
| IW2NTF | 2026-09-04 12:45:46 | 45.71293 | 13.51878 | 109° | 13km/h | 28937m | 6.4m/s | -45.9°C | 2.8% | 0hPa | 2.6V | 08:30:00 | 02:19:31 | 00:00:00 | |
| DO3MHA-12 | 2026-09-04 12:45:45 | 45.71293 | 13.51878 | 110° | 11km/h | 28937m | 6.3m/s | -45.8°C | 2.8% | 0hPa | 2.7V | 00:00:00 | 02:19:31 | 00:00:00 | |
| PETON7-10 | 2026-09-04 12:45:44 | 45.71294 | 13.51873 | 110° | 15km/h | 28931m | 5.6m/s | -45.9°C | 2.9% | 0hPa | 2.7V | 00:00:00 | 02:19:30 | 00:00:00 | |
| IW2NTF | 2026-09-04 12:45:40 | 45.71284 | 13.51844 | 44° | 11km/h | 28876m | 6.7m/s | -46°C | 3% | 0hPa | 2.7V | 08:30:00 | 02:19:21 | 00:00:00 | |
| OE5DXL-15 | 2026-09-04 12:45:36 | 45.71286 | 13.51846 | 23° | 18km/h | 28883m | 5.0m/s | -46.0°C | 3.0% | 0hPa | 2.6V | 00:00:00 | 00:00:00 | 00:00:00 | |
| DO3MHA-11 | 2026-09-04 12:45:35 | 45.71284 | 13.51844 | 45° | 22km/h | 28877m | 6.7m/s | -46.0°C | 3.0% | 0hPa | 2.6V | 00:00:00 | 02:19:21 | 00:00:00 | |
| DB0ND-19 | 2026-09-04 12:45:34 | 45.71282 | 13.51840 | 67° | 15km/h | 28870m | 6.4m/s | 0°C | -1.0% | -1.0hPa | 2.6V | 00:00:00 | 00:00:00 | 00:00:00 | |
| 9A1FER-3 | 2026-09-04 12:45:33 | 45.71281 | 13.51834 | 80° | 18km/h | 28865m | 5.4m/s | -46.0°C | 3.0% | 0hPa | 2.6V | 00:00:00 | 02:19:19 | 08:30:00 | |
| PETON7-10 | 2026-09-04 12:45:30 | 45.71276 | 13.51806 | 58° | 18km/h | 28841m | 5.7m/s | -46.1°C | 3.0% | 0hPa | 2.7V | 00:00:00 | 00:00:00 | 00:00:00 | |
| OE5DRO-10 | 2026-09-04 12:45:27 | 45.71269 | 13.51793 | 49° | 18km/h | 28830m | 6.0m/s | -46.0°C | 2.9% | 0hPa | 2.6V | 00:00:00 | 00:00:00 | 00:00:00 | |
| IW2NTF | 2026-09-04 12:45:26 | 45.71260 | 13.51779 | 52° | 26km/h | 28817m | 5.1m/s | -46.2°C | 2.9% | 0hPa | 2.6V | 08:30:00 | 02:19:11 | 00:00:00 | |
| DO3MHA-12 | 2026-09-04 12:45:25 | 45.71260 | 13.51779 | 53° | 18km/h | 28818m | 5.1m/s | -46.1°C | 2.9% | 0hPa | 2.7V | 00:00:00 | 02:19:11 | 00:00:00 | |
| OE8JPQ-2 | 2026-09-04 12:45:24 | 45.71257 | 13.51772 | 50° | 18km/h | 28813m | 4.4m/s | -46.2°C | 2.9% | 0hPa | 2.7V | 00:00:00 | 00:00:00 | 00:00:00 | |
| NBG1-10 | 2026-09-04 12:45:23 | 45.71253 | 13.51767 | 43° | 20km/h | 28808m | 6.1m/s | -46.2°C | 2.9% | 0hPa | 2.6V | 00:00:00 | 02:19:09 | 00:00:00 | |
| IW2NTF | 2026-09-04 12:45:20 | 45.71233 | 13.51736 | 64° | 22km/h | 28760m | 6.1m/s | -46.1°C | 3% | 0hPa | 2.6V | 08:30:00 | 02:19:01 | 00:00:00 | |
| 9A1FER-3 | 2026-09-04 12:45:18 | 45.71240 | 13.51756 | 53° | 18km/h | 28777m | 6.4m/s | -45.8°C | 3.0% | 0hPa | 2.7V | 00:00:00 | 02:19:04 | 00:00:00 | |
| DO3MHA-12 | 2026-09-04 12:45:15 | 45.71233 | 13.51736 | 65° | 20km/h | 28760m | 6.1m/s | -46.0°C | 3.0% | 0hPa | 2.7V | 00:00:00 | 02:19:01 | 00:00:00 | |
| DB0UT-7 | 2026-09-04 12:45:14 | 45.71231 | 13.51729 | 58° | 20km/h | 28754m | 6.3m/s | -46.1°C | 3.1% | 0hPa | 2.7V | 00:00:00 | 00:00:00 | 00:00:00 | |
| PG1ADW-2 | 2026-09-04 12:45:10 | 45.71216 | 13.51713 | 32° | 22km/h | 28730m | 7.1m/s | -45.9°C | 2.9% | 0hPa | 2.7V | 00:00:00 | 02:18:56 | 08:30:00 | |
| OE5DRO-10 | 2026-09-04 12:45:08 | 45.71206 | 13.51704 | 33° | 20km/h | 28717m | 5.5m/s | -46.0°C | 2.9% | 0hPa | 2.6V | 00:00:00 | 00:00:00 | 00:00:00 | |
| IW2NTF | 2026-09-04 12:45:06 | 45.71194 | 13.51697 | 17° | 15km/h | 28698m | 5.2m/s | -45.9°C | 2.9% | 0hPa | 2.7V | 08:30:00 | 02:18:51 | 00:00:00 | |
| OE5DXL-15 | 2026-09-04 12:45:06 | 45.71198 | 13.51698 | 20° | 22km/h | 28705m | 6.8m/s | -45.8°C | 2.9% | 0hPa | 2.7V | 00:00:00 | 00:00:00 | 00:00:00 | |
| DO3MHA-12 | 2026-09-04 12:45:05 | 45.71195 | 13.51697 | 18° | 18km/h | 28699m | 5.1m/s | -45.8°C | 2.9% | 0hPa | 2.7V | 00:00:00 | 02:18:51 | 08:30:00 | |
| IN3HCDX1 | 2026-09-04 12:45:04 | 45.71191 | 13.51695 | 27° | 15km/h | 28694m | 4.9m/s | -46.0°C | 0.8% | 0hPa | 2.7V | 00:00:00 | 00:00:00 | 00:00:00 | |
| IW2NTF | 2026-09-04 12:45:00 | 45.71149 | 13.51648 | 40° | 27km/h | 28639m | 6.7m/s | -45.9°C | 2.9% | 0hPa | 2.7V | 08:30:00 | 02:18:41 | 00:00:00 | |
| DL6DJ-15 | 2026-09-04 12:44:53 | 45.71138 | 13.51628 | 61° | 16km/h | 28621m | 6.3m/s | -46.1°C | -1.0% | -1.0hPa | 2.7V | 00:00:00 | 00:00:00 | 00:00:00 | |
| PG1ADW-2 | 2026-09-04 12:44:50 | 45.71136 | 13.51619 | 84° | 24km/h | 28609m | 5.4m/s | -46.0°C | 2.9% | 0hPa | 2.7V | 00:00:00 | 00:00:00 | 00:00:00 | |
| OE5DRO-10 | 2026-09-04 12:44:49 | 45.71135 | 13.51614 | 87° | 24km/h | 28603m | 4.8m/s | -46.0°C | 3.0% | 0hPa | 2.7V | 00:00:00 | 00:00:00 | 00:00:00 | |
| 9A1FER-3 | 2026-09-04 12:44:48 | 45.71135 | 13.51609 | 85° | 24km/h | 28598m | 6.5m/s | -46.0°C | 3.0% | 0hPa | 2.7V | 00:00:00 | 02:18:34 | 00:00:00 | |
| IW2NTF | 2026-09-04 12:44:46 | 45.71129 | 13.51585 | 56° | 29km/h | 28580m | 5.2m/s | -46.1°C | 3% | 0hPa | 2.6V | 08:30:00 | 02:18:31 | 00:00:00 | |
| DO3MHA-11 | 2026-09-04 12:44:45 | 45.71129 | 13.51585 | 57° | 26km/h | 28580m | 5.1m/s | -46.0°C | 3.0% | 0hPa | 2.6V | 00:00:00 | 02:18:31 | 00:00:00 | |
| PETON7-10 | 2026-09-04 12:44:44 | 45.71124 | 13.51577 | 47° | 24km/h | 28574m | 6.3m/s | -46.1°C | 3.0% | 0hPa | 2.6V | 00:00:00 | 00:00:00 | 08:30:00 | |
| IN3HCDX1 | 2026-09-04 12:44:42 | 45.71119 | 13.51570 | 37° | 27km/h | 28568m | 6.6m/s | -46.3°C | 0.8% | 0hPa | 2.7V | 00:00:00 | 00:00:00 | 00:00:00 | |
| IW2NTF | 2026-09-04 12:44:40 | 45.71086 | 13.51520 | 62° | 20km/h | 28521m | 6.7m/s | -46.1°C | 3% | 0hPa | 2.7V | 08:30:00 | 02:18:21 | 00:00:00 | |
| OE5DXL-15 | 2026-09-04 12:44:36 | 45.71088 | 13.51527 | 66° | 20km/h | 28527m | 6.2m/s | -46.1°C | 3.0% | 0hPa | 2.7V | 00:00:00 | 00:00:00 | 00:00:00 | |
| DO3MHA-11 | 2026-09-04 12:44:35 | 45.71086 | 13.51520 | 63° | 22km/h | 28521m | 6.7m/s | -46.1°C | 3.0% | 0hPa | 2.7V | 00:00:00 | 02:18:21 | 00:00:00 | |
| 9A1FER-10 | 2026-09-04 12:44:33 | 45.71080 | 13.51508 | 48° | 22km/h | 28509m | 5.3m/s | -46.0°C | 3.0% | 0hPa | 2.7V | 00:00:00 | 02:18:19 | 00:00:00 | |
| OE5DRO-10 | 2026-09-04 12:44:30 | 45.71067 | 13.51492 | 35° | 20km/h | 28491m | 4.7m/s | -46.1°C | 2.9% | 0hPa | 2.7V | 00:00:00 | 00:00:00 | 00:00:00 | |
| PG1ADW-2 | 2026-09-04 12:44:29 | 45.71062 | 13.51487 | 26° | 22km/h | 28486m | 5.3m/s | -46.2°C | 2.9% | 0hPa | 2.7V | 00:00:00 | 00:00:00 | 00:00:00 | |
| IW2NTF | 2026-09-04 12:44:26 | 45.71040 | 13.51480 | 10° | 22km/h | 28460m | 6.6m/s | -46.3°C | 2.9% | 0hPa | 2.7V | 08:30:00 | 02:18:11 | 00:00:00 | |
| DO3MHA-11 | 2026-09-04 12:44:25 | 45.71039 | 13.51480 | 11° | 18km/h | 28461m | 6.5m/s | -46.3°C | 2.9% | 0hPa | 2.7V | 00:00:00 | 02:18:11 | 00:00:00 | |
| OE8JPQ-2 | 2026-09-04 12:44:24 | 45.71034 | 13.51479 | 19° | 20km/h | 28454m | 6.0m/s | -46.2°C | 3.0% | 0hPa | 2.7V | 00:00:00 | 00:00:00 | 08:30:00 | |
| IN3HCDX | 2026-09-04 12:44:23 | 45.71034 | 13.51479 | 19° | 22km/h | 28454m | 6.1m/s | -46.2°C | 0.8% | 0hPa | 2.6V | 00:00:00 | 00:00:00 | 00:00:00 | |
| IN3HCDX1 | 2026-09-04 12:44:21 | 45.71024 | 13.51473 | 26° | 20km/h | 28445m | 4.4m/s | -46.2°C | 0.8% | 0hPa | 2.6V | 00:00:00 | 00:00:00 | 00:00:00 | |
| IW2NTF | 2026-09-04 12:44:20 | 45.70994 | 13.51464 | 25° | 24km/h | 28402m | 6.1m/s | -46.5°C | 3% | 0hPa | 2.6V | 08:30:00 | 02:18:01 | 00:00:00 | |
| 9A1FER-3 | 2026-09-04 12:44:18 | 45.71008 | 13.51469 | 357° | 22km/h | 28420m | 5.4m/s | -46.2°C | 2.9% | 0hPa | 2.6V | 00:00:00 | 02:18:04 | 00:00:00 | |
| NBG1-10 | 2026-09-04 12:44:17 | 45.71003 | 13.51469 | 6° | 20km/h | 28415m | 5.1m/s | -46.3°C | 2.9% | 0hPa | 2.6V | 00:00:00 | 02:18:03 | 00:00:00 | |
| DO3MHA-11 | 2026-09-04 12:44:15 | 45.70993 | 13.51464 | 26° | 22km/h | 28403m | 6.1m/s | -46.5°C | 3.0% | 0hPa | 2.6V | 00:00:00 | 02:18:01 | 00:00:00 | |
| PETON7-10 | 2026-09-04 12:44:14 | 45.70988 | 13.51460 | 27° | 22km/h | 28397m | 4.8m/s | -46.5°C | 3.0% | 0hPa | 2.6V | 00:00:00 | 02:18:00 | 00:00:00 | |
| IW2NTF | 2026-09-04 12:44:10 | 45.70943 | 13.51472 | 333° | 24km/h | 28344m | 6m/s | -46.9°C | 3% | 0hPa | 2.6V | 08:30:00 | 02:17:51 | 00:00:00 | |
| DB0UT-7 | 2026-09-04 12:44:09 | 45.70964 | 13.51460 | 336° | 20km/h | 28368m | 6.0m/s | -46.5°C | 2.9% | 0hPa | 2.7V | 00:00:00 | 00:00:00 | 00:00:00 | |
| OE5DXL-15 | 2026-09-04 12:44:06 | 45.70948 | 13.51468 | 338° | 18km/h | 28350m | 5.1m/s | -46.8°C | 3.0% | 0hPa | 2.7V | 00:00:00 | 00:00:00 | 00:00:00 | |
| DO3MHA-11 | 2026-09-04 12:44:05 | 45.70943 | 13.51472 | 334° | 24km/h | 28344m | 6.0m/s | -46.9°C | 3.0% | 0hPa | 2.7V | 00:00:00 | 02:17:51 | 00:00:00 | |
| OE8JPQ-2 | 2026-09-04 12:44:04 | 45.70938 | 13.51476 | 329° | 20km/h | 28338m | 6.5m/s | -46.9°C | 3.0% | 0hPa | 2.7V | 00:00:00 | 00:00:00 | 00:00:00 | |
| IN3HCDX | 2026-09-04 12:44:03 | 45.70932 | 13.51481 | 331° | 24km/h | 28332m | 5.4m/s | -46.9°C | 0.8% | 0hPa | 2.7V | 00:00:00 | 00:00:00 | 00:00:00 | |
| IW2NTF | 2026-09-04 12:44:00 | 45.70889 | 13.51484 | 334° | 15km/h | 28285m | 5.7m/s | -47.3°C | 3.2% | 0hPa | 2.7V | 08:30:00 | 02:17:41 | 00:00:00 | |
| PETON7-10 | 2026-09-04 12:43:59 | 45.70908 | 13.51486 | 13° | 18km/h | 28309m | 4.6m/s | -47.2°C | 3.2% | 0hPa | 2.7V | 00:00:00 | 00:00:00 | 00:00:00 | |
| DO3MHA-11 | 2026-09-04 12:43:55 | 45.70889 | 13.51484 | 335° | 16km/h | 28286m | 5.6m/s | -47.3°C | 3.2% | 0hPa | 2.7V | 00:00:00 | 02:17:41 | 00:00:00 | |
| OE5DRO-10 | 2026-09-04 12:43:52 | 45.70878 | 13.51492 | 344° | 15km/h | 28269m | 5.8m/s | -47.2°C | 3.2% | 0hPa | 2.6V | 00:00:00 | 00:00:00 | 00:00:00 | |
| IW2NTF | 2026-09-04 12:43:51 | 45.70850 | 13.51500 | 355° | 15km/h | 28227m | 6.9m/s | -47.2°C | 3.2% | 0hPa | 2.6V | 08:30:00 | 02:17:31 | 00:00:00 | |
| PG1ADW-2 | 2026-09-04 12:43:49 | 45.70864 | 13.51495 | 351° | 13km/h | 28253m | 6.1m/s | -47.3°C | 3.2% | 0hPa | 2.6V | 00:00:00 | 02:17:35 | 00:00:00 | |
| 9A1FER-10 | 2026-09-04 12:43:48 | 45.70860 | 13.51496 | 344° | 15km/h | 28246m | 6.7m/s | -47.1°C | 3.2% | 0hPa | 2.6V | 00:00:00 | 02:17:34 | 00:00:00 | |
| DO3MHA-11 | 2026-09-04 12:43:45 | 45.70850 | 13.51500 | 356° | 15km/h | 28228m | 6.8m/s | -47.2°C | 3.2% | 0hPa | 2.6V | 00:00:00 | 02:17:31 | 00:00:00 | |
| OE8JPQ-2 | 2026-09-04 12:43:44 | 45.70846 | 13.51500 | 3° | 13km/h | 28221m | 5.4m/s | -47.1°C | 3.2% | 0hPa | 2.6V | 00:00:00 | 02:17:30 | 00:00:00 | |
| IN3HCDX | 2026-09-04 12:43:42 | 45.70842 | 13.51500 | 6° | 15km/h | 28216m | 4.6m/s | -47.0°C | 0.8% | 0hPa | 2.6V | 00:00:00 | 00:00:00 | 00:00:00 | |
| IW2NTF | 2026-09-04 12:43:40 | 45.70818 | 13.51507 | 12° | 22km/h | 28169m | 5.5m/s | -47°C | 3.2% | 0hPa | 2.6V | 08:30:00 | 02:17:21 | 00:00:00 | |
| IN3HCDX1 | 2026-09-04 12:43:40 | 45.70833 | 13.51501 | 327° | 9km/h | 28199m | 6.2m/s | -47.1°C | 0.8% | 0hPa | 2.7V | 00:00:00 | 00:00:00 | 00:00:00 | |
| DB0UT-7 | 2026-09-04 12:43:39 | 45.70831 | 13.51504 | 314° | 13km/h | 28193m | 5.5m/s | -46.9°C | 3.1% | 0hPa | 2.7V | 00:00:00 | 02:17:25 | 00:00:00 | |
| OE5DXL-15 | 2026-09-04 12:43:36 | 45.70823 | 13.51508 | 3° | 13km/h | 28176m | 6.8m/s | -46.9°C | 3.1% | 0hPa | 2.7V | 00:00:00 | 00:00:00 | 08:30:00 | |
| DO3MHA-11 | 2026-09-04 12:43:35 | 45.70818 | 13.51507 | 13° | 15km/h | 28169m | 5.5m/s | -46.9°C | 3.2% | 0hPa | 2.7V | 00:00:00 | 02:17:21 | 00:00:00 | |
| 9A1FER-10 | 2026-09-04 12:43:33 | 45.70808 | 13.51504 | 13° | 13km/h | 28159m | 5.6m/s | -46.8°C | 3.2% | 0hPa | 2.7V | 00:00:00 | 02:17:19 | 00:00:00 | |
| IW2NTF | 2026-09-04 12:43:30 | 45.70785 | 13.51501 | 14° | 13km/h | 28113m | 5.5m/s | -46.8°C | 3.1% | 0hPa | 2.7V | 08:30:00 | 02:17:11 | 00:00:00 | |
| PETON7-10 | 2026-09-04 12:43:29 | 45.70796 | 13.51504 | 346° | 13km/h | 28136m | 5.2m/s | -46.7°C | 3.1% | 0hPa | 2.7V | 00:00:00 | 02:17:15 | 00:00:00 | |
| DO3MHA-11 | 2026-09-04 12:43:25 | 45.70785 | 13.51501 | 15° | 15km/h | 28113m | 5.4m/s | -46.8°C | 3.1% | 0hPa | 2.7V | 00:00:00 | 02:17:11 | 08:30:00 | |
| OE8JPQ-2 | 2026-09-04 12:43:24 | 45.70782 | 13.51500 | 4° | 13km/h | 28107m | 6.8m/s | -46.7°C | 3.1% | 0hPa | 2.7V | 00:00:00 | 00:00:00 | 00:00:00 | |
| IN3HCDX | 2026-09-04 12:43:22 | 45.70775 | 13.51502 | 346° | 15km/h | 28095m | 5.6m/s | -46.6°C | 0.8% | 0hPa | 2.7V | 00:00:00 | 00:00:00 | 00:00:00 | |
| IW2NTF | 2026-09-04 12:43:19 | 45.70750 | 13.51508 | 301° | 11km/h | 28053m | 5.9m/s | -46.5°C | 3.1% | 0hPa | 2.7V | 08:30:00 | 02:17:01 | 00:00:00 | |
| 9A1FER-10 | 2026-09-04 12:43:18 | 45.70758 | 13.51503 | 1° | 13km/h | 28071m | 4.7m/s | -46.4°C | 3.1% | 0hPa | 2.6V | 00:00:00 | 02:17:04 | 00:00:00 | |
| DO3MHA-11 | 2026-09-04 12:43:14 | 45.70749 | 13.51511 | 298° | 11km/h | 28048m | 5.3m/s | -46.3°C | 3.1% | 0hPa | 2.7V | 00:00:00 | 02:17:00 | 00:00:00 | |
| PETON7-10 | 2026-09-04 12:43:11 | 45.70743 | 13.51520 | 324° | 15km/h | 28030m | 4.8m/s | -46.4°C | 3.1% | 0hPa | 2.7V | 00:00:00 | 00:00:00 | 00:00:00 | |
| IW2NTF | 2026-09-04 12:43:10 | 45.70731 | 13.51538 | 330° | 15km/h | 27993m | 6.2m/s | -46.2°C | 2.9% | 0hPa | 2.7V | 08:30:00 | 02:16:51 | 00:00:00 | |
| OE5DXL-15 | 2026-09-04 12:43:06 | 45.70734 | 13.51535 | 322° | 11km/h | 28000m | 6.9m/s | -46.2°C | 2.9% | 0hPa | 2.6V | 00:00:00 | 02:16:52 | 00:00:00 | |
| OE8JPQ-2 | 2026-09-04 12:43:04 | 45.70728 | 13.51541 | 328° | 13km/h | 27988m | 4.8m/s | -46.2°C | 2.9% | 0hPa | 2.6V | 00:00:00 | 00:00:00 | 00:00:00 | |
| 9A1FER-10 | 2026-09-04 12:43:03 | 45.70725 | 13.51544 | 316° | 15km/h | 27983m | 5.4m/s | -46.4°C | 3.0% | 0hPa | 2.6V | 00:00:00 | 02:16:49 | 00:00:00 | |
| IN3HCDX | 2026-09-04 12:43:00 | 45.70721 | 13.51555 | 284° | 18km/h | 27970m | 6.0m/s | -46.3°C | 0.8% | 0hPa | 2.6V | 00:00:00 | 00:00:00 | 00:00:00 | |
| IN3HCDX1 | 2026-09-04 12:42:58 | 45.70719 | 13.51568 | 277° | 16km/h | 27959m | 6.3m/s | -46.3°C | 0.8% | 0hPa | 2.6V | 00:00:00 | 00:00:00 | 00:00:00 | |
| DB0UT-7 | 2026-09-04 12:42:56 | 45.70718 | 13.51582 | 266° | 9km/h | 27941m | 5.6m/s | -46.3°C | 3.0% | 0hPa | 2.6V | 00:00:00 | 00:00:00 | 00:00:00 | |
| OE5DRO-10 | 2026-09-04 12:42:55 | 45.70719 | 13.51586 | 255° | 9km/h | 27934m | 6.8m/s | -46.3°C | 3.0% | 0hPa | 2.7V | 00:00:00 | 00:00:00 | 00:00:00 | |
| IW2NTF | 2026-09-04 12:42:54 | 45.70721 | 13.51595 | 255° | 13km/h | 27923m | 4.6m/s | -46.4°C | 3% | 0hPa | 2.7V | 08:30:00 | 02:16:39 | 00:00:00 | |
| DL6DJ-15 | 2026-09-04 12:42:49 | 45.70716 | 13.51614 | 291° | 13km/h | 27893m | 6.8m/s | -46.8°C | -1.0% | -1.0hPa | 2.7V | 00:00:00 | 00:00:00 | 00:00:00 | |
| 9A1FER-10 | 2026-09-04 12:42:48 | 45.70716 | 13.51614 | 292° | 9km/h | 27893m | 6.7m/s | -46.7°C | 3.1% | 0hPa | 2.7V | 00:00:00 | 02:16:34 | 00:00:00 | |
| IW2NTF | 2026-09-04 12:42:44 | 45.70715 | 13.51633 | 307° | 4km/h | 27864m | 6.2m/s | -46.6°C | 3.1% | 0hPa | 2.7V | 08:30:00 | 02:16:29 | 00:00:00 | |
| DO3MHA-11 | 2026-09-04 12:42:44 | 45.70715 | 13.51631 | 277° | 7km/h | 27871m | 6.5m/s | -46.6°C | 3.1% | 0hPa | 2.7V | 00:00:00 | 02:16:30 | 00:00:00 | |
| PETON7-10 | 2026-09-04 12:42:40 | 45.70714 | 13.51634 | 236° | 5km/h | 27850m | 5.9m/s | -46.5°C | 3.0% | 0hPa | 2.7V | 00:00:00 | 02:16:26 | 00:00:00 | |
| IN3HCDX | 2026-09-04 12:42:39 | 45.70714 | 13.51634 | 236° | 2km/h | 27850m | 5.9m/s | -46.5°C | 0.8% | 0hPa | 2.7V | 00:00:00 | 00:00:00 | 00:00:00 | |
| IN3HCDX1 | 2026-09-04 12:42:38 | 45.70714 | 13.51635 | 228° | 7km/h | 27844m | 6.6m/s | -46.5°C | 0.8% | 0hPa | 2.7V | 00:00:00 | 00:00:00 | 00:00:00 | |
| OE5DRO-10 | 2026-09-04 12:42:37 | 45.70719 | 13.51645 | 248° | 7km/h | 27826m | 5.9m/s | -46.6°C | 3.1% | 0hPa | 2.7V | 00:00:00 | 00:00:00 | 00:00:00 | |
| NBG1-10 | 2026-09-04 12:42:36 | 45.70719 | 13.51645 | 248° | 9km/h | 27826m | 5.9m/s | -46.6°C | 3.1% | 0hPa | 2.7V | 00:00:00 | 02:16:22 | 00:00:00 | |
| IW2NTF | 2026-09-04 12:42:34 | 45.70720 | 13.51655 | 296° | 5km/h | 27808m | 4.6m/s | -46.4°C | 3% | 0hPa | 2.7V | 08:30:00 | 02:16:19 | 00:00:00 | |
| DO3MHA-11 | 2026-09-04 12:42:31 | 45.70720 | 13.51657 | 199° | 7km/h | 27797m | 6.4m/s | -46.4°C | 2.9% | 0hPa | 2.6V | 00:00:00 | 02:16:17 | 00:00:00 | |
| DB0UT-7 | 2026-09-04 12:42:26 | 45.70728 | 13.51653 | 112° | 13km/h | 27768m | 5.5m/s | -46.6°C | 3.1% | 0hPa | 2.6V | 00:00:00 | 02:16:12 | 00:00:00 | |
| IW2NTF | 2026-09-04 12:42:24 | 45.70731 | 13.51652 | 200° | 9km/h | 27750m | 7m/s | -46.6°C | 3.2% | 0hPa | 2.6V | 08:30:00 | 02:16:09 | 00:00:00 | |
| OE8JPQ-2 | 2026-09-04 12:42:24 | 45.70729 | 13.51651 | 190° | 11km/h | 27757m | 5.9m/s | -46.5°C | 3.1% | 0hPa | 2.6V | 00:00:00 | 00:00:00 | 00:00:00 | |
| PETON7-10 | 2026-09-04 12:42:23 | 45.70730 | 13.51652 | 201° | 11km/h | 27750m | 6.9m/s | -46.5°C | 3.2% | 0hPa | 2.6V | 00:00:00 | 00:00:00 | 08:30:00 | |
| DO3MHA-11 | 2026-09-04 12:42:21 | 45.70736 | 13.51655 | 197° | 11km/h | 27739m | 4.8m/s | -46.5°C | 3.1% | 0hPa | 2.7V | 00:00:00 | 02:16:07 | 00:00:00 | |
| 9A1FER-10 | 2026-09-04 12:42:18 | 45.70744 | 13.51655 | 140° | 11km/h | 27721m | 5.3m/s | -46.5°C | 2.9% | 0hPa | 2.6V | 00:00:00 | 02:16:04 | 00:00:00 | |
| OE5DRO-10 | 2026-09-04 12:42:17 | 45.70745 | 13.51653 | 130° | 13km/h | 27715m | 5.1m/s | -46.6°C | 2.9% | 0hPa | 2.6V | 00:00:00 | 00:00:00 | 00:00:00 | |
| IW2NTF | 2026-09-04 12:42:14 | 45.70753 | 13.51642 | 128° | 11km/h | 27692m | 5.2m/s | -46.4°C | 3% | 0hPa | 2.6V | 08:30:00 | 02:15:59 | 00:00:00 | |
| DO3MHA-11 | 2026-09-04 12:42:11 | 45.70755 | 13.51634 | 98° | 11km/h | 27681m | 6.0m/s | -46.3°C | 3.0% | 0hPa | 2.6V | 00:00:00 | 02:15:57 | 00:00:00 | |
| PETON7-10 | 2026-09-04 12:42:08 | 45.70758 | 13.51622 | 134° | 16km/h | 27665m | 5.2m/s | -46.4°C | 3.1% | 0hPa | 2.6V | 00:00:00 | 00:00:00 | 00:00:00 | |
| OE5DXL-15 | 2026-09-04 12:42:06 | 45.70764 | 13.51619 | 192° | 13km/h | 27654m | 5.8m/s | -46.5°C | 3.1% | 0hPa | 2.6V | 00:00:00 | 00:00:00 | 00:00:00 | |
| IW2NTF | 2026-09-04 12:42:04 | 45.70772 | 13.51626 | 214° | 5km/h | 27638m | 4.9m/s | -46.8°C | 3.1% | 0hPa | 2.7V | 08:30:00 | 02:15:49 | 00:00:00 | |
| OE8JPQ-2 | 2026-09-04 12:42:04 | 45.70770 | 13.51624 | 221° | 15km/h | 27643m | 4.8m/s | -46.6°C | 3.1% | 0hPa | 2.7V | 00:00:00 | 00:00:00 | 00:00:00 | |
| 9A1FER-10 | 2026-09-04 12:42:03 | 45.70772 | 13.51626 | 215° | 15km/h | 27638m | 4.9m/s | -46.7°C | 3.1% | 0hPa | 2.7V | 00:00:00 | 02:15:49 | 00:00:00 | |
| DO3MHA-11 | 2026-09-04 12:42:01 | 45.70773 | 13.51623 | 93° | 16km/h | 27627m | 6.2m/s | -46.7°C | 3.0% | 0hPa | 2.7V | 00:00:00 | 02:15:47 | 00:00:00 | |
| IN3HCDX | 2026-09-04 12:41:58 | 45.70776 | 13.51599 | 112° | 27km/h | 27610m | 5.6m/s | -46.7°C | 0.8% | 0hPa | 2.7V | 00:00:00 | 00:00:00 | 00:00:00 | |
| IN3HCDX1 | 2026-09-04 12:41:57 | 45.70776 | 13.51599 | 112° | 27km/h | 27610m | 5.6m/s | -46.7°C | 0.8% | 0hPa | 2.7V | 00:00:00 | 00:00:00 | 00:00:00 | |
| DB0UT-7 | 2026-09-04 12:41:56 | 45.70782 | 13.51585 | 139° | 13km/h | 27599m | 5.2m/s | -46.6°C | 3.0% | 0hPa | 2.7V | 00:00:00 | 00:00:00 | 00:00:00 | |
| IW2NTF | 2026-09-04 12:41:54 | 45.70792 | 13.51581 | 200° | 9km/h | 27581m | 5.6m/s | -46.7°C | 3% | 0hPa | 2.7V | 08:30:00 | 02:15:39 | 00:00:00 | |
| PETON7-10 | 2026-09-04 12:41:53 | 45.70792 | 13.51580 | 201° | 11km/h | 27582m | 5.5m/s | -46.6°C | 3.0% | 0hPa | 2.6V | 00:00:00 | 02:15:39 | 00:00:00 | |
| PG1ADW-2 | 2026-09-04 12:41:51 | 45.70797 | 13.51583 | 200° | 13km/h | 27572m | 5.0m/s | -46.7°C | 3.0% | 0hPa | 2.6V | 00:00:00 | 00:00:00 | 08:30:00 | |
| DO3MHA-11 | 2026-09-04 12:41:49 | 45.70803 | 13.51584 | 170° | 13km/h | 27560m | 6.2m/s | -46.7°C | 3.0% | 0hPa | 2.7V | 00:00:00 | 02:15:35 | 08:30:00 | |
| 9A1FER-10 | 2026-09-04 12:41:48 | 45.70808 | 13.51582 | 161° | 15km/h | 27554m | 5.4m/s | -46.7°C | 3.0% | 0hPa | 2.7V | 00:00:00 | 02:15:34 | 00:00:00 | |
| IW2NTF | 2026-09-04 12:41:47 | 45.70821 | 13.51567 | 99° | 4km/h | 27526m | 5m/s | -47°C | 3% | 0hPa | 2.7V | 08:30:00 | 02:15:29 | 00:00:00 | |
| OE8JPQ-2 | 2026-09-04 12:41:44 | 45.70820 | 13.51569 | 118° | 13km/h | 27532m | 5.7m/s | -46.9°C | 3.0% | 0hPa | 2.6V | 00:00:00 | 02:15:30 | 00:00:00 | |
| DO3MHA-11 | 2026-09-04 12:41:39 | 45.70826 | 13.51563 | 158° | 18km/h | 27503m | 5.6m/s | -47.3°C | 3.1% | 0hPa | 2.6V | 00:00:00 | 02:15:25 | 00:00:00 | |
| IN3HCDX | 2026-09-04 12:41:38 | 45.70829 | 13.51561 | 155° | 13km/h | 27498m | 5.6m/s | -47.4°C | 0.9% | 0hPa | 2.6V | 00:00:00 | 00:00:00 | 00:00:00 | |
| OE5DXL-15 | 2026-09-04 12:41:36 | 45.70834 | 13.51555 | 134° | 15km/h | 27485m | 5.7m/s | -47.5°C | 3.2% | 0hPa | 2.6V | 00:00:00 | 00:00:00 | 00:00:00 | |
| IW2NTF | 2026-09-04 12:41:34 | 45.70843 | 13.51538 | 122° | 24km/h | 27467m | 5.6m/s | -47.4°C | 3.2% | 0hPa | 2.6V | 08:30:00 | 02:15:19 | 00:00:00 | |
| 9A1FER-10 | 2026-09-04 12:41:32 | 45.70846 | 13.51531 | 119° | 16km/h | 27462m | 4.1m/s | -47.2°C | 3.2% | 0hPa | 2.6V | 00:00:00 | 02:15:18 | 00:00:00 | |
| PG1ADW-2 | 2026-09-04 12:41:31 | 45.70848 | 13.51524 | 113° | 15km/h | 27457m | 5.4m/s | -47.2°C | 3.1% | 0hPa | 2.6V | 00:00:00 | 00:00:00 | 00:00:00 | |
| NBG1-10 | 2026-09-04 12:41:29 | 45.70850 | 13.51515 | 81° | 13km/h | 27445m | 6.0m/s | -47.3°C | 3.1% | 0hPa | 2.6V | 00:00:00 | 02:15:15 | 00:00:00 | |
| DO3MHA-11 | 2026-09-04 12:41:28 | 45.70849 | 13.51513 | 65° | 18km/h | 27439m | 4.8m/s | -47.4°C | 3.1% | 0hPa | 2.7V | 00:00:00 | 02:15:14 | 00:00:00 | |
| DB0UT-7 | 2026-09-04 12:41:26 | 45.70849 | 13.51509 | 120° | 13km/h | 27429m | 6.1m/s | -47.2°C | 3.1% | 0hPa | 2.7V | 00:00:00 | 02:15:12 | 08:30:00 | |
| IW2NTF | 2026-09-04 12:41:24 | 45.70864 | 13.51460 | 94° | 22km/h | 27387m | 5.6m/s | -47.4°C | 3.2% | 0hPa | 2.6V | 08:30:00 | 02:15:05 | 00:00:00 | |
| OE8JPQ-2 | 2026-09-04 12:41:24 | 45.70854 | 13.51500 | 129° | 16km/h | 27417m | 5.5m/s | -47.4°C | 3.1% | 0hPa | 2.6V | 00:00:00 | 00:00:00 | 08:30:00 | |
| PETON7-10 | 2026-09-04 12:41:23 | 45.70857 | 13.51493 | 123° | 15km/h | 27412m | 4.7m/s | -47.5°C | 3.1% | 0hPa | 2.7V | 00:00:00 | 00:00:00 | 00:00:00 | |
| OE5DRO-10 | 2026-09-04 12:41:20 | 45.70864 | 13.51469 | 97° | 13km/h | 27393m | 5.8m/s | -47.3°C | 3.2% | 0hPa | 2.7V | 00:00:00 | 00:00:00 | 08:30:00 | |
| 9A1FER-10 | 2026-09-04 12:41:17 | 45.70866 | 13.51446 | 104° | 13km/h | 27375m | 5.5m/s | -47.4°C | 3.2% | 0hPa | 2.7V | 00:00:00 | 02:15:03 | 00:00:00 | |
| DO3MHA-11 | 2026-09-04 12:41:16 | 45.70867 | 13.51441 | 112° | 11km/h | 27370m | 4.7m/s | -47.4°C | 3.2% | 0hPa | 2.7V | 00:00:00 | 02:15:02 | 00:00:00 | |
| IW2NTF | 2026-09-04 12:41:14 | 45.70872 | 13.51428 | 133° | 18km/h | 27330m | 5.7m/s | -47.5°C | 3.1% | 0hPa | 2.7V | 08:30:00 | 02:14:55 | 00:00:00 | |
| PETON7-10 | 2026-09-04 12:41:08 | 45.70876 | 13.51423 | 132° | 11km/h | 27325m | 5.2m/s | 0°C | 0% | 0hPa | 2.7V | 00:00:00 | 02:14:54 | 00:00:00 | |
| DO3MHA-11 | 2026-09-04 12:41:06 | 45.70882 | 13.51411 | 125° | 9km/h | 27313m | 6.0m/s | -47.3°C | 3.1% | 0hPa | 2.7V | 00:00:00 | 02:14:52 | 00:00:00 | |
| IW2NTF | 2026-09-04 12:41:04 | 45.70893 | 13.51390 | 200° | 2km/h | 27273m | 6.7m/s | -47.7°C | 3.3% | 0hPa | 2.7V | 08:30:00 | 02:14:45 | 00:00:00 | |
| OE8JPQ-2 | 2026-09-04 12:41:04 | 45.70886 | 13.51402 | 120° | 11km/h | 27302m | 4.9m/s | -47.4°C | 3.1% | 0hPa | 2.6V | 00:00:00 | 00:00:00 | 00:00:00 | |
| 9A1FER-10 | 2026-09-04 12:41:02 | 45.70889 | 13.51395 | 127° | 13km/h | 27290m | 5.9m/s | -47.4°C | 3.2% | 0hPa | 2.6V | 00:00:00 | 02:14:48 | 00:00:00 | |
| OE5DRO-10 | 2026-09-04 12:41:01 | 45.70891 | 13.51392 | 134° | 11km/h | 27284m | 5.2m/s | -47.5°C | 3.2% | 0hPa | 2.7V | 00:00:00 | 00:00:00 | 00:00:00 | |
| DB0UT-7 | 2026-09-04 12:40:56 | 45.70893 | 13.51391 | 101° | 13km/h | 27258m | 4.4m/s | -47.7°C | 3.3% | 0hPa | 2.7V | 00:00:00 | 00:00:00 | 00:00:00 | |
| IN3HCDX1 | 2026-09-04 12:40:55 | 45.70893 | 13.51391 | 101° | 4km/h | 27258m | 4.4m/s | -47.8°C | 0.9% | 0hPa | 2.7V | 00:00:00 | 00:00:00 | 00:00:00 | |
| PETON7-10 | 2026-09-04 12:40:53 | 45.70897 | 13.51376 | 107° | 16km/h | 27240m | 5.1m/s | 0°C | 0% | 0hPa | 2.7V | 00:00:00 | 00:00:00 | 00:00:00 | |
| IW2NTF | 2026-09-04 12:40:52 | 45.70898 | 13.51343 | 71° | 15km/h | 27218m | 5.1m/s | -47.7°C | 3.1% | 0hPa | 2.7V | 08:30:00 | 02:14:35 | 00:00:00 | |
| IN3HCDX | 2026-09-04 12:40:49 | 45.70899 | 13.51349 | 85° | 20km/h | 27224m | 5.7m/s | -47.6°C | 0.9% | 0hPa | 2.6V | 00:00:00 | 00:00:00 | 00:00:00 | |
| 9A1FER-10 | 2026-09-04 12:40:47 | 45.70896 | 13.51336 | 65° | 11km/h | 27209m | 5.8m/s | -47.6°C | 3.2% | 0hPa | 2.6V | 00:00:00 | 02:14:33 | 00:00:00 | |
| DO3MHA-11 | 2026-09-04 12:40:46 | 45.70895 | 13.51334 | 90° | 15km/h | 27203m | 5.9m/s | -47.5°C | 3.2% | 0hPa | 2.6V | 00:00:00 | 02:14:32 | 00:00:00 | |
| IW2NTF | 2026-09-04 12:40:44 | 45.70897 | 13.51303 | 105° | 20km/h | 27163m | 6.4m/s | -47.9°C | 3.3% | 0hPa | 2.6V | 08:30:00 | 02:14:25 | 00:00:00 | |
| OE8JPQ-2 | 2026-09-04 12:40:44 | 45.70896 | 13.51329 | 103° | 11km/h | 27192m | 4.7m/s | -47.7°C | 3.2% | 0hPa | 2.6V | 00:00:00 | 02:14:30 | 00:00:00 | |
| DO3MHA-12 | 2026-09-04 12:40:43 | 45.70896 | 13.51326 | 89° | 13km/h | 27187m | 6.5m/s | -47.8°C | 3.3% | 0hPa | 2.6V | 00:00:00 | 02:14:29 | 00:00:00 | |
| OE5DRO-10 | 2026-09-04 12:40:42 | 45.70896 | 13.51322 | 82° | 11km/h | 27180m | 5.8m/s | -47.7°C | 3.2% | 0hPa | 2.6V | 00:00:00 | 00:00:00 | 00:00:00 | |
| PETON7-10 | 2026-09-04 12:40:37 | 45.70900 | 13.51291 | 125° | 9km/h | 27154m | 3.8m/s | 0°C | 0% | 0hPa | 2.6V | 00:00:00 | 00:00:00 | 00:00:00 | |
| DO3MHA-11 | 2026-09-04 12:40:36 | 45.70902 | 13.51288 | 126° | 7km/h | 27149m | 5.7m/s | -47.8°C | 3.2% | 0hPa | 2.6V | 00:00:00 | 02:14:22 | 00:00:00 | |
| IW2NTF | 2026-09-04 12:40:34 | 45.70905 | 13.51291 | 183° | 9km/h | 27110m | 4.6m/s | -47.8°C | 3.2% | 0hPa | 2.6V | 08:30:00 | 02:14:15 | 00:00:00 | |
| 9A1FER-10 | 2026-09-04 12:40:32 | 45.70902 | 13.51288 | 286° | 9km/h | 27127m | 5.5m/s | -47.8°C | 3.2% | 0hPa | 2.6V | 00:00:00 | 02:14:18 | 00:00:00 | |
| IN3HCDX | 2026-09-04 12:40:29 | 45.70905 | 13.51290 | 184° | 9km/h | 27110m | 4.6m/s | -47.8°C | 0.9% | 0hPa | 2.6V | 00:00:00 | 00:00:00 | 00:00:00 | |
| DB0UT-7 | 2026-09-04 12:40:26 | 45.70912 | 13.51288 | 133° | 11km/h | 27093m | 5.4m/s | -47.8°C | 3.3% | 0hPa | 2.6V | 00:00:00 | 02:14:12 | 00:00:00 | |
| OE8JPQ-2 | 2026-09-04 12:40:24 | 45.70914 | 13.51282 | 117° | 11km/h | 27083m | 5.2m/s | -47.8°C | 3.3% | 0hPa | 2.6V | 00:00:00 | 00:00:00 | 00:00:00 | |
| NBG1-10 | 2026-09-04 12:40:23 | 45.70916 | 13.51277 | 120° | 13km/h | 27077m | 6.7m/s | -47.9°C | 3.2% | 0hPa | 2.6V | 00:00:00 | 02:14:09 | 00:00:00 | |
| IW2NTF | 2026-09-04 12:40:20 | 45.70925 | 13.51261 | 142° | 5km/h | 27054m | 6.2m/s | -47.9°C | 3.2% | 0hPa | 2.6V | 08:30:00 | 02:14:05 | 00:00:00 | |
| PETON7-10 | 2026-09-04 12:40:20 | 45.70923 | 13.51263 | 131° | 9km/h | 27060m | 5.9m/s | 0°C | 0% | 0hPa | 2.6V | 00:00:00 | 02:14:06 | 00:00:00 | |
| 9A1FER-10 | 2026-09-04 12:40:17 | 45.70926 | 13.51261 | 233° | 11km/h | 27044m | 4.7m/s | -47.8°C | 3.2% | 0hPa | 2.6V | 00:00:00 | 02:14:03 | 08:30:00 | |
| DO3MHA-11 | 2026-09-04 12:40:16 | 45.70927 | 13.51262 | 212° | 11km/h | 27039m | 6.4m/s | -47.8°C | 3.2% | 0hPa | 2.7V | 00:00:00 | 02:14:02 | 08:30:00 | |
| IW2NTF | 2026-09-04 12:40:14 | 45.70936 | 13.51249 | 108° | 15km/h | 27000m | 5.5m/s | -48°C | 3.3% | 0hPa | 2.7V | 08:30:00 | 02:13:55 | 00:00:00 | |
| SOBLACK | 2026-09-04 12:40:09 | 45.70935 | 13.51253 | 104° | 13km/h | 27006m | 4.5m/s | -48.0°C | 0.9% | 0hPa | 2.7V | 00:00:00 | 00:00:00 | 00:00:00 | |
| IN3HCDX | 2026-09-04 12:40:08 | 45.70938 | 13.51243 | 119° | 18km/h | 26994m | 6.6m/s | -47.9°C | 0.9% | 0hPa | 2.7V | 00:00:00 | 00:00:00 | 00:00:00 | |
| OE5DXL-15 | 2026-09-04 12:40:06 | 45.70943 | 13.51232 | 127° | 16km/h | 26983m | 4.5m/s | -47.9°C | 3.2% | 0hPa | 2.7V | 00:00:00 | 00:00:00 | 00:00:00 | |
| PETON7-10 | 2026-09-04 12:40:05 | 45.70945 | 13.51227 | 127° | 13km/h | 26978m | 6.1m/s | 0°C | 0% | 0hPa | 2.7V | 00:00:00 | 00:00:00 | 00:00:00 | |
| IW2NTF | 2026-09-04 12:40:04 | 45.70955 | 13.51209 | 138° | 18km/h | 26946m | 5.4m/s | -48.1°C | 3.3% | 0hPa | 2.7V | 08:30:00 | 02:13:45 | 00:00:00 | |
| OE8JPQ-2 | 2026-09-04 12:40:04 | 45.70947 | 13.51223 | 117° | 15km/h | 26972m | 5.8m/s | -48.0°C | 3.2% | 0hPa | 2.6V | 00:00:00 | 00:00:00 | 00:00:00 | |
| 9A1FER-10 | 2026-09-04 12:40:02 | 45.70949 | 13.51218 | 117° | 16km/h | 26963m | 4.4m/s | -47.9°C | 3.2% | 0hPa | 2.6V | 00:00:00 | 02:13:48 | 00:00:00 | |
| DB0UT-7 | 2026-09-04 12:39:56 | 45.70965 | 13.51194 | 126° | 16km/h | 26930m | 6.2m/s | -47.8°C | 3.3% | 0hPa | 2.6V | 00:00:00 | 00:00:00 | 00:00:00 | |
| IN3HCDX1 | 2026-09-04 12:39:53 | 45.70969 | 13.51183 | 117° | 16km/h | 26920m | 4.7m/s | -48.0°C | 0.9% | 0hPa | 2.7V | 00:00:00 | 00:00:00 | 00:00:00 | |
| IW2NTF | 2026-09-04 12:39:52 | 45.70984 | 13.51147 | 111° | 13km/h | 26881m | 4.5m/s | -48°C | 3.2% | 0hPa | 2.7V | 08:30:00 | 02:13:33 | 00:00:00 | |
| PETON7-10 | 2026-09-04 12:39:50 | 45.70980 | 13.51160 | 125° | 16km/h | 26898m | 4.7m/s | 0°C | 0% | 0hPa | 2.6V | 00:00:00 | 00:00:00 | 00:00:00 | |
| 9A1FER-10 | 2026-09-04 12:39:47 | 45.70984 | 13.51147 | 112° | 16km/h | 26882m | 4.5m/s | -47.9°C | 3.2% | 0hPa | 2.6V | 00:00:00 | 02:13:33 | 00:00:00 | |
| DO3MHA-11 | 2026-09-04 12:39:46 | 45.70986 | 13.51142 | 116° | 16km/h | 26876m | 6.0m/s | -47.9°C | 3.2% | 0hPa | 2.6V | 00:00:00 | 02:13:32 | 00:00:00 | |
| OE5DRO-10 | 2026-09-04 12:39:45 | 45.70988 | 13.51137 | 120° | 16km/h | 26870m | 5.5m/s | -47.9°C | 3.2% | 0hPa | 2.6V | 00:00:00 | 00:00:00 | 00:00:00 | |
| OE8JPQ-2 | 2026-09-04 12:39:44 | 45.70990 | 13.51131 | 122° | 16km/h | 26865m | 4.8m/s | -47.9°C | 3.2% | 0hPa | 2.6V | 00:00:00 | 02:13:30 | 00:00:00 | |
| DL6DJ-15 | 2026-09-04 12:39:43 | 45.70994 | 13.51121 | 119° | 13km/h | 26854m | 6.3m/s | -47.9°C | -1.0% | -1.0hPa | 2.6V | 00:00:00 | 00:00:00 | 00:00:00 | |
| IW2NTF | 2026-09-04 12:39:42 | 45.71008 | 13.51099 | 141° | 24km/h | 26827m | 4.3m/s | -48°C | 3.2% | 0hPa | 2.6V | 08:30:00 | 02:13:23 | 00:00:00 | |
| DO3MHA-12 | 2026-09-04 12:39:36 | 45.71012 | 13.51094 | 142° | 15km/h | 26823m | 3.9m/s | -48.0°C | 3.3% | 0hPa | 2.7V | 00:00:00 | 02:13:22 | 00:00:00 | |
| IW2NTF | 2026-09-04 12:39:32 | 45.71020 | 13.51053 | 78° | 15km/h | 26774m | 6.2m/s | -48.4°C | 3.3% | 0hPa | 2.7V | 08:30:00 | 02:13:13 | 00:00:00 | |
| 9A1FER-10 | 2026-09-04 12:39:32 | 45.71021 | 13.51079 | 90° | 15km/h | 26802m | 4.6m/s | -48.1°C | 3.3% | 0hPa | 2.7V | 00:00:00 | 02:13:18 | 00:00:00 | |
| PETON7-10 | 2026-09-04 12:39:27 | 45.71020 | 13.51053 | 79° | 16km/h | 26774m | 6.1m/s | 0°C | 0% | 0hPa | 2.7V | 00:00:00 | 02:13:13 | 00:00:00 | |
| DO3MHA-12 | 2026-09-04 12:39:26 | 45.71019 | 13.51048 | 84° | 13km/h | 26769m | 5.0m/s | -48.4°C | 3.3% | 0hPa | 2.7V | 00:00:00 | 02:13:12 | 00:00:00 | |
| OE8JPQ-2 | 2026-09-04 12:39:24 | 45.71020 | 13.51036 | 101° | 16km/h | 26758m | 6.4m/s | -48.4°C | 3.3% | 0hPa | 2.6V | 00:00:00 | 00:00:00 | 00:00:00 | |
| IN3HCDX | 2026-09-04 12:39:23 | 45.71020 | 13.51036 | 102° | 18km/h | 26758m | 6.5m/s | -48.5°C | 0.9% | 0hPa | 2.7V | 00:00:00 | 00:00:00 | 00:00:00 | |
| IW2NTF | 2026-09-04 12:39:22 | 45.71022 | 13.51005 | 59° | 9km/h | 26722m | 5.7m/s | -48.4°C | 3.3% | 0hPa | 2.7V | 08:30:00 | 02:13:03 | 00:00:00 | |
| 9A1FER-10 | 2026-09-04 12:39:18 | 45.71021 | 13.51005 | 60° | 15km/h | 26722m | 5.6m/s | -48.3°C | 3.3% | 0hPa | 2.6V | 00:00:00 | 02:13:03 | 00:00:00 | |
| NBG1-10 | 2026-09-04 12:39:17 | 45.71021 | 13.51005 | 60° | 15km/h | 26722m | 5.6m/s | -48.3°C | 3.3% | 0hPa | 2.6V | 00:00:00 | 02:13:03 | 00:00:00 | |
| DO3MHA-11 | 2026-09-04 12:39:16 | 45.71021 | 13.51002 | 71° | 18km/h | 26717m | 5.5m/s | -48.3°C | 3.3% | 0hPa | 2.6V | 00:00:00 | 02:13:02 | 00:00:00 | |
| DO3MHA-12 | 2026-09-04 12:39:14 | 45.71018 | 13.50992 | 70° | 13km/h | 26707m | 4.6m/s | -48.4°C | 3.2% | 0hPa | 2.7V | 00:00:00 | 02:13:00 | 00:00:00 | |
| IN3HCDX1 | 2026-09-04 12:39:12 | 45.71014 | 13.50980 | 55° | 20km/h | 26695m | 6.2m/s | -48.6°C | 0.9% | 0hPa | 2.7V | 00:00:00 | 00:00:00 | 00:00:00 | |
| IW2NTF | 2026-09-04 12:39:09 | 45.71001 | 13.50948 | 64° | 16km/h | 26668m | 4.7m/s | -48.4°C | 3.3% | 0hPa | 2.7V | 08:30:00 | 02:12:53 | 00:00:00 | |
| PETON7-10 | 2026-09-04 12:39:09 | 45.71005 | 13.50961 | 66° | 11km/h | 26679m | 6.0m/s | 0°C | 0% | 0hPa | 2.6V | 00:00:00 | 00:00:00 | 00:00:00 | |
| SOBLACK | 2026-09-04 12:39:07 | 45.71001 | 13.50948 | 66° | 16km/h | 26668m | 4.7m/s | -48.4°C | 0.9% | 0hPa | 2.6V | 00:00:00 | 00:00:00 | 00:00:00 | |
| DO3MHA-11 | 2026-09-04 12:39:06 | 45.70999 | 13.50944 | 53° | 16km/h | 26663m | 6.4m/s | -48.4°C | 3.3% | 0hPa | 2.6V | 00:00:00 | 02:12:52 | 00:00:00 | |
| OE8JPQ-2 | 2026-09-04 12:39:04 | 45.70994 | 13.50939 | 25° | 15km/h | 26652m | 4.6m/s | -48.5°C | 3.3% | 0hPa | 2.6V | 00:00:00 | 00:00:00 | 00:00:00 | |
| IN3HCDX | 2026-09-04 12:39:03 | 45.70992 | 13.50937 | 32° | 13km/h | 26647m | 5.8m/s | -48.7°C | 0.9% | 0hPa | 2.6V | 00:00:00 | 00:00:00 | 00:00:00 | |
| IW2NTF | 2026-09-04 12:39:02 | 45.70971 | 13.50913 | 38° | 16km/h | 26614m | 4m/s | -48.6°C | 3.3% | 0hPa | 2.6V | 08:30:00 | 02:12:43 | 00:00:00 | |
| 9A1FER-10 | 2026-09-04 12:39:02 | 45.70989 | 13.50934 | 41° | 13km/h | 26641m | 5.5m/s | -48.7°C | 3.4% | 0hPa | 2.7V | 00:00:00 | 02:12:48 | 00:00:00 | |
| DO3MHA-11 | 2026-09-04 12:38:56 | 45.70968 | 13.50909 | 54° | 13km/h | 26611m | 4.1m/s | -48.6°C | 3.3% | 0hPa | 2.7V | 00:00:00 | 02:12:42 | 00:00:00 | |
| DB0UT-7 | 2026-09-04 12:38:54 | 45.70967 | 13.50899 | 99° | 9km/h | 26599m | 5.8m/s | -48.7°C | 3.3% | 0hPa | 2.7V | 00:00:00 | 00:00:00 | 00:00:00 | |
| IW2NTF | 2026-09-04 12:38:52 | 45.70966 | 13.50872 | 26° | 9km/h | 26563m | 6.4m/s | -48.8°C | 3.4% | 0hPa | 2.7V | 08:30:00 | 02:12:33 | 00:00:00 | |
| IN3HCDX1 | 2026-09-04 12:38:52 | 45.70969 | 13.50887 | 113° | 16km/h | 26590m | 3.9m/s | -48.6°C | 0.9% | 0hPa | 2.7V | 00:00:00 | 00:00:00 | 00:00:00 | |
| OE5DRO-10 | 2026-09-04 12:38:48 | 45.70968 | 13.50874 | 25° | 7km/h | 26569m | 4.7m/s | -48.8°C | 3.4% | 0hPa | 2.7V | 00:00:00 | 00:00:00 | 00:00:00 | |
| 9A1FER-10 | 2026-09-04 12:38:47 | 45.70966 | 13.50872 | 27° | 7km/h | 26563m | 6.4m/s | -48.7°C | 3.4% | 0hPa | 2.7V | 00:00:00 | 02:12:33 | 00:00:00 | |
| DO3MHA-11 | 2026-09-04 12:38:46 | 45.70963 | 13.50871 | 32° | 7km/h | 26557m | 5.2m/s | -48.6°C | 3.3% | 0hPa | 2.7V | 00:00:00 | 02:12:32 | 08:30:00 | |
| SOBLACK | 2026-09-04 12:38:45 | 45.70961 | 13.50869 | 29° | 11km/h | 26552m | 4.4m/s | -48.7°C | 0.9% | 0hPa | 2.7V | 00:00:00 | 00:00:00 | 00:00:00 | |
| OE8JPQ-2 | 2026-09-04 12:38:44 | 45.70958 | 13.50867 | 20° | 7km/h | 26547m | 6.0m/s | -48.7°C | 3.3% | 0hPa | 2.7V | 00:00:00 | 02:12:30 | 00:00:00 | |
| PG1ADW-2 | 2026-09-04 12:38:42 | 45.70954 | 13.50866 | 11° | 5km/h | 26535m | 5.1m/s | -48.9°C | 3.4% | 0hPa | 2.7V | 00:00:00 | 02:12:28 | 00:00:00 | |
| DO3MHA-12 | 2026-09-04 12:38:41 | 45.70952 | 13.50865 | 32° | 7km/h | 26530m | 5.6m/s | -48.8°C | 3.4% | 0hPa | 2.6V | 00:00:00 | 02:12:27 | 00:00:00 | |
| IW2NTF | 2026-09-04 12:38:40 | 45.70953 | 13.50859 | 111° | 2km/h | 26509m | 5.4m/s | -48.9°C | 3.4% | 0hPa | 2.6V | 08:30:00 | 02:12:23 | 00:00:00 | |
| IN3HCDX | 2026-09-04 12:38:39 | 45.70952 | 13.50864 | 84° | 4km/h | 26524m | 6.6m/s | -48.7°C | 0.9% | 0hPa | 2.7V | 00:00:00 | 00:00:00 | 00:00:00 | |
| OE5DXL-15 | 2026-09-04 12:38:36 | 45.70953 | 13.50858 | 332° | 7km/h | 26503m | 6.0m/s | -48.9°C | 3.4% | 0hPa | 2.7V | 00:00:00 | 00:00:00 | 00:00:00 | |
| IN3HCDX1 | 2026-09-04 12:38:32 | 45.70945 | 13.50865 | 348° | 9km/h | 26481m | 5.9m/s | -49.0°C | 1.0% | 0hPa | 2.7V | 00:00:00 | 00:00:00 | 00:00:00 | |
| DO3MHA-12 | 2026-09-04 12:38:31 | 45.70942 | 13.50865 | 359° | 5km/h | 26476m | 4.4m/s | -48.8°C | 3.4% | 0hPa | 2.7V | 00:00:00 | 02:12:17 | 00:00:00 | |
| OE5DRO-10 | 2026-09-04 12:38:29 | 45.70938 | 13.50866 | 351° | 9km/h | 26466m | 5.8m/s | -48.8°C | 3.4% | 0hPa | 2.7V | 00:00:00 | 00:00:00 | 08:30:00 | |
| IW2NTF | 2026-09-04 12:38:28 | 45.70934 | 13.50867 | 345° | 7km/h | 26455m | 4.6m/s | -49°C | 3.4% | 0hPa | 2.6V | 08:30:00 | 02:12:13 | 00:00:00 | |
| PETON7-10 | 2026-09-04 12:38:27 | 45.70934 | 13.50867 | 346° | 7km/h | 26455m | 4.6m/s | 0°C | 0% | 0hPa | 2.7V | 00:00:00 | 00:00:00 | 00:00:00 | |
| DO3MHA-11 | 2026-09-04 12:38:26 | 45.70933 | 13.50867 | 10° | 9km/h | 26451m | 5.2m/s | -48.8°C | 3.4% | 0hPa | 2.7V | 00:00:00 | 02:12:12 | 00:00:00 | |
| DB0UT-7 | 2026-09-04 12:38:24 | 45.70932 | 13.50865 | 103° | 9km/h | 26439m | 4.9m/s | -48.9°C | 3.4% | 0hPa | 2.7V | 00:00:00 | 02:12:10 | 00:00:00 | |
| IW2NTF | 2026-09-04 12:38:22 | 45.70935 | 13.50888 | 269° | 9km/h | 26401m | 5.5m/s | -48.9°C | 3.5% | 0hPa | 2.7V | 08:30:00 | 02:12:03 | 00:00:00 | |
| DO3MHA-12 | 2026-09-04 12:38:21 | 45.70934 | 13.50868 | 261° | 11km/h | 26423m | 6.1m/s | -48.9°C | 3.5% | 0hPa | 2.6V | 00:00:00 | 02:12:07 | 00:00:00 | |
| DO3MHA-11 | 2026-09-04 12:38:16 | 45.70934 | 13.50891 | 274° | 7km/h | 26396m | 4.8m/s | -48.9°C | 3.5% | 0hPa | 2.6V | 00:00:00 | 02:12:02 | 00:00:00 | |
| PETON7-10 | 2026-09-04 12:38:12 | 45.70931 | 13.50900 | 304° | 9km/h | 26375m | 5.3m/s | 0°C | 0% | 0hPa | 2.6V | 00:00:00 | 02:11:58 | 00:00:00 | |
| IW2NTF | 2026-09-04 12:38:11 | 45.70927 | 13.50911 | 246° | 5km/h | 26347m | 5.2m/s | -48.8°C | 3.4% | 0hPa | 2.6V | 08:30:00 | 02:11:53 | 00:00:00 | |
| DO3MHA-12 | 2026-09-04 12:38:11 | 45.70929 | 13.50903 | 305° | 9km/h | 26369m | 4.7m/s | -48.9°C | 3.4% | 0hPa | 2.6V | 00:00:00 | 02:11:57 | 00:00:00 | |
| OE5DRO-10 | 2026-09-04 12:38:10 | 45.70928 | 13.50906 | 309° | 11km/h | 26364m | 5.6m/s | -49.0°C | 3.4% | 0hPa | 2.6V | 00:00:00 | 00:00:00 | 00:00:00 | |
| DL6DJ-15 | 2026-09-04 12:38:09 | 45.70927 | 13.50908 | 303° | 4km/h | 26358m | 6.2m/s | -48.8°C | -1.0% | -1.0hPa | 2.6V | 00:00:00 | 00:00:00 | 00:00:00 | |
| DO3MHA-11 | 2026-09-04 12:38:06 | 45.70928 | 13.50913 | 248° | 11km/h | 26341m | 6.6m/s | -48.8°C | 3.4% | 0hPa | 2.6V | 00:00:00 | 02:11:52 | 00:00:00 | |
| OE8JPQ-2 | 2026-09-04 12:38:04 | 45.70930 | 13.50921 | 241° | 13km/h | 26331m | 4.1m/s | -48.6°C | 3.5% | 0hPa | 2.6V | 00:00:00 | 00:00:00 | 00:00:00 | |
| SOBLACK | 2026-09-04 12:38:03 | 45.70932 | 13.50925 | 235° | 13km/h | 26326m | 5.9m/s | -48.7°C | 1.0% | 0hPa | 2.6V | 00:00:00 | 00:00:00 | 00:00:00 | |
| IW2NTF | 2026-09-04 12:38:01 | 45.70940 | 13.50945 | 258° | 11km/h | 26293m | 4.6m/s | -48.6°C | 3.4% | 0hPa | 2.6V | 08:30:00 | 02:11:43 | 00:00:00 | |
| DO3MHA-12 | 2026-09-04 12:38:01 | 45.70936 | 13.50932 | 227° | 11km/h | 26315m | 4.5m/s | -48.7°C | 3.5% | 0hPa | 2.6V | 00:00:00 | 02:11:47 | 08:30:00 | |
| PETON7-10 | 2026-09-04 12:37:57 | 45.70940 | 13.50945 | 259° | 16km/h | 26293m | 4.6m/s | 0°C | 0% | 0hPa | 2.7V | 00:00:00 | 00:00:00 | 00:00:00 | |
| DO3MHA-11 | 2026-09-04 12:37:56 | 45.70941 | 13.50949 | 242° | 15km/h | 26289m | 4.5m/s | -48.6°C | 3.4% | 0hPa | 2.7V | 00:00:00 | 02:11:42 | 00:00:00 | |
| DB0UT-7 | 2026-09-04 12:37:54 | 45.70944 | 13.50952 | 182° | 13km/h | 26277m | 6.0m/s | -48.4°C | 3.3% | 0hPa | 2.7V | 00:00:00 | 00:00:00 | 00:00:00 | |
| IW2NTF | 2026-09-04 12:37:51 | 45.70968 | 13.50967 | 242° | 11km/h | 26240m | 5.9m/s | -48.4°C | 3.4% | 0hPa | 2.7V | 08:30:00 | 02:11:33 | 00:00:00 | |
| DO3MHA-12 | 2026-09-04 12:37:51 | 45.70956 | 13.50953 | 197° | 15km/h | 26262m | 5.4m/s | -48.4°C | 3.4% | 0hPa | 2.7V | 00:00:00 | 02:11:37 | 00:00:00 | |
| IN3HCDX1 | 2026-09-04 12:37:49 | 45.70960 | 13.50955 | 214° | 18km/h | 26256m | 5.5m/s | -48.3°C | 0.9% | 0hPa | 2.7V | 00:00:00 | 00:00:00 | 00:00:00 | |
| IN3HCDX | 2026-09-04 12:37:46 | 45.70969 | 13.50970 | 222° | 5km/h | 26235m | 5.9m/s | -48.5°C | 0.9% | 0hPa | 2.7V | 00:00:00 | 00:00:00 | 00:00:00 | |
| OE8JPQ-2 | 2026-09-04 12:37:44 | 45.70972 | 13.50970 | 175° | 13km/h | 26225m | 4.9m/s | -48.2°C | 3.3% | 0hPa | 2.7V | 00:00:00 | 02:11:30 | 00:00:00 | |
| IW2NTF | 2026-09-04 12:37:41 | 45.71000 | 13.50974 | 175° | 13km/h | 26185m | 5.2m/s | -48.2°C | 3.4% | 0hPa | 2.7V | 08:30:00 | 02:11:23 | 00:00:00 | |
| DO3MHA-12 | 2026-09-04 12:37:39 | 45.70992 | 13.50975 | 184° | 13km/h | 26197m | 6.7m/s | -48.2°C | 3.3% | 0hPa | 2.7V | 00:00:00 | 02:11:25 | 00:00:00 | |
| DL6DJ-15 | 2026-09-04 12:37:38 | 45.71000 | 13.50974 | 175° | 13km/h | 26185m | 5.2m/s | -48.3°C | -1.0% | -1.0hPa | 2.7V | 00:00:00 | 00:00:00 | 00:00:00 | |
| DO3MHA-11 | 2026-09-04 12:37:36 | 45.71003 | 13.50974 | 185° | 13km/h | 26180m | 5.8m/s | -48.1°C | 3.3% | 0hPa | 2.7V | 00:00:00 | 02:11:22 | 00:00:00 | |
| OE5DRO-10 | 2026-09-04 12:37:32 | 45.71016 | 13.50977 | 173° | 9km/h | 26158m | 6.1m/s | -48.0°C | 3.4% | 0hPa | 2.7V | 00:00:00 | 00:00:00 | 00:00:00 | |
| IW2NTF | 2026-09-04 12:37:31 | 45.71027 | 13.50968 | 184° | 7km/h | 26128m | 6.6m/s | -47.8°C | 3.3% | 0hPa | 2.6V | 08:30:00 | 02:11:13 | 00:00:00 | |
| 9A1FER-10 | 2026-09-04 12:37:31 | 45.71019 | 13.50976 | 149° | 9km/h | 26151m | 6.4m/s | -48.0°C | 3.4% | 0hPa | 2.6V | 00:00:00 | 02:11:17 | 00:00:00 | |
| DO3MHA-12 | 2026-09-04 12:37:29 | 45.71023 | 13.50970 | 133° | 7km/h | 26141m | 4.3m/s | -48.0°C | 3.4% | 0hPa | 2.6V | 00:00:00 | 02:11:15 | 00:00:00 | |
| IN3HCDX1 | 2026-09-04 12:37:28 | 45.71023 | 13.50970 | 134° | 11km/h | 26141m | 4.4m/s | -48.1°C | 1.0% | 0hPa | 2.7V | 00:00:00 | 00:00:00 | 00:00:00 | |
| SOBLACK | 2026-09-04 12:37:27 | 45.71025 | 13.50968 | 149° | 7km/h | 26135m | 6.5m/s | -47.9°C | 1.0% | 0hPa | 2.7V | 00:00:00 | 00:00:00 | 00:00:00 | |
| DO3MHA-11 | 2026-09-04 12:37:26 | 45.71029 | 13.50968 | 206° | 9km/h | 26123m | 5.7m/s | -47.8°C | 3.3% | 0hPa | 2.7V | 00:00:00 | 02:11:12 | 00:00:00 | |
| IN3HCDX | 2026-09-04 12:37:25 | 45.71031 | 13.50969 | 211° | 7km/h | 26117m | 5.7m/s | -47.8°C | 0.9% | 0hPa | 2.7V | 00:00:00 | 00:00:00 | 00:00:00 | |
| OE8JPQ-2 | 2026-09-04 12:37:24 | 45.71032 | 13.50971 | 200° | 9km/h | 26111m | 6.6m/s | -47.8°C | 3.3% | 0hPa | 2.7V | 00:00:00 | 00:00:00 | 00:00:00 | |
| PETON7-10 | 2026-09-04 12:37:22 | 45.71036 | 13.50971 | 167° | 9km/h | 26099m | 5.0m/s | 0°C | 0% | 0hPa | 2.6V | 00:00:00 | 02:11:08 | 00:00:00 | |
| IW2NTF | 2026-09-04 12:37:21 | 45.71048 | 13.50970 | 159° | 13km/h | 26072m | 6m/s | -47.5°C | 3.3% | 0hPa | 2.6V | 08:30:00 | 02:11:03 | 00:00:00 | |
| DO3MHA-12 | 2026-09-04 12:37:19 | 45.71042 | 13.50970 | 190° | 9km/h | 26082m | 5.2m/s | -47.6°C | 3.3% | 0hPa | 2.6V | 00:00:00 | 02:11:05 | 00:00:00 | |
| 9A1FER-10 | 2026-09-04 12:37:16 | 45.71051 | 13.50968 | 139° | 9km/h | 26066m | 6.5m/s | -47.5°C | 3.3% | 0hPa | 2.6V | 00:00:00 | 02:11:02 | 00:00:00 | |
| PG1ADW-2 | 2026-09-04 12:37:13 | 45.71053 | 13.50956 | 74° | 9km/h | 26049m | 5.7m/s | 0°C | 0% | 0hPa | 2.7V | 00:00:00 | 00:00:00 | 00:00:00 | |
| IW2NTF | 2026-09-04 12:37:10 | 45.71050 | 13.50953 | 96° | 9km/h | 26017m | 5.6m/s | -47.5°C | 3.1% | 0hPa | 2.7V | 08:30:00 | 02:10:53 | 00:00:00 | |
| DO3MHA-12 | 2026-09-04 12:37:09 | 45.71050 | 13.50956 | 349° | 11km/h | 26029m | 5.6m/s | -47.3°C | 3.1% | 0hPa | 2.7V | 00:00:00 | 02:10:55 | 00:00:00 | |
| IN3HCDX1 | 2026-09-04 12:37:08 | 45.71049 | 13.50955 | 96° | 4km/h | 26023m | 6.2m/s | -47.4°C | 0.9% | 0hPa | 2.7V | 00:00:00 | 00:00:00 | 00:00:00 | |
| DL6DJ-15 | 2026-09-04 12:37:07 | 45.71050 | 13.50953 | 96° | 9km/h | 26017m | 5.6m/s | -47.5°C | -1.0% | -1.0hPa | 2.7V | 00:00:00 | 00:00:00 | 00:00:00 | |
| DO3MHA-11 | 2026-09-04 12:37:06 | 45.71050 | 13.50949 | 90° | 11km/h | 26012m | 4.8m/s | -47.4°C | 3.1% | 0hPa | 2.7V | 00:00:00 | 02:10:52 | 00:00:00 | |
| PETON7-10 | 2026-09-04 12:37:05 | 45.71049 | 13.50943 | 80° | 13km/h | 26007m | 5.3m/s | 0°C | 0% | 0hPa | 2.7V | 00:00:00 | 00:00:00 | 00:00:00 | |
| OE8JPQ-2 | 2026-09-04 12:37:04 | 45.71048 | 13.50938 | 67° | 15km/h | 26001m | 6.3m/s | -47.4°C | 3.1% | 0hPa | 2.7V | 00:00:00 | 00:00:00 | 00:00:00 | |
| IN3HCDX | 2026-09-04 12:37:02 | 45.71044 | 13.50931 | 41° | 13km/h | 25990m | 5.0m/s | -47.5°C | 0.9% | 0hPa | 2.7V | 00:00:00 | 00:00:00 | 00:00:00 | |
| 9A1FER-10 | 2026-09-04 12:37:01 | 45.71042 | 13.50928 | 44° | 15km/h | 25985m | 5.3m/s | -47.5°C | 3.2% | 0hPa | 2.7V | 00:00:00 | 02:10:47 | 00:00:00 | |
| IW2NTF | 2026-09-04 12:36:59 | 45.71038 | 13.50917 | 51° | 9km/h | 25961m | 6.3m/s | -47.6°C | 3.2% | 0hPa | 2.7V | 08:30:00 | 02:10:43 | 00:00:00 | |
| DO3MHA-12 | 2026-09-04 12:36:59 | 45.71040 | 13.50923 | 71° | 18km/h | 25973m | 5.3m/s | -47.6°C | 3.3% | 0hPa | 2.6V | 00:00:00 | 02:10:45 | 00:00:00 | |
| DO3MHA-11 | 2026-09-04 12:36:55 | 45.71033 | 13.50911 | 45° | 18km/h | 25950m | 5.5m/s | -47.7°C | 3.3% | 0hPa | 2.6V | 00:00:00 | 02:10:41 | 00:00:00 | |
| DB0UT-7 | 2026-09-04 12:36:54 | 45.71030 | 13.50906 | 51° | 15km/h | 25944m | 6.6m/s | -47.6°C | 3.2% | 0hPa | 2.6V | 00:00:00 | 00:00:00 | 08:30:00 | |
| PG1ADW-2 | 2026-09-04 12:36:53 | 45.71027 | 13.50901 | 56° | 16km/h | 25938m | 5.6m/s | 0°C | 0% | 0hPa | 2.7V | 00:00:00 | 02:10:39 | 00:00:00 | |
| DO3MHA-12 | 2026-09-04 12:36:48 | 45.71008 | 13.50878 | 6° | 16km/h | 25912m | 4.9m/s | -47.8°C | 3.1% | 0hPa | 2.7V | 00:00:00 | 02:10:34 | 00:00:00 | |
| IW2NTF | 2026-09-04 12:36:46 | 45.71000 | 13.50879 | 18° | 4km/h | 25896m | 5.3m/s | -47.9°C | 3.3% | 0hPa | 2.7V | 08:30:00 | 02:10:31 | 00:00:00 | |
| 9A1FER-10 | 2026-09-04 12:36:46 | 45.71001 | 13.50879 | 349° | 15km/h | 25902m | 5.3m/s | -47.9°C | 3.2% | 0hPa | 2.7V | 00:00:00 | 02:10:32 | 00:00:00 | |
| DO3MHA-11 | 2026-09-04 12:36:45 | 45.70999 | 13.50879 | 19° | 16km/h | 25896m | 5.3m/s | -47.9°C | 3.3% | 0hPa | 2.7V | 00:00:00 | 02:10:31 | 00:00:00 | |
| OE8JPQ-2 | 2026-09-04 12:36:44 | 45.70999 | 13.50877 | 81° | 15km/h | 25892m | 4.7m/s | -47.8°C | 3.3% | 0hPa | 2.7V | 00:00:00 | 02:10:30 | 00:00:00 | |
| IN3HCDX | 2026-09-04 12:36:40 | 45.70994 | 13.50860 | 57° | 26km/h | 25875m | 5.2m/s | -48.0°C | 0.9% | 0hPa | 2.7V | 00:00:00 | 00:00:00 | 00:00:00 | |
| IW2NTF | 2026-09-04 12:36:39 | 45.70968 | 13.50839 | 0° | 9km/h | 25843m | 5.7m/s | -48.5°C | 3.3% | 0hPa | 2.7V | 08:30:00 | 02:10:21 | 00:00:00 | |
| DO3MHA-12 | 2026-09-04 12:36:38 | 45.70980 | 13.50843 | 26° | 11km/h | 25860m | 5.4m/s | -48.1°C | 3.2% | 0hPa | 2.6V | 00:00:00 | 02:10:24 | 00:00:00 | |
| OE5DXL-15 | 2026-09-04 12:36:36 | 45.70971 | 13.50839 | 9° | 11km/h | 25849m | 5.9m/s | -48.3°C | 3.2% | 0hPa | 2.6V | 00:00:00 | 00:00:00 | 00:00:00 | |
| DO3MHA-11 | 2026-09-04 12:36:35 | 45.70968 | 13.50839 | 1° | 9km/h | 25843m | 5.6m/s | -48.4°C | 3.3% | 0hPa | 2.6V | 00:00:00 | 02:10:21 | 00:00:00 | |
| PG1ADW-2 | 2026-09-04 12:36:33 | 45.70964 | 13.50840 | 324° | 9km/h | 25832m | 5.3m/s | 0°C | 0% | 0hPa | 2.6V | 00:00:00 | 00:00:00 | 00:00:00 | |
| 9A1FER-10 | 2026-09-04 12:36:31 | 45.70961 | 13.50844 | 321° | 11km/h | 25821m | 5.3m/s | -48.2°C | 3.4% | 0hPa | 2.6V | 00:00:00 | 02:10:17 | 00:00:00 | |
| IW2NTF | 2026-09-04 12:36:29 | 45.70953 | 13.50829 | 58° | 13km/h | 25788m | 5.9m/s | -48.4°C | 3.2% | 0hPa | 2.6V | 08:30:00 | 02:10:11 | 00:00:00 | |
| DO3MHA-12 | 2026-09-04 12:36:28 | 45.70957 | 13.50843 | 69° | 11km/h | 25804m | 6.3m/s | -48.3°C | 3.3% | 0hPa | 2.7V | 00:00:00 | 02:10:14 | 08:30:00 | |
| DO3MHA-11 | 2026-09-04 12:36:25 | 45.70953 | 13.50829 | 59° | 9km/h | 25788m | 5.8m/s | -48.4°C | 3.2% | 0hPa | 2.6V | 00:00:00 | 02:10:11 | 00:00:00 | |
| DB0UT-7 | 2026-09-04 12:36:24 | 45.70951 | 13.50827 | 38° | 15km/h | 25783m | 5.1m/s | -48.4°C | 3.2% | 0hPa | 2.6V | 00:00:00 | 02:10:10 | 00:00:00 | |
| IW2NTF | 2026-09-04 12:36:20 | 45.70961 | 13.50843 | 62° | 5km/h | 25734m | 5.4m/s | -48.6°C | 3.3% | 0hPa | 2.6V | 08:30:00 | 02:10:01 | 00:00:00 | |
| NBG1-10 | 2026-09-04 12:36:20 | 45.70953 | 13.50833 | 219° | 15km/h | 25760m | 5.9m/s | -48.2°C | 3.1% | 0hPa | 2.6V | 00:00:00 | 02:10:06 | 00:00:00 | |
| SOBLACK | 2026-09-04 12:36:19 | 45.70956 | 13.50836 | 220° | 15km/h | 25755m | 4.6m/s | -48.3°C | 0.9% | 0hPa | 2.6V | 00:00:00 | 00:00:00 | 00:00:00 | |
| IN3HCDX1 | 2026-09-04 12:36:18 | 45.70956 | 13.50836 | 220° | 15km/h | 25755m | 4.6m/s | -48.3°C | 0.9% | 0hPa | 2.6V | 00:00:00 | 00:00:00 | 00:00:00 | |
| DO3MHA-12 | 2026-09-04 12:36:17 | 45.70961 | 13.50842 | 232° | 11km/h | 25745m | 6.0m/s | -48.3°C | 3.2% | 0hPa | 2.6V | 00:00:00 | 02:10:03 | 00:00:00 | |
| 9A1FER-10 | 2026-09-04 12:36:16 | 45.70961 | 13.50843 | 295° | 15km/h | 25739m | 5.2m/s | -48.4°C | 3.2% | 0hPa | 2.6V | 00:00:00 | 02:10:02 | 00:00:00 | |
| DO3MHA-11 | 2026-09-04 12:36:15 | 45.70961 | 13.50842 | 63° | 13km/h | 25734m | 5.3m/s | -48.6°C | 3.3% | 0hPa | 2.6V | 00:00:00 | 02:10:01 | 00:00:00 | |
| PG1ADW-2 | 2026-09-04 12:36:13 | 45.70960 | 13.50836 | 94° | 13km/h | 25722m | 6.0m/s | 0°C | 0% | 0hPa | 2.7V | 00:00:00 | 00:00:00 | 00:00:00 | |
| IW2NTF | 2026-09-04 12:36:10 | 45.70982 | 13.50828 | 189° | 26km/h | 25678m | 5.8m/s | -49.7°C | 3.5% | 0hPa | 2.7V | 08:30:00 | 02:09:51 | 00:00:00 | |
| DO3MHA-12 | 2026-09-04 12:36:06 | 45.70976 | 13.50826 | 199° | 22km/h | 25685m | 6.3m/s | -49.6°C | 3.5% | 0hPa | 2.6V | 00:00:00 | 02:09:52 | 00:00:00 | |
| DO3MHA-11 | 2026-09-04 12:36:05 | 45.70982 | 13.50828 | 190° | 22km/h | 25678m | 5.7m/s | -49.7°C | 3.5% | 0hPa | 2.6V | 00:00:00 | 02:09:51 | 00:00:00 | |
| OE8JPQ-2 | 2026-09-04 12:36:04 | 45.70988 | 13.50829 | 182° | 16km/h | 25673m | 4.7m/s | -49.7°C | 3.6% | 0hPa | 2.6V | 00:00:00 | 00:00:00 | 00:00:00 | |
| 9A1FER-10 | 2026-09-04 12:36:01 | 45.71006 | 13.50826 | 162° | 15km/h | 25657m | 5.6m/s | -49.7°C | 3.6% | 0hPa | 2.6V | 00:00:00 | 02:09:47 | 00:00:00 | |
| IW2NTF | 2026-09-04 12:36:00 | 45.71027 | 13.50799 | 128° | 13km/h | 25623m | 6.3m/s | -49.5°C | 3.4% | 0hPa | 2.6V | 08:30:00 | 02:09:41 | 00:00:00 | |
| OE5DRO-10 | 2026-09-04 12:35:58 | 45.71021 | 13.50809 | 131° | 13km/h | 25635m | 5.1m/s | -49.4°C | 3.4% | 0hPa | 2.6V | 00:00:00 | 00:00:00 | 00:00:00 | |
| SOBLACK | 2026-09-04 12:35:57 | 45.71021 | 13.50809 | 132° | 20km/h | 25635m | 5.1m/s | -49.4°C | 1.0% | 0hPa | 2.6V | 00:00:00 | 00:00:00 | 00:00:00 | |
| DO3MHA-12 | 2026-09-04 12:35:56 | 45.71024 | 13.50803 | 129° | 13km/h | 25629m | 5.6m/s | -49.4°C | 3.4% | 0hPa | 2.6V | 00:00:00 | 02:09:42 | 00:00:00 | |
| DO3MHA-11 | 2026-09-04 12:35:55 | 45.71027 | 13.50799 | 129° | 13km/h | 25623m | 6.3m/s | -49.4°C | 3.4% | 0hPa | 2.6V | 00:00:00 | 02:09:41 | 00:00:00 | |
| DB0UT-7 | 2026-09-04 12:35:54 | 45.71028 | 13.50796 | 140° | 15km/h | 25618m | 5.0m/s | -49.5°C | 3.4% | 0hPa | 2.6V | 00:00:00 | 00:00:00 | 00:00:00 | |
| IW2NTF | 2026-09-04 12:35:51 | 45.71052 | 13.50775 | 113° | 16km/h | 25567m | 6.5m/s | -49.6°C | 3.6% | 0hPa | 2.6V | 08:30:00 | 02:09:31 | 00:00:00 | |
| NBG1-10 | 2026-09-04 12:35:47 | 45.71049 | 13.50784 | 124° | 16km/h | 25579m | 5.6m/s | -49.6°C | 3.6% | 0hPa | 2.6V | 00:00:00 | 02:09:33 | 00:00:00 | |
| DO3MHA-12 | 2026-09-04 12:35:46 | 45.71051 | 13.50780 | 115° | 13km/h | 25573m | 5.5m/s | -49.6°C | 3.6% | 0hPa | 2.6V | 00:00:00 | 02:09:32 | 00:00:00 | |
| DO3MHA-11 | 2026-09-04 12:35:45 | 45.71052 | 13.50775 | 114° | 13km/h | 25567m | 6.4m/s | -49.6°C | 3.6% | 0hPa | 2.6V | 00:00:00 | 02:09:31 | 08:30:00 | |
| OE8JPQ-2 | 2026-09-04 12:35:44 | 45.71054 | 13.50769 | 115° | 16km/h | 25561m | 5.0m/s | -49.6°C | 3.5% | 0hPa | 2.7V | 00:00:00 | 02:09:30 | 00:00:00 | |
| IW2NTF | 2026-09-04 12:35:40 | 45.71066 | 13.50739 | 127° | 15km/h | 25514m | 4.7m/s | -49.8°C | 3.6% | 0hPa | 2.7V | 08:30:00 | 02:09:21 | 00:00:00 | |
| IN3HCDX | 2026-09-04 12:35:37 | 45.71059 | 13.50746 | 147° | 7km/h | 25529m | 6.3m/s | -49.8°C | 1.0% | 0hPa | 2.6V | 00:00:00 | 00:00:00 | 00:00:00 | |
| DO3MHA-12 | 2026-09-04 12:35:36 | 45.71064 | 13.50742 | 141° | 20km/h | 25518m | 4.1m/s | -49.7°C | 3.6% | 0hPa | 2.6V | 00:00:00 | 02:09:22 | 00:00:00 | |
| DO3MHA-11 | 2026-09-04 12:35:35 | 45.71066 | 13.50739 | 128° | 22km/h | 25514m | 4.6m/s | -49.7°C | 3.6% | 0hPa | 2.6V | 00:00:00 | 02:09:21 | 00:00:00 | |
| 9A1FER-10 | 2026-09-04 12:35:31 | 45.71069 | 13.50715 | 92° | 20km/h | 25492m | 5.2m/s | -49.7°C | 3.6% | 0hPa | 2.6V | 00:00:00 | 02:09:17 | 00:00:00 | |
| IW2NTF | 2026-09-04 12:35:30 | 45.71074 | 13.50667 | 89° | 20km/h | 25458m | 4.7m/s | -49.5°C | 3.4% | 0hPa | 2.6V | 08:30:00 | 02:09:11 | 00:00:00 | |
| DO3MHA-12 | 2026-09-04 12:35:26 | 45.71074 | 13.50675 | 94° | 18km/h | 25463m | 5.6m/s | -49.5°C | 3.4% | 0hPa | 2.6V | 00:00:00 | 02:09:12 | 00:00:00 | |
| DO3MHA-11 | 2026-09-04 12:35:25 | 45.71074 | 13.50667 | 90° | 18km/h | 25458m | 4.7m/s | -49.5°C | 3.4% | 0hPa | 2.7V | 00:00:00 | 02:09:11 | 00:00:00 | |
| OE8JPQ-2 | 2026-09-04 12:35:24 | 45.71074 | 13.50660 | 94° | 20km/h | 25453m | 5.1m/s | -49.5°C | 3.4% | 0hPa | 2.7V | 00:00:00 | 00:00:00 | 08:30:00 | |
| IW2NTF | 2026-09-04 12:35:20 | 45.71076 | 13.50600 | 91° | 20km/h | 25402m | 5.2m/s | -49.6°C | 3.6% | 0hPa | 2.6V | 08:30:00 | 02:09:01 | 00:00:00 | |
| IN3HCDX | 2026-09-04 12:35:17 | 45.71078 | 13.50621 | 80° | 18km/h | 25418m | 4.7m/s | -49.6°C | 1.0% | 0hPa | 2.6V | 00:00:00 | 00:00:00 | 00:00:00 | |
| DO3MHA-12 | 2026-09-04 12:35:16 | 45.71076 | 13.50608 | 86° | 20km/h | 25408m | 6.3m/s | -49.5°C | 3.6% | 0hPa | 2.6V | 00:00:00 | 02:09:02 | 00:00:00 | |
| DO3MHA-11 | 2026-09-04 12:35:15 | 45.71076 | 13.50600 | 92° | 20km/h | 25402m | 5.1m/s | -49.6°C | 3.6% | 0hPa | 2.6V | 00:00:00 | 02:09:01 | 00:00:00 | |
| NBG1-10 | 2026-09-04 12:35:14 | 45.71076 | 13.50593 | 91° | 15km/h | 25397m | 4.3m/s | -49.7°C | 3.5% | 0hPa | 2.7V | 00:00:00 | 02:09:00 | 00:00:00 | |
| OE5DRO-10 | 2026-09-04 12:35:13 | 45.71073 | 13.50569 | 69° | 15km/h | 25381m | 5.2m/s | -49.8°C | 3.5% | 0hPa | 2.7V | 00:00:00 | 00:00:00 | 00:00:00 | |
| IW2NTF | 2026-09-04 12:35:10 | 45.71070 | 13.50532 | 105° | 16km/h | 25347m | 5.9m/s | -49.5°C | 3.4% | 0hPa | 2.7V | 08:30:00 | 02:08:51 | 00:00:00 | |
| DO3MHA-12 | 2026-09-04 12:35:06 | 45.71069 | 13.50537 | 109° | 18km/h | 25353m | 5.0m/s | -49.5°C | 3.4% | 0hPa | 2.7V | 00:00:00 | 02:08:52 | 00:00:00 | |
| DO3MHA-11 | 2026-09-04 12:35:05 | 45.71070 | 13.50532 | 106° | 18km/h | 25348m | 5.8m/s | -49.5°C | 3.4% | 0hPa | 2.7V | 00:00:00 | 02:08:51 | 00:00:00 | |
| OE8JPQ-2 | 2026-09-04 12:35:04 | 45.71071 | 13.50525 | 96° | 15km/h | 25342m | 6.0m/s | -49.5°C | 3.4% | 0hPa | 2.7V | 00:00:00 | 00:00:00 | 00:00:00 | |
| DL6DJ-15 | 2026-09-04 12:35:03 | 45.71071 | 13.50512 | 88° | 18km/h | 25331m | 5.8m/s | 0°C | -1.0% | -1.0hPa | 2.7V | 00:00:00 | 00:00:00 | 00:00:00 | |
| 9A1FER-10 | 2026-09-04 12:35:01 | 45.71071 | 13.50504 | 90° | 13km/h | 25325m | 6.1m/s | -49.6°C | 3.5% | 0hPa | 2.7V | 00:00:00 | 02:08:47 | 00:00:00 | |
| IW2NTF | 2026-09-04 12:34:58 | 45.71062 | 13.50469 | 55° | 13km/h | 25293m | 5.8m/s | -49.6°C | 3.5% | 0hPa | 2.6V | 08:30:00 | 02:08:41 | 00:00:00 | |
| IN3HCDX | 2026-09-04 12:34:56 | 45.71067 | 13.50478 | 60° | 18km/h | 25304m | 5.9m/s | -49.6°C | 1.0% | 0hPa | 2.6V | 00:00:00 | 00:00:00 | 00:00:00 | |
| DO3MHA-12 | 2026-09-04 12:34:55 | 45.71062 | 13.50469 | 56° | 7km/h | 25293m | 5.7m/s | -49.6°C | 3.5% | 0hPa | 2.6V | 00:00:00 | 02:08:41 | 08:30:00 | |
| DB0UT-7 | 2026-09-04 12:34:54 | 45.71061 | 13.50465 | 65° | 9km/h | 25287m | 6.0m/s | -49.6°C | 3.5% | 0hPa | 2.6V | 00:00:00 | 00:00:00 | 00:00:00 | |
| SOBLACK | 2026-09-04 12:34:50 | 45.71059 | 13.50458 | 54° | 5km/h | 25272m | 5.9m/s | -49.7°C | 1.0% | 0hPa | 2.6V | 00:00:00 | 00:00:00 | 00:00:00 | |
| IW2NTF | 2026-09-04 12:34:50 | 45.71060 | 13.50437 | 98° | 16km/h | 25240m | 4.8m/s | -50°C | 3.4% | 0hPa | 2.6V | 08:30:00 | 02:08:31 | 00:00:00 | |
| 9A1FER-10 | 2026-09-04 12:34:46 | 45.71059 | 13.50443 | 109° | 11km/h | 25245m | 4.4m/s | -49.8°C | 3.5% | 0hPa | 2.6V | 00:00:00 | 02:08:32 | 00:00:00 | |
| DO3MHA-11 | 2026-09-04 12:34:45 | 45.71060 | 13.50437 | 99° | 11km/h | 25240m | 4.7m/s | -50.0°C | 3.4% | 0hPa | 2.6V | 00:00:00 | 02:08:31 | 00:00:00 | |
| OE8JPQ-2 | 2026-09-04 12:34:44 | 45.71060 | 13.50431 | 88° | 11km/h | 25235m | 6.0m/s | -50.1°C | 3.5% | 0hPa | 2.7V | 00:00:00 | 02:08:30 | 00:00:00 | |
| IW2NTF | 2026-09-04 12:34:38 | 45.71049 | 13.50409 | 349° | 7km/h | 25187m | 4.7m/s | -50.3°C | 3.5% | 0hPa | 2.7V | 08:30:00 | 02:08:21 | 00:00:00 | |
| NBG1-10 | 2026-09-04 12:34:38 | 45.71054 | 13.50407 | 6° | 7km/h | 25204m | 5.1m/s | -50.1°C | 3.6% | 0hPa | 2.6V | 00:00:00 | 02:08:24 | 00:00:00 | |
| OE5DXL-15 | 2026-09-04 12:34:36 | 45.71051 | 13.50408 | 343° | 7km/h | 25192m | 5.0m/s | -50.2°C | 3.6% | 0hPa | 2.6V | 00:00:00 | 00:00:00 | 08:30:00 | |
| DO3MHA-11 | 2026-09-04 12:34:35 | 45.71049 | 13.50409 | 350° | 11km/h | 25187m | 4.7m/s | -50.2°C | 3.5% | 0hPa | 2.6V | 00:00:00 | 02:08:21 | 00:00:00 | |
| IN3HCDX1 | 2026-09-04 12:34:33 | 45.71048 | 13.50409 | 19° | 5km/h | 25182m | 6.3m/s | -50.4°C | 1.0% | 0hPa | 2.6V | 00:00:00 | 00:00:00 | 00:00:00 | |
| 9A1FER-10 | 2026-09-04 12:34:31 | 45.71046 | 13.50401 | 78° | 7km/h | 25165m | 5.7m/s | -50.3°C | 3.6% | 0hPa | 2.6V | 00:00:00 | 02:08:17 | 00:00:00 | |
| IW2NTF | 2026-09-04 12:34:30 | 45.71038 | 13.50379 | 32° | 2km/h | 25132m | 4.6m/s | -50.4°C | 3.6% | 0hPa | 2.6V | 08:30:00 | 02:08:11 | 00:00:00 | |
| SOBLACK | 2026-09-04 12:34:29 | 45.71045 | 13.50396 | 67° | 15km/h | 25159m | 6.2m/s | -50.3°C | 1.1% | 0hPa | 2.6V | 00:00:00 | 00:00:00 | 00:00:00 | |
| DO3MHA-11 | 2026-09-04 12:34:25 | 45.71038 | 13.50379 | 33° | 5km/h | 25133m | 4.6m/s | -50.3°C | 3.6% | 0hPa | 2.6V | 00:00:00 | 02:08:11 | 00:00:00 | |
| DB0UT-7 | 2026-09-04 12:34:24 | 45.71038 | 13.50379 | 311° | 7km/h | 25128m | 5.0m/s | -50.3°C | 3.6% | 0hPa | 2.6V | 00:00:00 | 02:08:10 | 00:00:00 | |
| DO3MHA-12 | 2026-09-04 12:34:20 | 45.71032 | 13.50386 | 315° | 7km/h | 25107m | 5.8m/s | -50.6°C | 3.6% | 0hPa | 2.6V | 00:00:00 | 02:08:06 | 00:00:00 | |
| IW2NTF | 2026-09-04 12:34:18 | 45.71032 | 13.50376 | 66° | 13km/h | 25080m | 4.7m/s | -50.6°C | 3.6% | 0hPa | 2.6V | 08:30:00 | 02:08:01 | 00:00:00 | |
| 9A1FER-10 | 2026-09-04 12:34:16 | 45.71033 | 13.50380 | 82° | 5km/h | 25086m | 6.0m/s | -50.5°C | 3.6% | 0hPa | 2.7V | 00:00:00 | 02:08:02 | 00:00:00 | |
| DO3MHA-11 | 2026-09-04 12:34:15 | 45.71032 | 13.50376 | 67° | 5km/h | 25081m | 4.6m/s | -50.6°C | 3.6% | 0hPa | 2.6V | 00:00:00 | 02:08:01 | 08:30:00 | |
| IN3HCDX | 2026-09-04 12:34:14 | 45.71032 | 13.50376 | 68° | 13km/h | 25081m | 4.7m/s | -50.6°C | 1.0% | 0hPa | 2.7V | 00:00:00 | 00:00:00 | 00:00:00 | |
| IN3HCDX1 | 2026-09-04 12:34:13 | 45.71030 | 13.50369 | 61° | 9km/h | 25072m | 4.9m/s | -50.5°C | 1.1% | 0hPa | 2.7V | 00:00:00 | 00:00:00 | 00:00:00 | |
| OE5DRO-10 | 2026-09-04 12:34:11 | 45.71030 | 13.50365 | 26° | 7km/h | 25046m | 6.0m/s | -50.5°C | 3.6% | 0hPa | 2.7V | 00:00:00 | 00:00:00 | 00:00:00 | |
| IW2NTF | 2026-09-04 12:34:10 | 45.71027 | 13.50363 | 22° | 5km/h | 25029m | 5.9m/s | -50.7°C | 3.6% | 0hPa | 2.7V | 08:30:00 | 02:07:51 | 00:00:00 | |
| DO3MHA-12 | 2026-09-04 12:34:10 | 45.71030 | 13.50366 | 179° | 5km/h | 25056m | 4.6m/s | -50.6°C | 3.7% | 0hPa | 2.6V | 00:00:00 | 02:07:56 | 00:00:00 | |
| SOBLACK | 2026-09-04 12:34:08 | 45.71030 | 13.50366 | 0° | 0km/h | 25052m | 5.2m/s | -50.6°C | 1.1% | 0hPa | 2.6V | 00:00:00 | 00:00:00 | 00:00:00 | |
| OE5DXL-15 | 2026-09-04 12:34:06 | 45.71027 | 13.50364 | 25° | 11km/h | 25035m | 5.3m/s | -50.6°C | 3.5% | 0hPa | 2.6V | 00:00:00 | 00:00:00 | 00:00:00 | |
| NBG1-10 | 2026-09-04 12:34:05 | 45.71026 | 13.50363 | 23° | 11km/h | 25029m | 5.8m/s | -50.7°C | 3.6% | 0hPa | 2.6V | 00:00:00 | 02:07:51 | 00:00:00 | |
| OE8JPQ-2 | 2026-09-04 12:34:04 | 45.71025 | 13.50362 | 17° | 9km/h | 25024m | 4.7m/s | -50.7°C | 3.6% | 0hPa | 2.6V | 00:00:00 | 00:00:00 | 00:00:00 | |
| 9A1FER-10 | 2026-09-04 12:34:01 | 45.71019 | 13.50359 | 31° | 9km/h | 25008m | 5.0m/s | -50.5°C | 3.5% | 0hPa | 2.6V | 00:00:00 | 02:07:47 | 00:00:00 | |
| IW2NTF | 2026-09-04 12:33:57 | 45.71020 | 13.50348 | 129° | 9km/h | 24975m | 6.2m/s | -50.6°C | 3.6% | 0hPa | 2.6V | 08:30:00 | 02:07:41 | 00:00:00 | |
| DO3MHA-12 | 2026-09-04 12:33:57 | 45.71017 | 13.50352 | 148° | 9km/h | 24987m | 4.8m/s | -50.5°C | 3.7% | 0hPa | 2.7V | 00:00:00 | 02:07:43 | 00:00:00 | |
| DO3MHA-11 | 2026-09-04 12:33:55 | 45.71020 | 13.50347 | 130° | 9km/h | 24976m | 6.1m/s | -50.5°C | 3.6% | 0hPa | 2.6V | 00:00:00 | 02:07:41 | 00:00:00 | |
| DB0UT-7 | 2026-09-04 12:33:54 | 45.71021 | 13.50345 | 115° | 11km/h | 24970m | 4.6m/s | -50.6°C | 3.6% | 0hPa | 2.6V | 00:00:00 | 00:00:00 | 00:00:00 | |
| IN3HCDX | 2026-09-04 12:33:53 | 45.71021 | 13.50345 | 116° | 11km/h | 24970m | 4.7m/s | -50.6°C | 1.1% | 0hPa | 2.7V | 00:00:00 | 00:00:00 | 00:00:00 | |
| IW2NTF | 2026-09-04 12:33:51 | 45.71019 | 13.50316 | 52° | 11km/h | 24924m | 5.1m/s | -51.4°C | 3.7% | 0hPa | 2.7V | 08:30:00 | 02:07:31 | 00:00:00 | |
| SOBLACK | 2026-09-04 12:33:48 | 45.71025 | 13.50328 | 94° | 7km/h | 24945m | 4.8m/s | -51.0°C | 1.1% | 0hPa | 2.7V | 00:00:00 | 00:00:00 | 00:00:00 | |
| DO3MHA-12 | 2026-09-04 12:33:47 | 45.71023 | 13.50322 | 51° | 13km/h | 24934m | 5.9m/s | -51.1°C | 3.7% | 0hPa | 2.7V | 00:00:00 | 02:07:33 | 00:00:00 | |
| 9A1FER-10 | 2026-09-04 12:33:46 | 45.71021 | 13.50319 | 47° | 15km/h | 24929m | 4.4m/s | -51.3°C | 3.7% | 0hPa | 2.7V | 00:00:00 | 02:07:32 | 00:00:00 | |
| DO3MHA-11 | 2026-09-04 12:33:45 | 45.71019 | 13.50316 | 53° | 15km/h | 24924m | 5.1m/s | -51.4°C | 3.7% | 0hPa | 2.7V | 00:00:00 | 02:07:31 | 00:00:00 | |
| OE8JPQ-2 | 2026-09-04 12:33:44 | 45.71018 | 13.50313 | 73° | 13km/h | 24919m | 5.9m/s | -51.3°C | 3.7% | 0hPa | 2.7V | 00:00:00 | 02:07:30 | 00:00:00 | |
| DO3MHA-12 | 2026-09-04 12:33:37 | 45.71030 | 13.50284 | 133° | 13km/h | 24880m | 5.7m/s | -51.1°C | 3.8% | 0hPa | 2.7V | 00:00:00 | 02:07:23 | 00:00:00 | |
| IW2NTF | 2026-09-04 12:33:36 | 45.71036 | 13.50273 | 117° | 16km/h | 24871m | 3.8m/s | -51.2°C | 3.7% | 0hPa | 2.7V | 08:30:00 | 02:07:21 | 00:00:00 | |
| OE5DXL-15 | 2026-09-04 12:33:36 | 45.71034 | 13.50278 | 131° | 13km/h | 24875m | 3.8m/s | -51.2°C | 3.7% | 0hPa | 2.6V | 00:00:00 | 00:00:00 | 00:00:00 | |
| DO3MHA-11 | 2026-09-04 12:33:35 | 45.71036 | 13.50273 | 118° | 11km/h | 24872m | 3.8m/s | -51.2°C | 3.7% | 0hPa | 2.6V | 00:00:00 | 02:07:21 | 00:00:00 | |
| NBG1-10 | 2026-09-04 12:33:32 | 45.71036 | 13.50258 | 67° | 13km/h | 24855m | 4.9m/s | -51.2°C | 3.7% | 0hPa | 2.6V | 00:00:00 | 02:07:18 | 00:00:00 | |
| 9A1FER-10 | 2026-09-04 12:33:31 | 45.71035 | 13.50254 | 63° | 13km/h | 24850m | 5.6m/s | -51.2°C | 3.7% | 0hPa | 2.6V | 00:00:00 | 02:07:17 | 08:30:00 | |
| IW2NTF | 2026-09-04 12:33:30 | 45.71038 | 13.50238 | 125° | 11km/h | 24817m | 4.5m/s | -51.5°C | 3.8% | 0hPa | 2.6V | 08:30:00 | 02:07:11 | 00:00:00 | |
| DO3MHA-12 | 2026-09-04 12:33:27 | 45.71035 | 13.50244 | 118° | 15km/h | 24828m | 6.0m/s | -51.4°C | 3.7% | 0hPa | 2.7V | 00:00:00 | 02:07:13 | 00:00:00 | |
| DO3MHA-11 | 2026-09-04 12:33:25 | 45.71038 | 13.50238 | 126° | 16km/h | 24818m | 4.5m/s | -51.5°C | 3.8% | 0hPa | 2.6V | 00:00:00 | 02:07:11 | 00:00:00 | |
| OE8JPQ-2 | 2026-09-04 12:33:24 | 45.71040 | 13.50234 | 136° | 15km/h | 24813m | 5.2m/s | -51.6°C | 3.8% | 0hPa | 2.6V | 00:00:00 | 00:00:00 | 00:00:00 | |
| IW2NTF | 2026-09-04 12:33:19 | 45.71039 | 13.50187 | 65° | 18km/h | 24765m | 4.3m/s | -51.5°C | 3.8% | 0hPa | 2.7V | 08:30:00 | 02:07:01 | 00:00:00 | |
| DO3MHA-12 | 2026-09-04 12:33:16 | 45.71041 | 13.50193 | 61° | 7km/h | 24770m | 5.4m/s | -51.6°C | 3.8% | 0hPa | 2.7V | 00:00:00 | 02:07:02 | 00:00:00 | |
| DO3MHA-11 | 2026-09-04 12:33:15 | 45.71039 | 13.50187 | 66° | 11km/h | 24765m | 4.2m/s | -51.5°C | 3.8% | 0hPa | 2.7V | 00:00:00 | 02:07:01 | 00:00:00 | |
| IN3HCDX | 2026-09-04 12:33:09 | 45.71033 | 13.50158 | 99° | 9km/h | 24740m | 6.6m/s | -51.6°C | 1.1% | 0hPa | 2.6V | 00:00:00 | 00:00:00 | 00:00:00 | |
| IW2NTF | 2026-09-04 12:33:06 | 45.71031 | 13.50151 | 41° | 15km/h | 24713m | 5.1m/s | -51.6°C | 3.8% | 0hPa | 2.6V | 08:30:00 | 02:06:51 | 00:00:00 | |
| OE5DXL-15 | 2026-09-04 12:33:06 | 45.71033 | 13.50153 | 43° | 15km/h | 24718m | 6.1m/s | -51.5°C | 3.8% | 0hPa | 2.6V | 00:00:00 | 00:00:00 | 00:00:00 | |
| DO3MHA-12 | 2026-09-04 12:33:05 | 45.71031 | 13.50151 | 42° | 11km/h | 24713m | 5.0m/s | -51.5°C | 3.8% | 0hPa | 2.7V | 00:00:00 | 02:06:51 | 00:00:00 | |
| OE8JPQ-2 | 2026-09-04 12:33:04 | 45.71028 | 13.50147 | 43° | 15km/h | 24708m | 4.4m/s | -51.6°C | 3.8% | 0hPa | 2.7V | 00:00:00 | 00:00:00 | 00:00:00 | |
| 9A1FER-10 | 2026-09-04 12:33:01 | 45.71017 | 13.50134 | 33° | 13km/h | 24692m | 5.1m/s | -51.6°C | 3.8% | 0hPa | 2.7V | 00:00:00 | 02:06:47 | 00:00:00 | |
| IW2NTF | 2026-09-04 12:33:00 | 45.71003 | 13.50116 | 36° | 7km/h | 24661m | 6.1m/s | -51.7°C | 3.9% | 0hPa | 2.7V | 08:30:00 | 02:06:41 | 00:00:00 | |
| DL6DJ-15 | 2026-09-04 12:32:59 | 45.70997 | 13.50115 | 5° | 9km/h | 24645m | 5.2m/s | 0°C | -1.0% | -1.0hPa | 2.7V | 00:00:00 | 00:00:00 | 00:00:00 | |
| DO3MHA-11 | 2026-09-04 12:32:55 | 45.71003 | 13.50116 | 37° | 13km/h | 24661m | 6.1m/s | -51.7°C | 3.9% | 0hPa | 2.7V | 00:00:00 | 02:06:41 | 00:00:00 | |
| DB0UT-7 | 2026-09-04 12:32:54 | 45.71001 | 13.50115 | 7° | 15km/h | 24655m | 5.6m/s | 0°C | 0% | 0hPa | 2.7V | 00:00:00 | 00:00:00 | 00:00:00 | |
| DO3MHA-12 | 2026-09-04 12:32:49 | 45.70988 | 13.50109 | 35° | 15km/h | 24629m | 4.7m/s | -51.7°C | 3.8% | 0hPa | 2.7V | 00:00:00 | 02:06:35 | 08:30:00 | |
| IW2NTF | 2026-09-04 12:32:48 | 45.70973 | 13.50101 | 15° | 16km/h | 24608m | 4.7m/s | -51.8°C | 3.9% | 0hPa | 2.7V | 08:30:00 | 02:06:31 | 00:00:00 | |
| 9A1FER-10 | 2026-09-04 12:32:46 | 45.70977 | 13.50102 | 13° | 15km/h | 24613m | 5.1m/s | -51.7°C | 3.9% | 0hPa | 2.6V | 00:00:00 | 02:06:32 | 00:00:00 | |
| DO3MHA-11 | 2026-09-04 12:32:45 | 45.70973 | 13.50101 | 16° | 15km/h | 24608m | 4.6m/s | -51.8°C | 3.9% | 0hPa | 2.7V | 00:00:00 | 02:06:31 | 08:30:00 | |
| OE8JPQ-2 | 2026-09-04 12:32:44 | 45.70969 | 13.50099 | 22° | 15km/h | 24603m | 5.9m/s | -51.7°C | 3.9% | 0hPa | 2.7V | 00:00:00 | 02:06:30 | 00:00:00 | |
| IW2NTF | 2026-09-04 12:32:40 | 45.70940 | 13.50089 | 15° | 13km/h | 24553m | 4.4m/s | -51.8°C | 3.9% | 0hPa | 2.7V | 08:30:00 | 02:06:21 | 00:00:00 | |
| DO3MHA-12 | 2026-09-04 12:32:39 | 45.70953 | 13.50090 | 358° | 13km/h | 24575m | 5.2m/s | -51.7°C | 3.9% | 0hPa | 2.7V | 00:00:00 | 02:06:25 | 00:00:00 | |
| SOBLACK | 2026-09-04 12:32:38 | 45.70953 | 13.50090 | 358° | 15km/h | 24575m | 5.2m/s | -51.8°C | 1.1% | 0hPa | 2.7V | 00:00:00 | 00:00:00 | 00:00:00 | |
| OE5DXL-15 | 2026-09-04 12:32:36 | 45.70942 | 13.50090 | 15° | 15km/h | 24558m | 5.7m/s | -51.7°C | 3.9% | 0hPa | 2.7V | 00:00:00 | 00:00:00 | 00:00:00 | |
| DO3MHA-11 | 2026-09-04 12:32:35 | 45.70939 | 13.50088 | 16° | 15km/h | 24553m | 4.4m/s | -51.8°C | 3.9% | 0hPa | 2.7V | 00:00:00 | 02:06:21 | 00:00:00 | |
| 9A1FER-10 | 2026-09-04 12:32:31 | 45.70927 | 13.50090 | 350° | 15km/h | 24531m | 5.7m/s | -51.8°C | 3.8% | 0hPa | 2.7V | 00:00:00 | 02:06:17 | 00:00:00 | |
| DO3MHA-12 | 2026-09-04 12:32:29 | 45.70920 | 13.50091 | 356° | 13km/h | 24519m | 4.6m/s | -51.8°C | 3.8% | 0hPa | 2.7V | 00:00:00 | 02:06:15 | 00:00:00 | |
| NBG1-10 | 2026-09-04 12:32:26 | 45.70909 | 13.50094 | 344° | 16km/h | 24503m | 4.5m/s | -51.8°C | 3.9% | 0hPa | 2.7V | 00:00:00 | 02:06:12 | 00:00:00 | |
| DO3MHA-11 | 2026-09-04 12:32:25 | 45.70905 | 13.50095 | 352° | 15km/h | 24498m | 4.8m/s | -51.9°C | 3.9% | 0hPa | 2.7V | 00:00:00 | 02:06:11 | 00:00:00 | |
| IW2NTF | 2026-09-04 12:32:24 | 45.70899 | 13.50095 | 23° | 11km/h | 24487m | 5.5m/s | -51.9°C | 3.9% | 0hPa | 2.7V | 08:30:00 | 02:06:09 | 00:00:00 | |
| DB0UT-7 | 2026-09-04 12:32:24 | 45.70902 | 13.50096 | 5° | 11km/h | 24493m | 6.3m/s | 0°C | 0% | 0hPa | 2.7V | 00:00:00 | 02:06:10 | 00:00:00 | |
| DO3MHA-12 | 2026-09-04 12:32:19 | 45.70888 | 13.50092 | 356° | 15km/h | 24465m | 5.2m/s | -51.8°C | 4.0% | 0hPa | 2.7V | 00:00:00 | 02:06:05 | 00:00:00 | |
| IW2NTF | 2026-09-04 12:32:18 | 45.70860 | 13.50087 | 354° | 16km/h | 24432m | 5.5m/s | -51.7°C | 3.9% | 0hPa | 2.7V | 08:30:00 | 02:05:59 | 00:00:00 | |
| IN3HCDX | 2026-09-04 12:32:17 | 45.70884 | 13.50092 | 361° | 18km/h | 24460m | 5.6m/s | -51.8°C | 1.2% | 0hPa | 2.6V | 00:00:00 | 00:00:00 | 00:00:00 | |
| 9A1FER-10 | 2026-09-04 12:32:16 | 45.70874 | 13.50090 | 15° | 18km/h | 24449m | 4.7m/s | -51.7°C | 4.0% | 0hPa | 2.6V | 00:00:00 | 02:06:02 | 00:00:00 | |
| DO3MHA-11 | 2026-09-04 12:32:15 | 45.70869 | 13.50088 | 14° | 15km/h | 24444m | 4.3m/s | -51.7°C | 4.0% | 0hPa | 2.6V | 00:00:00 | 02:06:01 | 00:00:00 | |
| IN3HCDX1 | 2026-09-04 12:32:09 | 45.70849 | 13.50091 | 345° | 9km/h | 24410m | 4.6m/s | -51.5°C | 1.1% | 0hPa | 2.7V | 00:00:00 | 00:00:00 | 00:00:00 | |
| DO3MHA-12 | 2026-09-04 12:32:07 | 45.70843 | 13.50094 | 335° | 22km/h | 24400m | 6.2m/s | -51.5°C | 3.8% | 0hPa | 2.7V | 00:00:00 | 02:05:53 | 00:00:00 | |
| OE5DXL-15 | 2026-09-04 12:32:06 | 45.70839 | 13.50097 | 335° | 20km/h | 24394m | 5.4m/s | -51.3°C | 3.7% | 0hPa | 2.7V | 00:00:00 | 00:00:00 | 00:00:00 | |
| DO3MHA-11 | 2026-09-04 12:32:05 | 45.70834 | 13.50100 | 340° | 20km/h | 24389m | 4.2m/s | -51.3°C | 3.7% | 0hPa | 2.7V | 00:00:00 | 02:05:51 | 00:00:00 | |
| IW2NTF | 2026-09-04 12:32:04 | 45.70816 | 13.50104 | 355° | 26km/h | 24372m | 4.6m/s | -51.5°C | 3.8% | 0hPa | 2.7V | 08:30:00 | 02:05:48 | 00:00:00 | |
| OE8JPQ-2 | 2026-09-04 12:32:04 | 45.70829 | 13.50102 | 347° | 20km/h | 24384m | 6.3m/s | -51.4°C | 3.7% | 0hPa | 2.7V | 00:00:00 | 00:00:00 | 00:00:00 | |
| DL6DJ-15 | 2026-09-04 12:31:57 | 45.70748 | 13.50152 | 331° | 16km/h | 24289m | 5.8m/s | 0°C | -1.0% | -1.0hPa | 2.7V | 00:00:00 | 00:00:00 | 00:00:00 | |
| DO3MHA-11 | 2026-09-04 12:31:55 | 45.70787 | 13.50116 | 302° | 20km/h | 24336m | 4.4m/s | -51.4°C | 3.9% | 0hPa | 2.7V | 00:00:00 | 02:05:41 | 00:00:00 | |
| IW2NTF | 2026-09-04 12:31:54 | 45.70779 | 13.50131 | 316° | 24km/h | 24320m | 4.5m/s | -51.8°C | 3.9% | 0hPa | 2.7V | 08:30:00 | 02:05:38 | 00:00:00 | |
| NBG1-10 | 2026-09-04 12:31:53 | 45.70783 | 13.50125 | 307° | 20km/h | 24325m | 5.0m/s | -51.6°C | 3.9% | 0hPa | 2.7V | 00:00:00 | 02:05:39 | 00:00:00 | |
| IN3HCDX | 2026-09-04 12:31:52 | 45.70783 | 13.50125 | 308° | 20km/h | 24325m | 5.0m/s | -51.6°C | 1.1% | 0hPa | 2.7V | 00:00:00 | 00:00:00 | 00:00:00 | |
| SOBLACK | 2026-09-04 12:31:51 | 45.70779 | 13.50131 | 318° | 24km/h | 24320m | 4.5m/s | -51.8°C | 1.1% | 0hPa | 2.7V | 00:00:00 | 00:00:00 | 00:00:00 | |
| IW2NTF | 2026-09-04 12:31:47 | 45.70736 | 13.50161 | 340° | 15km/h | 24267m | 5m/s | -51.2°C | 3.9% | 0hPa | 2.7V | 08:30:00 | 02:05:28 | 00:00:00 | |
| DO3MHA-12 | 2026-09-04 12:31:46 | 45.70748 | 13.50152 | 332° | 20km/h | 24289m | 5.8m/s | -51.3°C | 3.9% | 0hPa | 2.7V | 00:00:00 | 02:05:32 | 00:00:00 | |
| OE8JPQ-2 | 2026-09-04 12:31:44 | 45.70742 | 13.50157 | 332° | 16km/h | 24279m | 5.2m/s | -51.2°C | 3.9% | 0hPa | 2.7V | 00:00:00 | 02:05:30 | 00:00:00 | |
| OE5DXL-15 | 2026-09-04 12:31:36 | 45.70709 | 13.50187 | 332° | 18km/h | 24234m | 5.7m/s | -51.1°C | 3.8% | 0hPa | 2.7V | 00:00:00 | 00:00:00 | 00:00:00 | |
| DO3MHA-11 | 2026-09-04 12:31:35 | 45.70704 | 13.50190 | 336° | 15km/h | 24229m | 4.5m/s | -51.1°C | 3.7% | 0hPa | 2.7V | 00:00:00 | 02:05:21 | 00:00:00 | |
| IW2NTF | 2026-09-04 12:31:34 | 45.70692 | 13.50201 | 318° | 16km/h | 24212m | 5.1m/s | -50.8°C | 3.8% | 0hPa | 2.7V | 08:30:00 | 02:05:18 | 00:00:00 | |
| IN3HCDX | 2026-09-04 12:31:32 | 45.70692 | 13.50201 | 320° | 16km/h | 24212m | 5.1m/s | -50.8°C | 1.1% | 0hPa | 2.6V | 00:00:00 | 00:00:00 | 00:00:00 | |
| 9A1FER-3 | 2026-09-04 12:31:29 | 45.70685 | 13.50209 | 326° | 16km/h | 24195m | 4.7m/s | -50.9°C | 3.8% | 0hPa | 2.6V | 00:00:00 | 02:05:15 | 08:30:00 | |
| OE5DRO-10 | 2026-09-04 12:31:27 | 45.70682 | 13.50214 | 311° | 18km/h | 24187m | 5.2m/s | -50.9°C | 3.8% | 0hPa | 2.6V | 00:00:00 | 00:00:00 | 00:00:00 | |
| DO3MHA-11 | 2026-09-04 12:31:25 | 45.70676 | 13.50224 | 311° | 20km/h | 24176m | 5.2m/s | -50.8°C | 3.7% | 0hPa | 2.6V | 00:00:00 | 02:05:11 | 00:00:00 | |
| IW2NTF | 2026-09-04 12:31:24 | 45.70661 | 13.50243 | 328° | 26km/h | 24159m | 5.1m/s | -51.1°C | 3.7% | 0hPa | 2.6V | 08:30:00 | 02:05:08 | 00:00:00 | |
| OE8JPQ-2 | 2026-09-04 12:31:24 | 45.70671 | 13.50231 | 317° | 18km/h | 24171m | 4.7m/s | -50.8°C | 3.7% | 0hPa | 2.6V | 00:00:00 | 00:00:00 | 00:00:00 | |
| NBG1-10 | 2026-09-04 12:31:20 | 45.70651 | 13.50252 | 322° | 15km/h | 24149m | 5.7m/s | -51.1°C | 3.7% | 0hPa | 2.7V | 00:00:00 | 02:05:06 | 00:00:00 | |
| 9A1FER-10 | 2026-09-04 12:31:16 | 45.70643 | 13.50270 | 264° | 16km/h | 24128m | 6.0m/s | -50.9°C | 3.8% | 0hPa | 2.7V | 00:00:00 | 02:05:02 | 08:30:00 | |
| DO3MHA-12 | 2026-09-04 12:31:15 | 45.70643 | 13.50272 | 255° | 18km/h | 24123m | 4.4m/s | -51.0°C | 3.8% | 0hPa | 2.7V | 00:00:00 | 02:05:01 | 08:30:00 | |
| IW2NTF | 2026-09-04 12:31:14 | 45.70642 | 13.50284 | 290° | 20km/h | 24108m | 5.5m/s | -50.9°C | 3.8% | 0hPa | 2.6V | 08:30:00 | 02:04:58 | 00:00:00 | |
| 9A1FER-3 | 2026-09-04 12:31:14 | 45.70644 | 13.50275 | 270° | 16km/h | 24119m | 3.8m/s | -51.0°C | 3.8% | 0hPa | 2.6V | 00:00:00 | 02:05:00 | 00:00:00 | |
| OE5DRO-10 | 2026-09-04 12:31:08 | 45.70629 | 13.50314 | 312° | 16km/h | 24087m | 4.9m/s | -50.8°C | 3.6% | 0hPa | 2.6V | 00:00:00 | 00:00:00 | 08:30:00 | |
| OE5DXL-15 | 2026-09-04 12:31:06 | 45.70623 | 13.50325 | 301° | 13km/h | 24078m | 5.1m/s | -51.0°C | 3.6% | 0hPa | 2.6V | 00:00:00 | 00:00:00 | 00:00:00 | |
| DO3MHA-12 | 2026-09-04 12:31:05 | 45.70621 | 13.50330 | 288° | 13km/h | 24073m | 5.4m/s | -51.0°C | 3.7% | 0hPa | 2.6V | 00:00:00 | 02:04:51 | 00:00:00 | |
| IW2NTF | 2026-09-04 12:31:04 | 45.70622 | 13.50343 | 242° | 9km/h | 24056m | 6.4m/s | -50.8°C | 3.7% | 0hPa | 2.6V | 08:30:00 | 02:04:48 | 00:00:00 | |
| OE8JPQ-2 | 2026-09-04 12:31:04 | 45.70621 | 13.50335 | 271° | 13km/h | 24067m | 5.0m/s | -50.9°C | 3.7% | 0hPa | 2.6V | 00:00:00 | 00:00:00 | 00:00:00 | |
| 9A1FER-10 | 2026-09-04 12:31:01 | 45.70623 | 13.50346 | 232° | 13km/h | 24051m | 4.4m/s | -50.8°C | 3.6% | 0hPa | 2.6V | 00:00:00 | 02:04:47 | 00:00:00 | |
| 9A1FER-3 | 2026-09-04 12:30:59 | 45.70626 | 13.50353 | 245° | 15km/h | 24041m | 5.9m/s | -51.1°C | 3.7% | 0hPa | 2.6V | 00:00:00 | 02:04:45 | 00:00:00 | |
| DO3MHA-11 | 2026-09-04 12:30:55 | 45.70628 | 13.50375 | 282° | 13km/h | 24020m | 5.0m/s | -51.1°C | 3.8% | 0hPa | 2.6V | 00:00:00 | 02:04:41 | 00:00:00 | |
| IW2NTF | 2026-09-04 12:30:54 | 45.70626 | 13.50390 | 274° | 15km/h | 24005m | 5.3m/s | -51.4°C | 3.8% | 0hPa | 2.6V | 08:30:00 | 02:04:38 | 00:00:00 | |
| NBG1-10 | 2026-09-04 12:30:47 | 45.70633 | 13.50402 | 181° | 13km/h | 23979m | 4.3m/s | -51.3°C | 3.8% | 0hPa | 2.6V | 00:00:00 | 02:04:33 | 00:00:00 | |
| 9A1FER-10 | 2026-09-04 12:30:46 | 45.70636 | 13.50403 | 191° | 11km/h | 23974m | 5.8m/s | -51.3°C | 3.8% | 0hPa | 2.6V | 00:00:00 | 02:04:32 | 00:00:00 | |
| IN3HCDX | 2026-09-04 12:30:45 | 45.70637 | 13.50403 | 191° | 16km/h | 23974m | 5.8m/s | -51.3°C | 1.1% | 0hPa | 2.6V | 00:00:00 | 00:00:00 | 00:00:00 | |
| IW2NTF | 2026-09-04 12:30:44 | 45.70652 | 13.50421 | 266° | 9km/h | 23944m | 5m/s | -51.3°C | 3.8% | 0hPa | 2.6V | 08:30:00 | 02:04:26 | 00:00:00 | |
| 9A1FER-3 | 2026-09-04 12:30:44 | 45.70644 | 13.50407 | 215° | 9km/h | 23965m | 3.6m/s | -51.3°C | 3.8% | 0hPa | 2.7V | 00:00:00 | 02:04:30 | 00:00:00 | |
| OE5DXL-15 | 2026-09-04 12:30:36 | 45.70651 | 13.50434 | 296° | 9km/h | 23925m | 4.7m/s | -51.3°C | 3.7% | 0hPa | 2.6V | 00:00:00 | 00:00:00 | 00:00:00 | |
| DO3MHA-11 | 2026-09-04 12:30:35 | 45.70650 | 13.50437 | 316° | 9km/h | 23919m | 6.1m/s | -51.4°C | 3.7% | 0hPa | 2.6V | 00:00:00 | 02:04:21 | 00:00:00 | |
| IW2NTF | 2026-09-04 12:30:34 | 45.70646 | 13.50446 | 244° | 9km/h | 23893m | 4.7m/s | -51.4°C | 3.8% | 0hPa | 2.6V | 08:30:00 | 02:04:16 | 00:00:00 | |
| 9A1FER-10 | 2026-09-04 12:30:31 | 45.70645 | 13.50443 | 257° | 9km/h | 23898m | 5.5m/s | -51.3°C | 3.8% | 0hPa | 2.6V | 00:00:00 | 02:04:17 | 00:00:00 | |
| 9A1FER-3 | 2026-09-04 12:30:29 | 45.70647 | 13.50449 | 251° | 9km/h | 23888m | 4.7m/s | -51.5°C | 3.9% | 0hPa | 2.7V | 00:00:00 | 02:04:15 | 00:00:00 | |
| DO3MHA-11 | 2026-09-04 12:30:25 | 45.70647 | 13.50469 | 266° | 9km/h | 23868m | 5.6m/s | -51.7°C | 3.9% | 0hPa | 2.7V | 00:00:00 | 02:04:11 | 00:00:00 | |
| OE8JPQ-2 | 2026-09-04 12:30:24 | 45.70648 | 13.50475 | 257° | 9km/h | 23863m | 5.3m/s | -51.7°C | 3.9% | 0hPa | 2.7V | 00:00:00 | 00:00:00 | 00:00:00 | |
| IW2NTF | 2026-09-04 12:30:23 | 45.70653 | 13.50488 | 153° | 2km/h | 23834m | 4.5m/s | -51.6°C | 3.8% | 0hPa | 2.7V | 08:30:00 | 02:04:04 | 00:00:00 | |
| DO3MHA-12 | 2026-09-04 12:30:18 | 45.70653 | 13.50488 | 154° | 9km/h | 23834m | 4.5m/s | -51.5°C | 3.8% | 0hPa | 2.6V | 00:00:00 | 02:04:04 | 00:00:00 | |
| 9A1FER-10 | 2026-09-04 12:30:16 | 45.70656 | 13.50488 | 203° | 7km/h | 23824m | 4.2m/s | -51.4°C | 3.9% | 0hPa | 2.6V | 00:00:00 | 02:04:02 | 00:00:00 | |
| DO3MHA-11 | 2026-09-04 12:30:15 | 45.70658 | 13.50490 | 210° | 11km/h | 23820m | 4.0m/s | -51.5°C | 3.9% | 0hPa | 2.6V | 00:00:00 | 02:04:01 | 00:00:00 | |
| 9A1FER-3 | 2026-09-04 12:30:14 | 45.70660 | 13.50492 | 216° | 7km/h | 23815m | 5.5m/s | -51.5°C | 3.9% | 0hPa | 2.7V | 00:00:00 | 02:04:00 | 00:00:00 | |
| IV3AMH | 2026-09-04 12:30:13 | 45.70660 | 13.50492 | 216° | 11km/h | 23815m | 5.5m/s | -51.5°C | 1.2% | 0hPa | 2.7V | 00:00:00 | 00:00:00 | 00:00:00 | |
| IW2NTF | 2026-09-04 12:30:12 | 45.70679 | 13.50504 | 199° | 7km/h | 23779m | 5.9m/s | -51.7°C | 3.8% | 0hPa | 2.7V | 08:30:00 | 02:03:53 | 00:00:00 | |
| DO3MHA-12 | 2026-09-04 12:30:08 | 45.70676 | 13.50503 | 193° | 5km/h | 23784m | 4.3m/s | -51.6°C | 3.8% | 0hPa | 2.6V | 00:00:00 | 02:03:54 | 00:00:00 | |
| DO3MHA-11 | 2026-09-04 12:30:05 | 45.70680 | 13.50506 | 292° | 7km/h | 23768m | 4.8m/s | -51.5°C | 3.8% | 0hPa | 2.6V | 00:00:00 | 02:03:51 | 00:00:00 | |
| OE8JPQ-2 | 2026-09-04 12:30:04 | 45.70680 | 13.50506 | 302° | 9km/h | 23763m | 5.0m/s | -51.6°C | 3.8% | 0hPa | 2.6V | 00:00:00 | 00:00:00 | 00:00:00 | |
| SOBLACK | 2026-09-04 12:30:03 | 45.70680 | 13.50506 | 0° | 0km/h | 23763m | 5.0m/s | 0°C | 0% | 0hPa | 2.6V | 00:00:00 | 00:00:00 | 00:00:00 | |
| 9A1FER-10 | 2026-09-04 12:30:01 | 45.70682 | 13.50508 | 209° | 11km/h | 23748m | 4.7m/s | -51.5°C | 3.8% | 0hPa | 2.6V | 00:00:00 | 02:03:47 | 00:00:00 | |
| 9A1FER-3 | 2026-09-04 12:29:59 | 45.70684 | 13.50510 | 219° | 11km/h | 23737m | 4.6m/s | -51.4°C | 3.8% | 0hPa | 2.6V | 00:00:00 | 02:03:45 | 00:00:00 | |
| DO3MHA-12 | 2026-09-04 12:29:57 | 45.70688 | 13.50513 | 196° | 13km/h | 23727m | 6.5m/s | -51.6°C | 3.9% | 0hPa | 2.7V | 00:00:00 | 02:03:43 | 00:00:00 | |
| DO3MHA-11 | 2026-09-04 12:29:55 | 45.70696 | 13.50514 | 184° | 11km/h | 23716m | 4.7m/s | -51.8°C | 3.9% | 0hPa | 2.7V | 00:00:00 | 02:03:41 | 00:00:00 | |
| IW2NTF | 2026-09-04 12:29:50 | 45.70711 | 13.50510 | 145° | 11km/h | 23684m | 5m/s | -51.7°C | 3.8% | 0hPa | 2.7V | 08:30:00 | 02:03:35 | 00:00:00 | |
| DO3MHA-12 | 2026-09-04 12:29:47 | 45.70716 | 13.50506 | 164° | 15km/h | 23674m | 5.9m/s | -51.6°C | 3.8% | 0hPa | 2.6V | 00:00:00 | 02:03:33 | 00:00:00 | |
| 9A1FER-10 | 2026-09-04 12:29:46 | 45.70718 | 13.50506 | 181° | 13km/h | 23668m | 4.4m/s | -51.6°C | 3.8% | 0hPa | 2.6V | 00:00:00 | 02:03:32 | 00:00:00 | |
| DO3MHA-11 | 2026-09-04 12:29:45 | 45.70721 | 13.50506 | 185° | 15km/h | 23664m | 4.3m/s | -51.6°C | 3.8% | 0hPa | 2.7V | 00:00:00 | 02:03:31 | 08:30:00 | |
| OE8JPQ-2 | 2026-09-04 12:29:44 | 45.70725 | 13.50506 | 182° | 13km/h | 23659m | 6.0m/s | -51.6°C | 3.9% | 0hPa | 2.6V | 00:00:00 | 02:03:30 | 00:00:00 | |
| 9A1FER-3 | 2026-09-04 12:29:43 | 45.70730 | 13.50506 | 178° | 13km/h | 23653m | 5.0m/s | -51.6°C | 3.9% | 0hPa | 2.6V | 00:00:00 | 02:03:29 | 00:00:00 | |
| SOBLACK | 2026-09-04 12:29:41 | 45.70736 | 13.50506 | 178° | 20km/h | 23648m | 4.4m/s | 0°C | 0% | 0hPa | 2.6V | 00:00:00 | 00:00:00 | 00:00:00 | |
| IN3HCDX | 2026-09-04 12:29:40 | 45.70740 | 13.50506 | 178° | 16km/h | 23643m | 5.7m/s | -51.6°C | 1.2% | 0hPa | 2.6V | 00:00:00 | 00:00:00 | 00:00:00 | |
| DO3MHA-12 | 2026-09-04 12:29:37 | 45.70752 | 13.50500 | 142° | 11km/h | 23623m | 5.7m/s | -51.7°C | 3.8% | 0hPa | 2.6V | 00:00:00 | 02:03:23 | 00:00:00 | |
| OE5DXL-15 | 2026-09-04 12:29:36 | 45.70755 | 13.50497 | 136° | 7km/h | 23618m | 4.7m/s | -51.7°C | 3.7% | 0hPa | 2.7V | 00:00:00 | 00:00:00 | 00:00:00 | |
| DO3MHA-11 | 2026-09-04 12:29:35 | 45.70757 | 13.50493 | 133° | 9km/h | 23613m | 4.6m/s | -51.8°C | 3.8% | 0hPa | 2.7V | 00:00:00 | 02:03:21 | 00:00:00 | |
| IV3AMH | 2026-09-04 12:29:34 | 45.70757 | 13.50493 | 134° | 15km/h | 23613m | 4.6m/s | -51.9°C | 1.2% | 0hPa | 2.7V | 00:00:00 | 00:00:00 | 00:00:00 | |
| IW2NTF | 2026-09-04 12:29:33 | 45.70772 | 13.50482 | 185° | 11km/h | 23572m | 5.4m/s | -52°C | 3.9% | 0hPa | 2.7V | 08:30:00 | 02:03:13 | 00:00:00 | |
| 9A1FER-10 | 2026-09-04 12:29:31 | 45.70762 | 13.50483 | 150° | 9km/h | 23592m | 4.6m/s | -51.8°C | 3.9% | 0hPa | 2.6V | 00:00:00 | 02:03:17 | 00:00:00 | |
| OE5DRO-10 | 2026-09-04 12:29:29 | 45.70766 | 13.50482 | 176° | 7km/h | 23581m | 4.8m/s | -51.8°C | 4.0% | 0hPa | 2.6V | 00:00:00 | 00:00:00 | 00:00:00 | |
| 9A1FER-3 | 2026-09-04 12:29:28 | 45.70769 | 13.50482 | 182° | 9km/h | 23577m | 4.3m/s | -51.9°C | 4.0% | 0hPa | 2.6V | 00:00:00 | 02:03:14 | 00:00:00 | |
| DO3MHA-12 | 2026-09-04 12:29:27 | 45.70772 | 13.50482 | 186° | 7km/h | 23572m | 5.4m/s | -51.9°C | 3.9% | 0hPa | 2.6V | 00:00:00 | 02:03:13 | 00:00:00 | |
| DO3MHA-11 | 2026-09-04 12:29:25 | 45.70776 | 13.50483 | 191° | 9km/h | 23562m | 4.0m/s | -51.9°C | 3.9% | 0hPa | 2.6V | 00:00:00 | 02:03:11 | 00:00:00 | |
| OE8JPQ-2 | 2026-09-04 12:29:24 | 45.70777 | 13.50483 | 171° | 7km/h | 23558m | 4.2m/s | -51.9°C | 3.8% | 0hPa | 2.6V | 00:00:00 | 00:00:00 | 08:30:00 | |
| IN3HCDX1 | 2026-09-04 12:29:23 | 45.70777 | 13.50483 | 171° | 5km/h | 23558m | 4.2m/s | -52.0°C | 1.1% | 0hPa | 2.6V | 00:00:00 | 00:00:00 | 00:00:00 | |
| IW2NTF | 2026-09-04 12:29:20 | 45.70779 | 13.50455 | 109° | 9km/h | 23511m | 4.6m/s | -51.9°C | 3.8% | 0hPa | 2.6V | 08:30:00 | 02:03:01 | 00:00:00 | |
| 9A1FER-10 | 2026-09-04 12:29:17 | 45.70779 | 13.50458 | 94° | 7km/h | 23516m | 5.3m/s | -51.8°C | 3.8% | 0hPa | 2.6V | 00:00:00 | 02:03:02 | 00:00:00 | |
| 9A1FER-3 | 2026-09-04 12:29:13 | 45.70780 | 13.50451 | 154° | 9km/h | 23501m | 5.6m/s | -51.9°C | 3.9% | 0hPa | 2.6V | 00:00:00 | 02:02:59 | 08:30:00 | |
| IW2NTF | 2026-09-04 12:29:11 | 45.70778 | 13.50456 | 17° | 13km/h | 23460m | 4.3m/s | -52.1°C | 3.8% | 0hPa | 2.7V | 08:30:00 | 02:02:51 | 00:00:00 | |
| OE5DRO-10 | 2026-09-04 12:29:09 | 45.70782 | 13.50456 | 228° | 13km/h | 23481m | 4.7m/s | -52.0°C | 3.9% | 0hPa | 2.6V | 00:00:00 | 00:00:00 | 00:00:00 | |
| OE5DXL-15 | 2026-09-04 12:29:06 | 45.70780 | 13.50458 | 12° | 11km/h | 23466m | 5.6m/s | -52.1°C | 3.9% | 0hPa | 2.7V | 00:00:00 | 00:00:00 | 00:00:00 | |
| DO3MHA-11 | 2026-09-04 12:29:05 | 45.70778 | 13.50456 | 18° | 13km/h | 23461m | 4.3m/s | -52.1°C | 3.8% | 0hPa | 2.7V | 00:00:00 | 02:02:51 | 00:00:00 | |
| 9A1FER-10 | 2026-09-04 12:29:01 | 45.70766 | 13.50449 | 23° | 13km/h | 23441m | 4.4m/s | -52.1°C | 3.7% | 0hPa | 2.7V | 00:00:00 | 02:02:47 | 08:30:00 | |
| IN3HCDX | 2026-09-04 12:28:59 | 45.70762 | 13.50447 | 16° | 15km/h | 23436m | 6.0m/s | -52.2°C | 1.1% | 0hPa | 2.6V | 00:00:00 | 00:00:00 | 00:00:00 | |
| 9A1FER-3 | 2026-09-04 12:28:58 | 45.70755 | 13.50446 | 358° | 13km/h | 23426m | 4.1m/s | -52.1°C | 3.8% | 0hPa | 2.6V | 00:00:00 | 02:02:44 | 00:00:00 | |
| IV3AMH | 2026-09-04 12:28:57 | 45.70755 | 13.50446 | 359° | 13km/h | 23426m | 4.1m/s | -52.2°C | 1.2% | 0hPa | 2.6V | 00:00:00 | 00:00:00 | 00:00:00 | |
| SOBLACK | 2026-09-04 12:28:56 | 45.70752 | 13.50446 | 349° | 11km/h | 23421m | 6.0m/s | 0°C | 0% | 0hPa | 2.6V | 00:00:00 | 00:00:00 | 00:00:00 | |
| IW2NTF | 2026-09-04 12:28:55 | 45.70742 | 13.50451 | 352° | 15km/h | 23401m | 5.3m/s | -52.6°C | 3.9% | 0hPa | 2.6V | 08:30:00 | 02:02:39 | 00:00:00 | |
| DO3MHA-12 | 2026-09-04 12:28:48 | 45.70724 | 13.50445 | 35° | 7km/h | 23376m | 4.5m/s | -53.2°C | 4.1% | 0hPa | 2.6V | 00:00:00 | 02:02:34 | 08:30:00 | |
| 9A1FER-10 | 2026-09-04 12:28:46 | 45.70719 | 13.50441 | 28° | 5km/h | 23365m | 5.3m/s | -53.2°C | 4.1% | 0hPa | 2.7V | 00:00:00 | 02:02:32 | 00:00:00 | |
| IW2NTF | 2026-09-04 12:28:45 | 45.70716 | 13.50440 | 283° | 5km/h | 23329m | 4.8m/s | -53.2°C | 4.1% | 0hPa | 2.7V | 08:30:00 | 02:02:25 | 00:00:00 | |
| OE8JPQ-2 | 2026-09-04 12:28:44 | 45.70715 | 13.50438 | 30° | 4km/h | 23355m | 5.2m/s | -53.3°C | 4.1% | 0hPa | 2.6V | 00:00:00 | 02:02:30 | 00:00:00 | |
| IN3HCDX1 | 2026-09-04 12:28:43 | 45.70714 | 13.50438 | 92° | 2km/h | 23350m | 5.8m/s | -53.3°C | 1.3% | 0hPa | 2.6V | 00:00:00 | 00:00:00 | 00:00:00 | |
| DO3MHA-12 | 2026-09-04 12:28:38 | 45.70716 | 13.50442 | 286° | 4km/h | 23325m | 4.2m/s | -53.2°C | 4.1% | 0hPa | 2.6V | 00:00:00 | 02:02:24 | 00:00:00 | |
| SOBLACK | 2026-09-04 12:28:37 | 45.70715 | 13.50443 | 270° | 4km/h | 23320m | 5.7m/s | 0°C | 0% | 0hPa | 2.6V | 00:00:00 | 00:00:00 | 00:00:00 | |
| OE5DXL-15 | 2026-09-04 12:28:36 | 45.70716 | 13.50444 | 209° | 7km/h | 23314m | 5.4m/s | -53.2°C | 4.1% | 0hPa | 2.6V | 00:00:00 | 00:00:00 | 00:00:00 | |
| DO3MHA-11 | 2026-09-04 12:28:35 | 45.70716 | 13.50444 | 144° | 5km/h | 23310m | 4.3m/s | -53.1°C | 4.1% | 0hPa | 2.6V | 00:00:00 | 02:02:21 | 00:00:00 | |
| DO3MHA-12 | 2026-09-04 12:28:28 | 45.70715 | 13.50436 | 196° | 7km/h | 23275m | 4.4m/s | -53.3°C | 4.1% | 0hPa | 2.6V | 00:00:00 | 02:02:14 | 00:00:00 | |
| OE5DRO-10 | 2026-09-04 12:28:27 | 45.70717 | 13.50437 | 207° | 9km/h | 23271m | 4.8m/s | -53.4°C | 4.2% | 0hPa | 2.6V | 00:00:00 | 00:00:00 | 00:00:00 | |
| DO3MHA-11 | 2026-09-04 12:28:25 | 45.70720 | 13.50439 | 205° | 7km/h | 23261m | 4.1m/s | -53.5°C | 4.2% | 0hPa | 2.6V | 00:00:00 | 02:02:11 | 00:00:00 | |
| OE8JPQ-2 | 2026-09-04 12:28:24 | 45.70721 | 13.50440 | 174° | 9km/h | 23257m | 4.1m/s | -53.5°C | 4.2% | 0hPa | 2.6V | 00:00:00 | 00:00:00 | 00:00:00 | |
| IN3HCDX1 | 2026-09-04 12:28:22 | 45.70725 | 13.50437 | 150° | 13km/h | 23246m | 5.2m/s | -53.4°C | 1.3% | 0hPa | 2.6V | 00:00:00 | 00:00:00 | 00:00:00 | |
| IV3AMH | 2026-09-04 12:28:19 | 45.70730 | 13.50432 | 133° | 11km/h | 23236m | 5.8m/s | -53.5°C | 1.3% | 0hPa | 2.6V | 00:00:00 | 00:00:00 | 00:00:00 | |
| DO3MHA-12 | 2026-09-04 12:28:18 | 45.70732 | 13.50428 | 126° | 9km/h | 23225m | 4.1m/s | -53.6°C | 4.2% | 0hPa | 2.6V | 00:00:00 | 02:02:04 | 00:00:00 | |
| IN3HCDX | 2026-09-04 12:28:17 | 45.70732 | 13.50428 | 126° | 4km/h | 23225m | 4.2m/s | -53.7°C | 1.3% | 0hPa | 2.7V | 00:00:00 | 00:00:00 | 00:00:00 | |
| 9A1FER-10 | 2026-09-04 12:28:16 | 45.70734 | 13.50427 | 195° | 44km/h | 23215m | 5.7m/s | -53.5°C | 4.2% | 0hPa | 2.7V | 00:00:00 | 02:02:02 | 00:00:00 | |
| DO3MHA-11 | 2026-09-04 12:28:15 | 45.70736 | 13.50428 | 202° | 13km/h | 23210m | 4.6m/s | -53.5°C | 4.2% | 0hPa | 2.6V | 00:00:00 | 02:02:01 | 08:30:00 | |
| 9A1FER-3 | 2026-09-04 12:28:13 | 45.70741 | 13.50432 | 221° | 9km/h | 23200m | 5.9m/s | -53.5°C | 4.3% | 0hPa | 2.6V | 00:00:00 | 02:01:59 | 00:00:00 | |
| DO3MHA-12 | 2026-09-04 12:28:08 | 45.70754 | 13.50441 | 177° | 7km/h | 23175m | 4.5m/s | -53.5°C | 4.3% | 0hPa | 2.6V | 00:00:00 | 02:01:54 | 00:00:00 | |
| OE5DXL-15 | 2026-09-04 12:28:06 | 45.70761 | 13.50439 | 156° | 9km/h | 23165m | 5.8m/s | -53.6°C | 4.2% | 0hPa | 2.6V | 00:00:00 | 00:00:00 | 00:00:00 | |
| DO3MHA-11 | 2026-09-04 12:28:05 | 45.70763 | 13.50437 | 127° | 5km/h | 23159m | 5.3m/s | -53.6°C | 4.2% | 0hPa | 2.6V | 00:00:00 | 02:01:51 | 00:00:00 | |
| OE8JPQ-2 | 2026-09-04 12:28:04 | 45.70763 | 13.50435 | 93° | 9km/h | 23155m | 4.0m/s | -53.5°C | 4.2% | 0hPa | 2.6V | 00:00:00 | 00:00:00 | 00:00:00 | |
| IN3HCDX1 | 2026-09-04 12:28:00 | 45.70764 | 13.50430 | 133° | 7km/h | 23140m | 4.7m/s | -53.2°C | 1.2% | 0hPa | 2.6V | 00:00:00 | 00:00:00 | 00:00:00 | |
| IW2NTF | 2026-09-04 12:27:58 | 45.70779 | 13.50423 | 160° | 11km/h | 23099m | 4.6m/s | -53°C | 4.2% | 0hPa | 2.6V | 08:30:00 | 02:01:39 | 00:00:00 | |
| 9A1FER-3 | 2026-09-04 12:27:58 | 45.70768 | 13.50427 | 169° | 9km/h | 23124m | 5.4m/s | -53.0°C | 4.1% | 0hPa | 2.7V | 00:00:00 | 02:01:44 | 00:00:00 | |
| IN3HCDX | 2026-09-04 12:27:56 | 45.70769 | 13.50426 | 169° | 5km/h | 23119m | 4.2m/s | -53.1°C | 1.3% | 0hPa | 2.7V | 00:00:00 | 00:00:00 | 00:00:00 | |
| DO3MHA-11 | 2026-09-04 12:27:55 | 45.70773 | 13.50425 | 168° | 13km/h | 23109m | 5.5m/s | -53.0°C | 4.2% | 0hPa | 2.7V | 00:00:00 | 02:01:41 | 00:00:00 | |
| SOBLACK | 2026-09-04 12:27:54 | 45.70773 | 13.50425 | 168° | 11km/h | 23109m | 5.6m/s | 0°C | 0% | 0hPa | 2.7V | 00:00:00 | 00:00:00 | 00:00:00 | |
| DO3MHA-12 | 2026-09-04 12:27:48 | 45.70784 | 13.50406 | 97° | 9km/h | 23074m | 5.1m/s | -53.1°C | 4.0% | 0hPa | 2.7V | 00:00:00 | 02:01:34 | 00:00:00 | |
| DO3MHA-11 | 2026-09-04 12:27:45 | 45.70784 | 13.50392 | 76° | 7km/h | 23059m | 6.0m/s | -53.1°C | 4.2% | 0hPa | 2.6V | 00:00:00 | 02:01:31 | 00:00:00 | |
| OE8JPQ-2 | 2026-09-04 12:27:44 | 45.70784 | 13.50390 | 68° | 9km/h | 23054m | 4.5m/s | -52.9°C | 4.2% | 0hPa | 2.7V | 00:00:00 | 02:01:30 | 00:00:00 | |
| 9A1FER-3 | 2026-09-04 12:27:43 | 45.70784 | 13.50389 | 136° | 11km/h | 23049m | 4.6m/s | -52.8°C | 4.1% | 0hPa | 2.7V | 00:00:00 | 02:01:29 | 00:00:00 | |
| IW2NTF | 2026-09-04 12:27:40 | 45.70791 | 13.50371 | 83° | 16km/h | 23009m | 5.6m/s | -52.9°C | 4% | 0hPa | 2.6V | 08:30:00 | 02:01:21 | 00:00:00 | |
| DO3MHA-12 | 2026-09-04 12:27:38 | 45.70791 | 13.50382 | 119° | 13km/h | 23025m | 5.8m/s | -52.8°C | 4.1% | 0hPa | 2.7V | 00:00:00 | 02:01:24 | 00:00:00 | |
| OE5DXL-15 | 2026-09-04 12:27:36 | 45.70791 | 13.50376 | 83° | 15km/h | 23015m | 4.4m/s | -52.8°C | 4.0% | 0hPa | 2.7V | 00:00:00 | 00:00:00 | 00:00:00 | |
| DO3MHA-11 | 2026-09-04 12:27:35 | 45.70791 | 13.50371 | 84° | 11km/h | 23010m | 5.6m/s | -52.9°C | 4.0% | 0hPa | 2.7V | 00:00:00 | 02:01:21 | 00:00:00 | |
| SOBLACK | 2026-09-04 12:27:33 | 45.70790 | 13.50365 | 88° | 20km/h | 23004m | 6.1m/s | 0°C | 0% | 0hPa | 2.7V | 00:00:00 | 00:00:00 | 00:00:00 | |
| DO3MHA-12 | 2026-09-04 12:27:28 | 45.70791 | 13.50336 | 130° | 13km/h | 22974m | 5.0m/s | -52.7°C | 4.0% | 0hPa | 2.7V | 00:00:00 | 02:01:14 | 00:00:00 | |
| IW2NTF | 2026-09-04 12:27:26 | 45.70796 | 13.50314 | 94° | 20km/h | 22939m | 6m/s | -52.5°C | 4% | 0hPa | 2.7V | 08:30:00 | 02:01:07 | 00:00:00 | |
| DO3MHA-11 | 2026-09-04 12:27:25 | 45.70795 | 13.50332 | 125° | 16km/h | 22959m | 5.0m/s | -52.7°C | 4.1% | 0hPa | 2.6V | 00:00:00 | 02:01:11 | 00:00:00 | |
| OE8JPQ-2 | 2026-09-04 12:27:24 | 45.70795 | 13.50329 | 106° | 16km/h | 22953m | 5.7m/s | -52.6°C | 4.1% | 0hPa | 2.6V | 00:00:00 | 00:00:00 | 00:00:00 | |
| OE5DRO-10 | 2026-09-04 12:27:23 | 45.70796 | 13.50325 | 91° | 16km/h | 22948m | 4.2m/s | -52.6°C | 4.0% | 0hPa | 2.6V | 00:00:00 | 00:00:00 | 00:00:00 | |
| IN3HCDX1 | 2026-09-04 12:27:20 | 45.70796 | 13.50314 | 96° | 20km/h | 22939m | 6.0m/s | -52.6°C | 1.2% | 0hPa | 2.6V | 00:00:00 | 00:00:00 | 00:00:00 | |
| DO3MHA-12 | 2026-09-04 12:27:18 | 45.70797 | 13.50292 | 89° | 15km/h | 22923m | 5.9m/s | -52.5°C | 4.0% | 0hPa | 2.6V | 00:00:00 | 02:01:04 | 08:30:00 | |
| DO3MHA-11 | 2026-09-04 12:27:15 | 45.70796 | 13.50274 | 90° | 15km/h | 22908m | 5.9m/s | -52.6°C | 4.0% | 0hPa | 2.7V | 00:00:00 | 02:01:01 | 00:00:00 | |
| 9A1FER-3 | 2026-09-04 12:27:13 | 45.70797 | 13.50265 | 96° | 15km/h | 22897m | 5.0m/s | -52.7°C | 4.0% | 0hPa | 2.7V | 00:00:00 | 02:00:59 | 00:00:00 | |
| NBG1-10 | 2026-09-04 12:27:12 | 45.70797 | 13.50261 | 86° | 15km/h | 22892m | 5.7m/s | -52.7°C | 4.1% | 0hPa | 2.7V | 00:00:00 | 02:00:58 | 00:00:00 | |
| DO3MHA-12 | 2026-09-04 12:27:08 | 45.70793 | 13.50241 | 86° | 15km/h | 22873m | 5.6m/s | -52.6°C | 4.0% | 0hPa | 2.7V | 00:00:00 | 02:00:54 | 00:00:00 | |
| OE5DXL-15 | 2026-09-04 12:27:06 | 45.70793 | 13.50227 | 91° | 15km/h | 22863m | 4.1m/s | -52.6°C | 3.9% | 0hPa | 2.7V | 00:00:00 | 00:00:00 | 00:00:00 | |
| IW2NTF | 2026-09-04 12:27:04 | 45.70789 | 13.50208 | 59° | 11km/h | 22843m | 4.6m/s | -52.9°C | 4% | 0hPa | 2.6V | 08:30:00 | 02:00:48 | 00:00:00 | |
| OE8JPQ-2 | 2026-09-04 12:27:04 | 45.70792 | 13.50216 | 70° | 15km/h | 22852m | 5.5m/s | -52.8°C | 3.9% | 0hPa | 2.6V | 00:00:00 | 00:00:00 | 00:00:00 | |
| OE5DRO-10 | 2026-09-04 12:27:03 | 45.70791 | 13.50212 | 60° | 15km/h | 22848m | 4.5m/s | -52.9°C | 4.0% | 0hPa | 2.6V | 00:00:00 | 00:00:00 | 00:00:00 | |
| IN3HCDX1 | 2026-09-04 12:26:59 | 45.70787 | 13.50201 | 70° | 13km/h | 22833m | 4.6m/s | -52.8°C | 1.2% | 0hPa | 2.6V | 00:00:00 | 00:00:00 | 00:00:00 | |
| DO3MHA-12 | 2026-09-04 12:26:58 | 45.70784 | 13.50192 | 51° | 15km/h | 22823m | 6.0m/s | -52.7°C | 3.9% | 0hPa | 2.6V | 00:00:00 | 02:00:44 | 00:00:00 | |
| IW2NTF | 2026-09-04 12:26:54 | 45.70774 | 13.50165 | 70° | 13km/h | 22792m | 5m/s | -53°C | 4.1% | 0hPa | 2.6V | 08:30:00 | 02:00:38 | 00:00:00 | |
| DO3MHA-11 | 2026-09-04 12:26:54 | 45.70775 | 13.50174 | 78° | 15km/h | 22801m | 4.7m/s | -53.0°C | 4.0% | 0hPa | 2.7V | 00:00:00 | 02:00:40 | 00:00:00 | |
| IN3HCDX | 2026-09-04 12:26:53 | 45.70775 | 13.50174 | 78° | 15km/h | 22801m | 4.7m/s | -53.1°C | 1.2% | 0hPa | 2.7V | 00:00:00 | 00:00:00 | 00:00:00 | |
| DO3MHA-12 | 2026-09-04 12:26:48 | 45.70763 | 13.50153 | 32° | 16km/h | 22772m | 5.8m/s | -52.9°C | 4.1% | 0hPa | 2.7V | 00:00:00 | 02:00:34 | 00:00:00 | |
| IW2NTF | 2026-09-04 12:26:46 | 45.70732 | 13.50140 | 20° | 13km/h | 22731m | 4.4m/s | -53.4°C | 4% | 0hPa | 2.6V | 08:30:00 | 02:00:26 | 00:00:00 | |
| OE8JPQ-2 | 2026-09-04 12:26:44 | 45.70747 | 13.50142 | 7° | 18km/h | 22751m | 5.6m/s | -53.4°C | 4.0% | 0hPa | 2.6V | 00:00:00 | 02:00:30 | 00:00:00 | |
| 9A1FER-3 | 2026-09-04 12:26:43 | 45.70742 | 13.50141 | 360° | 16km/h | 22746m | 4.6m/s | -53.4°C | 4.0% | 0hPa | 2.6V | 00:00:00 | 02:00:29 | 00:00:00 | |
| IN3HCDX1 | 2026-09-04 12:26:40 | 45.70732 | 13.50140 | 21° | 13km/h | 22731m | 4.4m/s | -53.4°C | 1.2% | 0hPa | 2.6V | 00:00:00 | 00:00:00 | 00:00:00 | |
| NBG1-10 | 2026-09-04 12:26:39 | 45.70728 | 13.50138 | 23° | 18km/h | 22727m | 4.6m/s | -53.5°C | 4.1% | 0hPa | 2.6V | 00:00:00 | 02:00:25 | 00:00:00 | |
| DO3MHA-12 | 2026-09-04 12:26:38 | 45.70725 | 13.50136 | 21° | 18km/h | 22722m | 5.7m/s | -53.5°C | 4.1% | 0hPa | 2.6V | 00:00:00 | 02:00:24 | 00:00:00 | |
| OE5DXL-15 | 2026-09-04 12:26:36 | 45.70717 | 13.50132 | 27° | 18km/h | 22712m | 4.4m/s | -53.6°C | 4.3% | 0hPa | 2.6V | 00:00:00 | 00:00:00 | 00:00:00 | |
| IW2NTF | 2026-09-04 12:26:34 | 45.70690 | 13.50095 | 37° | 20km/h | 22671m | 5.8m/s | -53.9°C | 4.2% | 0hPa | 2.6V | 08:30:00 | 02:00:14 | 00:00:00 | |
| IN3HCDX | 2026-09-04 12:26:33 | 45.70710 | 13.50124 | 52° | 18km/h | 22701m | 5.6m/s | -53.6°C | 1.3% | 0hPa | 2.7V | 00:00:00 | 00:00:00 | 00:00:00 | |
| IV3AMH | 2026-09-04 12:26:30 | 45.70698 | 13.50103 | 37° | 18km/h | 22681m | 4.6m/s | -53.7°C | 1.4% | 0hPa | 2.7V | 00:00:00 | 00:00:00 | 00:00:00 | |
| 9A1FER-3 | 2026-09-04 12:26:28 | 45.70690 | 13.50095 | 38° | 18km/h | 22671m | 5.8m/s | -53.9°C | 4.2% | 0hPa | 2.7V | 00:00:00 | 02:00:14 | 00:00:00 | |
| OE8JPQ-2 | 2026-09-04 12:26:24 | 45.70670 | 13.50081 | 11° | 18km/h | 22650m | 4.7m/s | -53.8°C | 4.1% | 0hPa | 2.7V | 00:00:00 | 00:00:00 | 08:30:00 | |
| IW2NTF | 2026-09-04 12:26:20 | 45.70644 | 13.50068 | 24° | 13km/h | 22622m | 5m/s | -53.6°C | 4.3% | 0hPa | 2.6V | 08:30:00 | 02:00:04 | 00:00:00 | |
| IN3HCDX1 | 2026-09-04 12:26:19 | 45.70647 | 13.50071 | 33° | 15km/h | 22627m | 4.3m/s | -53.6°C | 1.3% | 0hPa | 2.6V | 00:00:00 | 00:00:00 | 00:00:00 | |
| DO3MHA-12 | 2026-09-04 12:26:18 | 45.70644 | 13.50068 | 25° | 18km/h | 22622m | 5.0m/s | -53.6°C | 4.3% | 0hPa | 2.6V | 00:00:00 | 02:00:04 | 00:00:00 | |
| DO3MHA-11 | 2026-09-04 12:26:14 | 45.70629 | 13.50065 | 8° | 18km/h | 22602m | 5.9m/s | -53.5°C | 4.2% | 0hPa | 2.7V | 00:00:00 | 02:00:00 | 00:00:00 | |
| IW2NTF | 2026-09-04 12:26:13 | 45.70597 | 13.50058 | 15° | 15km/h | 22572m | 5.3m/s | -53.7°C | 4.1% | 0hPa | 2.7V | 08:30:00 | 01:59:54 | 00:00:00 | |
| 9A1FER-3 | 2026-09-04 12:26:13 | 45.70623 | 13.50064 | 13° | 13km/h | 22596m | 4.8m/s | -53.5°C | 4.2% | 0hPa | 2.7V | 00:00:00 | 01:59:59 | 00:00:00 | |
| IN3HCDX | 2026-09-04 12:26:12 | 45.70623 | 13.50064 | 14° | 22km/h | 22596m | 4.9m/s | -53.5°C | 1.3% | 0hPa | 2.6V | 00:00:00 | 00:00:00 | 00:00:00 | |
| DO3MHA-12 | 2026-09-04 12:26:08 | 45.70597 | 13.50058 | 16° | 9km/h | 22572m | 5.3m/s | -53.7°C | 4.1% | 0hPa | 2.6V | 00:00:00 | 01:59:54 | 00:00:00 | |
| NBG1-10 | 2026-09-04 12:26:06 | 45.70592 | 13.50053 | 49° | 13km/h | 22562m | 4.4m/s | -53.7°C | 4.3% | 0hPa | 2.6V | 00:00:00 | 01:59:52 | 00:00:00 | |
| OE5DRO-10 | 2026-09-04 12:26:05 | 45.70590 | 13.50051 | 54° | 11km/h | 22557m | 4.8m/s | -53.7°C | 4.3% | 0hPa | 2.6V | 00:00:00 | 00:00:00 | 00:00:00 | |
| DO3MHA-11 | 2026-09-04 12:26:04 | 45.70589 | 13.50049 | 47° | 15km/h | 22552m | 5.7m/s | -53.7°C | 4.3% | 0hPa | 2.6V | 00:00:00 | 01:59:50 | 00:00:00 | |
| IW2NTF | 2026-09-04 12:25:59 | 45.70576 | 13.50046 | 358° | 20km/h | 22523m | 5.9m/s | -53.9°C | 4.2% | 0hPa | 2.6V | 08:30:00 | 01:59:44 | 00:00:00 | |
| DO3MHA-12 | 2026-09-04 12:25:58 | 45.70576 | 13.50046 | 359° | 16km/h | 22523m | 5.9m/s | -53.9°C | 4.2% | 0hPa | 2.6V | 00:00:00 | 01:59:44 | 00:00:00 | |
| IN3HCDX1 | 2026-09-04 12:25:57 | 45.70576 | 13.50046 | 360° | 20km/h | 22523m | 5.9m/s | -53.9°C | 1.3% | 0hPa | 2.6V | 00:00:00 | 00:00:00 | 00:00:00 | |
| IW2NTF | 2026-09-04 12:25:54 | 45.70541 | 13.50043 | 290° | 4km/h | 22474m | 5.2m/s | -53.9°C | 4.3% | 0hPa | 2.6V | 08:30:00 | 01:59:34 | 00:00:00 | |
| IN3HCDX | 2026-09-04 12:25:51 | 45.70544 | 13.50042 | 27° | 13km/h | 22495m | 4.3m/s | -53.8°C | 1.3% | 0hPa | 2.6V | 00:00:00 | 00:00:00 | 00:00:00 | |
| DO3MHA-12 | 2026-09-04 12:25:48 | 45.70540 | 13.50043 | 291° | 15km/h | 22474m | 5.2m/s | -53.9°C | 4.3% | 0hPa | 2.6V | 00:00:00 | 01:59:34 | 08:30:00 | |
| OE5DRO-10 | 2026-09-04 12:25:46 | 45.70536 | 13.50045 | 355° | 16km/h | 22461m | 4.9m/s | -53.9°C | 4.3% | 0hPa | 2.7V | 00:00:00 | 00:00:00 | 00:00:00 | |
| OE8JPQ-2 | 2026-09-04 12:25:44 | 45.70532 | 13.50045 | 354° | 16km/h | 22456m | 5.2m/s | -53.9°C | 4.3% | 0hPa | 2.6V | 00:00:00 | 01:59:30 | 00:00:00 | |
| 9A1FER-3 | 2026-09-04 12:25:43 | 45.70528 | 13.50046 | 2° | 16km/h | 22451m | 4.2m/s | -54.0°C | 4.3% | 0hPa | 2.6V | 00:00:00 | 01:59:29 | 00:00:00 | |
| IW2NTF | 2026-09-04 12:25:39 | 45.70506 | 13.50032 | 27° | 18km/h | 22428m | 5m/s | -53.9°C | 4.3% | 0hPa | 2.6V | 08:30:00 | 01:59:24 | 00:00:00 | |
| DO3MHA-12 | 2026-09-04 12:25:38 | 45.70506 | 13.50032 | 28° | 16km/h | 22428m | 4.9m/s | -53.8°C | 4.3% | 0hPa | 2.6V | 00:00:00 | 01:59:24 | 00:00:00 | |
| OE5DXL-15 | 2026-09-04 12:25:36 | 45.70498 | 13.50028 | 10° | 15km/h | 22418m | 4.7m/s | -53.9°C | 4.2% | 0hPa | 2.6V | 00:00:00 | 00:00:00 | 08:30:00 | |
| IW2NTF | 2026-09-04 12:25:34 | 45.70471 | 13.50029 | 345° | 16km/h | 22379m | 4.5m/s | -53.9°C | 4.2% | 0hPa | 2.7V | 08:30:00 | 01:59:14 | 00:00:00 | |
| NBG1-10 | 2026-09-04 12:25:33 | 45.70488 | 13.50026 | 17° | 15km/h | 22403m | 4.6m/s | -53.8°C | 4.2% | 0hPa | 2.6V | 00:00:00 | 01:59:19 | 00:00:00 | |
| IN3HCDX | 2026-09-04 12:25:30 | 45.70482 | 13.50025 | 1° | 13km/h | 22395m | 5.4m/s | -53.8°C | 1.3% | 0hPa | 2.6V | 00:00:00 | 00:00:00 | 00:00:00 | |
| DO3MHA-12 | 2026-09-04 12:25:28 | 45.70471 | 13.50028 | 346° | 16km/h | 22380m | 4.5m/s | -53.8°C | 4.2% | 0hPa | 2.6V | 00:00:00 | 01:59:14 | 00:00:00 | |
| OE5DRO-10 | 2026-09-04 12:25:27 | 45.70463 | 13.50030 | 357° | 16km/h | 22370m | 4.7m/s | -53.7°C | 4.1% | 0hPa | 2.6V | 00:00:00 | 00:00:00 | 00:00:00 | |
| OE8JPQ-2 | 2026-09-04 12:25:24 | 45.70456 | 13.50032 | 350° | 16km/h | 22360m | 5.6m/s | -53.8°C | 4.2% | 0hPa | 2.6V | 00:00:00 | 00:00:00 | 00:00:00 | |
| IW2NTF | 2026-09-04 12:25:21 | 45.70421 | 13.50039 | 335° | 18km/h | 22321m | 4.2m/s | -53.9°C | 4.3% | 0hPa | 2.7V | 08:30:00 | 01:59:02 | 00:00:00 | |
| DO3MHA-11 | 2026-09-04 12:25:20 | 45.70438 | 13.50034 | 4° | 16km/h | 22340m | 4.5m/s | -53.8°C | 4.3% | 0hPa | 2.7V | 00:00:00 | 01:59:06 | 00:00:00 | |
| DO3MHA-12 | 2026-09-04 12:25:16 | 45.70421 | 13.50039 | 336° | 15km/h | 22321m | 4.2m/s | -53.9°C | 4.3% | 0hPa | 2.7V | 00:00:00 | 01:59:02 | 00:00:00 | |
| IN3HCDX1 | 2026-09-04 12:25:15 | 45.70421 | 13.50039 | 336° | 18km/h | 22321m | 4.2m/s | -53.9°C | 1.3% | 0hPa | 2.7V | 00:00:00 | 00:00:00 | 00:00:00 | |
| 9A1FER-3 | 2026-09-04 12:25:13 | 45.70409 | 13.50045 | 348° | 15km/h | 22306m | 4.8m/s | -54.0°C | 4.3% | 0hPa | 2.7V | 00:00:00 | 01:58:59 | 00:00:00 | |
| IW2NTF | 2026-09-04 12:25:11 | 45.70386 | 13.50057 | 333° | 11km/h | 22270m | 5.5m/s | -54.1°C | 4.2% | 0hPa | 2.7V | 08:30:00 | 01:58:52 | 00:00:00 | |
| DO3MHA-11 | 2026-09-04 12:25:10 | 45.70397 | 13.50050 | 334° | 15km/h | 22291m | 3.7m/s | -54.0°C | 4.2% | 0hPa | 2.7V | 00:00:00 | 01:58:56 | 08:30:00 | |
| IN3HCDX | 2026-09-04 12:25:09 | 45.70397 | 13.50050 | 334° | 15km/h | 22291m | 3.7m/s | -54.0°C | 1.3% | 0hPa | 2.6V | 00:00:00 | 00:00:00 | 00:00:00 | |
| OE5DRO-10 | 2026-09-04 12:25:08 | 45.70391 | 13.50054 | 342° | 15km/h | 22281m | 5.5m/s | -53.9°C | 4.2% | 0hPa | 2.6V | 00:00:00 | 00:00:00 | 00:00:00 | |
| DO3MHA-12 | 2026-09-04 12:25:06 | 45.70386 | 13.50057 | 334° | 15km/h | 22271m | 5.5m/s | -54.1°C | 4.2% | 0hPa | 2.6V | 00:00:00 | 01:58:52 | 00:00:00 | |
| OE8JPQ-2 | 2026-09-04 12:25:04 | 45.70380 | 13.50062 | 321° | 16km/h | 22260m | 4.2m/s | -54.0°C | 4.3% | 0hPa | 2.6V | 00:00:00 | 00:00:00 | 00:00:00 | |
| DO3MHA-11 | 2026-09-04 12:25:00 | 45.70366 | 13.50070 | 359° | 15km/h | 22242m | 4.4m/s | -54.1°C | 4.2% | 0hPa | 2.6V | 00:00:00 | 01:58:46 | 00:00:00 | |
| IW2NTF | 2026-09-04 12:24:58 | 45.70350 | 13.50074 | 340° | 15km/h | 22222m | 3.9m/s | -54.1°C | 4.4% | 0hPa | 2.6V | 08:30:00 | 01:58:42 | 00:00:00 | |
| 9A1FER-3 | 2026-09-04 12:24:58 | 45.70357 | 13.50071 | 352° | 16km/h | 22232m | 5.4m/s | -54.2°C | 4.3% | 0hPa | 2.6V | 00:00:00 | 01:58:44 | 00:00:00 | |
| DO3MHA-12 | 2026-09-04 12:24:56 | 45.70349 | 13.50074 | 341° | 16km/h | 22223m | 3.8m/s | -54.1°C | 4.4% | 0hPa | 2.6V | 00:00:00 | 01:58:42 | 00:00:00 | |
| IN3HCDX1 | 2026-09-04 12:24:55 | 45.70349 | 13.50074 | 341° | 15km/h | 22223m | 3.9m/s | -54.1°C | 1.4% | 0hPa | 2.6V | 00:00:00 | 00:00:00 | 00:00:00 | |
| DO3MHA-11 | 2026-09-04 12:24:50 | 45.70329 | 13.50083 | 335° | 16km/h | 22194m | 3.8m/s | -54.0°C | 4.2% | 0hPa | 2.6V | 00:00:00 | 01:58:36 | 00:00:00 | |
| OE5DRO-10 | 2026-09-04 12:24:49 | 45.70325 | 13.50086 | 338° | 15km/h | 22189m | 5.0m/s | -54.1°C | 4.2% | 0hPa | 2.6V | 00:00:00 | 00:00:00 | 00:00:00 | |
| IW2NTF | 2026-09-04 12:24:48 | 45.70311 | 13.50092 | 343° | 18km/h | 22174m | 4.7m/s | -54.3°C | 4.3% | 0hPa | 2.7V | 08:30:00 | 01:58:32 | 00:00:00 | |
| DO3MHA-12 | 2026-09-04 12:24:46 | 45.70311 | 13.50092 | 344° | 15km/h | 22174m | 4.7m/s | -54.2°C | 4.3% | 0hPa | 2.7V | 00:00:00 | 01:58:32 | 00:00:00 | |
| NBG1-10 | 2026-09-04 12:24:45 | 45.70307 | 13.50094 | 338° | 9km/h | 22169m | 5.7m/s | -54.3°C | 4.3% | 0hPa | 2.6V | 00:00:00 | 01:58:31 | 08:30:00 | |
| OE8JPQ-2 | 2026-09-04 12:24:44 | 45.70303 | 13.50097 | 330° | 11km/h | 22164m | 4.4m/s | -54.3°C | 4.3% | 0hPa | 2.6V | 00:00:00 | 01:58:30 | 00:00:00 | |
| 9A1FER-3 | 2026-09-04 12:24:43 | 45.70299 | 13.50100 | 328° | 13km/h | 22160m | 4.4m/s | -54.3°C | 4.3% | 0hPa | 2.6V | 00:00:00 | 01:58:29 | 08:30:00 | |
| DO3MHA-11 | 2026-09-04 12:24:39 | 45.70288 | 13.50108 | 332° | 13km/h | 22138m | 5.8m/s | -54.2°C | 4.3% | 0hPa | 2.6V | 00:00:00 | 01:58:25 | 00:00:00 | |
| IW2NTF | 2026-09-04 12:24:38 | 45.70277 | 13.50114 | 350° | 16km/h | 22123m | 6m/s | -54.2°C | 4.4% | 0hPa | 2.7V | 08:30:00 | 01:58:22 | 00:00:00 | |
| DO3MHA-12 | 2026-09-04 12:24:37 | 45.70277 | 13.50114 | 351° | 9km/h | 22123m | 6.0m/s | -54.2°C | 4.4% | 0hPa | 2.6V | 00:00:00 | 01:58:22 | 00:00:00 | |
| IN3HCDX1 | 2026-09-04 12:24:34 | 45.70273 | 13.50115 | 2° | 16km/h | 22118m | 4.9m/s | -54.2°C | 1.3% | 0hPa | 2.6V | 00:00:00 | 00:00:00 | 00:00:00 | |
| DO3MHA-11 | 2026-09-04 12:24:29 | 45.70257 | 13.50118 | 339° | 5km/h | 22089m | 6.0m/s | -54.1°C | 4.2% | 0hPa | 2.6V | 00:00:00 | 01:58:15 | 00:00:00 | |
| 9A1FER-3 | 2026-09-04 12:24:28 | 45.70257 | 13.50118 | 154° | 5km/h | 22084m | 5.0m/s | -54.1°C | 4.2% | 0hPa | 2.6V | 00:00:00 | 01:58:14 | 00:00:00 | |
| IW2NTF | 2026-09-04 12:24:27 | 45.70257 | 13.50121 | 24° | 7km/h | 22053m | 4.8m/s | -54.3°C | 4.2% | 0hPa | 2.6V | 08:30:00 | 01:58:08 | 00:00:00 | |
| IN3HCDX | 2026-09-04 12:24:27 | 45.70258 | 13.50118 | 187° | 4km/h | 22079m | 4.4m/s | -54.2°C | 1.3% | 0hPa | 2.7V | 00:00:00 | 00:00:00 | 00:00:00 | |
| DO3MHA-12 | 2026-09-04 12:24:26 | 45.70258 | 13.50118 | 227° | 7km/h | 22074m | 5.8m/s | -54.3°C | 4.2% | 0hPa | 2.7V | 00:00:00 | 01:58:12 | 00:00:00 | |
| OE8JPQ-2 | 2026-09-04 12:24:24 | 45.70259 | 13.50121 | 298° | 7km/h | 22064m | 4.5m/s | -54.1°C | 4.2% | 0hPa | 2.7V | 00:00:00 | 00:00:00 | 00:00:00 | |
| DO3MHA-11 | 2026-09-04 12:24:19 | 45.70251 | 13.50118 | 2° | 5km/h | 22039m | 5.8m/s | -54.4°C | 4.3% | 0hPa | 2.7V | 00:00:00 | 01:58:05 | 00:00:00 | |
| IW2NTF | 2026-09-04 12:24:17 | 45.70241 | 13.50116 | 50° | 4km/h | 22004m | 5.3m/s | -54.6°C | 4.5% | 0hPa | 2.7V | 08:30:00 | 01:57:58 | 00:00:00 | |
| DO3MHA-12 | 2026-09-04 12:24:16 | 45.70244 | 13.50120 | 356° | 5km/h | 22024m | 5.2m/s | -54.4°C | 4.5% | 0hPa | 2.6V | 00:00:00 | 01:58:02 | 08:30:00 | |
| 9A1FER-3 | 2026-09-04 12:24:13 | 45.70241 | 13.50117 | 59° | 5km/h | 22009m | 5.3m/s | -54.6°C | 4.5% | 0hPa | 2.6V | 00:00:00 | 01:57:59 | 00:00:00 | |
| NBG1-10 | 2026-09-04 12:24:12 | 45.70240 | 13.50116 | 51° | 7km/h | 22004m | 5.3m/s | -54.6°C | 4.5% | 0hPa | 2.6V | 00:00:00 | 01:57:58 | 00:00:00 | |
| OE5DRO-10 | 2026-09-04 12:24:10 | 45.70240 | 13.50114 | 68° | 5km/h | 21994m | 5.4m/s | -54.5°C | 4.4% | 0hPa | 2.6V | 00:00:00 | 00:00:00 | 00:00:00 | |
| DO3MHA-11 | 2026-09-04 12:24:09 | 45.70239 | 13.50111 | 78° | 5km/h | 21988m | 5.8m/s | -54.5°C | 4.4% | 0hPa | 2.6V | 00:00:00 | 01:57:55 | 00:00:00 | |
| IW2NTF | 2026-09-04 12:24:07 | 45.70234 | 13.50097 | 77° | 5km/h | 21952m | 4.6m/s | -54.5°C | 4.3% | 0hPa | 2.6V | 08:30:00 | 01:57:48 | 00:00:00 | |
| DO3MHA-12 | 2026-09-04 12:24:06 | 45.70237 | 13.50103 | 46° | 5km/h | 21973m | 5.6m/s | -54.6°C | 4.3% | 0hPa | 2.6V | 00:00:00 | 01:57:52 | 00:00:00 | |
| IN3HCDX | 2026-09-04 12:24:05 | 45.70237 | 13.50103 | 46° | 7km/h | 21973m | 5.7m/s | -54.7°C | 1.3% | 0hPa | 2.6V | 00:00:00 | 00:00:00 | 00:00:00 | |
| OE8JPQ-2 | 2026-09-04 12:24:04 | 45.70235 | 13.50101 | 46° | 7km/h | 21963m | 5.1m/s | -54.6°C | 4.3% | 0hPa | 2.6V | 00:00:00 | 00:00:00 | 00:00:00 | |
| DO3MHA-11 | 2026-09-04 12:23:59 | 45.70234 | 13.50097 | 209° | 9km/h | 21937m | 4.0m/s | -54.3°C | 4.3% | 0hPa | 2.6V | 00:00:00 | 01:57:45 | 00:00:00 | |
| 9A1FER-3 | 2026-09-04 12:23:58 | 45.70236 | 13.50097 | 186° | 9km/h | 21932m | 5.9m/s | -54.3°C | 4.4% | 0hPa | 2.6V | 00:00:00 | 01:57:44 | 00:00:00 | |
| DO3MHA-12 | 2026-09-04 12:23:56 | 45.70239 | 13.50096 | 170° | 9km/h | 21922m | 4.4m/s | -54.3°C | 4.5% | 0hPa | 2.6V | 00:00:00 | 01:57:42 | 00:00:00 | |
| IW2NTF | 2026-09-04 12:23:53 | 45.70247 | 13.50093 | 136° | 9km/h | 21900m | 6m/s | -54.3°C | 4.3% | 0hPa | 2.6V | 08:30:00 | 01:57:38 | 00:00:00 | |
| OE5DRO-10 | 2026-09-04 12:23:51 | 45.70249 | 13.50090 | 122° | 7km/h | 21895m | 4.6m/s | -54.2°C | 4.3% | 0hPa | 2.6V | 00:00:00 | 00:00:00 | 08:30:00 | |
| DO3MHA-11 | 2026-09-04 12:23:48 | 45.70252 | 13.50081 | 125° | 9km/h | 21880m | 4.7m/s | -54.4°C | 4.3% | 0hPa | 2.6V | 00:00:00 | 01:57:34 | 00:00:00 | |
| IW2NTF | 2026-09-04 12:23:47 | 45.70264 | 13.50066 | 171° | 9km/h | 21849m | 5.2m/s | -54.2°C | 4.3% | 0hPa | 2.6V | 08:30:00 | 01:57:28 | 00:00:00 | |
| DO3MHA-12 | 2026-09-04 12:23:46 | 45.70255 | 13.50076 | 131° | 9km/h | 21870m | 5.7m/s | -54.4°C | 4.4% | 0hPa | 2.6V | 00:00:00 | 01:57:32 | 00:00:00 | |
| OE8JPQ-2 | 2026-09-04 12:23:44 | 45.70259 | 13.50069 | 139° | 7km/h | 21860m | 4.1m/s | -54.2°C | 4.3% | 0hPa | 2.7V | 00:00:00 | 01:57:30 | 00:00:00 | |
| 9A1FER-3 | 2026-09-04 12:23:43 | 45.70262 | 13.50067 | 153° | 7km/h | 21855m | 5.9m/s | -54.2°C | 4.3% | 0hPa | 2.7V | 00:00:00 | 01:57:29 | 00:00:00 | |
| NBG1-10 | 2026-09-04 12:23:39 | 45.70270 | 13.50065 | 158° | 15km/h | 21835m | 4.7m/s | -54.3°C | 4.3% | 0hPa | 2.7V | 00:00:00 | 01:57:25 | 00:00:00 | |
| DO3MHA-11 | 2026-09-04 12:23:38 | 45.70272 | 13.50064 | 157° | 5km/h | 21830m | 4.4m/s | -54.3°C | 4.4% | 0hPa | 2.7V | 00:00:00 | 01:57:24 | 08:30:00 | |
| DO3MHA-12 | 2026-09-04 12:23:36 | 45.70274 | 13.50063 | 204° | 5km/h | 21819m | 4.9m/s | -54.1°C | 4.3% | 0hPa | 2.7V | 00:00:00 | 01:57:22 | 00:00:00 | |
| IW2NTF | 2026-09-04 12:23:33 | 45.70277 | 13.50060 | 122° | 7km/h | 21800m | 4.5m/s | -54.4°C | 4.3% | 0hPa | 2.7V | 08:30:00 | 01:57:18 | 00:00:00 | |
| OE5DRO-10 | 2026-09-04 12:23:32 | 45.70277 | 13.50060 | 123° | 9km/h | 21800m | 4.5m/s | -54.3°C | 4.3% | 0hPa | 2.6V | 00:00:00 | 00:00:00 | 00:00:00 | |
| IN3HCDX1 | 2026-09-04 12:23:30 | 45.70278 | 13.50058 | 139° | 7km/h | 21796m | 4.7m/s | -54.3°C | 1.3% | 0hPa | 2.6V | 00:00:00 | 00:00:00 | 00:00:00 | |
| DO3MHA-11 | 2026-09-04 12:23:28 | 45.70284 | 13.50056 | 190° | 9km/h | 21781m | 4.2m/s | -54.4°C | 4.4% | 0hPa | 2.6V | 00:00:00 | 01:57:14 | 00:00:00 | |
| IW2NTF | 2026-09-04 12:23:27 | 45.70282 | 13.50065 | 320° | 15km/h | 21751m | 4.5m/s | -54.5°C | 4.4% | 0hPa | 2.6V | 08:30:00 | 01:57:08 | 00:00:00 | |
| DO3MHA-12 | 2026-09-04 12:23:26 | 45.70288 | 13.50057 | 197° | 7km/h | 21772m | 4.3m/s | -54.5°C | 4.4% | 0hPa | 2.6V | 00:00:00 | 01:57:12 | 00:00:00 | |
| OE8JPQ-2 | 2026-09-04 12:23:24 | 45.70287 | 13.50060 | 318° | 9km/h | 21762m | 5.8m/s | -54.5°C | 4.4% | 0hPa | 2.6V | 00:00:00 | 00:00:00 | 08:30:00 | |
| IN3HCDX | 2026-09-04 12:23:23 | 45.70287 | 13.50060 | 318° | 7km/h | 21762m | 5.8m/s | -54.5°C | 1.4% | 0hPa | 2.7V | 00:00:00 | 00:00:00 | 00:00:00 | |
| DO3MHA-11 | 2026-09-04 12:23:18 | 45.70276 | 13.50070 | 152° | 7km/h | 21732m | 4.7m/s | -54.4°C | 4.3% | 0hPa | 2.7V | 00:00:00 | 01:57:04 | 00:00:00 | |
| DO3MHA-12 | 2026-09-04 12:23:14 | 45.70285 | 13.50070 | 182° | 7km/h | 21713m | 4.8m/s | -54.1°C | 4.3% | 0hPa | 2.7V | 00:00:00 | 01:57:00 | 00:00:00 | |
| IW2NTF | 2026-09-04 12:23:13 | 45.70289 | 13.50070 | 174° | 4km/h | 21703m | 4.7m/s | -54.2°C | 4.3% | 0hPa | 2.7V | 08:30:00 | 01:56:58 | 00:00:00 | |
| 9A1FER-3 | 2026-09-04 12:23:13 | 45.70287 | 13.50070 | 175° | 5km/h | 21708m | 4.9m/s | -54.1°C | 4.3% | 0hPa | 2.7V | 00:00:00 | 01:56:59 | 00:00:00 | |
| IN3HCDX1 | 2026-09-04 12:23:10 | 45.70290 | 13.50070 | 230° | 2km/h | 21698m | 4.5m/s | -54.2°C | 1.3% | 0hPa | 2.7V | 00:00:00 | 00:00:00 | 00:00:00 | |
| IW2NTF | 2026-09-04 12:23:08 | 45.70282 | 13.50085 | 223° | 5km/h | 21652m | 4.8m/s | -54.1°C | 4.1% | 0hPa | 2.7V | 08:30:00 | 01:56:48 | 00:00:00 | |
| OE5DXL-15 | 2026-09-04 12:23:06 | 45.70285 | 13.50081 | 338° | 5km/h | 21672m | 4.9m/s | -54.0°C | 4.3% | 0hPa | 2.7V | 00:00:00 | 00:00:00 | 00:00:00 | |
| OE8JPQ-2 | 2026-09-04 12:23:04 | 45.70282 | 13.50083 | 322° | 5km/h | 21662m | 5.4m/s | -54.0°C | 4.2% | 0hPa | 2.7V | 00:00:00 | 00:00:00 | 00:00:00 | |
| IN3HCDX | 2026-09-04 12:23:02 | 45.70281 | 13.50084 | 263° | 4km/h | 21657m | 5.3m/s | -54.1°C | 1.3% | 0hPa | 2.7V | 00:00:00 | 00:00:00 | 00:00:00 | |
| 9A1FER-3 | 2026-09-04 12:22:58 | 45.70286 | 13.50086 | 203° | 7km/h | 21633m | 4.4m/s | -54.3°C | 4.2% | 0hPa | 2.7V | 00:00:00 | 01:56:44 | 00:00:00 | |
| IW2NTF | 2026-09-04 12:22:55 | 45.70278 | 13.50102 | 305° | 7km/h | 21592m | 5.1m/s | -54.6°C | 4.5% | 0hPa | 2.7V | 08:30:00 | 01:56:36 | 00:00:00 | |
| OE5DRO-10 | 2026-09-04 12:22:54 | 45.70285 | 13.50094 | 311° | 5km/h | 21612m | 5.9m/s | -54.4°C | 4.4% | 0hPa | 2.7V | 00:00:00 | 00:00:00 | 00:00:00 | |
| IN3HCDX1 | 2026-09-04 12:22:49 | 45.70278 | 13.50102 | 306° | 7km/h | 21592m | 5.1m/s | -54.6°C | 1.4% | 0hPa | 2.6V | 00:00:00 | 00:00:00 | 00:00:00 | |
| DO3MHA-11 | 2026-09-04 12:22:48 | 45.70277 | 13.50106 | 228° | 5km/h | 21582m | 5.4m/s | -54.7°C | 4.5% | 0hPa | 2.6V | 00:00:00 | 01:56:34 | 00:00:00 | |
| OE8JPQ-2 | 2026-09-04 12:22:44 | 45.70283 | 13.50102 | 173° | 4km/h | 21562m | 5.6m/s | -54.6°C | 4.4% | 0hPa | 2.6V | 00:00:00 | 01:56:30 | 00:00:00 | |
| IW2NTF | 2026-09-04 12:22:43 | 45.70289 | 13.50101 | 132° | 4km/h | 21541m | 4.8m/s | -54.6°C | 4.4% | 0hPa | 2.6V | 08:30:00 | 01:56:26 | 00:00:00 | |
| 9A1FER-3 | 2026-09-04 12:22:43 | 45.70285 | 13.50102 | 182° | 4km/h | 21556m | 4.4m/s | -54.6°C | 4.4% | 0hPa | 2.7V | 00:00:00 | 01:56:29 | 00:00:00 | |
| IN3HCDX | 2026-09-04 12:22:41 | 45.70287 | 13.50102 | 177° | 7km/h | 21552m | 4.8m/s | -54.6°C | 1.4% | 0hPa | 2.7V | 00:00:00 | 00:00:00 | 00:00:00 | |
| DO3MHA-11 | 2026-09-04 12:22:38 | 45.70290 | 13.50101 | 294° | 2km/h | 21531m | 5.7m/s | -54.5°C | 4.4% | 0hPa | 2.7V | 00:00:00 | 01:56:24 | 00:00:00 | |
| OE5DXL-15 | 2026-09-04 12:22:36 | 45.70289 | 13.50101 | 357° | 5km/h | 21521m | 4.5m/s | -54.5°C | 4.4% | 0hPa | 2.7V | 00:00:00 | 00:00:00 | 00:00:00 | |
| IW2NTF | 2026-09-04 12:22:35 | 45.70288 | 13.50098 | 185° | 2km/h | 21491m | 4.7m/s | -54.4°C | 4.3% | 0hPa | 2.6V | 08:30:00 | 01:56:16 | 00:00:00 | |
| OE5DRO-10 | 2026-09-04 12:22:35 | 45.70288 | 13.50101 | 38° | 5km/h | 21516m | 5.8m/s | -54.4°C | 4.4% | 0hPa | 2.6V | 00:00:00 | 00:00:00 | 00:00:00 | |
| IN3HCDX1 | 2026-09-04 12:22:29 | 45.70288 | 13.50098 | 0° | 0km/h | 21491m | 4.7m/s | 0°C | 0% | 0hPa | 2.6V | 00:00:00 | 00:00:00 | 00:00:00 | |
| 9A1FER-3 | 2026-09-04 12:22:28 | 45.70288 | 13.50097 | 50° | 5km/h | 21480m | 4.8m/s | -54.4°C | 4.4% | 0hPa | 2.6V | 00:00:00 | 01:56:14 | 08:30:00 | |
| IW2NTF | 2026-09-04 12:22:23 | 45.70272 | 13.50101 | 344° | 9km/h | 21443m | 4.2m/s | -54.5°C | 4.3% | 0hPa | 2.7V | 08:30:00 | 01:56:06 | 00:00:00 | |
| IN3HCDX | 2026-09-04 12:22:20 | 45.70275 | 13.50101 | 357° | 11km/h | 21448m | 3.8m/s | -54.4°C | 1.4% | 0hPa | 2.6V | 00:00:00 | 00:00:00 | 00:00:00 | |
| DO3MHA-11 | 2026-09-04 12:22:18 | 45.70269 | 13.50105 | 303° | 4km/h | 21434m | 5.0m/s | -54.6°C | 4.4% | 0hPa | 2.6V | 00:00:00 | 01:56:04 | 00:00:00 | |
| OE5DRO-10 | 2026-09-04 12:22:16 | 45.70267 | 13.50109 | 291° | 4km/h | 21424m | 5.2m/s | -54.7°C | 4.4% | 0hPa | 2.6V | 00:00:00 | 00:00:00 | 00:00:00 | |
| IW2NTF | 2026-09-04 12:22:15 | 45.70267 | 13.50107 | 75° | 2km/h | 21393m | 5m/s | -54.9°C | 4.4% | 0hPa | 2.6V | 08:30:00 | 01:55:56 | 00:00:00 | |
| 9A1FER-3 | 2026-09-04 12:22:12 | 45.70266 | 13.50108 | 109° | 4km/h | 21404m | 5.6m/s | -54.7°C | 4.4% | 0hPa | 2.7V | 00:00:00 | 01:55:58 | 00:00:00 | |
| IN3HCDX1 | 2026-09-04 12:22:08 | 45.70266 | 13.50105 | 62° | 4km/h | 21388m | 5.4m/s | 0°C | 0% | 0hPa | 2.7V | 00:00:00 | 00:00:00 | 00:00:00 | |
| DO3MHA-11 | 2026-09-04 12:22:07 | 45.70265 | 13.50103 | 50° | 5km/h | 21379m | 3.6m/s | -54.8°C | 4.3% | 0hPa | 2.7V | 00:00:00 | 01:55:53 | 08:30:00 | |
| OE5DXL-15 | 2026-09-04 12:22:06 | 45.70264 | 13.50102 | 16° | 5km/h | 21375m | 5.2m/s | -54.9°C | 4.3% | 0hPa | 2.6V | 00:00:00 | 00:00:00 | 00:00:00 | |
| OE8JPQ-2 | 2026-09-04 12:22:04 | 45.70264 | 13.50104 | 259° | 5km/h | 21364m | 4.4m/s | -54.9°C | 4.4% | 0hPa | 2.6V | 00:00:00 | 00:00:00 | 00:00:00 | |
| IW2NTF | 2026-09-04 12:22:03 | 45.70263 | 13.50100 | 80° | 5km/h | 21334m | 5m/s | -55°C | 4.4% | 0hPa | 2.6V | 08:30:00 | 01:55:44 | 00:00:00 | |
| 9A1FER-3 | 2026-09-04 12:21:57 | 45.70262 | 13.50098 | 67° | 7km/h | 21330m | 4.2m/s | -55.0°C | 4.5% | 0hPa | 2.6V | 00:00:00 | 01:55:43 | 00:00:00 | |
| DO3MHA-11 | 2026-09-04 12:21:54 | 45.70258 | 13.50092 | 24° | 7km/h | 21314m | 4.5m/s | -55.3°C | 4.6% | 0hPa | 2.6V | 00:00:00 | 01:55:40 | 00:00:00 | |
| IW2NTF | 2026-09-04 12:21:53 | 45.70247 | 13.50098 | 5° | 7km/h | 21284m | 4.3m/s | -55.4°C | 4.6% | 0hPa | 2.6V | 08:30:00 | 01:55:34 | 00:00:00 | |
| IN3HCDX1 | 2026-09-04 12:21:47 | 45.70247 | 13.50097 | 7° | 7km/h | 21284m | 4.3m/s | 0°C | 0% | 0hPa | 2.7V | 00:00:00 | 00:00:00 | 00:00:00 | |
| DO3MHA-11 | 2026-09-04 12:21:44 | 45.70246 | 13.50094 | 128° | 7km/h | 21265m | 5.3m/s | -55.4°C | 4.7% | 0hPa | 2.7V | 00:00:00 | 01:55:30 | 00:00:00 | |
| IW2NTF | 2026-09-04 12:21:43 | 45.70252 | 13.50094 | 237° | 9km/h | 21236m | 3.6m/s | -55.2°C | 4.6% | 0hPa | 2.7V | 08:30:00 | 01:55:24 | 00:00:00 | |
| 9A1FER-3 | 2026-09-04 12:21:39 | 45.70251 | 13.50091 | 235° | 9km/h | 21240m | 4.5m/s | -55.1°C | 4.6% | 0hPa | 2.6V | 00:00:00 | 01:55:25 | 00:00:00 | |
| OE5DRO-10 | 2026-09-04 12:21:38 | 45.70252 | 13.50094 | 238° | 9km/h | 21236m | 3.6m/s | -55.1°C | 4.6% | 0hPa | 2.6V | 00:00:00 | 00:00:00 | 00:00:00 | |
| OE5DXL-15 | 2026-09-04 12:21:36 | 45.70255 | 13.50099 | 229° | 11km/h | 21227m | 5.0m/s | -55.1°C | 4.6% | 0hPa | 2.6V | 00:00:00 | 00:00:00 | 00:00:00 | |
| DO3MHA-11 | 2026-09-04 12:21:34 | 45.70256 | 13.50101 | 219° | 5km/h | 21217m | 4.2m/s | -55.1°C | 4.5% | 0hPa | 2.6V | 00:00:00 | 01:55:20 | 00:00:00 | |
| IW2NTF | 2026-09-04 12:21:30 | 45.70264 | 13.50109 | 198° | 7km/h | 21188m | 3.9m/s | -54.9°C | 4.5% | 0hPa | 2.6V | 08:30:00 | 01:55:14 | 00:00:00 | |
| 9A1FER-3 | 2026-09-04 12:21:24 | 45.70274 | 13.50121 | 223° | 13km/h | 21169m | 4.5m/s | -54.7°C | 4.5% | 0hPa | 2.6V | 00:00:00 | 01:55:10 | 00:00:00 | |
| IW2NTF | 2026-09-04 12:21:23 | 45.70292 | 13.50139 | 218° | 11km/h | 21139m | 4.2m/s | -54.5°C | 4.4% | 0hPa | 2.6V | 08:30:00 | 01:55:04 | 00:00:00 | |
| OE5DRO-10 | 2026-09-04 12:21:19 | 45.70290 | 13.50136 | 217° | 15km/h | 21143m | 4.7m/s | -54.5°C | 4.5% | 0hPa | 2.7V | 00:00:00 | 00:00:00 | 00:00:00 | |
| IN3HCDX | 2026-09-04 12:21:18 | 45.70290 | 13.50136 | 218° | 15km/h | 21143m | 4.7m/s | -54.5°C | 1.4% | 0hPa | 2.7V | 00:00:00 | 00:00:00 | 00:00:00 | |
| IW2NTF | 2026-09-04 12:21:13 | 45.70323 | 13.50159 | 195° | 16km/h | 21091m | 4.5m/s | -54.2°C | 4.2% | 0hPa | 2.7V | 08:30:00 | 01:54:54 | 00:00:00 | |
| 9A1FER-3 | 2026-09-04 12:21:09 | 45.70319 | 13.50157 | 202° | 16km/h | 21096m | 4.6m/s | -54.3°C | 4.3% | 0hPa | 2.7V | 00:00:00 | 01:54:55 | 00:00:00 | |
| OE5DXL-15 | 2026-09-04 12:21:06 | 45.70332 | 13.50161 | 187° | 18km/h | 21081m | 5.1m/s | -54.2°C | 4.3% | 0hPa | 2.7V | 00:00:00 | 01:54:52 | 08:30:00 | |
| OE8JPQ-2 | 2026-09-04 12:21:04 | 45.70340 | 13.50163 | 190° | 16km/h | 21072m | 4.8m/s | -54.3°C | 4.3% | 0hPa | 2.6V | 00:00:00 | 00:00:00 | 00:00:00 | |
| IW2NTF | 2026-09-04 12:21:03 | 45.70362 | 13.50170 | 186° | 18km/h | 21043m | 4.9m/s | -54.3°C | 4.2% | 0hPa | 2.6V | 08:30:00 | 01:54:44 | 00:00:00 | |
| OE5DRO-10 | 2026-09-04 12:21:00 | 45.70358 | 13.50169 | 188° | 18km/h | 21048m | 4.3m/s | -54.3°C | 4.2% | 0hPa | 2.7V | 00:00:00 | 00:00:00 | 08:30:00 | |
| IN3HCDX | 2026-09-04 12:20:57 | 45.70362 | 13.50170 | 187° | 18km/h | 21043m | 4.9m/s | -54.3°C | 1.3% | 0hPa | 2.7V | 00:00:00 | 00:00:00 | 00:00:00 | |
| 9A1FER-3 | 2026-09-04 12:20:54 | 45.70380 | 13.50174 | 185° | 18km/h | 21023m | 5.0m/s | -54.5°C | 4.3% | 0hPa | 2.7V | 00:00:00 | 01:54:40 | 00:00:00 | |
| IW2NTF | 2026-09-04 12:20:53 | 45.70406 | 13.50173 | 170° | 16km/h | 20995m | 5.3m/s | -54.7°C | 4.5% | 0hPa | 2.7V | 08:30:00 | 01:54:34 | 00:00:00 | |
| OE8JPQ-2 | 2026-09-04 12:20:44 | 45.70424 | 13.50170 | 178° | 18km/h | 20976m | 4.5m/s | -54.6°C | 4.4% | 0hPa | 2.6V | 00:00:00 | 01:54:30 | 00:00:00 | |
| IW2NTF | 2026-09-04 12:20:43 | 45.70454 | 13.50164 | 149° | 15km/h | 20947m | 4.9m/s | -54.6°C | 4.2% | 0hPa | 2.6V | 08:30:00 | 01:54:24 | 00:00:00 | |
| IN3HCDX1 | 2026-09-04 12:20:42 | 45.70429 | 13.50170 | 180° | 20km/h | 20971m | 4.3m/s | 0°C | 0% | 0hPa | 2.6V | 00:00:00 | 00:00:00 | 00:00:00 | |
| OE5DRO-10 | 2026-09-04 12:20:40 | 45.70445 | 13.50168 | 169° | 18km/h | 20957m | 4.3m/s | -54.5°C | 4.3% | 0hPa | 2.6V | 00:00:00 | 00:00:00 | 00:00:00 | |
| 9A1FER-3 | 2026-09-04 12:20:38 | 45.70454 | 13.50164 | 150° | 16km/h | 20947m | 4.8m/s | -54.6°C | 4.2% | 0hPa | 2.6V | 00:00:00 | 01:54:24 | 00:00:00 | |
| OE5DXL-15 | 2026-09-04 12:20:36 | 45.70459 | 13.50157 | 133° | 20km/h | 20938m | 4.6m/s | -54.8°C | 4.3% | 0hPa | 2.6V | 00:00:00 | 00:00:00 | 00:00:00 | |
| IW2NTF | 2026-09-04 12:20:34 | 45.70489 | 13.50149 | 195° | 22km/h | 20900m | 4.4m/s | -55°C | 4.5% | 0hPa | 2.6V | 08:30:00 | 01:54:14 | 00:00:00 | |
| OE8JPQ-2 | 2026-09-04 12:20:24 | 45.70508 | 13.50157 | 193° | 22km/h | 20882m | 3.7m/s | -55.2°C | 4.5% | 0hPa | 2.7V | 00:00:00 | 00:00:00 | 08:30:00 | |
| IW2NTF | 2026-09-04 12:20:23 | 45.70537 | 13.50145 | 153° | 22km/h | 20852m | 4m/s | -55.2°C | 4.4% | 0hPa | 2.7V | 08:30:00 | 01:54:04 | 00:00:00 | |
| 9A1FER-3 | 2026-09-04 12:20:23 | 45.70512 | 13.50157 | 180° | 22km/h | 20878m | 4.3m/s | -55.2°C | 4.5% | 0hPa | 2.7V | 00:00:00 | 01:54:09 | 00:00:00 | |
| IN3HCDX1 | 2026-09-04 12:20:21 | 45.70517 | 13.50157 | 170° | 20km/h | 20872m | 5.7m/s | 0°C | 0% | 0hPa | 2.7V | 00:00:00 | 00:00:00 | 00:00:00 | |
| IW2NTF | 2026-09-04 12:20:12 | 45.70596 | 13.50129 | 163° | 20km/h | 20799m | 5.1m/s | -54.9°C | 4.4% | 0hPa | 2.7V | 08:30:00 | 01:53:53 | 00:00:00 | |
| 9A1FER-3 | 2026-09-04 12:20:08 | 45.70591 | 13.50131 | 170° | 20km/h | 20805m | 5.6m/s | -54.9°C | 4.4% | 0hPa | 2.6V | 00:00:00 | 01:53:54 | 08:30:00 | |
| OE5DXL-15 | 2026-09-04 12:20:06 | 45.70601 | 13.50127 | 156° | 20km/h | 20795m | 4.7m/s | -54.9°C | 4.4% | 0hPa | 2.6V | 00:00:00 | 00:00:00 | 00:00:00 | |
| OE8JPQ-2 | 2026-09-04 12:20:04 | 45.70611 | 13.50119 | 150° | 20km/h | 20784m | 4.7m/s | -54.9°C | 4.4% | 0hPa | 2.6V | 00:00:00 | 00:00:00 | 00:00:00 | |
| IW2NTF | 2026-09-04 12:20:02 | 45.70642 | 13.50103 | 159° | 24km/h | 20751m | 4.1m/s | -55.2°C | 4.3% | 0hPa | 2.6V | 08:30:00 | 01:53:43 | 00:00:00 | |
| OE5DRO-10 | 2026-09-04 12:20:02 | 45.70620 | 13.50112 | 155° | 20km/h | 20775m | 5.7m/s | -54.9°C | 4.3% | 0hPa | 2.6V | 00:00:00 | 00:00:00 | 00:00:00 | |
| IN3HCDX1 | 2026-09-04 12:19:58 | 45.70632 | 13.50107 | 169° | 18km/h | 20761m | 5.1m/s | 0°C | 0% | 0hPa | 2.6V | 00:00:00 | 00:00:00 | 00:00:00 | |
| NBG1-10 | 2026-09-04 12:19:56 | 45.70648 | 13.50099 | 158° | 20km/h | 20747m | 4.3m/s | -55.2°C | 4.3% | 0hPa | 2.6V | 00:00:00 | 01:53:42 | 00:00:00 | |
| IN3HCDX | 2026-09-04 12:19:54 | 45.70654 | 13.50096 | 159° | 24km/h | 20742m | 4.8m/s | -55.4°C | 1.4% | 0hPa | 2.7V | 00:00:00 | 00:00:00 | 00:00:00 | |
| 9A1FER-3 | 2026-09-04 12:19:53 | 45.70664 | 13.50090 | 160° | 20km/h | 20733m | 4.3m/s | -55.4°C | 4.4% | 0hPa | 2.7V | 00:00:00 | 01:53:39 | 00:00:00 | |
| IW2NTF | 2026-09-04 12:19:52 | 45.70693 | 13.50071 | 144° | 15km/h | 20704m | 3.7m/s | -55.5°C | 4.4% | 0hPa | 2.7V | 08:30:00 | 01:53:33 | 00:00:00 | |
| OE8JPQ-2 | 2026-09-04 12:19:44 | 45.70702 | 13.50058 | 129° | 18km/h | 20691m | 3.9m/s | -55.7°C | 4.5% | 0hPa | 2.6V | 00:00:00 | 01:53:30 | 00:00:00 | |
| OE5DRO-10 | 2026-09-04 12:19:43 | 45.70705 | 13.50053 | 125° | 18km/h | 20686m | 5.3m/s | -55.8°C | 4.6% | 0hPa | 2.6V | 00:00:00 | 00:00:00 | 00:00:00 | |
| IW2NTF | 2026-09-04 12:19:42 | 45.70720 | 13.50017 | 122° | 20km/h | 20658m | 5.2m/s | -56°C | 4.5% | 0hPa | 2.6V | 08:30:00 | 01:53:23 | 00:00:00 | |
| 9A1FER-3 | 2026-09-04 12:19:38 | 45.70718 | 13.50024 | 123° | 18km/h | 20663m | 4.1m/s | -55.9°C | 4.5% | 0hPa | 2.7V | 00:00:00 | 01:53:24 | 00:00:00 | |
| OE5DXL-15 | 2026-09-04 12:19:36 | 45.70723 | 13.50012 | 118° | 13km/h | 20653m | 5.2m/s | -56.1°C | 4.5% | 0hPa | 2.7V | 00:00:00 | 00:00:00 | 00:00:00 | |
| IN3HCDX | 2026-09-04 12:19:33 | 45.70726 | 13.50001 | 107° | 16km/h | 20643m | 4.9m/s | -56.5°C | 1.5% | 0hPa | 2.6V | 00:00:00 | 00:00:00 | 00:00:00 | |
| IW2NTF | 2026-09-04 12:19:29 | 45.70732 | 13.49955 | 103° | 18km/h | 20610m | 5.7m/s | -56.6°C | 4.8% | 0hPa | 2.6V | 08:30:00 | 01:53:13 | 00:00:00 | |
| IV3AMH | 2026-09-04 12:19:25 | 45.70733 | 13.49949 | 109° | 18km/h | 20605m | 4.5m/s | -56.6°C | 1.7% | 0hPa | 2.7V | 00:00:00 | 00:00:00 | 00:00:00 | |
| OE8JPQ-2 | 2026-09-04 12:19:24 | 45.70736 | 13.49936 | 113° | 7km/h | 20597m | 4.6m/s | -56.6°C | 5.0% | 0hPa | 2.7V | 00:00:00 | 00:00:00 | 00:00:00 | |
| NBG1-10 | 2026-09-04 12:19:23 | 45.70738 | 13.49932 | 112° | 5km/h | 20592m | 5.3m/s | -56.5°C | 4.9% | 0hPa | 2.7V | 00:00:00 | 01:53:09 | 00:00:00 | |
| IW2NTF | 2026-09-04 12:19:19 | 45.70736 | 13.49909 | 50° | 9km/h | 20563m | 5.6m/s | -56.4°C | 4.7% | 0hPa | 2.7V | 08:30:00 | 01:53:03 | 00:00:00 | |
| IW2NTF | 2026-09-04 12:19:12 | 45.70740 | 13.49895 | 132° | 5km/h | 20516m | 4.5m/s | -56.4°C | 4.6% | 0hPa | 2.6V | 08:30:00 | 01:52:53 | 00:00:00 | |
| IN3HCDX | 2026-09-04 12:19:12 | 45.70734 | 13.49902 | 110° | 7km/h | 20544m | 4.1m/s | -56.5°C | 1.5% | 0hPa | 2.7V | 00:00:00 | 00:00:00 | 00:00:00 | |
| 9A1FER-3 | 2026-09-04 12:19:08 | 45.70739 | 13.49895 | 150° | 4km/h | 20522m | 5.4m/s | -56.3°C | 4.6% | 0hPa | 2.7V | 00:00:00 | 01:52:54 | 00:00:00 | |
| OE5DXL-15 | 2026-09-04 12:19:06 | 45.70740 | 13.49893 | 134° | 5km/h | 20512m | 4.1m/s | -56.4°C | 4.7% | 0hPa | 2.7V | 00:00:00 | 00:00:00 | 00:00:00 | |
| OE5DRO-10 | 2026-09-04 12:19:05 | 45.70741 | 13.49893 | 180° | 5km/h | 20507m | 5.6m/s | -56.4°C | 4.7% | 0hPa | 2.7V | 00:00:00 | 00:00:00 | 00:00:00 | |
| OE8JPQ-2 | 2026-09-04 12:19:04 | 45.70741 | 13.49893 | 261° | 5km/h | 20502m | 5.0m/s | -56.5°C | 4.8% | 0hPa | 2.7V | 00:00:00 | 00:00:00 | 00:00:00 | |
| IW2NTF | 2026-09-04 12:19:03 | 45.70737 | 13.49897 | 314° | 4km/h | 20468m | 4.4m/s | -57.2°C | 4.9% | 0hPa | 2.7V | 08:30:00 | 01:52:43 | 00:00:00 | |
| 9A1FER-3 | 2026-09-04 12:18:53 | 45.70736 | 13.49900 | 282° | 9km/h | 20449m | 5.5m/s | -57.1°C | 4.8% | 0hPa | 2.7V | 00:00:00 | 01:52:39 | 00:00:00 | |
| IW2NTF | 2026-09-04 12:18:52 | 45.70743 | 13.49914 | 218° | 11km/h | 20421m | 5.2m/s | -57°C | 4.9% | 0hPa | 2.7V | 08:30:00 | 01:52:33 | 00:00:00 | |
| IN3HCDX | 2026-09-04 12:18:51 | 45.70736 | 13.49903 | 269° | 9km/h | 20444m | 3.9m/s | -57.1°C | 1.6% | 0hPa | 2.6V | 00:00:00 | 00:00:00 | 00:00:00 | |
| NBG1-10 | 2026-09-04 12:18:50 | 45.70737 | 13.49908 | 227° | 9km/h | 20435m | 5.4m/s | -57.0°C | 4.9% | 0hPa | 2.6V | 00:00:00 | 01:52:36 | 00:00:00 | |
| OE5DRO-10 | 2026-09-04 12:18:46 | 45.70745 | 13.49917 | 231° | 9km/h | 20416m | 4.4m/s | -57.0°C | 5.0% | 0hPa | 2.6V | 00:00:00 | 00:00:00 | 00:00:00 | |
| OE8JPQ-2 | 2026-09-04 12:18:44 | 45.70748 | 13.49923 | 235° | 9km/h | 20408m | 5.0m/s | -56.9°C | 5.0% | 0hPa | 2.6V | 00:00:00 | 01:52:30 | 00:00:00 | |
| IW2NTF | 2026-09-04 12:18:41 | 45.70755 | 13.49943 | 209° | 7km/h | 20370m | 4.5m/s | -57.1°C | 5% | 0hPa | 2.6V | 08:30:00 | 01:52:22 | 00:00:00 | |
| 9A1FER-3 | 2026-09-04 12:18:38 | 45.70753 | 13.49939 | 246° | 9km/h | 20380m | 4.5m/s | -57.0°C | 4.9% | 0hPa | 2.6V | 00:00:00 | 01:52:24 | 00:00:00 | |
| OE5DXL-15 | 2026-09-04 12:18:36 | 45.70755 | 13.49943 | 210° | 9km/h | 20370m | 4.4m/s | -57.1°C | 5.0% | 0hPa | 2.6V | 00:00:00 | 00:00:00 | 00:00:00 | |
| IW2NTF | 2026-09-04 12:18:31 | 45.70772 | 13.49966 | 275° | 5km/h | 20323m | 4.1m/s | -56.7°C | 4.8% | 0hPa | 2.6V | 08:30:00 | 01:52:12 | 00:00:00 | |
| IN3HCDX | 2026-09-04 12:18:29 | 45.70768 | 13.49957 | 209° | 9km/h | 20342m | 4.6m/s | -56.9°C | 1.6% | 0hPa | 2.6V | 00:00:00 | 00:00:00 | 00:00:00 | |
| OE5DRO-10 | 2026-09-04 12:18:27 | 45.70772 | 13.49964 | 262° | 9km/h | 20327m | 4.4m/s | -56.6°C | 4.8% | 0hPa | 2.6V | 00:00:00 | 00:00:00 | 00:00:00 | |
| OE8JPQ-2 | 2026-09-04 12:18:24 | 45.70772 | 13.49969 | 267° | 9km/h | 20313m | 4.5m/s | -56.8°C | 4.8% | 0hPa | 2.6V | 00:00:00 | 00:00:00 | 00:00:00 | |
| 9A1FER-3 | 2026-09-04 12:18:23 | 45.70772 | 13.49969 | 275° | 9km/h | 20309m | 4.1m/s | -56.9°C | 4.9% | 0hPa | 2.7V | 00:00:00 | 01:52:09 | 00:00:00 | |
| IW2NTF | 2026-09-04 12:18:21 | 45.70779 | 13.49983 | 252° | 11km/h | 20275m | 5.5m/s | -56.8°C | 5% | 0hPa | 2.7V | 08:30:00 | 01:52:02 | 00:00:00 | |
| IW2NTF | 2026-09-04 12:18:11 | 45.70777 | 13.50023 | 290° | 9km/h | 20229m | 5.4m/s | -56.6°C | 4.8% | 0hPa | 2.6V | 08:30:00 | 01:51:52 | 00:00:00 | |
| 9A1FER-3 | 2026-09-04 12:18:08 | 45.70779 | 13.50016 | 295° | 9km/h | 20238m | 4.5m/s | -56.5°C | 4.8% | 0hPa | 2.6V | 00:00:00 | 01:51:54 | 00:00:00 | |
| OE5DXL-15 | 2026-09-04 12:18:06 | 45.70777 | 13.50023 | 291° | 11km/h | 20229m | 5.4m/s | -56.5°C | 4.8% | 0hPa | 2.6V | 00:00:00 | 00:00:00 | 00:00:00 | |
| OE8JPQ-2 | 2026-09-04 12:18:04 | 45.70776 | 13.50029 | 274° | 11km/h | 20219m | 4.4m/s | -56.4°C | 4.8% | 0hPa | 2.7V | 00:00:00 | 00:00:00 | 00:00:00 | |
| IW2NTF | 2026-09-04 12:18:01 | 45.70773 | 13.50054 | 292° | 13km/h | 20179m | 3.6m/s | -56.3°C | 4.8% | 0hPa | 2.7V | 08:30:00 | 01:51:42 | 00:00:00 | |
| NBG1-10 | 2026-09-04 12:17:57 | 45.70774 | 13.50050 | 289° | 11km/h | 20184m | 5.0m/s | -56.3°C | 4.7% | 0hPa | 2.7V | 00:00:00 | 01:51:43 | 00:00:00 | |
| 9A1FER-3 | 2026-09-04 12:17:53 | 45.70770 | 13.50068 | 275° | 11km/h | 20166m | 4.1m/s | -56.0°C | 4.7% | 0hPa | 2.6V | 00:00:00 | 01:51:39 | 08:30:00 | |
| IW2NTF | 2026-09-04 12:17:49 | 45.70765 | 13.50103 | 317° | 13km/h | 20123m | 3.9m/s | -56°C | 4.7% | 0hPa | 2.7V | 08:30:00 | 01:51:30 | 00:00:00 | |
| IN3HCDX | 2026-09-04 12:17:47 | 45.70770 | 13.50092 | 277° | 9km/h | 20143m | 5.2m/s | -56.0°C | 1.5% | 0hPa | 2.6V | 00:00:00 | 00:00:00 | 00:00:00 | |
| OE8JPQ-2 | 2026-09-04 12:17:44 | 45.70764 | 13.50103 | 318° | 13km/h | 20123m | 3.8m/s | -56.0°C | 4.7% | 0hPa | 2.6V | 00:00:00 | 01:51:30 | 00:00:00 | |
| IW2NTF | 2026-09-04 12:17:39 | 45.70755 | 13.50138 | 260° | 13km/h | 20078m | 3.8m/s | -56.5°C | 4.8% | 0hPa | 2.6V | 08:30:00 | 01:51:20 | 00:00:00 | |
| 9A1FER-3 | 2026-09-04 12:17:38 | 45.70755 | 13.50121 | 285° | 13km/h | 20096m | 4.4m/s | -56.0°C | 4.5% | 0hPa | 2.7V | 00:00:00 | 01:51:24 | 00:00:00 | |
| OE5DXL-15 | 2026-09-04 12:17:36 | 45.70755 | 13.50130 | 269° | 11km/h | 20087m | 5.5m/s | -56.2°C | 4.7% | 0hPa | 2.7V | 00:00:00 | 00:00:00 | 00:00:00 | |
| OE5DRO-10 | 2026-09-04 12:17:30 | 45.70753 | 13.50160 | 291° | 11km/h | 20059m | 5.4m/s | -56.3°C | 4.8% | 0hPa | 2.7V | 00:00:00 | 00:00:00 | 00:00:00 | |
| IW2NTF | 2026-09-04 12:17:29 | 45.70744 | 13.50184 | 300° | 7km/h | 20031m | 5.3m/s | -56.2°C | 4.7% | 0hPa | 2.7V | 08:30:00 | 01:51:10 | 00:00:00 | |
| IN3HCDX | 2026-09-04 12:17:26 | 45.70749 | 13.50173 | 300° | 15km/h | 20045m | 5.4m/s | -56.2°C | 1.5% | 0hPa | 2.6V | 00:00:00 | 00:00:00 | 00:00:00 | |
| 9A1FER-3 | 2026-09-04 12:17:24 | 45.70743 | 13.50186 | 305° | 11km/h | 20027m | 4.0m/s | -56.1°C | 4.8% | 0hPa | 2.6V | 00:00:00 | 01:51:09 | 00:00:00 | |
| IW2NTF | 2026-09-04 12:17:19 | 45.70731 | 13.50218 | 312° | 11km/h | 19988m | 4.9m/s | -56°C | 4.7% | 0hPa | 2.6V | 08:30:00 | 01:51:00 | 00:00:00 | |
| OE5DRO-10 | 2026-09-04 12:17:11 | 45.70725 | 13.50225 | 326° | 11km/h | 19975m | 4.5m/s | -55.8°C | 4.7% | 0hPa | 2.6V | 00:00:00 | 00:00:00 | 00:00:00 | |
| IW2NTF | 2026-09-04 12:17:09 | 45.70719 | 13.50242 | 287° | 9km/h | 19942m | 5.5m/s | -55.7°C | 4.7% | 0hPa | 2.6V | 08:30:00 | 01:50:50 | 00:00:00 | |
| 9A1FER-3 | 2026-09-04 12:17:08 | 45.70722 | 13.50230 | 288° | 11km/h | 19961m | 4.7m/s | -55.8°C | 4.7% | 0hPa | 2.7V | 00:00:00 | 01:50:54 | 00:00:00 | |
| OE5DXL-15 | 2026-09-04 12:17:06 | 45.70721 | 13.50236 | 292° | 9km/h | 19951m | 4.1m/s | -55.7°C | 4.7% | 0hPa | 2.7V | 00:00:00 | 00:00:00 | 00:00:00 | |
| IN3HCDX | 2026-09-04 12:17:05 | 45.70721 | 13.50236 | 293° | 9km/h | 19951m | 4.2m/s | -55.7°C | 1.5% | 0hPa | 2.7V | 00:00:00 | 00:00:00 | 00:00:00 | |
| OE8JPQ-2 | 2026-09-04 12:17:04 | 45.70719 | 13.50242 | 288° | 9km/h | 19942m | 5.5m/s | -55.7°C | 4.7% | 0hPa | 2.7V | 00:00:00 | 00:00:00 | 00:00:00 | |
| IW2NTF | 2026-09-04 12:16:59 | 45.70699 | 13.50274 | 310° | 11km/h | 19893m | 4.7m/s | -55.4°C | 4.6% | 0hPa | 2.7V | 08:30:00 | 01:50:40 | 00:00:00 | |
| NBG1-10 | 2026-09-04 12:16:56 | 45.70703 | 13.50268 | 316° | 7km/h | 19904m | 4.0m/s | -55.5°C | 4.7% | 0hPa | 2.6V | 00:00:00 | 01:50:42 | 00:00:00 | |
| 9A1FER-3 | 2026-09-04 12:16:53 | 45.70698 | 13.50277 | 294° | 7km/h | 19889m | 4.0m/s | -55.4°C | 4.7% | 0hPa | 2.6V | 00:00:00 | 01:50:39 | 00:00:00 | |
| OE5DRO-10 | 2026-09-04 12:16:52 | 45.70697 | 13.50280 | 273° | 7km/h | 19884m | 5.8m/s | -55.4°C | 4.7% | 0hPa | 2.6V | 00:00:00 | 00:00:00 | 00:00:00 | |
| IW2NTF | 2026-09-04 12:16:49 | 45.70699 | 13.50295 | 265° | 4km/h | 19843m | 4.5m/s | -55°C | 4.6% | 0hPa | 2.6V | 08:30:00 | 01:50:30 | 00:00:00 | |
| OE8JPQ-2 | 2026-09-04 12:16:44 | 45.70698 | 13.50295 | 266° | 7km/h | 19843m | 4.5m/s | -55.0°C | 4.6% | 0hPa | 2.7V | 00:00:00 | 01:50:30 | 00:00:00 | |
| IN3HCDX | 2026-09-04 12:16:42 | 45.70698 | 13.50297 | 279° | 7km/h | 19838m | 5.3m/s | -55.1°C | 1.5% | 0hPa | 2.7V | 00:00:00 | 00:00:00 | 00:00:00 | |
| IW2NTF | 2026-09-04 12:16:39 | 45.70702 | 13.50316 | 280° | 4km/h | 19794m | 4.1m/s | -54.6°C | 4.3% | 0hPa | 2.7V | 08:30:00 | 01:50:20 | 00:00:00 | |
| 9A1FER-3 | 2026-09-04 12:16:38 | 45.70699 | 13.50312 | 220° | 7km/h | 19813m | 4.9m/s | -54.7°C | 4.5% | 0hPa | 2.7V | 00:00:00 | 01:50:24 | 00:00:00 | |
| OE5DXL-15 | 2026-09-04 12:16:36 | 45.70702 | 13.50314 | 207° | 9km/h | 19804m | 5.5m/s | -54.7°C | 4.4% | 0hPa | 2.7V | 00:00:00 | 00:00:00 | 08:30:00 | |
| OE5DRO-10 | 2026-09-04 12:16:33 | 45.70702 | 13.50318 | 270° | 9km/h | 19789m | 4.7m/s | -54.6°C | 4.3% | 0hPa | 2.6V | 00:00:00 | 00:00:00 | 00:00:00 | |
| IW2NTF | 2026-09-04 12:16:29 | 45.70713 | 13.50345 | 236° | 9km/h | 19743m | 4m/s | -54.4°C | 4.4% | 0hPa | 2.6V | 08:30:00 | 01:50:10 | 00:00:00 | |
| OE8JPQ-2 | 2026-09-04 12:16:24 | 45.70713 | 13.50345 | 237° | 11km/h | 19743m | 4.0m/s | -54.4°C | 4.4% | 0hPa | 2.6V | 00:00:00 | 00:00:00 | 00:00:00 | |
| 9A1FER-3 | 2026-09-04 12:16:23 | 45.70714 | 13.50347 | 239° | 11km/h | 19739m | 4.9m/s | -54.3°C | 4.3% | 0hPa | 2.6V | 00:00:00 | 01:50:09 | 00:00:00 | |
| IN3HCDX | 2026-09-04 12:16:21 | 45.70715 | 13.50349 | 255° | 4km/h | 19733m | 5.5m/s | -54.3°C | 1.4% | 0hPa | 2.7V | 00:00:00 | 00:00:00 | 00:00:00 | |
| IW2NTF | 2026-09-04 12:16:19 | 45.70732 | 13.50363 | 194° | 13km/h | 19694m | 4.2m/s | -54.2°C | 4.1% | 0hPa | 2.7V | 08:30:00 | 01:50:00 | 00:00:00 | |
| DO3MHA-11 | 2026-09-04 12:16:14 | 45.70732 | 13.50362 | 195° | 9km/h | 19694m | 4.1m/s | -54.2°C | 4.1% | 0hPa | 2.7V | 00:00:00 | 01:50:00 | 00:00:00 | |
| IW2NTF | 2026-09-04 12:16:08 | 45.70763 | 13.50373 | 178° | 9km/h | 19639m | 5.2m/s | -55.1°C | 4.5% | 0hPa | 2.7V | 08:30:00 | 01:49:48 | 00:00:00 | |
| 9A1FER-3 | 2026-09-04 12:16:08 | 45.70751 | 13.50368 | 169° | 15km/h | 19667m | 3.9m/s | -54.8°C | 4.4% | 0hPa | 2.6V | 00:00:00 | 01:49:54 | 00:00:00 | |
| OE5DXL-15 | 2026-09-04 12:16:06 | 45.70756 | 13.50368 | 196° | 15km/h | 19658m | 5.4m/s | -54.9°C | 4.4% | 0hPa | 2.6V | 00:00:00 | 00:00:00 | 00:00:00 | |
| OE8JPQ-2 | 2026-09-04 12:16:04 | 45.70759 | 13.50371 | 215° | 16km/h | 19649m | 4.0m/s | -55.0°C | 4.5% | 0hPa | 2.6V | 00:00:00 | 00:00:00 | 00:00:00 | |
| DO3MHA-11 | 2026-09-04 12:16:01 | 45.70766 | 13.50372 | 167° | 20km/h | 19635m | 3.8m/s | -55.1°C | 4.5% | 0hPa | 2.6V | 00:00:00 | 01:49:47 | 00:00:00 | |
| IN3HCDX | 2026-09-04 12:16:00 | 45.70766 | 13.50372 | 167° | 13km/h | 19635m | 3.8m/s | -55.2°C | 1.5% | 0hPa | 2.6V | 00:00:00 | 00:00:00 | 00:00:00 | |
| IW2NTF | 2026-09-04 12:15:57 | 45.70808 | 13.50351 | 159° | 22km/h | 19593m | 4.1m/s | -55.6°C | 4.6% | 0hPa | 2.6V | 08:30:00 | 01:49:38 | 00:00:00 | |
| OE5DRO-10 | 2026-09-04 12:15:55 | 45.70793 | 13.50362 | 151° | 15km/h | 19607m | 4.6m/s | -55.5°C | 4.6% | 0hPa | 2.6V | 00:00:00 | 00:00:00 | 00:00:00 | |
| 9A1FER-3 | 2026-09-04 12:15:53 | 45.70803 | 13.50354 | 154° | 15km/h | 19598m | 5.6m/s | -55.5°C | 4.7% | 0hPa | 2.6V | 00:00:00 | 01:49:39 | 00:00:00 | |
| DO3MHA-11 | 2026-09-04 12:15:51 | 45.70812 | 13.50348 | 164° | 16km/h | 19589m | 4.0m/s | -55.6°C | 4.6% | 0hPa | 2.6V | 00:00:00 | 01:49:37 | 00:00:00 | |
| NBG1-10 | 2026-09-04 12:15:50 | 45.70817 | 13.50347 | 163° | 15km/h | 19584m | 5.5m/s | -55.6°C | 4.6% | 0hPa | 2.7V | 00:00:00 | 01:49:36 | 08:30:00 | |
| IW2NTF | 2026-09-04 12:15:47 | 45.70841 | 13.50344 | 148° | 15km/h | 19545m | 4.2m/s | -55.2°C | 4.4% | 0hPa | 2.7V | 08:30:00 | 01:49:28 | 00:00:00 | |
| OE8JPQ-2 | 2026-09-04 12:15:44 | 45.70835 | 13.50347 | 181° | 13km/h | 19556m | 5.1m/s | -55.2°C | 4.5% | 0hPa | 2.6V | 00:00:00 | 01:49:30 | 00:00:00 | |
| DO3MHA-11 | 2026-09-04 12:15:39 | 45.70851 | 13.50336 | 151° | 22km/h | 19531m | 3.8m/s | -55.1°C | 4.4% | 0hPa | 2.6V | 00:00:00 | 01:49:25 | 00:00:00 | |
| 9A1FER-3 | 2026-09-04 12:15:38 | 45.70853 | 13.50333 | 143° | 13km/h | 19527m | 5.3m/s | -55.2°C | 4.4% | 0hPa | 2.6V | 00:00:00 | 01:49:24 | 08:30:00 | |
| IW2NTF | 2026-09-04 12:15:37 | 45.70867 | 13.50325 | 171° | 13km/h | 19498m | 4.3m/s | -55.8°C | 4.6% | 0hPa | 2.7V | 08:30:00 | 01:49:18 | 00:00:00 | |
| OE5DXL-15 | 2026-09-04 12:15:36 | 45.70857 | 13.50328 | 137° | 18km/h | 19517m | 4.2m/s | -55.3°C | 4.4% | 0hPa | 2.6V | 00:00:00 | 00:00:00 | 00:00:00 | |
| IN3HCDX | 2026-09-04 12:15:33 | 45.70861 | 13.50326 | 177° | 9km/h | 19507m | 5.4m/s | -55.8°C | 1.5% | 0hPa | 2.6V | 00:00:00 | 00:00:00 | 00:00:00 | |
| IW2NTF | 2026-09-04 12:15:27 | 45.70892 | 13.50281 | 128° | 22km/h | 19450m | 5m/s | -55.8°C | 4.4% | 0hPa | 2.6V | 08:30:00 | 01:49:08 | 00:00:00 | |
| OE8JPQ-2 | 2026-09-04 12:15:24 | 45.70888 | 13.50293 | 111° | 22km/h | 19459m | 3.7m/s | -55.9°C | 4.5% | 0hPa | 2.7V | 00:00:00 | 00:00:00 | 00:00:00 | |
| 9A1FER-3 | 2026-09-04 12:15:22 | 45.70892 | 13.50281 | 129° | 20km/h | 19450m | 5.0m/s | -55.8°C | 4.4% | 0hPa | 2.6V | 00:00:00 | 01:49:08 | 00:00:00 | |
| IW2NTF | 2026-09-04 12:15:17 | 45.70935 | 13.50235 | 153° | 18km/h | 19403m | 3.6m/s | -56.3°C | 4.6% | 0hPa | 2.6V | 08:30:00 | 01:48:58 | 00:00:00 | |
| NBG1-10 | 2026-09-04 12:15:17 | 45.70913 | 13.50254 | 144° | 24km/h | 19427m | 4.2m/s | -56.0°C | 4.4% | 0hPa | 2.6V | 00:00:00 | 01:49:03 | 00:00:00 | |
| IN3HCDX | 2026-09-04 12:15:13 | 45.70927 | 13.50242 | 151° | 20km/h | 19412m | 5.5m/s | -56.3°C | 1.5% | 0hPa | 2.6V | 00:00:00 | 00:00:00 | 00:00:00 | |
| OE5DXL-15 | 2026-09-04 12:15:06 | 45.70966 | 13.50216 | 151° | 27km/h | 19375m | 3.9m/s | -56.8°C | 4.7% | 0hPa | 2.6V | 00:00:00 | 00:00:00 | 00:00:00 | |
| OE8JPQ-2 | 2026-09-04 12:15:04 | 45.70977 | 13.50206 | 153° | 26km/h | 19366m | 5.5m/s | -57.1°C | 4.8% | 0hPa | 2.7V | 00:00:00 | 00:00:00 | 00:00:00 | |
| IW2NTF | 2026-09-04 12:15:03 | 45.70991 | 13.50197 | 153° | 31km/h | 19356m | 4.3m/s | -57.1°C | 4.8% | 0hPa | 2.7V | 08:30:00 | 01:48:48 | 00:00:00 | |
| OE5DRO-10 | 2026-09-04 12:14:58 | 45.71013 | 13.50178 | 145° | 27km/h | 19338m | 4.8m/s | -57.3°C | 4.8% | 0hPa | 2.7V | 00:00:00 | 00:00:00 | 00:00:00 | |
| IW2NTF | 2026-09-04 12:14:57 | 45.71035 | 13.50150 | 141° | 22km/h | 19310m | 5m/s | -57.4°C | 5% | 0hPa | 2.7V | 08:30:00 | 01:48:38 | 00:00:00 | |
| 9A1FER-3 | 2026-09-04 12:14:49 | 45.71052 | 13.50134 | 143° | 31km/h | 19296m | 5.1m/s | -57.3°C | 4.9% | 0hPa | 2.6V | 00:00:00 | 01:48:35 | 00:00:00 | |
| IN3HCDX | 2026-09-04 12:14:47 | 45.71058 | 13.50127 | 138° | 31km/h | 19291m | 4.5m/s | -57.3°C | 1.6% | 0hPa | 2.6V | 00:00:00 | 00:00:00 | 00:00:00 | |
| OE8JPQ-2 | 2026-09-04 12:14:44 | 45.71080 | 13.50092 | 129° | 33km/h | 19273m | 4.6m/s | -57.4°C | 4.8% | 0hPa | 2.6V | 00:00:00 | 01:48:30 | 00:00:00 | |
| IW2NTF | 2026-09-04 12:14:43 | 45.71089 | 13.50073 | 116° | 31km/h | 19263m | 3.7m/s | -57.5°C | 4.9% | 0hPa | 2.6V | 08:30:00 | 01:48:28 | 00:00:00 | |
| OE5DRO-10 | 2026-09-04 12:14:39 | 45.71101 | 13.50046 | 132° | 33km/h | 19250m | 4.3m/s | -57.5°C | 5.0% | 0hPa | 2.7V | 00:00:00 | 00:00:00 | 00:00:00 | |
| IW2NTF | 2026-09-04 12:14:37 | 45.71137 | 13.49989 | 132° | 33km/h | 19219m | 4.9m/s | -57.6°C | 5% | 0hPa | 2.7V | 08:30:00 | 01:48:18 | 00:00:00 | |
| OE5DXL-15 | 2026-09-04 12:14:36 | 45.71117 | 13.50022 | 132° | 33km/h | 19237m | 4.9m/s | -57.6°C | 5.0% | 0hPa | 2.7V | 00:00:00 | 00:00:00 | 00:00:00 | |
| 9A1FER-3 | 2026-09-04 12:14:32 | 45.71137 | 13.49989 | 133° | 35km/h | 19219m | 4.8m/s | -57.5°C | 5.0% | 0hPa | 2.7V | 00:00:00 | 01:48:18 | 00:00:00 | |
| IN3HCDX | 2026-09-04 12:14:26 | 45.71162 | 13.49938 | 123° | 37km/h | 19195m | 5.5m/s | -57.5°C | 1.6% | 0hPa | 2.7V | 00:00:00 | 00:00:00 | 00:00:00 | |
| IW2NTF | 2026-09-04 12:14:25 | 45.71195 | 13.49868 | 130° | 35km/h | 19162m | 4.3m/s | -57.6°C | 5% | 0hPa | 2.7V | 08:30:00 | 01:48:06 | 00:00:00 | |
| OE8JPQ-2 | 2026-09-04 12:14:24 | 45.71176 | 13.49906 | 120° | 35km/h | 19181m | 4.9m/s | -57.5°C | 5.0% | 0hPa | 2.6V | 00:00:00 | 00:00:00 | 08:30:00 | |
| OE5DRO-10 | 2026-09-04 12:14:20 | 45.71195 | 13.49868 | 131° | 37km/h | 19162m | 4.3m/s | -57.5°C | 5.0% | 0hPa | 2.7V | 00:00:00 | 00:00:00 | 00:00:00 | |
| 9A1FER-3 | 2026-09-04 12:14:17 | 45.71210 | 13.49837 | 122° | 37km/h | 19148m | 4.2m/s | -57.4°C | 4.9% | 0hPa | 2.6V | 00:00:00 | 01:48:03 | 00:00:00 | |
| IW2NTF | 2026-09-04 12:14:15 | 45.71242 | 13.49762 | 125° | 31km/h | 19116m | 5.1m/s | -57.8°C | 5% | 0hPa | 2.6V | 08:30:00 | 01:47:56 | 00:00:00 | |
| OE5DXL-15 | 2026-09-04 12:14:06 | 45.71261 | 13.49722 | 116° | 38km/h | 19098m | 4.6m/s | -57.6°C | 5.0% | 0hPa | 2.7V | 00:00:00 | 00:00:00 | 00:00:00 | |
| IW2NTF | 2026-09-04 12:14:05 | 45.71286 | 13.49639 | 112° | 40km/h | 19070m | 4.4m/s | -57.9°C | 5% | 0hPa | 2.7V | 08:30:00 | 01:47:46 | 00:00:00 | |
| OE8JPQ-2 | 2026-09-04 12:14:04 | 45.71269 | 13.49695 | 113° | 40km/h | 19090m | 5.0m/s | -57.6°C | 5.0% | 0hPa | 2.6V | 00:00:00 | 00:00:00 | 00:00:00 | |
| 9A1FER-3 | 2026-09-04 12:14:02 | 45.71277 | 13.49667 | 114° | 31km/h | 19080m | 3.5m/s | -57.6°C | 5.0% | 0hPa | 2.6V | 00:00:00 | 01:47:48 | 00:00:00 | |
| OE5DRO-10 | 2026-09-04 12:14:01 | 45.71282 | 13.49652 | 114° | 40km/h | 19076m | 5.5m/s | -57.7°C | 5.0% | 0hPa | 2.6V | 00:00:00 | 00:00:00 | 00:00:00 | |
| IW2NTF | 2026-09-04 12:13:55 | 45.71328 | 13.49507 | 107° | 44km/h | 19024m | 4.9m/s | -58.3°C | 5.2% | 0hPa | 2.6V | 08:30:00 | 01:47:36 | 00:00:00 | |
| IW2NTF | 2026-09-04 12:13:45 | 45.71357 | 13.49382 | 109° | 31km/h | 18977m | 4.8m/s | -58°C | 5.1% | 0hPa | 2.7V | 08:30:00 | 01:47:26 | 00:00:00 | |
| OE8JPQ-2 | 2026-09-04 12:13:44 | 45.71347 | 13.49425 | 111° | 31km/h | 18997m | 4.9m/s | -58.0°C | 5.1% | 0hPa | 2.6V | 00:00:00 | 01:47:30 | 00:00:00 | |
| DO3MHA-11 | 2026-09-04 12:13:42 | 45.71353 | 13.49403 | 107° | 33km/h | 18988m | 4.1m/s | -58.0°C | 5.2% | 0hPa | 2.6V | 00:00:00 | 01:47:28 | 00:00:00 | |
| NBG1-10 | 2026-09-04 12:13:38 | 45.71362 | 13.49360 | 107° | 33km/h | 18969m | 5.1m/s | -57.9°C | 5.1% | 0hPa | 2.6V | 00:00:00 | 01:47:24 | 00:00:00 | |
| OE5DXL-15 | 2026-09-04 12:13:36 | 45.71367 | 13.49336 | 106° | 33km/h | 18960m | 3.8m/s | -58.0°C | 5.0% | 0hPa | 2.6V | 00:00:00 | 00:00:00 | 00:00:00 | |
| IW2NTF | 2026-09-04 12:13:35 | 45.71385 | 13.49265 | 107° | 31km/h | 18932m | 5m/s | -58.2°C | 5.2% | 0hPa | 2.6V | 08:30:00 | 01:47:16 | 00:00:00 | |
| IN3HCDX | 2026-09-04 12:13:34 | 45.71369 | 13.49324 | 111° | 37km/h | 18956m | 5.2m/s | -58.2°C | 1.8% | 0hPa | 2.7V | 00:00:00 | 00:00:00 | 00:00:00 | |
| IW2NTF | 2026-09-04 12:13:25 | 45.71399 | 13.49161 | 98° | 40km/h | 18886m | 4m/s | -58.1°C | 5% | 0hPa | 2.7V | 08:30:00 | 01:47:06 | 00:00:00 | |
| OE8JPQ-2 | 2026-09-04 12:13:24 | 45.71392 | 13.49210 | 100° | 33km/h | 18904m | 5.0m/s | -57.9°C | 5.0% | 0hPa | 2.6V | 00:00:00 | 00:00:00 | 00:00:00 | |
| OE5DRO-10 | 2026-09-04 12:13:23 | 45.71393 | 13.49199 | 103° | 33km/h | 18900m | 3.6m/s | -57.9°C | 5.0% | 0hPa | 2.6V | 00:00:00 | 00:00:00 | 00:00:00 | |
| IW2NTF | 2026-09-04 12:13:13 | 45.71411 | 13.49039 | 93° | 26km/h | 18842m | 3.8m/s | -58.4°C | 5% | 0hPa | 2.7V | 08:30:00 | 01:46:56 | 00:00:00 | |
| IN3HCDX | 2026-09-04 12:13:12 | 45.71411 | 13.49067 | 90° | 29km/h | 18856m | 4.3m/s | -58.2°C | 1.7% | 0hPa | 2.6V | 00:00:00 | 00:00:00 | 00:00:00 | |
| DO3MHA-11 | 2026-09-04 12:13:10 | 45.71411 | 13.49039 | 94° | 31km/h | 18843m | 3.7m/s | -58.3°C | 5.0% | 0hPa | 2.6V | 00:00:00 | 01:46:56 | 00:00:00 | |
| OE5DXL-15 | 2026-09-04 12:13:06 | 45.71413 | 13.48995 | 98° | 31km/h | 18825m | 4.3m/s | -58.5°C | 5.0% | 0hPa | 2.6V | 00:00:00 | 00:00:00 | 00:00:00 | |
| IW2NTF | 2026-09-04 12:13:05 | 45.71416 | 13.48924 | 77° | 33km/h | 18799m | 4.5m/s | -58.8°C | 5.1% | 0hPa | 2.6V | 08:30:00 | 01:46:46 | 00:00:00 | |
| NBG1-10 | 2026-09-04 12:13:05 | 45.71414 | 13.48983 | 101° | 31km/h | 18820m | 4.9m/s | -58.5°C | 5.2% | 0hPa | 2.6V | 00:00:00 | 01:46:51 | 00:00:00 | |
| OE8JPQ-2 | 2026-09-04 12:13:04 | 45.71416 | 13.48971 | 103° | 29km/h | 18816m | 3.7m/s | -58.6°C | 5.2% | 0hPa | 2.6V | 00:00:00 | 00:00:00 | 00:00:00 | |
| DO3MHA-11 | 2026-09-04 12:13:00 | 45.71416 | 13.48924 | 78° | 29km/h | 18799m | 4.4m/s | -58.8°C | 5.1% | 0hPa | 2.6V | 00:00:00 | 01:46:46 | 00:00:00 | |
| DO3MHA-12 | 2026-09-04 12:12:54 | 45.71403 | 13.48860 | 75° | 29km/h | 18773m | 3.7m/s | -59.5°C | 5.3% | 0hPa | 2.6V | 00:00:00 | 01:46:40 | 00:00:00 | |
| IW2NTF | 2026-09-04 12:12:53 | 45.71404 | 13.48823 | 108° | 26km/h | 18754m | 4.2m/s | -59.8°C | 5.5% | 0hPa | 2.6V | 08:30:00 | 01:46:36 | 00:00:00 | |
| IN3HCDX | 2026-09-04 12:12:52 | 45.71401 | 13.48850 | 84° | 27km/h | 18768m | 5.3m/s | -59.6°C | 1.9% | 0hPa | 2.6V | 00:00:00 | 00:00:00 | 00:00:00 | |
| DO3MHA-11 | 2026-09-04 12:12:50 | 45.71404 | 13.48823 | 109° | 29km/h | 18755m | 4.1m/s | -59.8°C | 5.5% | 0hPa | 2.6V | 00:00:00 | 01:46:36 | 00:00:00 | |
| IW2NTF | 2026-09-04 12:12:45 | 45.71418 | 13.48719 | 104° | 29km/h | 18710m | 4.4m/s | -60.2°C | 5.9% | 0hPa | 2.6V | 08:30:00 | 01:46:26 | 00:00:00 | |
| OE8JPQ-2 | 2026-09-04 12:12:44 | 45.71415 | 13.48761 | 99° | 29km/h | 18728m | 3.6m/s | -60.3°C | 6.0% | 0hPa | 2.7V | 00:00:00 | 01:46:30 | 00:00:00 | |
| DO3MHA-12 | 2026-09-04 12:12:42 | 45.71416 | 13.48740 | 94° | 24km/h | 18719m | 3.6m/s | -60.2°C | 6.0% | 0hPa | 2.7V | 00:00:00 | 01:46:28 | 08:30:00 | |
| DO3MHA-11 | 2026-09-04 12:12:39 | 45.71420 | 13.48708 | 105° | 33km/h | 18706m | 3.5m/s | -60.2°C | 5.8% | 0hPa | 2.7V | 00:00:00 | 01:46:25 | 00:00:00 | |
| OE5DXL-15 | 2026-09-04 12:12:36 | 45.71423 | 13.48672 | 87° | 24km/h | 18693m | 4.0m/s | -60.2°C | 5.8% | 0hPa | 2.7V | 00:00:00 | 00:00:00 | 00:00:00 | |
| IW2NTF | 2026-09-04 12:12:33 | 45.71408 | 13.48607 | 72° | 26km/h | 18667m | 5.5m/s | -59.9°C | 5.7% | 0hPa | 2.7V | 08:30:00 | 01:46:16 | 00:00:00 | |
| NBG1-10 | 2026-09-04 12:12:32 | 45.71413 | 13.48625 | 65° | 22km/h | 18677m | 4.9m/s | -60.0°C | 5.8% | 0hPa | 2.6V | 00:00:00 | 01:46:18 | 00:00:00 | |
| IN3HCDX | 2026-09-04 12:12:30 | 45.71410 | 13.48616 | 68° | 27km/h | 18672m | 4.5m/s | -59.9°C | 2.0% | 0hPa | 2.7V | 00:00:00 | 00:00:00 | 00:00:00 | |
| DO3MHA-11 | 2026-09-04 12:12:29 | 45.71406 | 13.48598 | 78° | 24km/h | 18662m | 4.9m/s | -59.9°C | 5.8% | 0hPa | 2.7V | 00:00:00 | 01:46:15 | 00:00:00 | |
| OE5DRO-10 | 2026-09-04 12:12:26 | 45.71403 | 13.48573 | 75° | 22km/h | 18648m | 5.2m/s | -59.8°C | 5.7% | 0hPa | 2.6V | 00:00:00 | 00:00:00 | 08:30:00 | |
| IW2NTF | 2026-09-04 12:12:25 | 45.71389 | 13.48527 | 58° | 26km/h | 18619m | 4.5m/s | -59.7°C | 5.7% | 0hPa | 2.6V | 08:30:00 | 01:46:06 | 00:00:00 | |
| OE8JPQ-2 | 2026-09-04 12:12:24 | 45.71399 | 13.48559 | 72° | 22km/h | 18639m | 5.6m/s | -59.8°C | 5.7% | 0hPa | 2.7V | 00:00:00 | 00:00:00 | 00:00:00 | |
| DO3MHA-11 | 2026-09-04 12:12:19 | 45.71386 | 13.48519 | 60° | 22km/h | 18614m | 4.7m/s | -59.6°C | 5.6% | 0hPa | 2.7V | 00:00:00 | 01:46:05 | 00:00:00 | |
| IW2NTF | 2026-09-04 12:12:13 | 45.71371 | 13.48453 | 70° | 18km/h | 18574m | 5.4m/s | -59.5°C | 5.6% | 0hPa | 2.7V | 08:30:00 | 01:45:56 | 00:00:00 | |
| DO3MHA-11 | 2026-09-04 12:12:09 | 45.71369 | 13.48447 | 59° | 22km/h | 18569m | 4.4m/s | -59.3°C | 5.6% | 0hPa | 2.6V | 00:00:00 | 01:45:55 | 00:00:00 | |
| OE5DRO-10 | 2026-09-04 12:12:07 | 45.71363 | 13.48435 | 56° | 20km/h | 18560m | 5.4m/s | -59.4°C | 5.6% | 0hPa | 2.6V | 00:00:00 | 00:00:00 | 00:00:00 | |
| IN3HCDX | 2026-09-04 12:12:06 | 45.71360 | 13.48428 | 56° | 26km/h | 18555m | 4.7m/s | -59.3°C | 2.0% | 0hPa | 2.6V | 00:00:00 | 00:00:00 | 00:00:00 | |
| IW2NTF | 2026-09-04 12:12:05 | 45.71346 | 13.48384 | 84° | 18km/h | 18528m | 3.5m/s | -59.1°C | 5.5% | 0hPa | 2.6V | 08:30:00 | 01:45:46 | 00:00:00 | |
| OE8JPQ-2 | 2026-09-04 12:12:04 | 45.71353 | 13.48412 | 57° | 18km/h | 18546m | 4.8m/s | -59.2°C | 5.6% | 0hPa | 2.7V | 00:00:00 | 00:00:00 | 00:00:00 | |
| DO3MHA-11 | 2026-09-04 12:11:59 | 45.71345 | 13.48378 | 85° | 18km/h | 18524m | 4.5m/s | -59.0°C | 5.5% | 0hPa | 2.7V | 00:00:00 | 01:45:45 | 08:30:00 | |
| IW2NTF | 2026-09-04 12:11:53 | 45.71324 | 13.48331 | 56° | 16km/h | 18483m | 3.9m/s | -59°C | 5.4% | 0hPa | 2.7V | 08:30:00 | 01:45:36 | 00:00:00 | |
| DO3MHA-11 | 2026-09-04 12:11:49 | 45.71321 | 13.48326 | 61° | 20km/h | 18479m | 5.0m/s | -58.9°C | 5.4% | 0hPa | 2.6V | 00:00:00 | 01:45:35 | 00:00:00 | |
| OE5DRO-10 | 2026-09-04 12:11:48 | 45.71319 | 13.48320 | 63° | 18km/h | 18474m | 4.9m/s | -59.0°C | 5.4% | 0hPa | 2.6V | 00:00:00 | 00:00:00 | 00:00:00 | |
| IW2NTF | 2026-09-04 12:11:45 | 45.71301 | 13.48271 | 60° | 20km/h | 18438m | 5m/s | -59°C | 5.6% | 0hPa | 2.6V | 08:30:00 | 01:45:26 | 00:00:00 | |
| OE8JPQ-2 | 2026-09-04 12:11:44 | 45.71310 | 13.48297 | 60° | 18km/h | 18456m | 4.0m/s | -58.9°C | 5.4% | 0hPa | 2.6V | 00:00:00 | 01:45:30 | 00:00:00 | |
| IN3HCDX | 2026-09-04 12:11:40 | 45.71303 | 13.48277 | 64° | 22km/h | 18443m | 4.1m/s | -58.9°C | 1.9% | 0hPa | 2.6V | 00:00:00 | 00:00:00 | 00:00:00 | |
| DO3MHA-11 | 2026-09-04 12:11:39 | 45.71299 | 13.48265 | 60° | 18km/h | 18434m | 4.0m/s | -58.9°C | 5.4% | 0hPa | 2.6V | 00:00:00 | 01:45:25 | 00:00:00 | |
| IV3AMH | 2026-09-04 12:11:37 | 45.71296 | 13.48259 | 64° | 18km/h | 18430m | 4.3m/s | -59.0°C | 2.0% | 0hPa | 2.6V | 00:00:00 | 00:00:00 | 00:00:00 | |
| OE5DXL-15 | 2026-09-04 12:11:35 | 45.71291 | 13.48240 | 72° | 18km/h | 18416m | 3.6m/s | -58.9°C | 5.4% | 0hPa | 2.6V | 00:00:00 | 00:00:00 | 00:00:00 | |
| IW2NTF | 2026-09-04 12:11:33 | 45.71284 | 13.48212 | 75° | 18km/h | 18393m | 4.7m/s | -59°C | 5.4% | 0hPa | 2.6V | 08:30:00 | 01:45:16 | 00:00:00 | |
| DO3MHA-12 | 2026-09-04 12:11:30 | 45.71284 | 13.48212 | 76° | 16km/h | 18393m | 4.7m/s | -58.9°C | 5.4% | 0hPa | 2.6V | 00:00:00 | 01:45:16 | 00:00:00 | |
| DO3MHA-11 | 2026-09-04 12:11:29 | 45.71283 | 13.48206 | 77° | 16km/h | 18389m | 3.6m/s | -59.0°C | 5.4% | 0hPa | 2.6V | 00:00:00 | 01:45:15 | 00:00:00 | |
| NBG1-10 | 2026-09-04 12:11:26 | 45.71280 | 13.48189 | 75° | 20km/h | 18375m | 4.4m/s | -58.8°C | 5.5% | 0hPa | 2.7V | 00:00:00 | 01:45:12 | 00:00:00 | |
| IW2NTF | 2026-09-04 12:11:25 | 45.71278 | 13.48153 | 89° | 16km/h | 18347m | 4.2m/s | -58.6°C | 5.2% | 0hPa | 2.7V | 08:30:00 | 01:45:06 | 00:00:00 | |
| OE8JPQ-2 | 2026-09-04 12:11:24 | 45.71279 | 13.48177 | 82° | 20km/h | 18365m | 4.6m/s | -58.7°C | 5.4% | 0hPa | 2.6V | 00:00:00 | 00:00:00 | 08:30:00 | |
| DO3MHA-12 | 2026-09-04 12:11:20 | 45.71278 | 13.48153 | 90° | 20km/h | 18348m | 4.1m/s | -58.6°C | 5.2% | 0hPa | 2.6V | 00:00:00 | 01:45:06 | 00:00:00 | |
| DO3MHA-11 | 2026-09-04 12:11:19 | 45.71277 | 13.48147 | 88° | 20km/h | 18343m | 5.3m/s | -58.6°C | 5.2% | 0hPa | 2.6V | 00:00:00 | 01:45:05 | 00:00:00 | |
| IW2NTF | 2026-09-04 12:11:13 | 45.71275 | 13.48079 | 96° | 18km/h | 18300m | 4.5m/s | -58.9°C | 5.4% | 0hPa | 2.6V | 08:30:00 | 01:44:56 | 00:00:00 | |
| IN3HCDX | 2026-09-04 12:11:13 | 45.71275 | 13.48110 | 87° | 22km/h | 18319m | 4.7m/s | -58.5°C | 1.9% | 0hPa | 2.6V | 00:00:00 | 00:00:00 | 00:00:00 | |
| DO3MHA-12 | 2026-09-04 12:11:10 | 45.71275 | 13.48079 | 97° | 22km/h | 18300m | 4.4m/s | -58.8°C | 5.4% | 0hPa | 2.6V | 00:00:00 | 01:44:56 | 00:00:00 | |
| DO3MHA-11 | 2026-09-04 12:11:09 | 45.71276 | 13.48073 | 101° | 24km/h | 18296m | 4.1m/s | -58.9°C | 5.5% | 0hPa | 2.6V | 00:00:00 | 01:44:55 | 00:00:00 | |
| OE5DXL-15 | 2026-09-04 12:11:05 | 45.71281 | 13.48041 | 103° | 20km/h | 18279m | 4.7m/s | -58.9°C | 5.4% | 0hPa | 2.6V | 00:00:00 | 00:00:00 | 00:00:00 | |
| IW2NTF | 2026-09-04 12:11:04 | 45.71292 | 13.47984 | 98° | 22km/h | 18246m | 4.5m/s | -59°C | 5.5% | 0hPa | 2.6V | 08:30:00 | 01:44:44 | 00:00:00 | |
| OE8JPQ-2 | 2026-09-04 12:11:04 | 45.71283 | 13.48033 | 103° | 20km/h | 18274m | 4.7m/s | -59.0°C | 5.4% | 0hPa | 2.6V | 00:00:00 | 00:00:00 | 00:00:00 | |
| DO3MHA-12 | 2026-09-04 12:11:00 | 45.71290 | 13.48000 | 109° | 22km/h | 18256m | 3.7m/s | -58.8°C | 5.3% | 0hPa | 2.6V | 00:00:00 | 01:44:46 | 00:00:00 | |
| DO3MHA-11 | 2026-09-04 12:10:59 | 45.71292 | 13.47992 | 104° | 20km/h | 18251m | 5.5m/s | -58.9°C | 5.4% | 0hPa | 2.6V | 00:00:00 | 01:44:45 | 00:00:00 | |
| NBG1-10 | 2026-09-04 12:10:53 | 45.71297 | 13.47945 | 95° | 15km/h | 18223m | 5.1m/s | -58.9°C | 5.5% | 0hPa | 2.7V | 00:00:00 | 01:44:39 | 08:30:00 | |
| OE5DRO-10 | 2026-09-04 12:10:51 | 45.71298 | 13.47932 | 94° | 15km/h | 18214m | 4.3m/s | -58.8°C | 5.6% | 0hPa | 2.7V | 00:00:00 | 00:00:00 | 00:00:00 | |
| DO3MHA-12 | 2026-09-04 12:10:50 | 45.71298 | 13.47925 | 100° | 15km/h | 18209m | 4.9m/s | -58.7°C | 5.6% | 0hPa | 2.7V | 00:00:00 | 01:44:36 | 00:00:00 | |
| DO3MHA-11 | 2026-09-04 12:10:49 | 45.71299 | 13.47919 | 102° | 15km/h | 18205m | 4.3m/s | -58.7°C | 5.5% | 0hPa | 2.7V | 00:00:00 | 01:44:35 | 00:00:00 | |
| IW2NTF | 2026-09-04 12:10:48 | 45.71301 | 13.47903 | 96° | 13km/h | 18191m | 4m/s | -58.8°C | 5.6% | 0hPa | 2.7V | 08:30:00 | 01:44:32 | 00:00:00 | |
| OE8JPQ-2 | 2026-09-04 12:10:44 | 45.71302 | 13.47893 | 100° | 13km/h | 18182m | 5.2m/s | -58.6°C | 5.5% | 0hPa | 2.6V | 00:00:00 | 01:44:30 | 00:00:00 | |
| IW2NTF | 2026-09-04 12:10:41 | 45.71305 | 13.47852 | 99° | 15km/h | 18144m | 5.1m/s | -58.6°C | 5.4% | 0hPa | 2.6V | 08:30:00 | 01:44:22 | 00:00:00 | |
| DO3MHA-12 | 2026-09-04 12:10:40 | 45.71304 | 13.47872 | 89° | 13km/h | 18164m | 4.0m/s | -58.6°C | 5.3% | 0hPa | 2.7V | 00:00:00 | 01:44:26 | 00:00:00 | |
| DO3MHA-11 | 2026-09-04 12:10:39 | 45.71304 | 13.47868 | 90° | 13km/h | 18159m | 4.4m/s | -58.7°C | 5.3% | 0hPa | 2.6V | 00:00:00 | 01:44:25 | 00:00:00 | |
| 9A1FER-3 | 2026-09-04 12:10:33 | 45.71307 | 13.47840 | 120° | 15km/h | 18130m | 5.4m/s | -58.4°C | 5.4% | 0hPa | 2.6V | 00:00:00 | 01:44:19 | 00:00:00 | |
| OE5DRO-10 | 2026-09-04 12:10:32 | 45.71309 | 13.47836 | 123° | 13km/h | 18125m | 4.2m/s | -58.4°C | 5.3% | 0hPa | 2.6V | 00:00:00 | 00:00:00 | 00:00:00 | |
| DO3MHA-12 | 2026-09-04 12:10:30 | 45.71312 | 13.47829 | 122° | 13km/h | 18115m | 5.2m/s | -58.5°C | 5.3% | 0hPa | 2.7V | 00:00:00 | 01:44:16 | 00:00:00 | |
| DO3MHA-11 | 2026-09-04 12:10:29 | 45.71313 | 13.47826 | 115° | 13km/h | 18111m | 4.2m/s | -58.6°C | 5.3% | 0hPa | 2.7V | 00:00:00 | 01:44:15 | 08:30:00 | |
| IW2NTF | 2026-09-04 12:10:28 | 45.71316 | 13.47814 | 104° | 15km/h | 18097m | 3.3m/s | -58.5°C | 5.4% | 0hPa | 2.6V | 08:30:00 | 01:44:12 | 00:00:00 | |
| OE8JPQ-2 | 2026-09-04 12:10:24 | 45.71317 | 13.47805 | 93° | 16km/h | 18089m | 5.1m/s | -58.5°C | 5.3% | 0hPa | 2.6V | 00:00:00 | 00:00:00 | 00:00:00 | |
| DO3MHA-12 | 2026-09-04 12:10:20 | 45.71318 | 13.47785 | 104° | 18km/h | 18071m | 3.9m/s | -58.5°C | 5.4% | 0hPa | 2.7V | 00:00:00 | 01:44:06 | 00:00:00 | |
| DO3MHA-11 | 2026-09-04 12:10:19 | 45.71319 | 13.47779 | 106° | 15km/h | 18067m | 3.6m/s | -58.5°C | 5.3% | 0hPa | 2.7V | 00:00:00 | 01:44:05 | 00:00:00 | |
| IW2NTF | 2026-09-04 12:10:18 | 45.71322 | 13.47765 | 113° | 13km/h | 18054m | 3.8m/s | -58.6°C | 5.2% | 0hPa | 2.7V | 08:30:00 | 01:44:02 | 00:00:00 | |
| 9A1FER-3 | 2026-09-04 12:10:14 | 45.71325 | 13.47756 | 126° | 18km/h | 18044m | 4.4m/s | -58.4°C | 5.2% | 0hPa | 2.6V | 00:00:00 | 01:44:00 | 00:00:00 | |
| OE5DRO-10 | 2026-09-04 12:10:13 | 45.71328 | 13.47751 | 127° | 18km/h | 18040m | 4.4m/s | -58.5°C | 5.2% | 0hPa | 2.6V | 00:00:00 | 00:00:00 | 00:00:00 | |
| IW2NTF | 2026-09-04 12:10:11 | 45.71338 | 13.47711 | 99° | 20km/h | 18007m | 5.3m/s | -58.9°C | 5.5% | 0hPa | 2.6V | 08:30:00 | 01:43:52 | 00:00:00 | |
| DO3MHA-11 | 2026-09-04 12:10:09 | 45.71334 | 13.47732 | 106° | 20km/h | 18022m | 5.4m/s | -58.7°C | 5.4% | 0hPa | 2.6V | 00:00:00 | 01:43:55 | 00:00:00 | |
| OE8JPQ-2 | 2026-09-04 12:10:04 | 45.71339 | 13.47696 | 98° | 20km/h | 17999m | 3.9m/s | -58.9°C | 5.6% | 0hPa | 2.6V | 00:00:00 | 00:00:00 | 00:00:00 | |
| OE5DXL-15 | 2026-09-04 12:10:03 | 45.71340 | 13.47688 | 100° | 20km/h | 17994m | 5.0m/s | -58.8°C | 5.5% | 0hPa | 2.6V | 00:00:00 | 00:00:00 | 00:00:00 | |
| IN3HCDX | 2026-09-04 12:10:02 | 45.71340 | 13.47688 | 101° | 22km/h | 17994m | 5.1m/s | -58.9°C | 2.0% | 0hPa | 2.6V | 00:00:00 | 00:00:00 | 00:00:00 | |
| DO3MHA-12 | 2026-09-04 12:10:00 | 45.71342 | 13.47666 | 98° | 16km/h | 17981m | 5.4m/s | -59.0°C | 5.5% | 0hPa | 2.6V | 00:00:00 | 01:43:46 | 08:30:00 | |
| 9A1FER-3 | 2026-09-04 12:09:59 | 45.71343 | 13.47660 | 93° | 18km/h | 17976m | 4.2m/s | -59.0°C | 5.4% | 0hPa | 2.6V | 00:00:00 | 01:43:45 | 08:30:00 | |
| IW2NTF | 2026-09-04 12:09:58 | 45.71344 | 13.47643 | 97° | 18km/h | 17962m | 3.7m/s | -59°C | 5.4% | 0hPa | 2.7V | 08:30:00 | 01:43:42 | 00:00:00 | |
| OE5DRO-10 | 2026-09-04 12:09:54 | 45.71345 | 13.47629 | 97° | 20km/h | 17954m | 5.4m/s | -59.0°C | 5.4% | 0hPa | 2.6V | 00:00:00 | 00:00:00 | 00:00:00 | |
| DO3MHA-12 | 2026-09-04 12:09:49 | 45.71349 | 13.47596 | 96° | 18km/h | 17931m | 4.7m/s | -58.8°C | 5.6% | 0hPa | 2.6V | 00:00:00 | 01:43:35 | 00:00:00 | |
| IW2NTF | 2026-09-04 12:09:48 | 45.71347 | 13.47576 | 71° | 22km/h | 17918m | 4.8m/s | -58.8°C | 5.6% | 0hPa | 2.6V | 08:30:00 | 01:43:32 | 00:00:00 | |
| NBG1-10 | 2026-09-04 12:09:47 | 45.71348 | 13.47583 | 73° | 27km/h | 17922m | 3.6m/s | -58.7°C | 5.6% | 0hPa | 2.7V | 00:00:00 | 01:43:33 | 00:00:00 | |
| OE8JPQ-2 | 2026-09-04 12:09:44 | 45.71343 | 13.47560 | 70° | 26km/h | 17909m | 4.0m/s | -58.7°C | 5.5% | 0hPa | 2.7V | 00:00:00 | 01:43:30 | 00:00:00 | |
| IN3HCDX | 2026-09-04 12:09:42 | 45.71340 | 13.47551 | 68° | 24km/h | 17904m | 4.6m/s | -58.8°C | 2.0% | 0hPa | 2.7V | 00:00:00 | 00:00:00 | 00:00:00 | |
| DO3MHA-12 | 2026-09-04 12:09:39 | 45.71333 | 13.47523 | 83° | 29km/h | 17886m | 5.0m/s | -58.9°C | 5.4% | 0hPa | 2.7V | 00:00:00 | 01:43:25 | 00:00:00 | |
| IW2NTF | 2026-09-04 12:09:37 | 45.71331 | 13.47499 | 81° | 22km/h | 17872m | 4.6m/s | -58.8°C | 5.5% | 0hPa | 2.7V | 08:30:00 | 01:43:22 | 00:00:00 | |
| OE5DRO-10 | 2026-09-04 12:09:35 | 45.71330 | 13.47491 | 76° | 29km/h | 17868m | 3.9m/s | -58.8°C | 5.5% | 0hPa | 2.7V | 00:00:00 | 00:00:00 | 08:30:00 | |
| IV3AMH | 2026-09-04 12:09:34 | 45.71330 | 13.47491 | 76° | 26km/h | 17868m | 3.9m/s | -58.8°C | 2.1% | 0hPa | 2.7V | 00:00:00 | 00:00:00 | 00:00:00 | |
| OE5DXL-15 | 2026-09-04 12:09:33 | 45.71326 | 13.47471 | 73° | 26km/h | 17859m | 4.9m/s | -58.6°C | 5.5% | 0hPa | 2.7V | 00:00:00 | 00:00:00 | 00:00:00 | |
| IW2NTF | 2026-09-04 12:09:32 | 45.71299 | 13.47403 | 63° | 27km/h | 17826m | 3.7m/s | -58.6°C | 5.5% | 0hPa | 2.7V | 08:30:00 | 01:43:12 | 00:00:00 | |
| 9A1FER-3 | 2026-09-04 12:09:29 | 45.71311 | 13.47430 | 54° | 24km/h | 17840m | 4.3m/s | -58.5°C | 5.5% | 0hPa | 2.7V | 00:00:00 | 01:43:15 | 00:00:00 | |
| DO3MHA-12 | 2026-09-04 12:09:26 | 45.71299 | 13.47403 | 64° | 27km/h | 17826m | 3.6m/s | -58.6°C | 5.5% | 0hPa | 2.7V | 00:00:00 | 01:43:12 | 00:00:00 | |
| OE8JPQ-2 | 2026-09-04 12:09:24 | 45.71293 | 13.47386 | 63° | 26km/h | 17817m | 5.0m/s | -58.4°C | 5.5% | 0hPa | 2.7V | 00:00:00 | 00:00:00 | 00:00:00 | |
| IN3HCDX | 2026-09-04 12:09:22 | 45.71290 | 13.47379 | 65° | 26km/h | 17813m | 4.4m/s | -58.4°C | 2.0% | 0hPa | 2.6V | 00:00:00 | 00:00:00 | 00:00:00 | |
| IW2NTF | 2026-09-04 12:09:21 | 45.71270 | 13.47317 | 57° | 26km/h | 17780m | 4.2m/s | -58.7°C | 5.4% | 0hPa | 2.6V | 08:30:00 | 01:43:02 | 00:00:00 | |
| DO3MHA-11 | 2026-09-04 12:09:19 | 45.71280 | 13.47342 | 66° | 26km/h | 17793m | 5.6m/s | -58.7°C | 5.5% | 0hPa | 2.7V | 00:00:00 | 01:43:05 | 00:00:00 | |
| OE5DRO-10 | 2026-09-04 12:09:16 | 45.71270 | 13.47317 | 58° | 22km/h | 17780m | 4.1m/s | -58.6°C | 5.4% | 0hPa | 2.7V | 00:00:00 | 00:00:00 | 00:00:00 | |
| DO3MHA-12 | 2026-09-04 12:09:14 | 45.71264 | 13.47301 | 63° | 24km/h | 17771m | 4.2m/s | -58.5°C | 5.4% | 0hPa | 2.7V | 00:00:00 | 01:43:00 | 00:00:00 | |
| IW2NTF | 2026-09-04 12:09:09 | 45.71235 | 13.47230 | 56° | 22km/h | 17724m | 5.3m/s | -58.5°C | 5.4% | 0hPa | 2.7V | 08:30:00 | 01:42:50 | 00:00:00 | |
| DO3MHA-11 | 2026-09-04 12:09:09 | 45.71247 | 13.47256 | 67° | 20km/h | 17744m | 3.2m/s | -58.5°C | 5.5% | 0hPa | 2.7V | 00:00:00 | 01:42:54 | 00:00:00 | |
| DO3MHA-12 | 2026-09-04 12:09:04 | 45.71235 | 13.47230 | 57° | 18km/h | 17725m | 5.2m/s | -58.5°C | 5.4% | 0hPa | 2.7V | 00:00:00 | 01:42:50 | 00:00:00 | |
| OE5DXL-15 | 2026-09-04 12:09:03 | 45.71232 | 13.47222 | 63° | 16km/h | 17719m | 5.7m/s | -58.5°C | 5.5% | 0hPa | 2.7V | 00:00:00 | 00:00:00 | 00:00:00 | |
| IN3HCDX | 2026-09-04 12:09:01 | 45.71230 | 13.47215 | 69° | 22km/h | 17715m | 3.4m/s | -58.5°C | 2.0% | 0hPa | 2.7V | 00:00:00 | 00:00:00 | 00:00:00 | |
| IW2NTF | 2026-09-04 12:08:58 | 45.71218 | 13.47167 | 76° | 16km/h | 17676m | 4.6m/s | -58.4°C | 5.4% | 0hPa | 2.7V | 08:30:00 | 01:42:40 | 00:00:00 | |
| DO3MHA-11 | 2026-09-04 12:08:58 | 45.71223 | 13.47191 | 69° | 18km/h | 17695m | 5.1m/s | -58.4°C | 5.6% | 0hPa | 2.7V | 00:00:00 | 01:42:44 | 08:30:00 | |
| DO3MHA-12 | 2026-09-04 12:08:54 | 45.71219 | 13.47167 | 77° | 18km/h | 17676m | 4.6m/s | -58.3°C | 5.4% | 0hPa | 2.7V | 00:00:00 | 01:42:40 | 00:00:00 | |
| DO3MHA-11 | 2026-09-04 12:08:48 | 45.71211 | 13.47128 | 79° | 16km/h | 17650m | 3.9m/s | -58.2°C | 5.5% | 0hPa | 2.6V | 00:00:00 | 01:42:34 | 00:00:00 | |
| IW2NTF | 2026-09-04 12:08:45 | 45.71213 | 13.47105 | 109° | 16km/h | 17633m | 4.4m/s | -58°C | 5.5% | 0hPa | 2.6V | 08:30:00 | 01:42:30 | 00:00:00 | |
| DO3MHA-12 | 2026-09-04 12:08:44 | 45.71212 | 13.47105 | 110° | 15km/h | 17633m | 4.4m/s | -57.9°C | 5.5% | 0hPa | 2.6V | 00:00:00 | 01:42:30 | 00:00:00 | |
| IN3HCDX | 2026-09-04 12:08:40 | 45.71217 | 13.47090 | 109° | 15km/h | 17619m | 4.8m/s | -58.1°C | 1.9% | 0hPa | 2.6V | 00:00:00 | 00:00:00 | 00:00:00 | |
| IW2NTF | 2026-09-04 12:08:39 | 45.71224 | 13.47051 | 110° | 18km/h | 17587m | 4.2m/s | -57.7°C | 5.3% | 0hPa | 2.6V | 08:30:00 | 01:42:20 | 00:00:00 | |
| OE5DRO-10 | 2026-09-04 12:08:38 | 45.71220 | 13.47073 | 104° | 16km/h | 17605m | 5.2m/s | -58.1°C | 5.2% | 0hPa | 2.7V | 00:00:00 | 00:00:00 | 00:00:00 | |
| NBG1-10 | 2026-09-04 12:08:36 | 45.71221 | 13.47062 | 104° | 20km/h | 17596m | 3.5m/s | -57.9°C | 5.2% | 0hPa | 2.6V | 00:00:00 | 01:42:22 | 00:00:00 | |
| DO3MHA-12 | 2026-09-04 12:08:34 | 45.71224 | 13.47051 | 111° | 16km/h | 17588m | 4.1m/s | -57.7°C | 5.3% | 0hPa | 2.6V | 00:00:00 | 01:42:20 | 00:00:00 | |
| OE5DXL-15 | 2026-09-04 12:08:33 | 45.71225 | 13.47045 | 113° | 20km/h | 17583m | 3.6m/s | -57.6°C | 5.2% | 0hPa | 2.6V | 00:00:00 | 00:00:00 | 00:00:00 | |
| DO3MHA-11 | 2026-09-04 12:08:28 | 45.71235 | 13.47019 | 120° | 18km/h | 17561m | 5.4m/s | -57.7°C | 5.1% | 0hPa | 2.6V | 00:00:00 | 01:42:14 | 00:00:00 | |
| IW2NTF | 2026-09-04 12:08:26 | 45.71246 | 13.46998 | 137° | 15km/h | 17543m | 3.9m/s | -57.9°C | 5.2% | 0hPa | 2.6V | 08:30:00 | 01:42:10 | 00:00:00 | |
| DO3MHA-12 | 2026-09-04 12:08:24 | 45.71245 | 13.46998 | 138° | 18km/h | 17543m | 3.9m/s | -57.9°C | 5.2% | 0hPa | 2.6V | 00:00:00 | 01:42:10 | 08:30:00 | |
| IW2NTF | 2026-09-04 12:08:19 | 45.71278 | 13.46953 | 128° | 18km/h | 17498m | 4.9m/s | -58.1°C | 5.3% | 0hPa | 2.7V | 08:30:00 | 01:42:00 | 00:00:00 | |
| OE5DRO-10 | 2026-09-04 12:08:19 | 45.71261 | 13.46977 | 141° | 24km/h | 17521m | 4.8m/s | -58.1°C | 5.3% | 0hPa | 2.6V | 00:00:00 | 00:00:00 | 00:00:00 | |
| DO3MHA-11 | 2026-09-04 12:08:18 | 45.71265 | 13.46973 | 141° | 20km/h | 17517m | 3.9m/s | -58.0°C | 5.3% | 0hPa | 2.6V | 00:00:00 | 01:42:04 | 00:00:00 | |
| DO3MHA-12 | 2026-09-04 12:08:14 | 45.71277 | 13.46953 | 129° | 26km/h | 17498m | 4.8m/s | -58.1°C | 5.3% | 0hPa | 2.6V | 00:00:00 | 01:42:00 | 00:00:00 | |
| IW2NTF | 2026-09-04 12:08:09 | 45.71327 | 13.46892 | 142° | 31km/h | 17453m | 3.8m/s | -58.4°C | 5.5% | 0hPa | 2.6V | 08:30:00 | 01:41:50 | 00:00:00 | |
| DO3MHA-11 | 2026-09-04 12:08:09 | 45.71302 | 13.46916 | 144° | 26km/h | 17470m | 4.7m/s | -58.2°C | 5.3% | 0hPa | 2.6V | 00:00:00 | 01:41:54 | 00:00:00 | |
| OE8JPQ-2 | 2026-09-04 12:08:04 | 45.71327 | 13.46892 | 143° | 27km/h | 17453m | 3.8m/s | -58.4°C | 5.5% | 0hPa | 2.6V | 00:00:00 | 00:00:00 | 00:00:00 | |
| NBG1-10 | 2026-09-04 12:08:03 | 45.71333 | 13.46885 | 139° | 27km/h | 17449m | 3.3m/s | 0°C | 0% | 0hPa | 2.6V | 00:00:00 | 01:41:49 | 00:00:00 | |
| OE5DRO-10 | 2026-09-04 12:08:00 | 45.71344 | 13.46867 | 121° | 27km/h | 17437m | 3.2m/s | -58.6°C | 5.5% | 0hPa | 2.6V | 00:00:00 | 00:00:00 | 00:00:00 | |
| IW2NTF | 2026-09-04 12:07:58 | 45.71373 | 13.46814 | 132° | 33km/h | 17403m | 4.5m/s | -58.5°C | 5.6% | 0hPa | 2.6V | 08:30:00 | 01:41:38 | 00:00:00 | |
| DO3MHA-11 | 2026-09-04 12:07:58 | 45.71349 | 13.46855 | 116° | 27km/h | 17428m | 4.3m/s | -58.5°C | 5.5% | 0hPa | 2.6V | 00:00:00 | 01:41:44 | 00:00:00 | |
| 9A1FER-3 | 2026-09-04 12:07:54 | 45.71362 | 13.46830 | 136° | 31km/h | 17412m | 3.7m/s | 0°C | 0% | 0hPa | 2.7V | 00:00:00 | 01:41:40 | 00:00:00 | |
| DO3MHA-11 | 2026-09-04 12:07:48 | 45.71394 | 13.46778 | 131° | 29km/h | 17385m | 4.2m/s | -58.4°C | 5.5% | 0hPa | 2.7V | 00:00:00 | 01:41:34 | 00:00:00 | |
| IW2NTF | 2026-09-04 12:07:47 | 45.71419 | 13.46725 | 120° | 29km/h | 17358m | 4.1m/s | -58.2°C | 5.5% | 0hPa | 2.7V | 08:30:00 | 01:41:28 | 00:00:00 | |
| OE8JPQ-2 | 2026-09-04 12:07:45 | 45.71411 | 13.46743 | 122° | 27km/h | 17367m | 5.3m/s | -58.3°C | 5.5% | 0hPa | 2.7V | 00:00:00 | 01:41:30 | 00:00:00 | |
| DO3MHA-12 | 2026-09-04 12:07:44 | 45.71411 | 13.46743 | 122° | 27km/h | 17367m | 5.3m/s | -58.3°C | 5.5% | 0hPa | 2.7V | 00:00:00 | 01:41:30 | 00:00:00 | |
| OE5DRO-10 | 2026-09-04 12:07:41 | 45.71423 | 13.46716 | 119° | 27km/h | 17353m | 4.9m/s | -58.2°C | 5.4% | 0hPa | 2.7V | 00:00:00 | 00:00:00 | 00:00:00 | |
| 9A1FER-3 | 2026-09-04 12:07:39 | 45.71429 | 13.46697 | 119° | 27km/h | 17345m | 4.9m/s | 0°C | 0% | 0hPa | 2.6V | 00:00:00 | 01:41:25 | 00:00:00 | |
| DO3MHA-11 | 2026-09-04 12:07:38 | 45.71433 | 13.46689 | 122° | 27km/h | 17340m | 4.6m/s | -58.3°C | 5.5% | 0hPa | 2.6V | 00:00:00 | 01:41:24 | 00:00:00 | |
| IW2NTF | 2026-09-04 12:07:36 | 45.71455 | 13.46640 | 120° | 29km/h | 17314m | 5.3m/s | -58.3°C | 5.4% | 0hPa | 2.6V | 08:30:00 | 01:41:18 | 00:00:00 | |
| DO3MHA-12 | 2026-09-04 12:07:34 | 45.71447 | 13.46658 | 123° | 27km/h | 17322m | 4.3m/s | -58.3°C | 5.4% | 0hPa | 2.6V | 00:00:00 | 01:41:20 | 00:00:00 | |
| OE5DXL-15 | 2026-09-04 12:07:33 | 45.71451 | 13.46649 | 121° | 26km/h | 17318m | 3.8m/s | -58.3°C | 5.4% | 0hPa | 2.6V | 00:00:00 | 00:00:00 | 08:30:00 | |
| NBG1-10 | 2026-09-04 12:07:30 | 45.71462 | 13.46622 | 119° | 26km/h | 17304m | 4.7m/s | 0°C | 0% | 0hPa | 2.7V | 00:00:00 | 01:41:16 | 00:00:00 | |
| DO3MHA-11 | 2026-09-04 12:07:28 | 45.71469 | 13.46603 | 118° | 26km/h | 17295m | 4.3m/s | -58.3°C | 5.4% | 0hPa | 2.7V | 00:00:00 | 01:41:14 | 08:30:00 | |
| 9A1FER-3 | 2026-09-04 12:07:24 | 45.71482 | 13.46570 | 117° | 24km/h | 17277m | 4.8m/s | 0°C | 0% | 0hPa | 2.7V | 00:00:00 | 01:41:10 | 00:00:00 | |
| IW2NTF | 2026-09-04 12:07:23 | 45.71487 | 13.46554 | 113° | 26km/h | 17268m | 3.7m/s | -58.4°C | 5.6% | 0hPa | 2.7V | 08:30:00 | 01:41:08 | 00:00:00 | |
| OE5DRO-10 | 2026-09-04 12:07:22 | 45.71487 | 13.46553 | 114° | 24km/h | 17268m | 3.7m/s | -58.3°C | 5.6% | 0hPa | 2.7V | 00:00:00 | 00:00:00 | 00:00:00 | |
| IW2NTF | 2026-09-04 12:07:18 | 45.71507 | 13.46470 | 101° | 26km/h | 17222m | 5m/s | -58.6°C | 5.5% | 0hPa | 2.7V | 08:30:00 | 01:40:58 | 00:00:00 | |
| DO3MHA-12 | 2026-09-04 12:07:14 | 45.71504 | 13.46487 | 106° | 24km/h | 17232m | 4.2m/s | -58.5°C | 5.5% | 0hPa | 2.7V | 00:00:00 | 01:41:00 | 00:00:00 | |
| 9A1FER-3 | 2026-09-04 12:07:09 | 45.71509 | 13.46444 | 95° | 46km/h | 17208m | 4.2m/s | 0°C | 0% | 0hPa | 2.7V | 00:00:00 | 01:40:55 | 00:00:00 | |
| DO3MHA-11 | 2026-09-04 12:07:08 | 45.71510 | 13.46436 | 96° | 24km/h | 17204m | 4.5m/s | -58.5°C | 5.4% | 0hPa | 2.7V | 00:00:00 | 01:40:54 | 00:00:00 | |
| IW2NTF | 2026-09-04 12:07:06 | 45.71513 | 13.46387 | 95° | 24km/h | 17176m | 5.2m/s | -58.5°C | 5.5% | 0hPa | 2.7V | 08:30:00 | 01:40:48 | 00:00:00 | |
| DO3MHA-12 | 2026-09-04 12:07:04 | 45.71512 | 13.46403 | 95° | 22km/h | 17185m | 4.4m/s | -58.3°C | 5.4% | 0hPa | 2.6V | 00:00:00 | 01:40:50 | 00:00:00 | |
| OE5DXL-15 | 2026-09-04 12:07:03 | 45.71512 | 13.46395 | 95° | 27km/h | 17181m | 3.5m/s | -58.3°C | 5.4% | 0hPa | 2.6V | 00:00:00 | 00:00:00 | 00:00:00 | |
| DO3MHA-11 | 2026-09-04 12:06:58 | 45.71515 | 13.46353 | 94° | 24km/h | 17158m | 3.9m/s | -58.7°C | 5.7% | 0hPa | 2.6V | 00:00:00 | 01:40:44 | 00:00:00 | |
| NBG1-10 | 2026-09-04 12:06:57 | 45.71515 | 13.46345 | 97° | 29km/h | 17154m | 4.3m/s | 0°C | 0% | 0hPa | 2.6V | 00:00:00 | 01:40:43 | 00:00:00 | |
| DO3MHA-12 | 2026-09-04 12:06:54 | 45.71520 | 13.46321 | 110° | 27km/h | 17140m | 4.4m/s | -59.1°C | 5.7% | 0hPa | 2.6V | 00:00:00 | 01:40:40 | 08:30:00 | |
| IW2NTF | 2026-09-04 12:06:53 | 45.71524 | 13.46305 | 110° | 24km/h | 17130m | 4.1m/s | -59.1°C | 5.5% | 0hPa | 2.6V | 08:30:00 | 01:40:38 | 00:00:00 | |
| DO3MHA-11 | 2026-09-04 12:06:48 | 45.71535 | 13.46269 | 117° | 29km/h | 17113m | 3.7m/s | -59.3°C | 5.5% | 0hPa | 2.6V | 00:00:00 | 01:40:34 | 00:00:00 | |
| IW2NTF | 2026-09-04 12:06:47 | 45.71561 | 13.46216 | 130° | 31km/h | 17085m | 5.1m/s | -59.2°C | 5.8% | 0hPa | 2.6V | 08:30:00 | 01:40:28 | 00:00:00 | |
| OE5DRO-10 | 2026-09-04 12:06:44 | 45.71565 | 13.46207 | 131° | 29km/h | 17081m | 4.5m/s | -59.1°C | 5.9% | 0hPa | 2.6V | 00:00:00 | 00:00:00 | 08:30:00 | |
| DO3MHA-11 | 2026-09-04 12:06:38 | 45.71581 | 13.46184 | 137° | 29km/h | 17067m | 4.7m/s | -59.3°C | 6.0% | 0hPa | 2.7V | 00:00:00 | 01:40:24 | 00:00:00 | |
| IN3HCDX | 2026-09-04 12:06:37 | 45.71581 | 13.46184 | 138° | 31km/h | 17067m | 4.8m/s | -59.3°C | 2.3% | 0hPa | 2.7V | 00:00:00 | 00:00:00 | 00:00:00 | |
| IW2NTF | 2026-09-04 12:06:36 | 45.71616 | 13.46142 | 143° | 29km/h | 17040m | 4.5m/s | -59.5°C | 5.9% | 0hPa | 2.7V | 08:30:00 | 01:40:18 | 00:00:00 | |
| DO3MHA-12 | 2026-09-04 12:06:34 | 45.71604 | 13.46155 | 140° | 29km/h | 17049m | 3.9m/s | -59.5°C | 5.8% | 0hPa | 2.6V | 00:00:00 | 01:40:20 | 00:00:00 | |
| OE5DXL-15 | 2026-09-04 12:06:33 | 45.71610 | 13.46148 | 141° | 31km/h | 17045m | 5.3m/s | -59.5°C | 5.8% | 0hPa | 2.6V | 00:00:00 | 00:00:00 | 00:00:00 | |
| DO3MHA-11 | 2026-09-04 12:06:28 | 45.71639 | 13.46117 | 143° | 33km/h | 17022m | 4.9m/s | -59.6°C | 5.9% | 0hPa | 2.6V | 00:00:00 | 01:40:14 | 00:00:00 | |
| IW2NTF | 2026-09-04 12:06:24 | 45.71687 | 13.46025 | 114° | 31km/h | 16978m | 4m/s | -59.6°C | 6.3% | 0hPa | 2.7V | 08:30:00 | 01:40:04 | 00:00:00 | |
| DO3MHA-12 | 2026-09-04 12:06:24 | 45.71661 | 13.46087 | 130° | 33km/h | 17004m | 3.6m/s | -59.5°C | 6.0% | 0hPa | 2.7V | 00:00:00 | 01:40:10 | 00:00:00 | |
| DO3MHA-11 | 2026-09-04 12:06:18 | 45.71686 | 13.46025 | 115° | 29km/h | 16978m | 3.9m/s | -59.6°C | 6.3% | 0hPa | 2.7V | 00:00:00 | 01:40:04 | 00:00:00 | |
| IN3HCDX | 2026-09-04 12:06:17 | 45.71690 | 13.46015 | 115° | 31km/h | 16974m | 4.5m/s | -59.6°C | 2.5% | 0hPa | 2.7V | 00:00:00 | 00:00:00 | 00:00:00 | |
| DO3MHA-12 | 2026-09-04 12:06:14 | 45.71699 | 13.45986 | 116° | 29km/h | 16960m | 5.4m/s | -59.4°C | 6.1% | 0hPa | 2.7V | 00:00:00 | 01:40:00 | 00:00:00 | |
| IW2NTF | 2026-09-04 12:06:10 | 45.71717 | 13.45930 | 110° | 27km/h | 16932m | 4.7m/s | -59.4°C | 6% | 0hPa | 2.7V | 08:30:00 | 01:39:54 | 00:00:00 | |
| DO3MHA-11 | 2026-09-04 12:06:08 | 45.71717 | 13.45930 | 111° | 29km/h | 16932m | 4.7m/s | -59.4°C | 6.0% | 0hPa | 2.7V | 00:00:00 | 01:39:54 | 00:00:00 | |
| OE5DRO-10 | 2026-09-04 12:06:05 | 45.71724 | 13.45899 | 106° | 27km/h | 16919m | 4.7m/s | -59.1°C | 6.1% | 0hPa | 2.7V | 00:00:00 | 00:00:00 | 00:00:00 | |
| DO3MHA-12 | 2026-09-04 12:06:04 | 45.71726 | 13.45888 | 104° | 26km/h | 16914m | 4.4m/s | -59.0°C | 6.2% | 0hPa | 2.7V | 00:00:00 | 01:39:50 | 00:00:00 | |
| IW2NTF | 2026-09-04 12:06:03 | 45.71734 | 13.45830 | 107° | 24km/h | 16887m | 5.3m/s | -59.1°C | 6.1% | 0hPa | 2.7V | 08:30:00 | 01:39:44 | 00:00:00 | |
| OE5DXL-15 | 2026-09-04 12:06:03 | 45.71727 | 13.45878 | 101° | 27km/h | 16909m | 5.3m/s | -59.0°C | 6.1% | 0hPa | 2.6V | 00:00:00 | 00:00:00 | 00:00:00 | |
| DO3MHA-11 | 2026-09-04 12:05:58 | 45.71734 | 13.45830 | 108° | 27km/h | 16887m | 5.2m/s | -59.1°C | 6.1% | 0hPa | 2.7V | 00:00:00 | 01:39:44 | 08:30:00 | |
| IN3HCDX | 2026-09-04 12:05:55 | 45.71738 | 13.45815 | 117° | 22km/h | 16878m | 3.9m/s | -58.9°C | 2.5% | 0hPa | 2.7V | 00:00:00 | 00:00:00 | 00:00:00 | |
| DO3MHA-12 | 2026-09-04 12:05:54 | 45.71744 | 13.45799 | 119° | 27km/h | 16869m | 3.9m/s | -58.8°C | 6.1% | 0hPa | 2.7V | 00:00:00 | 01:39:40 | 00:00:00 | |
| IW2NTF | 2026-09-04 12:05:50 | 45.71765 | 13.45743 | 115° | 29km/h | 16842m | 3.9m/s | -58.7°C | 5.9% | 0hPa | 2.7V | 08:30:00 | 01:39:34 | 00:00:00 | |
| DO3MHA-11 | 2026-09-04 12:05:48 | 45.71765 | 13.45742 | 116° | 26km/h | 16842m | 3.8m/s | -58.7°C | 5.9% | 0hPa | 2.7V | 00:00:00 | 01:39:34 | 00:00:00 | |
| OE5DRO-10 | 2026-09-04 12:05:46 | 45.71771 | 13.45725 | 115° | 26km/h | 16833m | 3.7m/s | -58.7°C | 5.9% | 0hPa | 2.7V | 00:00:00 | 00:00:00 | 00:00:00 | |
| OE8JPQ-2 | 2026-09-04 12:05:44 | 45.71775 | 13.45710 | 116° | 27km/h | 16825m | 4.6m/s | -58.6°C | 5.9% | 0hPa | 2.6V | 00:00:00 | 01:39:30 | 00:00:00 | |
| NBG1-10 | 2026-09-04 12:05:41 | 45.71785 | 13.45687 | 124° | 27km/h | 16812m | 4.5m/s | 0°C | 0% | 0hPa | 2.6V | 00:00:00 | 01:39:27 | 08:30:00 | |
| IW2NTF | 2026-09-04 12:05:39 | 45.71796 | 13.45665 | 126° | 27km/h | 16799m | 5.1m/s | -58.5°C | 6% | 0hPa | 2.6V | 08:30:00 | 01:39:24 | 00:00:00 | |
| DO3MHA-11 | 2026-09-04 12:05:38 | 45.71796 | 13.45665 | 127° | 27km/h | 16799m | 5.0m/s | -58.5°C | 6.0% | 0hPa | 2.7V | 00:00:00 | 01:39:24 | 00:00:00 | |
| DO3MHA-12 | 2026-09-04 12:05:34 | 45.71812 | 13.45631 | 126° | 27km/h | 16782m | 4.1m/s | -58.5°C | 6.0% | 0hPa | 2.7V | 00:00:00 | 01:39:20 | 00:00:00 | |
| OE5DXL-15 | 2026-09-04 12:05:33 | 45.71816 | 13.45624 | 125° | 27km/h | 16778m | 4.1m/s | -58.6°C | 6.0% | 0hPa | 2.7V | 00:00:00 | 00:00:00 | 00:00:00 | |
| IW2NTF | 2026-09-04 12:05:30 | 45.71837 | 13.45586 | 136° | 26km/h | 16755m | 4.1m/s | -59.1°C | 6.2% | 0hPa | 2.7V | 08:30:00 | 01:39:14 | 00:00:00 | |
| DO3MHA-11 | 2026-09-04 12:05:28 | 45.71837 | 13.45586 | 137° | 27km/h | 16755m | 4.1m/s | -59.0°C | 6.2% | 0hPa | 2.7V | 00:00:00 | 01:39:14 | 00:00:00 | |
| OE5DRO-10 | 2026-09-04 12:05:27 | 45.71842 | 13.45579 | 137° | 27km/h | 16752m | 4.2m/s | -59.0°C | 6.2% | 0hPa | 2.6V | 00:00:00 | 00:00:00 | 00:00:00 | |
| DO3MHA-12 | 2026-09-04 12:05:24 | 45.71856 | 13.45558 | 137° | 29km/h | 16739m | 4.8m/s | -59.2°C | 6.2% | 0hPa | 2.6V | 00:00:00 | 01:39:10 | 08:30:00 | |
| IW2NTF | 2026-09-04 12:05:19 | 45.71886 | 13.45515 | 132° | 27km/h | 16713m | 4.9m/s | -59.5°C | 6.5% | 0hPa | 2.6V | 08:30:00 | 01:39:04 | 00:00:00 | |
| DO3MHA-11 | 2026-09-04 12:05:18 | 45.71886 | 13.45515 | 133° | 27km/h | 16713m | 4.8m/s | -59.5°C | 6.5% | 0hPa | 2.7V | 00:00:00 | 01:39:04 | 00:00:00 | |
| IV3AMH | 2026-09-04 12:05:15 | 45.71895 | 13.45501 | 135° | 27km/h | 16705m | 4.0m/s | -59.6°C | 3.0% | 0hPa | 2.7V | 00:00:00 | 00:00:00 | 00:00:00 | |
| IW2NTF | 2026-09-04 12:05:13 | 45.71930 | 13.45439 | 114° | 27km/h | 16670m | 3.8m/s | -60°C | 6.7% | 0hPa | 2.7V | 08:30:00 | 01:38:54 | 00:00:00 | |
| DO3MHA-12 | 2026-09-04 12:05:13 | 45.71910 | 13.45477 | 133° | 27km/h | 16691m | 4.5m/s | -59.6°C | 6.8% | 0hPa | 2.7V | 00:00:00 | 01:38:59 | 00:00:00 | |
| IN3HCDX | 2026-09-04 12:05:12 | 45.71910 | 13.45477 | 134° | 27km/h | 16691m | 4.5m/s | -59.7°C | 3.0% | 0hPa | 2.7V | 00:00:00 | 00:00:00 | 00:00:00 | |
| DO3MHA-11 | 2026-09-04 12:05:08 | 45.71930 | 13.45439 | 115° | 27km/h | 16670m | 3.8m/s | -60.0°C | 6.7% | 0hPa | 2.7V | 00:00:00 | 01:38:54 | 00:00:00 | |
| OE8JPQ-2 | 2026-09-04 12:05:04 | 45.71942 | 13.45403 | 121° | 31km/h | 16652m | 5.1m/s | -60.1°C | 6.7% | 0hPa | 2.7V | 00:00:00 | 00:00:00 | 00:00:00 | |
| DO3MHA-12 | 2026-09-04 12:05:03 | 45.71945 | 13.45395 | 126° | 29km/h | 16648m | 4.0m/s | -60.0°C | 6.6% | 0hPa | 2.7V | 00:00:00 | 01:38:49 | 00:00:00 | |
| IW2NTF | 2026-09-04 12:05:00 | 45.71968 | 13.45355 | 122° | 31km/h | 16626m | 4.6m/s | -60.3°C | 6.8% | 0hPa | 2.7V | 08:30:00 | 01:38:44 | 00:00:00 | |
| OE5DXL-15 | 2026-09-04 12:05:00 | 45.71959 | 13.45371 | 132° | 29km/h | 16635m | 3.4m/s | -60.2°C | 6.7% | 0hPa | 2.7V | 00:00:00 | 00:00:00 | 00:00:00 | |
| DO3MHA-11 | 2026-09-04 12:04:58 | 45.71968 | 13.45355 | 123° | 33km/h | 16627m | 4.6m/s | -60.2°C | 6.8% | 0hPa | 2.7V | 00:00:00 | 01:38:44 | 00:00:00 | |
| DO3MHA-12 | 2026-09-04 12:04:53 | 45.71988 | 13.45305 | 121° | 33km/h | 16605m | 4.7m/s | -60.8°C | 7.3% | 0hPa | 2.6V | 00:00:00 | 01:38:39 | 00:00:00 | |
| IN3HCDX | 2026-09-04 12:04:50 | 45.71997 | 13.45284 | 120° | 35km/h | 16596m | 3.3m/s | -60.8°C | 3.3% | 0hPa | 2.7V | 00:00:00 | 00:00:00 | 00:00:00 | |
| IW2NTF | 2026-09-04 12:04:49 | 45.72010 | 13.45253 | 121° | 31km/h | 16584m | 3.5m/s | -61°C | 7.2% | 0hPa | 2.7V | 08:30:00 | 01:38:34 | 00:00:00 | |
| OE5DRO-10 | 2026-09-04 12:04:49 | 45.72010 | 13.45253 | 122° | 35km/h | 16584m | 3.4m/s | -61.0°C | 7.2% | 0hPa | 2.7V | 00:00:00 | 00:00:00 | 00:00:00 | |
| DO3MHA-11 | 2026-09-04 12:04:48 | 45.72010 | 13.45253 | 122° | 35km/h | 16584m | 3.4m/s | -61.0°C | 7.2% | 0hPa | 2.7V | 00:00:00 | 01:38:34 | 00:00:00 | |
| OE8JPQ-2 | 2026-09-04 12:04:44 | 45.72024 | 13.45210 | 115° | 35km/h | 16567m | 4.5m/s | -60.9°C | 7.2% | 0hPa | 2.7V | 00:00:00 | 01:38:30 | 00:00:00 | |
| DO3MHA-12 | 2026-09-04 12:04:43 | 45.72028 | 13.45198 | 117° | 35km/h | 16563m | 4.3m/s | -60.9°C | 7.2% | 0hPa | 2.7V | 00:00:00 | 01:38:29 | 00:00:00 | |
| IW2NTF | 2026-09-04 12:04:40 | 45.72048 | 13.45138 | 119° | 37km/h | 16541m | 5m/s | -60.9°C | 7.2% | 0hPa | 2.7V | 08:30:00 | 01:38:24 | 00:00:00 | |
| DO3MHA-12 | 2026-09-04 12:04:33 | 45.72071 | 13.45087 | 121° | 33km/h | 16521m | 3.4m/s | -60.9°C | 7.2% | 0hPa | 2.6V | 00:00:00 | 01:38:19 | 00:00:00 | |
| IW2NTF | 2026-09-04 12:04:30 | 45.72097 | 13.45038 | 125° | 31km/h | 16498m | 5.2m/s | -61°C | 7% | 0hPa | 2.6V | 08:30:00 | 01:38:14 | 00:00:00 | |
| IN3HCDX | 2026-09-04 12:04:29 | 45.72087 | 13.45056 | 131° | 35km/h | 16508m | 4.4m/s | -60.8°C | 3.1% | 0hPa | 2.7V | 00:00:00 | 00:00:00 | 00:00:00 | |
| OE8JPQ-2 | 2026-09-04 12:04:24 | 45.72115 | 13.45003 | 132° | 37km/h | 16480m | 3.8m/s | -61.3°C | 7.4% | 0hPa | 2.7V | 00:00:00 | 00:00:00 | 00:00:00 | |
| DO3MHA-12 | 2026-09-04 12:04:23 | 45.72121 | 13.44993 | 132° | 35km/h | 16476m | 5.2m/s | -61.3°C | 7.4% | 0hPa | 2.7V | 00:00:00 | 01:38:09 | 00:00:00 | |
| IW2NTF | 2026-09-04 12:04:19 | 45.72157 | 13.44951 | 145° | 37km/h | 16452m | 4.8m/s | -61.4°C | 7.4% | 0hPa | 2.7V | 08:30:00 | 01:38:04 | 00:00:00 | |
| DO3MHA-11 | 2026-09-04 12:04:18 | 45.72157 | 13.44951 | 146° | 35km/h | 16453m | 4.8m/s | -61.3°C | 7.4% | 0hPa | 2.7V | 00:00:00 | 01:38:04 | 00:00:00 | |
| IV3AMH | 2026-09-04 12:04:17 | 45.72164 | 13.44943 | 145° | 35km/h | 16448m | 4.7m/s | -61.4°C | 3.4% | 0hPa | 2.7V | 00:00:00 | 00:00:00 | 00:00:00 | |
| DO3MHA-12 | 2026-09-04 12:04:13 | 45.72192 | 13.44915 | 148° | 38km/h | 16431m | 4.5m/s | -61.1°C | 7.2% | 0hPa | 2.7V | 00:00:00 | 01:37:59 | 00:00:00 | |
| IW2NTF | 2026-09-04 12:04:10 | 45.72231 | 13.44878 | 146° | 40km/h | 16409m | 5.2m/s | -61.2°C | 7.1% | 0hPa | 2.7V | 08:30:00 | 01:37:54 | 00:00:00 | |
| IN3HCDX | 2026-09-04 12:04:09 | 45.72215 | 13.44893 | 147° | 37km/h | 16418m | 4.3m/s | -61.2°C | 3.3% | 0hPa | 2.7V | 00:00:00 | 00:00:00 | 00:00:00 | |
| DO3MHA-11 | 2026-09-04 12:04:08 | 45.72231 | 13.44878 | 147° | 40km/h | 16409m | 5.1m/s | -61.1°C | 7.1% | 0hPa | 2.7V | 00:00:00 | 01:37:54 | 00:00:00 | |
| OE8JPQ-2 | 2026-09-04 12:04:04 | 45.72263 | 13.44842 | 137° | 40km/h | 16391m | 3.3m/s | -61.3°C | 7.3% | 0hPa | 2.7V | 00:00:00 | 00:00:00 | 00:00:00 | |
| DO3MHA-12 | 2026-09-04 12:04:02 | 45.72278 | 13.44822 | 136° | 37km/h | 16382m | 4.2m/s | -61.5°C | 7.6% | 0hPa | 2.7V | 00:00:00 | 01:37:48 | 00:00:00 | |
| IW2NTF | 2026-09-04 12:03:59 | 45.72305 | 13.44784 | 140° | 35km/h | 16365m | 3.6m/s | -61.6°C | 7.7% | 0hPa | 2.7V | 08:30:00 | 01:37:44 | 00:00:00 | |
| DO3MHA-11 | 2026-09-04 12:03:58 | 45.72305 | 13.44784 | 141° | 40km/h | 16365m | 3.6m/s | -61.6°C | 7.7% | 0hPa | 2.7V | 00:00:00 | 01:37:44 | 00:00:00 | |
| DO3MHA-12 | 2026-09-04 12:03:52 | 45.72349 | 13.44735 | 136° | 44km/h | 16340m | 4.2m/s | -61.7°C | 7.6% | 0hPa | 2.7V | 00:00:00 | 01:37:38 | 08:30:00 | |
| IW2NTF | 2026-09-04 12:03:49 | 45.72381 | 13.44690 | 133° | 42km/h | 16321m | 4.4m/s | -61.7°C | 7.5% | 0hPa | 2.8V | 08:30:00 | 01:37:34 | 00:00:00 | |
| DO3MHA-11 | 2026-09-04 12:03:48 | 45.72381 | 13.44690 | 134° | 42km/h | 16321m | 4.4m/s | -61.6°C | 7.5% | 0hPa | 2.7V | 00:00:00 | 01:37:34 | 00:00:00 | |
| OE8JPQ-2 | 2026-09-04 12:03:44 | 45.72412 | 13.44647 | 138° | 40km/h | 16304m | 4.0m/s | -61.5°C | 7.5% | 0hPa | 2.7V | 00:00:00 | 01:37:30 | 00:00:00 | |
| OE5DXL-15 | 2026-09-04 12:03:43 | 45.72420 | 13.44636 | 136° | 38km/h | 16299m | 5.2m/s | -61.5°C | 7.4% | 0hPa | 2.7V | 00:00:00 | 00:00:00 | 00:00:00 | |
| DO3MHA-12 | 2026-09-04 12:03:42 | 45.72427 | 13.44626 | 132° | 42km/h | 16294m | 4.7m/s | -61.6°C | 7.5% | 0hPa | 2.7V | 00:00:00 | 01:37:28 | 00:00:00 | |
| IW2NTF | 2026-09-04 12:03:39 | 45.72453 | 13.44576 | 123° | 44km/h | 16276m | 4.6m/s | -61.7°C | 7.6% | 0hPa | 2.7V | 08:30:00 | 01:37:24 | 00:00:00 | |
| DO3MHA-11 | 2026-09-04 12:03:38 | 45.72453 | 13.44576 | 124° | 40km/h | 16276m | 4.6m/s | -61.7°C | 7.6% | 0hPa | 2.7V | 00:00:00 | 01:37:24 | 00:00:00 | |
| OE5DRO-10 | 2026-09-04 12:03:33 | 45.72486 | 13.44517 | 135° | 40km/h | 16253m | 3.9m/s | -61.8°C | 7.6% | 0hPa | 2.7V | 00:00:00 | 00:00:00 | 00:00:00 | |
| DO3MHA-12 | 2026-09-04 12:03:32 | 45.72493 | 13.44507 | 136° | 40km/h | 16249m | 5.4m/s | -61.9°C | 7.6% | 0hPa | 2.7V | 00:00:00 | 01:37:18 | 00:00:00 | |
| IW2NTF | 2026-09-04 12:03:29 | 45.72520 | 13.44468 | 129° | 40km/h | 16230m | 4.1m/s | -62°C | 7.8% | 0hPa | 2.7V | 08:30:00 | 01:37:14 | 00:00:00 | |
| DO3MHA-11 | 2026-09-04 12:03:28 | 45.72519 | 13.44468 | 130° | 42km/h | 16230m | 4.1m/s | -62.0°C | 7.8% | 0hPa | 2.7V | 00:00:00 | 01:37:14 | 00:00:00 | |
| IN3HCDX | 2026-09-04 12:03:27 | 45.72520 | 13.44468 | 131° | 40km/h | 16230m | 4.1m/s | -62.0°C | 3.6% | 0hPa | 2.7V | 00:00:00 | 00:00:00 | 00:00:00 | |
| OE8JPQ-2 | 2026-09-04 12:03:24 | 45.72544 | 13.44421 | 127° | 40km/h | 16213m | 4.6m/s | -62.1°C | 7.9% | 0hPa | 2.7V | 00:00:00 | 00:00:00 | 00:00:00 | |
| DO3MHA-12 | 2026-09-04 12:03:22 | 45.72558 | 13.44395 | 132° | 42km/h | 16203m | 3.9m/s | -62.1°C | 7.9% | 0hPa | 2.7V | 00:00:00 | 01:37:08 | 00:00:00 | |
| IW2NTF | 2026-09-04 12:03:19 | 45.72587 | 13.44349 | 127° | 40km/h | 16186m | 3.9m/s | -62.1°C | 7.7% | 0hPa | 2.7V | 08:30:00 | 01:37:04 | 00:00:00 | |
| DO3MHA-11 | 2026-09-04 12:03:18 | 45.72587 | 13.44349 | 128° | 40km/h | 16187m | 3.9m/s | -62.0°C | 7.7% | 0hPa | 2.7V | 00:00:00 | 01:37:04 | 00:00:00 | |
| OE5DRO-10 | 2026-09-04 12:03:14 | 45.72611 | 13.44300 | 124° | 38km/h | 16168m | 5.1m/s | -62.0°C | 8.0% | 0hPa | 2.7V | 00:00:00 | 00:00:00 | 00:00:00 | |
| DO3MHA-12 | 2026-09-04 12:03:12 | 45.72622 | 13.44278 | 128° | 38km/h | 16159m | 4.8m/s | -61.9°C | 8.1% | 0hPa | 2.7V | 00:00:00 | 01:36:58 | 00:00:00 | |
| IW2NTF | 2026-09-04 12:03:09 | 45.72649 | 13.44235 | 136° | 38km/h | 16140m | 5.2m/s | -62.1°C | 7.9% | 0hPa | 2.7V | 08:30:00 | 01:36:54 | 00:00:00 | |
| DO3MHA-11 | 2026-09-04 12:03:08 | 45.72649 | 13.44235 | 137° | 37km/h | 16141m | 5.1m/s | -62.1°C | 7.9% | 0hPa | 2.8V | 00:00:00 | 01:36:54 | 00:00:00 | |
| IN3HCDX | 2026-09-04 12:03:06 | 45.72656 | 13.44226 | 137° | 37km/h | 16136m | 4.1m/s | -62.1°C | 3.7% | 0hPa | 2.8V | 00:00:00 | 00:00:00 | 00:00:00 | |
| OE8JPQ-2 | 2026-09-04 12:03:04 | 45.72675 | 13.44194 | 128° | 37km/h | 16123m | 3.3m/s | -62.2°C | 7.8% | 0hPa | 2.8V | 00:00:00 | 00:00:00 | 00:00:00 | |
| DO3MHA-12 | 2026-09-04 12:03:02 | 45.72687 | 13.44172 | 127° | 37km/h | 16114m | 5.0m/s | -62.1°C | 7.9% | 0hPa | 2.8V | 00:00:00 | 01:36:48 | 00:00:00 | |
| IW2NTF | 2026-09-04 12:02:59 | 45.72712 | 13.44135 | 138° | 38km/h | 16096m | 4.9m/s | -62°C | 7.8% | 0hPa | 2.8V | 08:30:00 | 01:36:44 | 00:00:00 | |
| DO3MHA-11 | 2026-09-04 12:02:58 | 45.72711 | 13.44135 | 139° | 38km/h | 16096m | 4.9m/s | -61.9°C | 7.8% | 0hPa | 2.7V | 00:00:00 | 01:36:44 | 08:30:00 | |
| OE5DXL-15 | 2026-09-04 12:02:56 | 45.72726 | 13.44116 | 138° | 38km/h | 16088m | 4.2m/s | -62.1°C | 8.0% | 0hPa | 2.7V | 00:00:00 | 00:00:00 | 00:00:00 | |
| OE5DRO-10 | 2026-09-04 12:02:55 | 45.72734 | 13.44107 | 138° | 37km/h | 16083m | 5.3m/s | -62.1°C | 8.0% | 0hPa | 2.7V | 00:00:00 | 00:00:00 | 00:00:00 | |
| DO3MHA-12 | 2026-09-04 12:02:52 | 45.72754 | 13.44079 | 135° | 37km/h | 16069m | 4.8m/s | -61.9°C | 8.1% | 0hPa | 2.7V | 00:00:00 | 01:36:38 | 00:00:00 | |
| IW2NTF | 2026-09-04 12:02:49 | 45.72784 | 13.44045 | 146° | 37km/h | 16050m | 3.9m/s | -62°C | 7.8% | 0hPa | 2.7V | 08:30:00 | 01:36:34 | 00:00:00 | |
| DO3MHA-11 | 2026-09-04 12:02:48 | 45.72784 | 13.44045 | 147° | 37km/h | 16050m | 3.9m/s | -62.0°C | 7.8% | 0hPa | 2.7V | 00:00:00 | 01:36:34 | 00:00:00 | |
| IN3HCDX | 2026-09-04 12:02:45 | 45.72799 | 13.44030 | 147° | 37km/h | 16041m | 4.0m/s | -62.2°C | 3.7% | 0hPa | 2.7V | 00:00:00 | 00:00:00 | 00:00:00 | |
| OE8JPQ-2 | 2026-09-04 12:02:44 | 45.72814 | 13.44016 | 150° | 38km/h | 16032m | 5.0m/s | -62.0°C | 8.0% | 0hPa | 2.7V | 00:00:00 | 01:36:30 | 00:00:00 | |
| DO3MHA-12 | 2026-09-04 12:02:42 | 45.72829 | 13.44003 | 146° | 38km/h | 16023m | 4.7m/s | -61.8°C | 7.9% | 0hPa | 2.7V | 00:00:00 | 01:36:28 | 00:00:00 | |
| IW2NTF | 2026-09-04 12:02:39 | 45.72858 | 13.43969 | 139° | 37km/h | 16004m | 4.7m/s | -61.7°C | 8% | 0hPa | 2.7V | 08:30:00 | 01:36:24 | 00:00:00 | |
| DO3MHA-11 | 2026-09-04 12:02:38 | 45.72858 | 13.43969 | 140° | 40km/h | 16004m | 4.6m/s | -61.6°C | 8.0% | 0hPa | 2.7V | 00:00:00 | 01:36:24 | 00:00:00 | |
| OE5DRO-10 | 2026-09-04 12:02:36 | 45.72872 | 13.43951 | 135° | 40km/h | 15995m | 5.5m/s | -61.7°C | 8.1% | 0hPa | 2.7V | 00:00:00 | 00:00:00 | 00:00:00 | |
| DO3MHA-12 | 2026-09-04 12:02:32 | 45.72901 | 13.43912 | 142° | 42km/h | 15976m | 3.8m/s | -61.6°C | 7.7% | 0hPa | 2.7V | 00:00:00 | 01:36:18 | 00:00:00 | |
| IW2NTF | 2026-09-04 12:02:29 | 45.72934 | 13.43874 | 142° | 42km/h | 15957m | 5.5m/s | -61.6°C | 7.7% | 0hPa | 2.7V | 08:30:00 | 01:36:14 | 00:00:00 | |
| DO3MHA-11 | 2026-09-04 12:02:28 | 45.72934 | 13.43874 | 143° | 42km/h | 15957m | 5.5m/s | -61.5°C | 7.7% | 0hPa | 2.7V | 00:00:00 | 01:36:14 | 00:00:00 | |
| OE8JPQ-2 | 2026-09-04 12:02:24 | 45.72966 | 13.43834 | 134° | 38km/h | 15939m | 4.4m/s | -61.5°C | 7.9% | 0hPa | 2.7V | 00:00:00 | 00:00:00 | 08:30:00 | |
| IW2NTF | 2026-09-04 12:02:23 | 45.73013 | 13.43775 | 141° | 38km/h | 15912m | 3.8m/s | -61.6°C | 7.9% | 0hPa | 2.7V | 08:30:00 | 01:36:04 | 00:00:00 | |
| DO3MHA-12 | 2026-09-04 12:02:22 | 45.72981 | 13.43812 | 138° | 38km/h | 15929m | 4.5m/s | -61.5°C | 7.8% | 0hPa | 2.7V | 00:00:00 | 01:36:08 | 08:30:00 | |
| DO3MHA-11 | 2026-09-04 12:02:18 | 45.73012 | 13.43774 | 142° | 37km/h | 15913m | 3.8m/s | -61.6°C | 7.9% | 0hPa | 2.7V | 00:00:00 | 01:36:04 | 00:00:00 | |
| OE5DRO-10 | 2026-09-04 12:02:17 | 45.73020 | 13.43766 | 145° | 37km/h | 15908m | 5.3m/s | -61.5°C | 7.9% | 0hPa | 2.7V | 00:00:00 | 00:00:00 | 00:00:00 | |
| DO3MHA-12 | 2026-09-04 12:02:12 | 45.73057 | 13.43730 | 144° | 37km/h | 15886m | 3.6m/s | -61.3°C | 8.0% | 0hPa | 2.7V | 00:00:00 | 01:35:58 | 00:00:00 | |
| IW2NTF | 2026-09-04 12:02:09 | 45.73086 | 13.43700 | 141° | 37km/h | 15868m | 5.1m/s | -61.5°C | 7.9% | 0hPa | 2.7V | 08:30:00 | 01:35:54 | 00:00:00 | |
| DO3MHA-11 | 2026-09-04 12:02:08 | 45.73086 | 13.43700 | 142° | 38km/h | 15868m | 5.1m/s | -61.5°C | 7.9% | 0hPa | 2.7V | 00:00:00 | 01:35:54 | 00:00:00 | |
| IV3AMH | 2026-09-04 12:02:06 | 45.73093 | 13.43692 | 140° | 37km/h | 15864m | 3.7m/s | -61.5°C | 3.8% | 0hPa | 2.7V | 00:00:00 | 00:00:00 | 00:00:00 | |
| OE8JPQ-2 | 2026-09-04 12:02:04 | 45.73116 | 13.43666 | 144° | 42km/h | 15851m | 3.8m/s | -61.4°C | 7.7% | 0hPa | 2.7V | 00:00:00 | 00:00:00 | 00:00:00 | |
| DO3MHA-12 | 2026-09-04 12:02:02 | 45.73131 | 13.43649 | 143° | 42km/h | 15842m | 4.1m/s | -61.5°C | 7.7% | 0hPa | 2.7V | 00:00:00 | 01:35:48 | 00:00:00 | |
| IW2NTF | 2026-09-04 12:01:59 | 45.73167 | 13.43617 | 152° | 44km/h | 15825m | 3.9m/s | -61.4°C | 7.7% | 0hPa | 2.7V | 08:30:00 | 01:35:44 | 00:00:00 | |
| DO3MHA-11 | 2026-09-04 12:01:58 | 45.73167 | 13.43617 | 153° | 42km/h | 15826m | 3.8m/s | -61.4°C | 7.7% | 0hPa | 2.7V | 00:00:00 | 01:35:44 | 00:00:00 | |
| OE5DXL-15 | 2026-09-04 12:01:56 | 45.73185 | 13.43603 | 150° | 47km/h | 15817m | 3.7m/s | -61.3°C | 7.9% | 0hPa | 2.7V | 00:00:00 | 00:00:00 | 08:30:00 | |
| IW2NTF | 2026-09-04 12:01:53 | 45.73250 | 13.43527 | 136° | 44km/h | 15781m | 3.8m/s | -61.4°C | 7.8% | 0hPa | 2.7V | 08:30:00 | 01:35:34 | 00:00:00 | |
| DO3MHA-12 | 2026-09-04 12:01:52 | 45.73219 | 13.43568 | 140° | 42km/h | 15799m | 5.1m/s | -61.2°C | 7.8% | 0hPa | 2.7V | 00:00:00 | 01:35:38 | 00:00:00 | |
| DO3MHA-11 | 2026-09-04 12:01:48 | 45.73250 | 13.43527 | 137° | 46km/h | 15781m | 3.8m/s | -61.3°C | 7.8% | 0hPa | 2.8V | 00:00:00 | 01:35:34 | 00:00:00 | |
| OE8JPQ-2 | 2026-09-04 12:01:44 | 45.73282 | 13.43486 | 143° | 49km/h | 15764m | 4.2m/s | -61.5°C | 7.9% | 0hPa | 2.8V | 00:00:00 | 01:35:30 | 00:00:00 | |
| DO3MHA-12 | 2026-09-04 12:01:42 | 45.73302 | 13.43466 | 147° | 49km/h | 15755m | 3.7m/s | -61.5°C | 7.9% | 0hPa | 2.8V | 00:00:00 | 01:35:28 | 00:00:00 | |
| IW2NTF | 2026-09-04 12:01:40 | 45.73345 | 13.43427 | 145° | 49km/h | 15739m | 4.1m/s | -61.6°C | 7.8% | 0hPa | 2.8V | 08:30:00 | 01:35:24 | 00:00:00 | |
| OE5DRO-10 | 2026-09-04 12:01:39 | 45.73334 | 13.43437 | 148° | 51km/h | 15743m | 3.1m/s | -61.5°C | 7.9% | 0hPa | 2.8V | 00:00:00 | 00:00:00 | 00:00:00 | |
| DO3MHA-11 | 2026-09-04 12:01:38 | 45.73345 | 13.43427 | 146° | 49km/h | 15739m | 4.0m/s | -61.5°C | 7.8% | 0hPa | 2.8V | 00:00:00 | 01:35:24 | 00:00:00 | |
| IW2NTF | 2026-09-04 12:01:33 | 45.73446 | 13.43318 | 145° | 51km/h | 15695m | 4.4m/s | -61.7°C | 8.2% | 0hPa | 2.8V | 08:30:00 | 01:35:14 | 00:00:00 | |
| DO3MHA-12 | 2026-09-04 12:01:32 | 45.73405 | 13.43361 | 142° | 51km/h | 15713m | 4.7m/s | -61.7°C | 8.1% | 0hPa | 2.7V | 00:00:00 | 01:35:18 | 00:00:00 | |
| DO3MHA-11 | 2026-09-04 12:01:28 | 45.73446 | 13.43318 | 146° | 51km/h | 15695m | 4.3m/s | -61.6°C | 8.2% | 0hPa | 2.7V | 00:00:00 | 01:35:14 | 08:30:00 | |
| OE5DXL-15 | 2026-09-04 12:01:26 | 45.73467 | 13.43297 | 144° | 51km/h | 15686m | 4.0m/s | -61.6°C | 8.3% | 0hPa | 2.7V | 00:00:00 | 00:00:00 | 00:00:00 | |
| OE8JPQ-2 | 2026-09-04 12:01:24 | 45.73488 | 13.43275 | 142° | 51km/h | 15677m | 3.7m/s | -61.5°C | 8.3% | 0hPa | 2.7V | 00:00:00 | 00:00:00 | 00:00:00 | |
| IW2NTF | 2026-09-04 12:01:23 | 45.73544 | 13.43196 | 131° | 51km/h | 15653m | 3.6m/s | -61.6°C | 7.8% | 0hPa | 2.7V | 08:30:00 | 01:35:04 | 00:00:00 | |
| DO3MHA-12 | 2026-09-04 12:01:22 | 45.73507 | 13.43251 | 138° | 51km/h | 15669m | 4.8m/s | -61.5°C | 8.2% | 0hPa | 2.7V | 00:00:00 | 01:35:08 | 00:00:00 | |
| OE5DRO-10 | 2026-09-04 12:01:20 | 45.73526 | 13.43224 | 133° | 51km/h | 15661m | 4.4m/s | -61.4°C | 7.8% | 0hPa | 2.8V | 00:00:00 | 00:00:00 | 00:00:00 | |
| DO3MHA-11 | 2026-09-04 12:01:18 | 45.73544 | 13.43196 | 132° | 51km/h | 15653m | 3.6m/s | -61.5°C | 7.8% | 0hPa | 2.8V | 00:00:00 | 01:35:04 | 00:00:00 | |
| IW2NTF | 2026-09-04 12:01:13 | 45.73638 | 13.43073 | 140° | 49km/h | 15613m | 4.3m/s | -61.4°C | 8.3% | 0hPa | 2.8V | 08:30:00 | 01:34:54 | 00:00:00 | |
| DO3MHA-12 | 2026-09-04 12:01:12 | 45.73598 | 13.43119 | 140° | 51km/h | 15629m | 4.4m/s | -61.4°C | 8.2% | 0hPa | 2.7V | 00:00:00 | 01:34:58 | 00:00:00 | |
| IV3AMH | 2026-09-04 12:01:09 | 45.73618 | 13.43096 | 142° | 51km/h | 15620m | 3.0m/s | -61.4°C | 4.1% | 0hPa | 2.7V | 00:00:00 | 00:00:00 | 00:00:00 | |
| DO3MHA-11 | 2026-09-04 12:01:08 | 45.73638 | 13.43073 | 141° | 51km/h | 15613m | 4.3m/s | -61.4°C | 8.3% | 0hPa | 2.7V | 00:00:00 | 01:34:54 | 00:00:00 | |
| OE8JPQ-2 | 2026-09-04 12:01:04 | 45.73676 | 13.43022 | 135° | 53km/h | 15597m | 3.6m/s | -61.2°C | 8.0% | 0hPa | 2.7V | 00:00:00 | 00:00:00 | 00:00:00 | |
| DO3MHA-12 | 2026-09-04 12:01:02 | 45.73695 | 13.42995 | 135° | 51km/h | 15589m | 3.5m/s | -61.3°C | 7.8% | 0hPa | 2.7V | 00:00:00 | 01:34:48 | 00:00:00 | |
| IW2NTF | 2026-09-04 12:01:01 | 45.73732 | 13.42942 | 134° | 49km/h | 15573m | 4.8m/s | -61.3°C | 7.9% | 0hPa | 2.7V | 08:30:00 | 01:34:44 | 00:00:00 | |
| OE5DRO-10 | 2026-09-04 12:01:01 | 45.73704 | 13.42982 | 135° | 53km/h | 15585m | 3.7m/s | -61.4°C | 7.8% | 0hPa | 2.7V | 00:00:00 | 00:00:00 | 08:30:00 | |
| DO3MHA-11 | 2026-09-04 12:00:58 | 45.73731 | 13.42942 | 135° | 53km/h | 15573m | 4.7m/s | -61.3°C | 7.9% | 0hPa | 2.7V | 00:00:00 | 01:34:44 | 00:00:00 | |
| IN3HCDX | 2026-09-04 12:00:57 | 45.73732 | 13.42942 | 136° | 49km/h | 15573m | 4.8m/s | -61.3°C | 3.8% | 0hPa | 2.7V | 00:00:00 | 00:00:00 | 00:00:00 | |
| OE5DXL-15 | 2026-09-04 12:00:56 | 45.73749 | 13.42918 | 137° | 53km/h | 15565m | 4.1m/s | -61.4°C | 8.0% | 0hPa | 2.7V | 00:00:00 | 00:00:00 | 00:00:00 | |
| IW2NTF | 2026-09-04 12:00:53 | 45.73828 | 13.42811 | 133° | 57km/h | 15533m | 4m/s | -61.4°C | 8% | 0hPa | 2.7V | 08:30:00 | 01:34:34 | 00:00:00 | |
| DO3MHA-12 | 2026-09-04 12:00:52 | 45.73788 | 13.42866 | 137° | 55km/h | 15549m | 3.9m/s | -61.2°C | 8.3% | 0hPa | 2.7V | 00:00:00 | 01:34:38 | 08:30:00 | |
| DO3MHA-11 | 2026-09-04 12:00:48 | 45.73827 | 13.42811 | 134° | 55km/h | 15533m | 4.0m/s | -61.3°C | 8.0% | 0hPa | 2.8V | 00:00:00 | 01:34:34 | 00:00:00 | |
| OM5KV | 2026-09-04 12:00:45 | 45.73846 | 13.42781 | 130° | 55km/h | 15525m | 2.8m/s | -61.4°C | 3.9% | 0hPa | 2.8V | 00:00:00 | 00:00:00 | 00:00:00 | |
| OE8JPQ-2 | 2026-09-04 12:00:44 | 45.73864 | 13.42750 | 131° | 53km/h | 15518m | 4.1m/s | -61.4°C | 8.1% | 0hPa | 2.8V | 00:00:00 | 01:34:30 | 00:00:00 | |
| IW2NTF | 2026-09-04 12:00:43 | 45.73920 | 13.42668 | 138° | 53km/h | 15495m | 3.7m/s | -61.3°C | 8.1% | 0hPa | 2.8V | 08:30:00 | 01:34:24 | 00:00:00 | |
| DO3MHA-12 | 2026-09-04 12:00:42 | 45.73882 | 13.42720 | 132° | 53km/h | 15510m | 4.3m/s | -61.5°C | 8.3% | 0hPa | 2.7V | 00:00:00 | 01:34:28 | 00:00:00 | |
| OM5KV | 2026-09-04 12:00:40 | 45.73891 | 13.42706 | 134° | 51km/h | 15506m | 3.8m/s | -61.5°C | 4.2% | 0hPa | 2.7V | 00:00:00 | 00:00:00 | 00:00:00 | |
| DO3MHA-11 | 2026-09-04 12:00:37 | 45.73930 | 13.42655 | 139° | 53km/h | 15491m | 4.3m/s | -61.2°C | 8.1% | 0hPa | 2.7V | 00:00:00 | 01:34:23 | 00:00:00 | |
| IN3HCDX | 2026-09-04 12:00:36 | 45.73930 | 13.42655 | 139° | 53km/h | 15491m | 4.3m/s | -61.3°C | 4.0% | 0hPa | 2.7V | 00:00:00 | 00:00:00 | 00:00:00 | |
| OM5KV | 2026-09-04 12:00:34 | 45.73949 | 13.42629 | 140° | 53km/h | 15483m | 3.4m/s | -61.3°C | 3.9% | 0hPa | 2.7V | 00:00:00 | 00:00:00 | 00:00:00 | |
| IW2NTF | 2026-09-04 12:00:33 | 45.74018 | 13.42538 | 132° | 53km/h | 15455m | 4.3m/s | -61.2°C | 8% | 0hPa | 2.7V | 08:30:00 | 01:34:14 | 00:00:00 | |
| DO3MHA-12 | 2026-09-04 12:00:32 | 45.73981 | 13.42591 | 139° | 53km/h | 15471m | 3.6m/s | -61.1°C | 8.0% | 0hPa | 2.7V | 00:00:00 | 01:34:18 | 00:00:00 | |
| DO3MHA-11 | 2026-09-04 12:00:27 | 45.74027 | 13.42524 | 133° | 57km/h | 15452m | 3.4m/s | -61.2°C | 8.0% | 0hPa | 2.7V | 00:00:00 | 01:34:13 | 00:00:00 | |
| OE5DXL-15 | 2026-09-04 12:00:26 | 45.74035 | 13.42510 | 131° | 53km/h | 15448m | 4.3m/s | -61.1°C | 8.0% | 0hPa | 2.7V | 00:00:00 | 00:00:00 | 00:00:00 | |
| IW2NTF | 2026-09-04 12:00:24 | 45.74116 | 13.42388 | 136° | 55km/h | 15417m | 3.7m/s | -61.1°C | 8.3% | 0hPa | 2.7V | 08:30:00 | 01:34:04 | 00:00:00 | |
| OM5KV | 2026-09-04 12:00:24 | 45.74053 | 13.42480 | 132° | 57km/h | 15440m | 3.3m/s | -61.3°C | 4.0% | 0hPa | 2.7V | 00:00:00 | 00:00:00 | 00:00:00 | |
| OE5DRO-10 | 2026-09-04 12:00:23 | 45.74063 | 13.42464 | 133° | 55km/h | 15436m | 4.5m/s | -61.2°C | 8.2% | 0hPa | 2.7V | 00:00:00 | 00:00:00 | 00:00:00 | |
| DO3MHA-12 | 2026-09-04 12:00:22 | 45.74074 | 13.42449 | 135° | 57km/h | 15432m | 3.9m/s | -61.1°C | 8.2% | 0hPa | 2.7V | 00:00:00 | 01:34:08 | 00:00:00 | |
| DO3MHA-11 | 2026-09-04 12:00:17 | 45.74126 | 13.42375 | 138° | 53km/h | 15413m | 3.9m/s | -61.2°C | 8.3% | 0hPa | 2.8V | 00:00:00 | 01:34:03 | 00:00:00 | |
| IN3HCDX | 2026-09-04 12:00:16 | 45.74136 | 13.42362 | 138° | 53km/h | 15410m | 3.0m/s | -61.1°C | 4.1% | 0hPa | 2.8V | 00:00:00 | 00:00:00 | 00:00:00 | |
| IW2NTF | 2026-09-04 12:00:13 | 45.74212 | 13.42251 | 137° | 53km/h | 15380m | 4.4m/s | -61.2°C | 8.1% | 0hPa | 2.8V | 08:30:00 | 01:33:54 | 00:00:00 | |
| OM5KV | 2026-09-04 12:00:13 | 45.74155 | 13.42335 | 132° | 51km/h | 15402m | 4.1m/s | -61.2°C | 4.1% | 0hPa | 2.8V | 00:00:00 | 00:00:00 | 00:00:00 | |
| OM5KV | 2026-09-04 12:00:07 | 45.74212 | 13.42251 | 139° | 55km/h | 15380m | 4.4m/s | -61.2°C | 4.0% | 0hPa | 2.8V | 00:00:00 | 00:00:00 | 00:00:00 | |
| OE8JPQ-2 | 2026-09-04 12:00:04 | 45.74253 | 13.42201 | 141° | 51km/h | 15365m | 3.1m/s | -61.1°C | 8.3% | 0hPa | 2.8V | 00:00:00 | 00:00:00 | 00:00:00 | |
| IW2NTF | 2026-09-04 12:00:02 | 45.74307 | 13.42124 | 133° | 51km/h | 15341m | 3m/s | -61°C | 8.4% | 0hPa | 2.8V | 08:30:00 | 01:33:44 | 00:00:00 | |
| DO3MHA-12 | 2026-09-04 12:00:02 | 45.74272 | 13.42177 | 135° | 51km/h | 15357m | 4.2m/s | -61.0°C | 8.2% | 0hPa | 2.7V | 00:00:00 | 01:33:48 | 00:00:00 | |
| DO3MHA-11 | 2026-09-04 11:59:57 | 45.74316 | 13.42110 | 132° | 49km/h | 15338m | 4.4m/s | -61.1°C | 8.5% | 0hPa | 2.7V | 00:00:00 | 01:33:43 | 08:30:00 | |
| OE5DXL-15 | 2026-09-04 11:59:56 | 45.74325 | 13.42097 | 133° | 47km/h | 15334m | 3.5m/s | 0°C | 0% | 0hPa | 2.7V | 00:00:00 | 00:00:00 | 00:00:00 | |
| OM5KV | 2026-09-04 11:59:55 | 45.74324 | 13.42097 | 134° | 51km/h | 15334m | 3.5m/s | -61.3°C | 4.3% | 0hPa | 2.7V | 00:00:00 | 00:00:00 | 00:00:00 | |
| IN3HCDX | 2026-09-04 11:59:54 | 45.74333 | 13.42083 | 136° | 49km/h | 15330m | 4.0m/s | -61.2°C | 4.4% | 0hPa | 2.7V | 00:00:00 | 00:00:00 | 00:00:00 | |
| IW2NTF | 2026-09-04 11:59:53 | 45.74398 | 13.41998 | 135° | 51km/h | 15302m | 3.6m/s | -61.3°C | 8.5% | 0hPa | 2.7V | 08:30:00 | 01:33:34 | 00:00:00 | |
| OM5KV | 2026-09-04 11:59:52 | 45.74362 | 13.42048 | 140° | 49km/h | 15318m | 4.5m/s | -61.3°C | 4.4% | 0hPa | 2.8V | 00:00:00 | 00:00:00 | 00:00:00 | |
| OM5KV | 2026-09-04 11:59:49 | 45.74380 | 13.42023 | 137° | 49km/h | 15311m | 3.0m/s | -61.2°C | 4.2% | 0hPa | 2.8V | 00:00:00 | 00:00:00 | 00:00:00 | |
| DO3MHA-11 | 2026-09-04 11:59:47 | 45.74407 | 13.41985 | 133° | 49km/h | 15299m | 3.8m/s | -61.2°C | 8.4% | 0hPa | 2.8V | 00:00:00 | 01:33:33 | 00:00:00 | |
| OE5DRO-10 | 2026-09-04 11:59:45 | 45.74423 | 13.41957 | 128° | 46km/h | 15291m | 2.9m/s | -61.0°C | 8.4% | 0hPa | 2.8V | 00:00:00 | 00:00:00 | 00:00:00 | |
| OE8JPQ-2 | 2026-09-04 11:59:44 | 45.74432 | 13.41942 | 129° | 46km/h | 15287m | 4.1m/s | -61.1°C | 8.4% | 0hPa | 2.8V | 00:00:00 | 01:33:30 | 00:00:00 | |
| DO3MHA-12 | 2026-09-04 11:59:42 | 45.74449 | 13.41913 | 134° | 46km/h | 15280m | 3.1m/s | -61.0°C | 8.5% | 0hPa | 2.8V | 00:00:00 | 01:33:28 | 00:00:00 | |
| IW2NTF | 2026-09-04 11:59:40 | 45.74484 | 13.41868 | 142° | 44km/h | 15265m | 3.4m/s | -60.9°C | 8.5% | 0hPa | 2.8V | 08:30:00 | 01:33:24 | 00:00:00 | |
| IV3AMH | 2026-09-04 11:59:38 | 45.74475 | 13.41878 | 140° | 44km/h | 15268m | 3.1m/s | -61.0°C | 4.5% | 0hPa | 2.7V | 00:00:00 | 00:00:00 | 00:00:00 | |
| DO3MHA-11 | 2026-09-04 11:59:37 | 45.74493 | 13.41858 | 145° | 44km/h | 15261m | 4.7m/s | -60.9°C | 8.5% | 0hPa | 2.7V | 00:00:00 | 01:33:23 | 00:00:00 | |
| IN3HCDX | 2026-09-04 11:59:33 | 45.74520 | 13.41828 | 141° | 44km/h | 15250m | 3.9m/s | -60.8°C | 4.4% | 0hPa | 2.7V | 00:00:00 | 00:00:00 | 00:00:00 | |
| IW2NTF | 2026-09-04 11:59:32 | 45.74587 | 13.41742 | 138° | 46km/h | 15217m | 4.8m/s | -61°C | 8.9% | 0hPa | 2.7V | 08:30:00 | 01:33:12 | 00:00:00 | |
| DO3MHA-12 | 2026-09-04 11:59:32 | 45.74537 | 13.41807 | 138° | 46km/h | 15242m | 3.1m/s | -60.8°C | 8.6% | 0hPa | 2.7V | 00:00:00 | 01:33:18 | 00:00:00 | |
| DO3MHA-11 | 2026-09-04 11:59:26 | 45.74587 | 13.41742 | 139° | 38km/h | 15217m | 4.7m/s | -61.0°C | 8.9% | 0hPa | 2.7V | 00:00:00 | 01:33:12 | 00:00:00 | |
| OE8JPQ-2 | 2026-09-04 11:59:24 | 45.74605 | 13.41720 | 142° | 44km/h | 15209m | 3.8m/s | -60.9°C | 9.1% | 0hPa | 2.7V | 00:00:00 | 00:00:00 | 08:30:00 | |
| DO3MHA-12 | 2026-09-04 11:59:22 | 45.74623 | 13.41700 | 144° | 38km/h | 15201m | 3.2m/s | -60.8°C | 9.0% | 0hPa | 2.7V | 00:00:00 | 01:33:08 | 08:30:00 | |
| IW2NTF | 2026-09-04 11:59:21 | 45.74672 | 13.41654 | 147° | 35km/h | 15177m | 4.2m/s | -60.9°C | 9% | 0hPa | 2.8V | 08:30:00 | 01:33:02 | 00:00:00 | |
| DO3MHA-11 | 2026-09-04 11:59:14 | 45.74688 | 13.41639 | 146° | 46km/h | 15169m | 3.2m/s | -60.6°C | 8.8% | 0hPa | 2.8V | 00:00:00 | 01:33:00 | 00:00:00 | |
| DO3MHA-12 | 2026-09-04 11:59:12 | 45.74705 | 13.41621 | 140° | 47km/h | 15160m | 4.8m/s | -60.6°C | 8.8% | 0hPa | 2.8V | 00:00:00 | 01:32:58 | 00:00:00 | |
| IW2NTF | 2026-09-04 11:59:10 | 45.74769 | 13.41542 | 137° | 49km/h | 15130m | 3.9m/s | -60.4°C | 8.9% | 0hPa | 2.8V | 08:30:00 | 01:32:51 | 00:00:00 | |
| OE5DRO-10 | 2026-09-04 11:59:07 | 45.74751 | 13.41566 | 139° | 49km/h | 15138m | 4.9m/s | -60.5°C | 8.9% | 0hPa | 2.7V | 00:00:00 | 00:00:00 | 00:00:00 | |
| DO3MHA-11 | 2026-09-04 11:59:04 | 45.74778 | 13.41530 | 139° | 47km/h | 15125m | 4.7m/s | -60.4°C | 8.8% | 0hPa | 2.7V | 00:00:00 | 01:32:50 | 00:00:00 | |
| DO3MHA-12 | 2026-09-04 11:59:02 | 45.74797 | 13.41507 | 140° | 47km/h | 15117m | 4.6m/s | -60.6°C | 9.1% | 0hPa | 2.7V | 00:00:00 | 01:32:48 | 00:00:00 | |
| IV3AMH | 2026-09-04 11:59:01 | 45.74797 | 13.41507 | 141° | 47km/h | 15117m | 4.7m/s | -60.7°C | 5.0% | 0hPa | 2.7V | 00:00:00 | 00:00:00 | 00:00:00 | |
| IW2NTF | 2026-09-04 11:58:55 | 45.74861 | 13.41433 | 139° | 47km/h | 15088m | 3.8m/s | -60.8°C | 9.8% | 0hPa | 2.7V | 08:30:00 | 01:32:41 | 00:00:00 | |
| DO3MHA-11 | 2026-09-04 11:58:54 | 45.74871 | 13.41422 | 141° | 51km/h | 15084m | 3.7m/s | -60.7°C | 9.7% | 0hPa | 2.7V | 00:00:00 | 01:32:40 | 00:00:00 | |
| DO3MHA-12 | 2026-09-04 11:58:52 | 45.74891 | 13.41399 | 143° | 51km/h | 15075m | 3.9m/s | -60.8°C | 9.6% | 0hPa | 2.7V | 00:00:00 | 01:32:38 | 00:00:00 | |
| IW2NTF | 2026-09-04 11:58:50 | 45.74962 | 13.41314 | 139° | 49km/h | 15046m | 4.4m/s | -61.4°C | 10.1% | 0hPa | 2.7V | 08:30:00 | 01:32:31 | 00:00:00 | |
| OE5DRO-10 | 2026-09-04 11:58:49 | 45.74932 | 13.41349 | 140° | 55km/h | 15059m | 4.9m/s | -61.1°C | 9.7% | 0hPa | 2.8V | 00:00:00 | 00:00:00 | 00:00:00 | |
| OE8JPQ-2 | 2026-09-04 11:58:44 | 45.74971 | 13.41303 | 142° | 53km/h | 15042m | 2.8m/s | -61.3°C | 10.3% | 0hPa | 2.8V | 00:00:00 | 01:32:30 | 00:00:00 | |
| DO3MHA-12 | 2026-09-04 11:58:42 | 45.74992 | 13.41283 | 149° | 55km/h | 15034m | 4.0m/s | -61.3°C | 10.7% | 0hPa | 2.8V | 00:00:00 | 01:32:28 | 00:00:00 | |
| IW2NTF | 2026-09-04 11:58:40 | 45.75074 | 13.41210 | 147° | 57km/h | 15004m | 3m/s | -61.4°C | 10.7% | 0hPa | 2.8V | 08:30:00 | 01:32:21 | 00:00:00 | |
| DO3MHA-11 | 2026-09-04 11:58:34 | 45.75086 | 13.41199 | 147° | 53km/h | 15000m | 5.5m/s | -61.5°C | 10.7% | 0hPa | 2.8V | 00:00:00 | 01:32:20 | 00:00:00 | |
| DO3MHA-12 | 2026-09-04 11:58:32 | 45.75108 | 13.41178 | 144° | 55km/h | 14992m | 2.2m/s | -61.4°C | 10.8% | 0hPa | 2.8V | 00:00:00 | 01:32:18 | 00:00:00 | |
| IN3HCDX | 2026-09-04 11:58:31 | 45.75108 | 13.41177 | 145° | 51km/h | 14992m | 2.3m/s | -61.5°C | 6.2% | 0hPa | 2.8V | 00:00:00 | 00:00:00 | 00:00:00 | |
| IW2NTF | 2026-09-04 11:58:30 | 45.75187 | 13.41103 | 146° | 55km/h | 14961m | 4.2m/s | -61.6°C | 11.1% | 0hPa | 2.8V | 08:30:00 | 01:32:11 | 00:00:00 | |
| OE5DRO-10 | 2026-09-04 11:58:27 | 45.75164 | 13.41125 | 147° | 66km/h | 14971m | 5.5m/s | -61.5°C | 10.9% | 0hPa | 2.7V | 00:00:00 | 00:00:00 | 00:00:00 | |
| OM5KV | 2026-09-04 11:58:25 | 45.75175 | 13.41114 | 147° | 55km/h | 14966m | 4.3m/s | -61.6°C | 6.4% | 0hPa | 2.7V | 00:00:00 | 00:00:00 | 00:00:00 | |
| OE8JPQ-2 | 2026-09-04 11:58:24 | 45.75199 | 13.41092 | 148° | 62km/h | 14957m | 5.4m/s | -61.5°C | 11.2% | 0hPa | 2.7V | 00:00:00 | 00:00:00 | 00:00:00 | |
| IV3AMH | 2026-09-04 11:58:23 | 45.75198 | 13.41092 | 149° | 57km/h | 14957m | 5.4m/s | -61.6°C | 6.6% | 0hPa | 2.7V | 00:00:00 | 00:00:00 | 00:00:00 | |
| DO3MHA-12 | 2026-09-04 11:58:22 | 45.75223 | 13.41070 | 150° | 62km/h | 14948m | 4.0m/s | -61.6°C | 11.3% | 0hPa | 2.7V | 00:00:00 | 01:32:08 | 00:00:00 | |
| IW2NTF | 2026-09-04 11:58:20 | 45.75315 | 13.40986 | 143° | 62km/h | 14915m | 3.9m/s | -61.8°C | 0% | 0hPa | 2.7V | 08:30:00 | 01:32:01 | 00:00:00 | |
| DO3MHA-11 | 2026-09-04 11:58:14 | 45.75327 | 13.40973 | 144° | 66km/h | 14911m | 3.8m/s | -61.8°C | 11.5% | 0hPa | 2.7V | 00:00:00 | 01:32:00 | 00:00:00 | |
| DO3MHA-12 | 2026-09-04 11:58:12 | 45.75354 | 13.40946 | 146° | 66km/h | 14902m | 4.1m/s | -62.0°C | 11.9% | 0hPa | 2.7V | 00:00:00 | 01:31:58 | 00:00:00 | |
| IW2NTF | 2026-09-04 11:58:10 | 45.75451 | 13.40856 | 149° | 69km/h | 14873m | 3.5m/s | -62.3°C | 0% | 0hPa | 2.7V | 08:30:00 | 01:31:51 | 00:00:00 | |
| OE8JPQ-2 | 2026-09-04 11:58:04 | 45.75466 | 13.40843 | 149° | 71km/h | 14869m | 4.2m/s | -62.2°C | 13.1% | 0hPa | 2.7V | 00:00:00 | 00:00:00 | 00:00:00 | |
| OM5KV | 2026-09-04 11:58:03 | 45.75466 | 13.40843 | 149° | 68km/h | 14869m | 4.3m/s | -62.3°C | 7.9% | 0hPa | 2.7V | 00:00:00 | 00:00:00 | 00:00:00 | |
| DO3MHA-12 | 2026-09-04 11:58:02 | 45.75494 | 13.40816 | 144° | 71km/h | 14861m | 3.7m/s | -62.2°C | 13.5% | 0hPa | 2.7V | 00:00:00 | 01:31:48 | 00:00:00 | |
| IW2NTF | 2026-09-04 11:58:00 | 45.75592 | 13.40698 | 140° | 71km/h | 14831m | 5.2m/s | -62°C | 0% | 0hPa | 2.7V | 08:30:00 | 01:31:41 | 00:00:00 | |
| OM5KV | 2026-09-04 11:57:58 | 45.75537 | 13.40767 | 141° | 75km/h | 14848m | 3.9m/s | 0°C | 0% | 0hPa | 2.7V | 00:00:00 | 00:00:00 | 00:00:00 | |
| OM5KV | 2026-09-04 11:57:55 | 45.75579 | 13.40714 | 140° | 71km/h | 14836m | 3.9m/s | -62.1°C | 8.2% | 0hPa | 2.7V | 00:00:00 | 00:00:00 | 00:00:00 | |
| DO3MHA-11 | 2026-09-04 11:57:54 | 45.75606 | 13.40682 | 143° | 71km/h | 14826m | 4.3m/s | -62.0°C | 13.3% | 0hPa | 2.7V | 00:00:00 | 01:31:40 | 00:00:00 | |
| DO3MHA-12 | 2026-09-04 11:57:52 | 45.75634 | 13.40650 | 141° | 73km/h | 14817m | 4.9m/s | -62.0°C | 13.5% | 0hPa | 2.7V | 00:00:00 | 01:31:38 | 08:30:00 | |
| IV3AMH | 2026-09-04 11:57:51 | 45.75634 | 13.40650 | 142° | 69km/h | 14817m | 4.9m/s | -62.0°C | 8.4% | 0hPa | 2.8V | 00:00:00 | 00:00:00 | 00:00:00 | |
| IW2NTF | 2026-09-04 11:57:50 | 45.75734 | 13.40535 | 139° | 73km/h | 14786m | 3.9m/s | -61.8°C | 0% | 0hPa | 2.8V | 08:30:00 | 01:31:31 | 00:00:00 | |
| IN3HCDX | 2026-09-04 11:57:49 | 45.75662 | 13.40618 | 142° | 71km/h | 14808m | 5.0m/s | -61.9°C | 8.4% | 0hPa | 2.8V | 00:00:00 | 00:00:00 | 00:00:00 | |
| OM5KV | 2026-09-04 11:57:46 | 45.75706 | 13.40569 | 142° | 73km/h | 14795m | 5.2m/s | -61.8°C | 8.7% | 0hPa | 2.8V | 00:00:00 | 00:00:00 | 00:00:00 | |
| DO3MHA-11 | 2026-09-04 11:57:44 | 45.75748 | 13.40518 | 140° | 71km/h | 14782m | 4.9m/s | -61.8°C | 14.0% | 0hPa | 2.8V | 00:00:00 | 01:31:30 | 00:00:00 | |
| DO3MHA-12 | 2026-09-04 11:57:42 | 45.75777 | 13.40483 | 139° | 69km/h | 14773m | 4.1m/s | -61.9°C | 14.5% | 0hPa | 2.8V | 00:00:00 | 01:31:28 | 00:00:00 | |
| OM5KV | 2026-09-04 11:57:41 | 45.75777 | 13.40483 | 140° | 75km/h | 14773m | 4.2m/s | 0°C | 0% | 0hPa | 2.8V | 00:00:00 | 00:00:00 | 00:00:00 | |
| IW2NTF | 2026-09-04 11:57:40 | 45.75872 | 13.40366 | 141° | 66km/h | 14742m | 4.2m/s | -61.7°C | 0% | 0hPa | 2.8V | 08:30:00 | 01:31:21 | 00:00:00 | |
| OM5KV | 2026-09-04 11:57:38 | 45.75818 | 13.40430 | 139° | 73km/h | 14759m | 5.2m/s | -61.8°C | 9.8% | 0hPa | 2.7V | 00:00:00 | 00:00:00 | 00:00:00 | |
| OE5DRO-10 | 2026-09-04 11:57:37 | 45.75845 | 13.40397 | 141° | 68km/h | 14751m | 3.4m/s | -61.7°C | 15.1% | 0hPa | 2.7V | 00:00:00 | 00:00:00 | 08:30:00 | |
| OM5KV | 2026-09-04 11:57:35 | 45.75859 | 13.40381 | 142° | 68km/h | 14747m | 5.2m/s | 0°C | 0% | 0hPa | 2.7V | 00:00:00 | 00:00:00 | 00:00:00 | |
| DO3MHA-11 | 2026-09-04 11:57:34 | 45.75885 | 13.40351 | 143° | 68km/h | 14738m | 4.4m/s | -61.7°C | 15.3% | 0hPa | 2.7V | 00:00:00 | 01:31:20 | 00:00:00 | |
| DO3MHA-12 | 2026-09-04 11:57:32 | 45.75912 | 13.40323 | 145° | 68km/h | 14729m | 3.7m/s | -61.8°C | 15.7% | 0hPa | 2.7V | 00:00:00 | 01:31:18 | 00:00:00 | |
| IW2NTF | 2026-09-04 11:57:30 | 45.76012 | 13.40222 | 143° | 68km/h | 14698m | 5.4m/s | -62.4°C | 0% | 0hPa | 2.7V | 08:30:00 | 01:31:11 | 00:00:00 | |
| OM5KV | 2026-09-04 11:57:29 | 45.75940 | 13.40294 | 145° | 68km/h | 14720m | 4.4m/s | 0°C | 0% | 0hPa | 2.7V | 00:00:00 | 00:00:00 | 00:00:00 | |
| IN3HCDX | 2026-09-04 11:57:28 | 45.75954 | 13.40280 | 146° | 68km/h | 14716m | 3.9m/s | -61.9°C | 10.2% | 0hPa | 2.7V | 00:00:00 | 00:00:00 | 00:00:00 | |
| OM5KV | 2026-09-04 11:57:26 | 45.75983 | 13.40251 | 147° | 71km/h | 14707m | 4.3m/s | -62.2°C | 0% | 0hPa | 2.7V | 00:00:00 | 00:00:00 | 00:00:00 | |
| OE8JPQ-2 | 2026-09-04 11:57:24 | 45.76025 | 13.40208 | 141° | 62km/h | 14693m | 4.1m/s | -62.3°C | 16.8% | 0hPa | 2.7V | 00:00:00 | 00:00:00 | 00:00:00 | |
| OM5KV | 2026-09-04 11:57:23 | 45.76025 | 13.40208 | 142° | 66km/h | 14693m | 4.2m/s | 0°C | 0% | 0hPa | 2.7V | 00:00:00 | 00:00:00 | 00:00:00 | |
| DO3MHA-12 | 2026-09-04 11:57:22 | 45.76050 | 13.40177 | 138° | 64km/h | 14685m | 5.1m/s | -62.3°C | 16.7% | 0hPa | 2.7V | 00:00:00 | 01:31:08 | 00:00:00 | |
| IW2NTF | 2026-09-04 11:57:20 | 45.76133 | 13.40071 | 142° | 64km/h | 14653m | 3.9m/s | -62.8°C | 0% | 0hPa | 2.8V | 08:30:00 | 01:31:01 | 00:00:00 | |
| OE5DRO-10 | 2026-09-04 11:57:18 | 45.76097 | 13.40114 | 138° | 62km/h | 14666m | 3.9m/s | -62.2°C | 16.7% | 0hPa | 2.7V | 00:00:00 | 00:00:00 | 00:00:00 | |
| DO3MHA-11 | 2026-09-04 11:57:14 | 45.76146 | 13.40056 | 143° | 58km/h | 14649m | 4.3m/s | -63.0°C | 18.4% | 0hPa | 2.7V | 00:00:00 | 01:31:00 | 00:00:00 | |
| DO3MHA-12 | 2026-09-04 11:57:12 | 45.76170 | 13.40029 | 140° | 60km/h | 14640m | 4.0m/s | -63.5°C | 19.4% | 0hPa | 2.7V | 00:00:00 | 01:30:58 | 00:00:00 | |
| 9A1FER-10 | 2026-09-04 11:57:11 | 45.76182 | 13.40015 | 139° | 62km/h | 14636m | 3.6m/s | -63.4°C | 19.3% | 0hPa | 2.7V | 00:00:00 | 01:30:57 | 00:00:00 | |
| OM5KV | 2026-09-04 11:57:10 | 45.76181 | 13.40015 | 139° | 58km/h | 14636m | 3.7m/s | -63.5°C | 0% | 0hPa | 2.7V | 00:00:00 | 00:00:00 | 00:00:00 | |
| IN3HCDX | 2026-09-04 11:57:07 | 45.76214 | 13.39973 | 140° | 57km/h | 14623m | 4.1m/s | -63.9°C | 13.3% | 0hPa | 2.7V | 00:00:00 | 00:00:00 | 00:00:00 | |
| DO3MHA-11 | 2026-09-04 11:57:04 | 45.76261 | 13.39919 | 143° | 66km/h | 14606m | 4.4m/s | -64.1°C | 21.3% | 0hPa | 2.7V | 00:00:00 | 01:30:50 | 00:00:00 | |
| DO3MHA-12 | 2026-09-04 11:57:02 | 45.76287 | 13.39891 | 145° | 66km/h | 14597m | 5.0m/s | -64.2°C | 22.1% | 0hPa | 2.7V | 00:00:00 | 01:30:48 | 00:00:00 | |
| OM5KV | 2026-09-04 11:57:00 | 45.76301 | 13.39878 | 147° | 64km/h | 14593m | 4.0m/s | 0°C | 0% | 0hPa | 2.7V | 00:00:00 | 00:00:00 | 00:00:00 | |
| OE5DRO-10 | 2026-09-04 11:56:59 | 45.76328 | 13.39851 | 143° | 64km/h | 14585m | 4.9m/s | -64.2°C | 22.6% | 0hPa | 2.7V | 00:00:00 | 00:00:00 | 00:00:00 | |
| DO3MHA-11 | 2026-09-04 11:56:54 | 45.76393 | 13.39776 | 140° | 62km/h | 14563m | 5.2m/s | -64.0°C | 22.0% | 0hPa | 2.7V | 00:00:00 | 01:30:40 | 08:30:00 | |
| OM5KV | 2026-09-04 11:56:53 | 45.76393 | 13.39776 | 140° | 66km/h | 14563m | 5.3m/s | -64.1°C | 0% | 0hPa | 2.7V | 00:00:00 | 00:00:00 | 00:00:00 | |
| DO3MHA-12 | 2026-09-04 11:56:52 | 45.76418 | 13.39744 | 138° | 60km/h | 14554m | 3.9m/s | -64.2°C | 21.9% | 0hPa | 2.7V | 00:00:00 | 01:30:38 | 00:00:00 | |
| OM5KV | 2026-09-04 11:56:48 | 45.76453 | 13.39699 | 137° | 60km/h | 14541m | 4.5m/s | 0°C | 0% | 0hPa | 2.7V | 00:00:00 | 00:00:00 | 00:00:00 | |
| OM5KV | 2026-09-04 11:56:46 | 45.76475 | 13.39668 | 137° | 60km/h | 14532m | 3.7m/s | 0°C | 0% | 0hPa | 2.7V | 00:00:00 | 00:00:00 | 00:00:00 | |
| DO3MHA-11 | 2026-09-04 11:56:44 | 45.76508 | 13.39625 | 139° | 60km/h | 14520m | 3.1m/s | -64.5°C | 26.2% | 0hPa | 2.7V | 00:00:00 | 01:30:30 | 00:00:00 | |
| DO3MHA-12 | 2026-09-04 11:56:42 | 45.76531 | 13.39596 | 140° | 60km/h | 14511m | 4.2m/s | -64.5°C | 26.7% | 0hPa | 2.7V | 00:00:00 | 01:30:28 | 00:00:00 | |
| OE5DRO-10 | 2026-09-04 11:56:40 | 45.76555 | 13.39568 | 142° | 58km/h | 14502m | 4.5m/s | -64.5°C | 26.4% | 0hPa | 2.7V | 00:00:00 | 00:00:00 | 00:00:00 | |
| OM5KV | 2026-09-04 11:56:38 | 45.76567 | 13.39553 | 142° | 62km/h | 14498m | 3.5m/s | -64.6°C | 0% | 0hPa | 2.7V | 00:00:00 | 00:00:00 | 00:00:00 | |
| OM5KV | 2026-09-04 11:56:35 | 45.76603 | 13.39510 | 139° | 60km/h | 14486m | 3.8m/s | 0°C | 0% | 0hPa | 2.7V | 00:00:00 | 00:00:00 | 00:00:00 | |
| DO3MHA-11 | 2026-09-04 11:56:34 | 45.76625 | 13.39483 | 140° | 57km/h | 14478m | 3.7m/s | -64.8°C | 26.6% | 0hPa | 2.7V | 00:00:00 | 01:30:20 | 00:00:00 | |
| DO3MHA-12 | 2026-09-04 11:56:32 | 45.76646 | 13.39457 | 139° | 58km/h | 14470m | 4.1m/s | -65.1°C | 27.2% | 0hPa | 2.7V | 00:00:00 | 01:30:18 | 00:00:00 | |
| OM5KV | 2026-09-04 11:56:31 | 45.76645 | 13.39457 | 140° | 55km/h | 14470m | 4.2m/s | -65.1°C | 0% | 0hPa | 2.7V | 00:00:00 | 00:00:00 | 00:00:00 | |
| OM5KV | 2026-09-04 11:56:27 | 45.76689 | 13.39409 | 146° | 55km/h | 14454m | 4.0m/s | 0°C | 0% | 0hPa | 2.7V | 00:00:00 | 00:00:00 | 00:00:00 | |
| IN3HCDX | 2026-09-04 11:56:26 | 45.76701 | 13.39397 | 145° | 58km/h | 14449m | 4.7m/s | -65.1°C | 20.8% | 0hPa | 2.7V | 00:00:00 | 00:00:00 | 00:00:00 | |
| OE8JPQ-2 | 2026-09-04 11:56:24 | 45.76739 | 13.39360 | 148° | 60km/h | 14436m | 4.0m/s | -65.2°C | 30.6% | 0hPa | 2.7V | 00:00:00 | 00:00:00 | 08:30:00 | |
| DO3MHA-11 | 2026-09-04 11:56:23 | 45.76752 | 13.39348 | 148° | 58km/h | 14432m | 3.9m/s | -65.2°C | 31.0% | 0hPa | 2.7V | 00:00:00 | 01:30:09 | 00:00:00 | |
| DO3MHA-12 | 2026-09-04 11:56:22 | 45.76765 | 13.39335 | 147° | 58km/h | 14428m | 4.9m/s | -65.3°C | 32.0% | 0hPa | 2.7V | 00:00:00 | 01:30:08 | 08:30:00 | |
| OE5DRO-10 | 2026-09-04 11:56:21 | 45.76779 | 13.39323 | 146° | 60km/h | 14423m | 3.7m/s | -65.2°C | 32.3% | 0hPa | 2.7V | 00:00:00 | 00:00:00 | 00:00:00 | |
| OM5KV | 2026-09-04 11:56:14 | 45.76853 | 13.39254 | 147° | 58km/h | 14398m | 4.0m/s | 0°C | 0% | 0hPa | 2.7V | 00:00:00 | 00:00:00 | 00:00:00 | |
| DO3MHA-12 | 2026-09-04 11:56:12 | 45.76889 | 13.39219 | 145° | 62km/h | 14386m | 4.3m/s | -65.7°C | 34.2% | 0hPa | 2.7V | 00:00:00 | 01:29:58 | 00:00:00 | |
| OM5KV | 2026-09-04 11:56:09 | 45.76914 | 13.39193 | 145° | 64km/h | 14378m | 3.6m/s | 0°C | 0% | 0hPa | 2.7V | 00:00:00 | 00:00:00 | 00:00:00 | |
| IN3HCDX | 2026-09-04 11:56:05 | 45.76967 | 13.39141 | 147° | 60km/h | 14362m | 4.5m/s | -65.7°C | 26.4% | 0hPa | 2.7V | 00:00:00 | 00:00:00 | 00:00:00 | |
| OE8JPQ-2 | 2026-09-04 11:56:04 | 45.76992 | 13.39117 | 146° | 66km/h | 14354m | 3.7m/s | -65.6°C | 36.4% | 0hPa | 2.7V | 00:00:00 | 00:00:00 | 00:00:00 | |
| OM5KV | 2026-09-04 11:56:03 | 45.76992 | 13.39117 | 147° | 60km/h | 14354m | 3.7m/s | 0°C | 0% | 0hPa | 2.7V | 00:00:00 | 00:00:00 | 00:00:00 | |
| DO3MHA-11 | 2026-09-04 11:56:02 | 45.77018 | 13.39093 | 149° | 66km/h | 14346m | 4.1m/s | -65.5°C | 37.5% | 0hPa | 2.7V | 00:00:00 | 01:29:48 | 00:00:00 | |
| OM5KV | 2026-09-04 11:55:57 | 45.77072 | 13.39040 | 144° | 68km/h | 14330m | 4.1m/s | 0°C | 0% | 0hPa | 2.7V | 00:00:00 | 00:00:00 | 00:00:00 | |
| DO3MHA-12 | 2026-09-04 11:55:52 | 45.77156 | 13.38954 | 145° | 66km/h | 14305m | 4.1m/s | -65.3°C | 42.6% | 0hPa | 2.7V | 00:00:00 | 01:29:38 | 00:00:00 | |
| OM5KV | 2026-09-04 11:55:49 | 45.77184 | 13.38926 | 146° | 68km/h | 14298m | 3.1m/s | 0°C | 0% | 0hPa | 2.7V | 00:00:00 | 00:00:00 | 00:00:00 | |
| IW2NTF | 2026-09-04 11:55:46 | 45.77301 | 13.38794 | 140° | 66km/h | 14261m | 3.7m/s | -65.1°C | 0% | 0hPa | 2.7V | 08:30:00 | 01:29:27 | 00:00:00 | |
| OE8JPQ-2 | 2026-09-04 11:55:44 | 45.77263 | 13.38838 | 143° | 68km/h | 14274m | 3.7m/s | -65.1°C | 43.6% | 0hPa | 2.7V | 00:00:00 | 01:29:30 | 00:00:00 | |
| OE5DRO-10 | 2026-09-04 11:55:43 | 45.77275 | 13.38824 | 141° | 68km/h | 14270m | 4.8m/s | -65.1°C | 43.2% | 0hPa | 2.7V | 00:00:00 | 00:00:00 | 00:00:00 | |
| DO3MHA-12 | 2026-09-04 11:55:42 | 45.77288 | 13.38809 | 140° | 68km/h | 14265m | 3.9m/s | -65.0°C | 42.8% | 0hPa | 2.7V | 00:00:00 | 01:29:28 | 00:00:00 | |
| 9A1FER-10 | 2026-09-04 11:55:37 | 45.77353 | 13.38733 | 140° | 69km/h | 14245m | 4.2m/s | -65.1°C | 46.3% | 0hPa | 2.7V | 00:00:00 | 01:29:23 | 00:00:00 | |
| OM5KV | 2026-09-04 11:55:34 | 45.77380 | 13.38701 | 141° | 68km/h | 14238m | 4.7m/s | 0°C | 0% | 0hPa | 2.7V | 00:00:00 | 00:00:00 | 00:00:00 | |
| DO3MHA-12 | 2026-09-04 11:55:32 | 45.77419 | 13.38652 | 139° | 69km/h | 14225m | 4.2m/s | -65.4°C | 48.6% | 0hPa | 2.7V | 00:00:00 | 01:29:18 | 00:00:00 | |
| OE8JPQ-2 | 2026-09-04 11:55:24 | 45.77521 | 13.38520 | 137° | 64km/h | 14193m | 3.6m/s | -65.9°C | 53.7% | 0hPa | 2.7V | 00:00:00 | 00:00:00 | 00:00:00 | |
| IW2NTF | 2026-09-04 11:55:23 | 45.77547 | 13.38484 | 134° | 71km/h | 14185m | 3.7m/s | -66°C | 0% | 0hPa | 2.8V | 08:30:00 | 01:29:08 | 00:00:00 | |
| 9A1FER-10 | 2026-09-04 11:55:22 | 45.77547 | 13.38484 | 135° | 64km/h | 14185m | 3.6m/s | -66.0°C | 54.9% | 0hPa | 2.7V | 00:00:00 | 01:29:08 | 00:00:00 | |
| DO3MHA-11 | 2026-09-04 11:55:19 | 45.77584 | 13.38432 | 138° | 64km/h | 14174m | 4.3m/s | -66.6°C | 58.4% | 0hPa | 2.7V | 00:00:00 | 01:29:05 | 08:30:00 | |
| IW2NTF | 2026-09-04 11:55:17 | 45.77666 | 13.38321 | 134° | 62km/h | 14145m | 3.6m/s | -67.4°C | 0% | 0hPa | 2.8V | 08:30:00 | 01:28:58 | 00:00:00 | |
| DO3MHA-11 | 2026-09-04 11:55:09 | 45.77700 | 13.38276 | 141° | 60km/h | 14134m | 4.5m/s | -67.5°C | 60.8% | 0hPa | 2.8V | 00:00:00 | 01:28:55 | 00:00:00 | |
| 9A1FER-10 | 2026-09-04 11:55:07 | 45.77723 | 13.38251 | 146° | 60km/h | 14126m | 4.0m/s | -67.5°C | 62.3% | 0hPa | 2.8V | 00:00:00 | 01:28:53 | 00:00:00 | |
| IW2NTF | 2026-09-04 11:55:06 | 45.77788 | 13.38191 | 148° | 62km/h | 14105m | 3.3m/s | -68.1°C | 0% | 0hPa | 2.8V | 08:30:00 | 01:28:48 | 00:00:00 | |
| OE5DRO-10 | 2026-09-04 11:55:05 | 45.77748 | 13.38227 | 147° | 62km/h | 14118m | 3.2m/s | -67.6°C | 64.1% | 0hPa | 2.7V | 00:00:00 | 00:00:00 | 00:00:00 | |
| OE8JPQ-2 | 2026-09-04 11:55:04 | 45.77762 | 13.38214 | 148° | 60km/h | 14114m | 5.0m/s | -67.8°C | 64.7% | 0hPa | 2.7V | 00:00:00 | 00:00:00 | 00:00:00 | |
| IN3HCDX | 2026-09-04 11:55:03 | 45.77775 | 13.38203 | 150° | 62km/h | 14109m | 4.2m/s | -68.0°C | 51.9% | 0hPa | 2.7V | 00:00:00 | 00:00:00 | 00:00:00 | |
| DO3MHA-12 | 2026-09-04 11:55:02 | 45.77788 | 13.38191 | 149° | 60km/h | 14106m | 3.2m/s | -68.1°C | 66.3% | 0hPa | 2.7V | 00:00:00 | 01:28:48 | 00:00:00 | |
| DO3MHA-11 | 2026-09-04 11:54:59 | 45.77828 | 13.38154 | 147° | 60km/h | 14095m | 3.6m/s | -68.5°C | 68.4% | 0hPa | 2.7V | 00:00:00 | 01:28:45 | 00:00:00 | |
| IW2NTF | 2026-09-04 11:54:58 | 45.77917 | 13.38078 | 153° | 62km/h | 14068m | 4.8m/s | -68.6°C | 0% | 0hPa | 2.7V | 08:30:00 | 01:28:38 | 00:00:00 | |
| DO3MHA-12 | 2026-09-04 11:54:52 | 45.77917 | 13.38078 | 154° | 62km/h | 14068m | 4.8m/s | -68.5°C | 68.4% | 0hPa | 2.7V | 00:00:00 | 01:28:38 | 08:30:00 | |
| DO3MHA-11 | 2026-09-04 11:54:49 | 45.77960 | 13.38049 | 155° | 62km/h | 14056m | 4.4m/s | -68.6°C | 68.6% | 0hPa | 2.7V | 00:00:00 | 01:28:35 | 00:00:00 | |
| OE5DRO-10 | 2026-09-04 11:54:46 | 45.78003 | 13.38018 | 154° | 64km/h | 14045m | 4.3m/s | -68.7°C | 68.3% | 0hPa | 2.7V | 00:00:00 | 00:00:00 | 08:30:00 | |
| OE8JPQ-2 | 2026-09-04 11:54:44 | 45.78030 | 13.37998 | 153° | 64km/h | 14038m | 4.2m/s | -68.7°C | 69.2% | 0hPa | 2.8V | 00:00:00 | 01:28:30 | 00:00:00 | |
| IW2NTF | 2026-09-04 11:54:43 | 45.78057 | 13.37978 | 152° | 62km/h | 14030m | 3.1m/s | 0°C | 0% | 0hPa | 2.8V | 08:30:00 | 01:28:28 | 00:00:00 | |
| DO3MHA-12 | 2026-09-04 11:54:42 | 45.78057 | 13.37977 | 153° | 64km/h | 14030m | 3.0m/s | -68.6°C | 71.0% | 0hPa | 2.7V | 00:00:00 | 01:28:28 | 00:00:00 | |
| IN3HCDX | 2026-09-04 11:54:41 | 45.78057 | 13.37977 | 153° | 62km/h | 14030m | 3.1m/s | -68.6°C | 56.2% | 0hPa | 2.7V | 00:00:00 | 00:00:00 | 00:00:00 | |
| DO3MHA-11 | 2026-09-04 11:54:39 | 45.78101 | 13.37948 | 157° | 64km/h | 14018m | 3.7m/s | -68.4°C | 71.2% | 0hPa | 2.7V | 00:00:00 | 01:28:25 | 00:00:00 | |
| IW2NTF | 2026-09-04 11:54:37 | 45.78205 | 13.37879 | 151° | 64km/h | 13991m | 3.5m/s | 0°C | 0% | 0hPa | 2.7V | 00:00:00 | 01:28:18 | 00:00:00 | |
| OM5KV | 2026-09-04 11:54:34 | 45.78162 | 13.37909 | 157° | 64km/h | 14003m | 4.1m/s | 0°C | 0% | 0hPa | 2.7V | 00:00:00 | 00:00:00 | 00:00:00 | |
| DO3MHA-12 | 2026-09-04 11:54:32 | 45.78205 | 13.37879 | 152° | 66km/h | 13991m | 3.4m/s | -68.4°C | 67.5% | 0hPa | 2.7V | 00:00:00 | 01:28:18 | 00:00:00 | |
| IV3AMH | 2026-09-04 11:54:31 | 45.78205 | 13.37879 | 152° | 64km/h | 13991m | 3.5m/s | -68.4°C | 0% | 0hPa | 2.7V | 00:00:00 | 00:00:00 | 00:00:00 | |
| DO3MHA-11 | 2026-09-04 11:54:29 | 45.78249 | 13.37846 | 155° | 66km/h | 13980m | 3.7m/s | -68.2°C | 68.5% | 0hPa | 2.7V | 00:00:00 | 01:28:15 | 00:00:00 | |
| OM5KV | 2026-09-04 11:54:28 | 45.78249 | 13.37846 | 156° | 66km/h | 13980m | 3.7m/s | 0°C | 0% | 0hPa | 2.7V | 00:00:00 | 00:00:00 | 00:00:00 | |
| OE5DRO-10 | 2026-09-04 11:54:27 | 45.78279 | 13.37825 | 155° | 68km/h | 13972m | 4.4m/s | -68.1°C | 68.4% | 0hPa | 2.7V | 00:00:00 | 00:00:00 | 00:00:00 | |
| OE8JPQ-2 | 2026-09-04 11:54:24 | 45.78324 | 13.37794 | 154° | 68km/h | 13960m | 3.9m/s | -68.2°C | 68.3% | 0hPa | 2.7V | 00:00:00 | 00:00:00 | 00:00:00 | |
| DO3MHA-12 | 2026-09-04 11:54:22 | 45.78353 | 13.37772 | 151° | 68km/h | 13952m | 4.6m/s | -68.3°C | 68.3% | 0hPa | 2.7V | 00:00:00 | 01:28:08 | 00:00:00 | |
| S52SK | 2026-09-04 11:54:21 | 45.78353 | 13.37772 | 152° | 66km/h | 13952m | 4.7m/s | 0°C | 0% | 0hPa | 2.7V | 00:00:00 | 00:00:00 | 00:00:00 | |
| IN3HCDX | 2026-09-04 11:54:20 | 45.78367 | 13.37760 | 151° | 66km/h | 13948m | 3.2m/s | -68.5°C | 55.1% | 0hPa | 2.7V | 00:00:00 | 00:00:00 | 00:00:00 | |
| DO3MHA-11 | 2026-09-04 11:54:19 | 45.78396 | 13.37737 | 152° | 68km/h | 13940m | 3.6m/s | -68.4°C | 70.1% | 0hPa | 2.7V | 00:00:00 | 01:28:05 | 00:00:00 | |
| S52SK | 2026-09-04 11:54:16 | 45.78440 | 13.37703 | 153° | 68km/h | 13928m | 3.3m/s | 0°C | 0% | 0hPa | 2.7V | 00:00:00 | 00:00:00 | 00:00:00 | |
| DO3MHA-12 | 2026-09-04 11:54:12 | 45.78503 | 13.37659 | 154° | 69km/h | 13912m | 4.3m/s | -68.5°C | 70.8% | 0hPa | 2.7V | 00:00:00 | 01:27:58 | 00:00:00 | |
| DO3MHA-11 | 2026-09-04 11:54:09 | 45.78550 | 13.37626 | 155° | 69km/h | 13901m | 3.5m/s | -68.7°C | 71.0% | 0hPa | 2.7V | 00:00:00 | 01:27:55 | 00:00:00 | |
| OE5DRO-10 | 2026-09-04 11:54:08 | 45.78566 | 13.37615 | 153° | 69km/h | 13896m | 4.5m/s | -68.6°C | 70.6% | 0hPa | 2.7V | 00:00:00 | 00:00:00 | 00:00:00 | |
| 9A1FER-10 | 2026-09-04 11:54:07 | 45.78580 | 13.37603 | 151° | 68km/h | 13892m | 3.8m/s | -68.5°C | 70.7% | 0hPa | 2.7V | 00:00:00 | 01:27:53 | 00:00:00 | |
| OE8JPQ-2 | 2026-09-04 11:54:04 | 45.78626 | 13.37566 | 151° | 69km/h | 13881m | 3.2m/s | -68.4°C | 69.3% | 0hPa | 2.7V | 00:00:00 | 00:00:00 | 00:00:00 | |
| DO3MHA-12 | 2026-09-04 11:54:02 | 45.78657 | 13.37541 | 150° | 68km/h | 13873m | 3.6m/s | -68.3°C | 69.4% | 0hPa | 2.7V | 00:00:00 | 01:27:48 | 00:00:00 | |
| DO3MHA-11 | 2026-09-04 11:53:59 | 45.78703 | 13.37504 | 154° | 68km/h | 13860m | 3.3m/s | -68.2°C | 69.7% | 0hPa | 2.7V | 00:00:00 | 01:27:45 | 00:00:00 | |
| DO3MHA-12 | 2026-09-04 11:53:52 | 45.78806 | 13.37420 | 148° | 69km/h | 13835m | 4.2m/s | -68.0°C | 66.0% | 0hPa | 2.7V | 00:00:00 | 01:27:38 | 00:00:00 | |
| 9A1FER-10 | 2026-09-04 11:53:51 | 45.78821 | 13.37406 | 146° | 71km/h | 13831m | 4.0m/s | -68.0°C | 65.9% | 0hPa | 2.7V | 00:00:00 | 01:27:37 | 00:00:00 | |
| DO3MHA-11 | 2026-09-04 11:53:49 | 45.78852 | 13.37377 | 148° | 68km/h | 13824m | 4.3m/s | -67.9°C | 65.3% | 0hPa | 2.7V | 00:00:00 | 01:27:35 | 08:30:00 | |
| OE8JPQ-2 | 2026-09-04 11:53:44 | 45.78926 | 13.37308 | 146° | 64km/h | 13806m | 3.1m/s | -67.9°C | 65.0% | 0hPa | 2.7V | 00:00:00 | 01:27:30 | 00:00:00 | |
| DO3MHA-12 | 2026-09-04 11:53:42 | 45.78954 | 13.37282 | 148° | 64km/h | 13798m | 3.3m/s | -67.9°C | 66.4% | 0hPa | 2.7V | 00:00:00 | 01:27:28 | 00:00:00 | |
| IN3HCDX | 2026-09-04 11:53:39 | 45.78994 | 13.37244 | 146° | 64km/h | 13786m | 3.7m/s | -67.9°C | 52.6% | 0hPa | 2.7V | 00:00:00 | 00:00:00 | 00:00:00 | |
| DO3MHA-12 | 2026-09-04 11:53:32 | 45.79088 | 13.37155 | 144° | 64km/h | 13760m | 3.7m/s | -67.9°C | 65.6% | 0hPa | 2.7V | 00:00:00 | 01:27:18 | 00:00:00 | |
| OE5DRO-10 | 2026-09-04 11:53:30 | 45.79114 | 13.37127 | 143° | 68km/h | 13752m | 4.2m/s | -67.9°C | 64.3% | 0hPa | 2.7V | 00:00:00 | 00:00:00 | 00:00:00 | |
| DO3MHA-11 | 2026-09-04 11:53:29 | 45.79127 | 13.37112 | 142° | 64km/h | 13747m | 4.6m/s | -67.9°C | 63.8% | 0hPa | 2.7V | 00:00:00 | 01:27:15 | 00:00:00 | |
| OE8JPQ-2 | 2026-09-04 11:53:24 | 45.79192 | 13.37040 | 146° | 68km/h | 13727m | 4.1m/s | -67.8°C | 61.7% | 0hPa | 2.7V | 00:00:00 | 00:00:00 | 08:30:00 | |
| DO3MHA-12 | 2026-09-04 11:53:22 | 45.79219 | 13.37014 | 146° | 68km/h | 13719m | 3.1m/s | -67.7°C | 62.9% | 0hPa | 2.7V | 00:00:00 | 01:27:08 | 08:30:00 | |
| DO3MHA-11 | 2026-09-04 11:53:19 | 45.79259 | 13.36975 | 145° | 68km/h | 13707m | 3.8m/s | -67.5°C | 65.0% | 0hPa | 2.7V | 00:00:00 | 01:27:05 | 00:00:00 | |
| IN3HCDX | 2026-09-04 11:53:18 | 45.79259 | 13.36975 | 146° | 68km/h | 13707m | 3.8m/s | -67.6°C | 51.3% | 0hPa | 2.7V | 00:00:00 | 00:00:00 | 00:00:00 | |
| DO3MHA-12 | 2026-09-04 11:53:12 | 45.79357 | 13.36873 | 146° | 68km/h | 13679m | 3.4m/s | -67.3°C | 63.6% | 0hPa | 2.7V | 00:00:00 | 01:26:58 | 00:00:00 | |
| OE5DRO-10 | 2026-09-04 11:53:11 | 45.79371 | 13.36860 | 146° | 69km/h | 13675m | 3.9m/s | 0°C | 0% | 0hPa | 2.7V | 00:00:00 | 00:00:00 | 00:00:00 | |
| DO3MHA-11 | 2026-09-04 11:53:09 | 45.79399 | 13.36832 | 146° | 68km/h | 13667m | 4.0m/s | -67.3°C | 61.6% | 0hPa | 2.7V | 00:00:00 | 01:26:55 | 00:00:00 | |
| OE8JPQ-2 | 2026-09-04 11:53:04 | 45.79468 | 13.36760 | 144° | 69km/h | 13646m | 3.5m/s | -67.1°C | 61.7% | 0hPa | 2.7V | 00:00:00 | 00:00:00 | 00:00:00 | |
| DO3MHA-12 | 2026-09-04 11:53:02 | 45.79495 | 13.36731 | 144° | 69km/h | 13638m | 3.4m/s | -66.9°C | 61.9% | 0hPa | 2.7V | 00:00:00 | 01:26:48 | 00:00:00 | |
| DO3MHA-11 | 2026-09-04 11:52:59 | 45.79538 | 13.36686 | 145° | 71km/h | 13625m | 3.9m/s | -66.9°C | 61.7% | 0hPa | 2.7V | 00:00:00 | 01:26:45 | 00:00:00 | |
| IV3AMH | 2026-09-04 11:52:56 | 45.79567 | 13.36656 | 144° | 69km/h | 13617m | 3.0m/s | -67.0°C | 0% | 0hPa | 2.7V | 00:00:00 | 00:00:00 | 00:00:00 | |
| DO3MHA-12 | 2026-09-04 11:52:52 | 45.79637 | 13.36578 | 140° | 69km/h | 13597m | 3.9m/s | -66.8°C | 61.7% | 0hPa | 2.7V | 00:00:00 | 01:26:38 | 00:00:00 | |
| DO3MHA-11 | 2026-09-04 11:52:49 | 45.79677 | 13.36529 | 143° | 68km/h | 13584m | 3.0m/s | -66.7°C | 61.5% | 0hPa | 2.7V | 00:00:00 | 01:26:35 | 00:00:00 | |
| OE8JPQ-2 | 2026-09-04 11:52:44 | 45.79748 | 13.36459 | 148° | 66km/h | 13564m | 3.4m/s | -66.5°C | 59.7% | 0hPa | 2.7V | 00:00:00 | 01:26:30 | 00:00:00 | |
| DO3MHA-12 | 2026-09-04 11:52:42 | 45.79776 | 13.36433 | 146° | 66km/h | 13555m | 4.4m/s | -66.4°C | 58.8% | 0hPa | 2.7V | 00:00:00 | 01:26:28 | 00:00:00 | |
| 9A1FER-10 | 2026-09-04 11:52:41 | 45.79790 | 13.36419 | 144° | 66km/h | 13551m | 3.7m/s | -66.4°C | 57.9% | 0hPa | 2.7V | 00:00:00 | 01:26:27 | 00:00:00 | |
| DO3MHA-11 | 2026-09-04 11:52:39 | 45.79817 | 13.36391 | 143° | 66km/h | 13542m | 3.7m/s | -66.4°C | 59.7% | 0hPa | 2.7V | 00:00:00 | 01:26:25 | 00:00:00 | |
| IW2NTF | 2026-09-04 11:52:36 | 45.79927 | 13.36286 | 150° | 66km/h | 13509m | 4.7m/s | 0°C | 0% | 0hPa | 2.7V | 00:00:00 | 01:26:17 | 00:00:00 | |
| OE5DRO-10 | 2026-09-04 11:52:33 | 45.79897 | 13.36310 | 152° | 64km/h | 13518m | 3.4m/s | 0°C | 0% | 0hPa | 2.7V | 00:00:00 | 00:00:00 | 00:00:00 | |
| DO3MHA-12 | 2026-09-04 11:52:32 | 45.79913 | 13.36298 | 152° | 62km/h | 13514m | 4.3m/s | -66.1°C | 59.2% | 0hPa | 2.7V | 00:00:00 | 01:26:18 | 00:00:00 | |
| DO3MHA-11 | 2026-09-04 11:52:29 | 45.79955 | 13.36261 | 145° | 62km/h | 13501m | 4.2m/s | -65.9°C | 58.0% | 0hPa | 2.7V | 00:00:00 | 01:26:15 | 00:00:00 | |
| 9A1FER-10 | 2026-09-04 11:52:25 | 45.80005 | 13.36205 | 141° | 58km/h | 13483m | 4.8m/s | -65.8°C | 56.8% | 0hPa | 2.7V | 00:00:00 | 01:26:11 | 00:00:00 | |
| DO3MHA-11 | 2026-09-04 11:52:19 | 45.80078 | 13.36127 | 148° | 62km/h | 13455m | 4.6m/s | -65.5°C | 55.0% | 0hPa | 2.7V | 00:00:00 | 01:26:05 | 08:30:00 | |
| IW2NTF | 2026-09-04 11:52:17 | 45.80169 | 13.36033 | 139° | 60km/h | 13424m | 4.8m/s | 0°C | 0% | 0hPa | 2.7V | 00:00:00 | 01:25:58 | 00:00:00 | |
| IN3HCDX | 2026-09-04 11:52:15 | 45.80120 | 13.36089 | 147° | 64km/h | 13443m | 4.3m/s | -65.5°C | 42.9% | 0hPa | 2.7V | 00:00:00 | 00:00:00 | 00:00:00 | |
| OE5DRO-10 | 2026-09-04 11:52:14 | 45.80145 | 13.36062 | 140° | 60km/h | 13433m | 4.0m/s | 0°C | 0% | 0hPa | 2.7V | 00:00:00 | 00:00:00 | 00:00:00 | |
| DO3MHA-12 | 2026-09-04 11:52:12 | 45.80169 | 13.36033 | 140° | 60km/h | 13425m | 4.7m/s | -65.3°C | 54.3% | 0hPa | 2.7V | 00:00:00 | 01:25:58 | 00:00:00 | |
| DO3MHA-11 | 2026-09-04 11:52:09 | 45.80204 | 13.35990 | 140° | 58km/h | 13411m | 5.8m/s | -65.1°C | 55.9% | 0hPa | 2.7V | 00:00:00 | 01:25:55 | 00:00:00 | |
| OE8JPQ-2 | 2026-09-04 11:52:04 | 45.80267 | 13.35927 | 151° | 57km/h | 13389m | 4.3m/s | -64.9°C | 53.8% | 0hPa | 2.7V | 00:00:00 | 00:00:00 | 00:00:00 | |
| DO3MHA-11 | 2026-09-04 11:51:59 | 45.80326 | 13.35868 | 142° | 58km/h | 13365m | 5.1m/s | -64.8°C | 51.8% | 0hPa | 2.7V | 00:00:00 | 01:25:45 | 00:00:00 | |
| OE5DRO-10 | 2026-09-04 11:51:55 | 45.80374 | 13.35818 | 144° | 57km/h | 13347m | 5.1m/s | 0°C | 0% | 0hPa | 2.7V | 00:00:00 | 00:00:00 | 00:00:00 | |
| IN3HCDX | 2026-09-04 11:51:54 | 45.80375 | 13.35818 | 145° | 57km/h | 13347m | 5.1m/s | -64.6°C | 40.7% | 0hPa | 2.7V | 00:00:00 | 00:00:00 | 00:00:00 | |
| 9A1FER-10 | 2026-09-04 11:51:53 | 45.80397 | 13.35793 | 143° | 57km/h | 13339m | 4.0m/s | -64.4°C | 51.1% | 0hPa | 2.7V | 00:00:00 | 01:25:39 | 00:00:00 | |
| DO3MHA-12 | 2026-09-04 11:51:52 | 45.80409 | 13.35781 | 144° | 57km/h | 13334m | 5.2m/s | -64.4°C | 51.1% | 0hPa | 2.7V | 00:00:00 | 01:25:38 | 08:30:00 | |
| DO3MHA-11 | 2026-09-04 11:51:49 | 45.80443 | 13.35742 | 141° | 57km/h | 13321m | 5.3m/s | -64.4°C | 49.9% | 0hPa | 2.7V | 00:00:00 | 01:25:35 | 00:00:00 | |
| OE8JPQ-2 | 2026-09-04 11:51:44 | 45.80498 | 13.35678 | 142° | 55km/h | 13298m | 5.7m/s | -64.3°C | 49.5% | 0hPa | 2.7V | 00:00:00 | 01:25:30 | 00:00:00 | |
| DO3MHA-12 | 2026-09-04 11:51:42 | 45.80520 | 13.35653 | 143° | 57km/h | 13289m | 4.1m/s | -64.2°C | 48.5% | 0hPa | 2.7V | 00:00:00 | 01:25:28 | 00:00:00 | |
| DO3MHA-11 | 2026-09-04 11:51:39 | 45.80556 | 13.35615 | 143° | 53km/h | 13276m | 4.7m/s | -64.2°C | 47.4% | 0hPa | 2.7V | 00:00:00 | 01:25:25 | 00:00:00 | |
| 9A1FER-10 | 2026-09-04 11:51:38 | 45.80567 | 13.35602 | 141° | 53km/h | 13271m | 4.6m/s | -64.1°C | 47.9% | 0hPa | 2.7V | 00:00:00 | 01:25:24 | 00:00:00 | |
| OE5DXL-15 | 2026-09-04 11:51:34 | 45.80608 | 13.35549 | 136° | 49km/h | 13255m | 3.9m/s | 0°C | 0% | 0hPa | 2.7V | 00:00:00 | 00:00:00 | 00:00:00 | |
| IN3HCDX | 2026-09-04 11:51:33 | 45.80608 | 13.35548 | 136° | 55km/h | 13255m | 4.0m/s | -64.0°C | 37.4% | 0hPa | 2.7V | 00:00:00 | 00:00:00 | 00:00:00 | |
| DO3MHA-11 | 2026-09-04 11:51:29 | 45.80654 | 13.35482 | 138° | 53km/h | 13233m | 3.7m/s | -63.7°C | 46.8% | 0hPa | 2.7V | 00:00:00 | 01:25:15 | 00:00:00 | |
| OE8JPQ-2 | 2026-09-04 11:51:24 | 45.80707 | 13.35425 | 146° | 49km/h | 13210m | 4.9m/s | -63.6°C | 46.1% | 0hPa | 2.7V | 00:00:00 | 00:00:00 | 00:00:00 | |
| DO3MHA-12 | 2026-09-04 11:51:21 | 45.80740 | 13.35392 | 145° | 51km/h | 13197m | 4.7m/s | -63.6°C | 46.2% | 0hPa | 2.7V | 00:00:00 | 01:25:07 | 00:00:00 | |
| 9A1FER-10 | 2026-09-04 11:51:20 | 45.80751 | 13.35381 | 144° | 49km/h | 13193m | 3.8m/s | -63.5°C | 46.2% | 0hPa | 2.7V | 00:00:00 | 01:25:06 | 00:00:00 | |
| DO3MHA-11 | 2026-09-04 11:51:19 | 45.80761 | 13.35370 | 143° | 49km/h | 13189m | 5.3m/s | -63.4°C | 46.5% | 0hPa | 2.7V | 00:00:00 | 01:25:05 | 00:00:00 | |
| IN3HCDX | 2026-09-04 11:51:12 | 45.80820 | 13.35310 | 146° | 49km/h | 13162m | 5.4m/s | -63.5°C | 37.7% | 0hPa | 2.7V | 00:00:00 | 00:00:00 | 00:00:00 | |
| DO3MHA-11 | 2026-09-04 11:51:09 | 45.80861 | 13.35266 | 142° | 47km/h | 13144m | 4.3m/s | -63.2°C | 48.2% | 0hPa | 2.7V | 00:00:00 | 01:24:55 | 00:00:00 | |
| DO3MHA-12 | 2026-09-04 11:51:08 | 45.80871 | 13.35254 | 141° | 47km/h | 13139m | 5.3m/s | -63.3°C | 48.6% | 0hPa | 2.7V | 00:00:00 | 01:24:54 | 00:00:00 | |
| 9A1FER-10 | 2026-09-04 11:51:05 | 45.80900 | 13.35222 | 147° | 47km/h | 13127m | 5.3m/s | -63.1°C | 47.1% | 0hPa | 2.7V | 00:00:00 | 01:24:51 | 08:30:00 | |
| OE8JPQ-2 | 2026-09-04 11:51:04 | 45.80910 | 13.35213 | 150° | 47km/h | 13123m | 4.3m/s | -63.1°C | 47.3% | 0hPa | 2.7V | 00:00:00 | 00:00:00 | 00:00:00 | |
| DO3MHA-11 | 2026-09-04 11:50:59 | 45.80961 | 13.35171 | 147° | 47km/h | 13102m | 4.6m/s | -62.9°C | 46.1% | 0hPa | 2.7V | 00:00:00 | 01:24:45 | 00:00:00 | |
| DO3MHA-12 | 2026-09-04 11:50:57 | 45.80980 | 13.35152 | 145° | 47km/h | 13094m | 4.5m/s | -62.9°C | 47.2% | 0hPa | 2.7V | 00:00:00 | 01:24:43 | 00:00:00 | |
| IN3HCDX | 2026-09-04 11:50:51 | 45.81033 | 13.35106 | 152° | 46km/h | 13074m | 3.4m/s | -62.6°C | 37.8% | 0hPa | 2.7V | 00:00:00 | 00:00:00 | 00:00:00 | |
| 9A1FER-10 | 2026-09-04 11:50:50 | 45.81053 | 13.35089 | 150° | 47km/h | 13065m | 4.4m/s | -62.6°C | 48.6% | 0hPa | 2.7V | 00:00:00 | 01:24:36 | 00:00:00 | |
| DO3MHA-11 | 2026-09-04 11:50:49 | 45.81064 | 13.35079 | 148° | 47km/h | 13061m | 3.3m/s | -62.5°C | 48.4% | 0hPa | 2.7V | 00:00:00 | 01:24:35 | 08:30:00 | |
| DO3MHA-12 | 2026-09-04 11:50:46 | 45.81094 | 13.35053 | 151° | 47km/h | 13049m | 4.6m/s | -62.5°C | 46.4% | 0hPa | 2.7V | 00:00:00 | 01:24:32 | 00:00:00 | |
| OE8JPQ-2 | 2026-09-04 11:50:44 | 45.81115 | 13.35037 | 152° | 47km/h | 13041m | 3.6m/s | -62.5°C | 45.6% | 0hPa | 2.7V | 00:00:00 | 01:24:30 | 00:00:00 | |
| DO3MHA-11 | 2026-09-04 11:50:39 | 45.81165 | 13.34992 | 146° | 47km/h | 13019m | 3.8m/s | -62.2°C | 45.0% | 0hPa | 2.7V | 00:00:00 | 01:24:25 | 00:00:00 | |
| DO3MHA-12 | 2026-09-04 11:50:36 | 45.81196 | 13.34961 | 147° | 47km/h | 13006m | 4.7m/s | -62.1°C | 44.9% | 0hPa | 2.7V | 00:00:00 | 01:24:22 | 00:00:00 | |
| 9A1FER-10 | 2026-09-04 11:50:35 | 45.81206 | 13.34951 | 150° | 47km/h | 13002m | 4.1m/s | -62.0°C | 44.9% | 0hPa | 2.7V | 00:00:00 | 01:24:21 | 00:00:00 | |
| IN3HCDX | 2026-09-04 11:50:31 | 45.81238 | 13.34926 | 151° | 46km/h | 12988m | 4.3m/s | -61.9°C | 35.5% | 0hPa | 2.7V | 00:00:00 | 00:00:00 | 00:00:00 | |
| DO3MHA-11 | 2026-09-04 11:50:29 | 45.81269 | 13.34902 | 151° | 47km/h | 12976m | 3.9m/s | -61.8°C | 43.2% | 0hPa | 2.7V | 00:00:00 | 01:24:15 | 00:00:00 | |
| DO3MHA-12 | 2026-09-04 11:50:26 | 45.81299 | 13.34877 | 151° | 47km/h | 12963m | 5.1m/s | -61.6°C | 43.4% | 0hPa | 2.7V | 00:00:00 | 01:24:12 | 00:00:00 | |
| 9A1FER-10 | 2026-09-04 11:50:20 | 45.81362 | 13.34828 | 154° | 47km/h | 12939m | 4.7m/s | -61.5°C | 42.1% | 0hPa | 2.7V | 00:00:00 | 01:24:06 | 00:00:00 | |
| DO3MHA-11 | 2026-09-04 11:50:19 | 45.81373 | 13.34820 | 155° | 47km/h | 12934m | 3.8m/s | -61.4°C | 41.6% | 0hPa | 2.7V | 00:00:00 | 01:24:05 | 00:00:00 | |
| DO3MHA-12 | 2026-09-04 11:50:16 | 45.81405 | 13.34798 | 153° | 47km/h | 12921m | 3.5m/s | -61.3°C | 40.2% | 0hPa | 2.7V | 00:00:00 | 01:24:02 | 08:30:00 | |
| IN3HCDX | 2026-09-04 11:50:10 | 45.81458 | 13.34754 | 149° | 49km/h | 12901m | 4.8m/s | -61.1°C | 30.9% | 0hPa | 2.8V | 00:00:00 | 00:00:00 | 00:00:00 | |
| DO3MHA-11 | 2026-09-04 11:50:09 | 45.81478 | 13.34736 | 148° | 47km/h | 12893m | 4.2m/s | -61.0°C | 39.1% | 0hPa | 2.8V | 00:00:00 | 01:23:55 | 00:00:00 | |
| DO3MHA-12 | 2026-09-04 11:50:06 | 45.81508 | 13.34707 | 147° | 46km/h | 12880m | 5.0m/s | -61.0°C | 38.1% | 0hPa | 2.8V | 00:00:00 | 01:23:52 | 00:00:00 | |
| 9A1FER-10 | 2026-09-04 11:50:05 | 45.81518 | 13.34698 | 147° | 46km/h | 12875m | 3.7m/s | -60.9°C | 37.7% | 0hPa | 2.8V | 00:00:00 | 01:23:51 | 00:00:00 | |
| OE8JPQ-2 | 2026-09-04 11:50:00 | 45.81568 | 13.34655 | 151° | 46km/h | 12855m | 3.6m/s | -61.1°C | 36.8% | 0hPa | 2.8V | 00:00:00 | 00:00:00 | 00:00:00 | |
| DO3MHA-11 | 2026-09-04 11:49:59 | 45.81578 | 13.34647 | 150° | 47km/h | 12851m | 5.1m/s | -61.1°C | 36.9% | 0hPa | 2.8V | 00:00:00 | 01:23:45 | 00:00:00 | |
| 9A1FER-3 | 2026-09-04 11:49:53 | 45.81640 | 13.34598 | 151° | 44km/h | 12825m | 4.4m/s | 0°C | 0% | 0hPa | 2.8V | 00:00:00 | 01:23:39 | 00:00:00 | |
| IW2NTF | 2026-09-04 11:49:51 | 45.81671 | 13.34573 | 152° | 44km/h | 12814m | 5m/s | 0°C | 0% | 0hPa | 2.8V | 00:00:00 | 01:23:36 | 00:00:00 | |
| 9A1FER-10 | 2026-09-04 11:49:50 | 45.81671 | 13.34573 | 153° | 44km/h | 12814m | 5.0m/s | -61.1°C | 37.9% | 0hPa | 2.7V | 00:00:00 | 01:23:36 | 00:00:00 | |
| DO3MHA-11 | 2026-09-04 11:49:49 | 45.81681 | 13.34566 | 155° | 44km/h | 12810m | 4.2m/s | -61.1°C | 38.2% | 0hPa | 2.7V | 00:00:00 | 01:23:35 | 00:00:00 | |
| DO3MHA-12 | 2026-09-04 11:49:46 | 45.81710 | 13.34545 | 152° | 44km/h | 12796m | 3.6m/s | -61.0°C | 39.1% | 0hPa | 2.7V | 00:00:00 | 01:23:32 | 00:00:00 | |
| IW2NTF | 2026-09-04 11:49:41 | 45.81778 | 13.34487 | 145° | 42km/h | 12767m | 4.7m/s | 0°C | 0% | 0hPa | 2.8V | 00:00:00 | 01:23:25 | 00:00:00 | |
| OE8JPQ-2 | 2026-09-04 11:49:40 | 45.81769 | 13.34496 | 146° | 42km/h | 12772m | 3.7m/s | -60.8°C | 40.2% | 0hPa | 2.7V | 00:00:00 | 01:23:26 | 00:00:00 | |
| DO3MHA-11 | 2026-09-04 11:49:39 | 45.81778 | 13.34487 | 146° | 40km/h | 12767m | 4.6m/s | -60.8°C | 40.4% | 0hPa | 2.7V | 00:00:00 | 01:23:25 | 00:00:00 | |
| DO3MHA-12 | 2026-09-04 11:49:36 | 45.81804 | 13.34460 | 143° | 40km/h | 12755m | 3.5m/s | -60.8°C | 40.1% | 0hPa | 2.7V | 00:00:00 | 01:23:22 | 00:00:00 | |
| 9A1FER-10 | 2026-09-04 11:49:35 | 45.81812 | 13.34451 | 145° | 40km/h | 12751m | 4.3m/s | -60.9°C | 40.2% | 0hPa | 2.7V | 00:00:00 | 01:23:21 | 00:00:00 | |
| IW2NTF | 2026-09-04 11:49:31 | 45.81862 | 13.34401 | 146° | 42km/h | 12727m | 4.8m/s | 0°C | 0% | 0hPa | 2.8V | 00:00:00 | 01:23:15 | 00:00:00 | |
| DO3MHA-11 | 2026-09-04 11:49:29 | 45.81862 | 13.34401 | 147° | 42km/h | 12727m | 4.7m/s | -60.8°C | 43.2% | 0hPa | 2.8V | 00:00:00 | 01:23:15 | 00:00:00 | |
| IN3HCDX | 2026-09-04 11:49:28 | 45.81862 | 13.34401 | 147° | 42km/h | 12727m | 4.8m/s | -60.8°C | 34.4% | 0hPa | 2.8V | 00:00:00 | 00:00:00 | 00:00:00 | |
| DO3MHA-12 | 2026-09-04 11:49:26 | 45.81889 | 13.34376 | 148° | 40km/h | 12714m | 4.5m/s | -60.8°C | 44.0% | 0hPa | 2.8V | 00:00:00 | 01:23:12 | 00:00:00 | |
| IV3AMH | 2026-09-04 11:49:24 | 45.81899 | 13.34368 | 148° | 44km/h | 12711m | 3.1m/s | -61.0°C | 0% | 0hPa | 2.8V | 00:00:00 | 00:00:00 | 00:00:00 | |
| IW2NTF | 2026-09-04 11:49:21 | 45.81949 | 13.34318 | 143° | 37km/h | 12685m | 5m/s | 0°C | 0% | 0hPa | 2.8V | 00:00:00 | 01:23:05 | 00:00:00 | |
| 9A1FER-3 | 2026-09-04 11:49:21 | 45.81933 | 13.34335 | 144° | 38km/h | 12694m | 4.6m/s | 0°C | 0% | 0hPa | 2.7V | 00:00:00 | 01:23:07 | 00:00:00 | |
| OE8JPQ-2 | 2026-09-04 11:49:20 | 45.81941 | 13.34326 | 144° | 44km/h | 12689m | 4.0m/s | -60.9°C | 43.5% | 0hPa | 2.7V | 00:00:00 | 00:00:00 | 00:00:00 | |
| DO3MHA-11 | 2026-09-04 11:49:19 | 45.81949 | 13.34318 | 144° | 44km/h | 12685m | 5.0m/s | -60.8°C | 43.0% | 0hPa | 2.7V | 00:00:00 | 01:23:05 | 08:30:00 | |
| DO3MHA-12 | 2026-09-04 11:49:16 | 45.81973 | 13.34294 | 146° | 46km/h | 12673m | 4.6m/s | 0°C | 0% | 0hPa | 2.8V | 00:00:00 | 01:23:02 | 00:00:00 | |
| IW2NTF | 2026-09-04 11:49:11 | 45.82041 | 13.34233 | 145° | 46km/h | 12643m | 4.9m/s | 0°C | 0% | 0hPa | 2.8V | 00:00:00 | 01:22:55 | 00:00:00 | |
| DO3MHA-11 | 2026-09-04 11:49:09 | 45.82041 | 13.34233 | 146° | 44km/h | 12644m | 4.9m/s | -60.4°C | 40.0% | 0hPa | 2.8V | 00:00:00 | 01:22:55 | 00:00:00 | |
| IN3HCDX | 2026-09-04 11:49:07 | 45.82050 | 13.34224 | 144° | 46km/h | 12639m | 3.3m/s | -60.4°C | 31.2% | 0hPa | 2.8V | 00:00:00 | 00:00:00 | 00:00:00 | |
| DO3MHA-12 | 2026-09-04 11:49:06 | 45.82068 | 13.34203 | 139° | 44km/h | 12631m | 4.2m/s | 0°C | 0% | 0hPa | 2.8V | 00:00:00 | 01:22:52 | 00:00:00 | |
| 9A1FER-10 | 2026-09-04 11:49:05 | 45.82076 | 13.34193 | 141° | 44km/h | 12627m | 3.7m/s | -60.3°C | 39.9% | 0hPa | 2.8V | 00:00:00 | 01:22:51 | 00:00:00 | |
| OE5DXL-15 | 2026-09-04 11:49:02 | 45.82102 | 13.34164 | 144° | 46km/h | 12615m | 4.7m/s | 0°C | 0% | 0hPa | 2.8V | 00:00:00 | 01:22:48 | 00:00:00 | |
| IW2NTF | 2026-09-04 11:49:01 | 45.82130 | 13.34136 | 145° | 46km/h | 12603m | 5.2m/s | 0°C | 0% | 0hPa | 2.8V | 00:00:00 | 01:22:45 | 00:00:00 | |
| OE8JPQ-2 | 2026-09-04 11:49:00 | 45.82120 | 13.34145 | 144° | 44km/h | 12607m | 2.9m/s | -60.0°C | 40.8% | 0hPa | 2.7V | 00:00:00 | 00:00:00 | 00:00:00 | |
| DO3MHA-11 | 2026-09-04 11:48:59 | 45.82130 | 13.34136 | 146° | 46km/h | 12603m | 5.1m/s | -60.0°C | 40.4% | 0hPa | 2.7V | 00:00:00 | 01:22:45 | 00:00:00 | |
| DO3MHA-12 | 2026-09-04 11:48:56 | 45.82158 | 13.34107 | 142° | 44km/h | 12591m | 5.0m/s | 0°C | 0% | 0hPa | 2.7V | 00:00:00 | 01:22:42 | 00:00:00 | |
| 9A1FER-10 | 2026-09-04 11:48:50 | 45.82209 | 13.34042 | 137° | 44km/h | 12564m | 5.8m/s | -59.7°C | 39.7% | 0hPa | 2.7V | 00:00:00 | 01:22:36 | 08:30:00 | |
| DO3MHA-11 | 2026-09-04 11:48:49 | 45.82216 | 13.34032 | 137° | 44km/h | 12560m | 3.1m/s | -59.6°C | 40.0% | 0hPa | 2.7V | 00:00:00 | 01:22:35 | 00:00:00 | |
| DO3MHA-12 | 2026-09-04 11:48:46 | 45.82240 | 13.34002 | 141° | 44km/h | 12547m | 3.9m/s | 0°C | 0% | 0hPa | 2.7V | 00:00:00 | 01:22:32 | 08:30:00 | |
| DO3MHA-11 | 2026-09-04 11:48:39 | 45.82298 | 13.33927 | 135° | 42km/h | 12519m | 3.8m/s | -59.4°C | 39.9% | 0hPa | 2.7V | 00:00:00 | 01:22:25 | 00:00:00 | |
| DO3MHA-12 | 2026-09-04 11:48:36 | 45.82321 | 13.33894 | 138° | 44km/h | 12507m | 3.9m/s | 0°C | 0% | 0hPa | 2.7V | 00:00:00 | 01:22:22 | 00:00:00 | |
| 9A1FER-10 | 2026-09-04 11:48:35 | 45.82329 | 13.33884 | 139° | 42km/h | 12504m | 4.1m/s | -59.3°C | 39.2% | 0hPa | 2.7V | 00:00:00 | 01:22:21 | 00:00:00 | |
| OE5DXL-15 | 2026-09-04 11:48:32 | 45.82353 | 13.33856 | 145° | 40km/h | 12491m | 4.8m/s | 0°C | 0% | 0hPa | 2.7V | 00:00:00 | 00:00:00 | 00:00:00 | |
| DO3MHA-11 | 2026-09-04 11:48:29 | 45.82379 | 13.33831 | 145° | 42km/h | 12479m | 3.9m/s | -59.0°C | 40.4% | 0hPa | 2.7V | 00:00:00 | 01:22:15 | 00:00:00 | |
| IN3HCDX | 2026-09-04 11:48:24 | 45.82411 | 13.33792 | 138° | 42km/h | 12464m | 3.4m/s | -58.9°C | 32.8% | 0hPa | 2.7V | 00:00:00 | 00:00:00 | 00:00:00 | |
| OE8JPQ-2 | 2026-09-04 11:48:20 | 45.82448 | 13.33737 | 136° | 40km/h | 12445m | 4.1m/s | -58.7°C | 41.4% | 0hPa | 2.7V | 00:00:00 | 00:00:00 | 00:00:00 | |
| DO3MHA-11 | 2026-09-04 11:48:19 | 45.82456 | 13.33726 | 137° | 40km/h | 12440m | 4.1m/s | -58.7°C | 41.6% | 0hPa | 2.7V | 00:00:00 | 01:22:05 | 00:00:00 | |
| IV3AMH | 2026-09-04 11:48:12 | 45.82505 | 13.33671 | 143° | 38km/h | 12417m | 4.3m/s | -58.5°C | 0% | 0hPa | 2.7V | 00:00:00 | 00:00:00 | 00:00:00 | |
| DO3MHA-11 | 2026-09-04 11:48:09 | 45.82532 | 13.33632 | 134° | 40km/h | 12401m | 3.6m/s | -58.3°C | 44.6% | 0hPa | 2.7V | 00:00:00 | 01:21:55 | 00:00:00 | |
| 9A1FER-10 | 2026-09-04 11:48:05 | 45.82561 | 13.33592 | 141° | 40km/h | 12386m | 4.4m/s | 0°C | 0% | 0hPa | 2.7V | 00:00:00 | 01:21:51 | 00:00:00 | |
| IN3HCDX | 2026-09-04 11:48:04 | 45.82561 | 13.33592 | 142° | 44km/h | 12386m | 4.4m/s | -58.4°C | 39.2% | 0hPa | 2.7V | 00:00:00 | 00:00:00 | 00:00:00 | |
| OE8JPQ-2 | 2026-09-04 11:48:00 | 45.82604 | 13.33547 | 143° | 40km/h | 12367m | 3.8m/s | -58.1°C | 49.0% | 0hPa | 2.7V | 00:00:00 | 00:00:00 | 00:00:00 | |
| DO3MHA-11 | 2026-09-04 11:47:59 | 45.82612 | 13.33539 | 142° | 40km/h | 12363m | 4.2m/s | -58.1°C | 49.5% | 0hPa | 2.7V | 00:00:00 | 01:21:45 | 00:00:00 | |
| 9A1FER-10 | 2026-09-04 11:47:50 | 45.82680 | 13.33452 | 136° | 42km/h | 12328m | 3.9m/s | 0°C | 0% | 0hPa | 2.7V | 00:00:00 | 01:21:36 | 00:00:00 | |
| DO3MHA-11 | 2026-09-04 11:47:49 | 45.82688 | 13.33442 | 137° | 40km/h | 12324m | 4.4m/s | -57.8°C | 50.1% | 0hPa | 2.7V | 00:00:00 | 01:21:35 | 08:30:00 | |
| IN3HCDX | 2026-09-04 11:47:43 | 45.82727 | 13.33392 | 142° | 40km/h | 12304m | 4.6m/s | -57.7°C | 42.5% | 0hPa | 2.7V | 00:00:00 | 00:00:00 | 00:00:00 | |
| OE8JPQ-2 | 2026-09-04 11:47:40 | 45.82758 | 13.33357 | 142° | 38km/h | 12287m | 3.9m/s | -57.5°C | 47.9% | 0hPa | 2.7V | 00:00:00 | 01:21:26 | 00:00:00 | |
| DO3MHA-11 | 2026-09-04 11:47:39 | 45.82766 | 13.33348 | 141° | 38km/h | 12283m | 4.5m/s | -57.5°C | 47.1% | 0hPa | 2.7V | 00:00:00 | 01:21:25 | 00:00:00 | |
| DO3MHA-11 | 2026-09-04 11:47:29 | 45.82841 | 13.33255 | 138° | 38km/h | 12242m | 4.7m/s | -57.3°C | 41.0% | 0hPa | 2.7V | 00:00:00 | 01:21:15 | 00:00:00 | |
| IN3HCDX | 2026-09-04 11:47:23 | 45.82878 | 13.33211 | 146° | 37km/h | 12222m | 3.2m/s | -56.9°C | 32.3% | 0hPa | 2.7V | 00:00:00 | 00:00:00 | 00:00:00 | |
| OE8JPQ-2 | 2026-09-04 11:47:20 | 45.82910 | 13.33180 | 143° | 38km/h | 12205m | 3.9m/s | -56.8°C | 38.5% | 0hPa | 2.7V | 00:00:00 | 00:00:00 | 08:30:00 | |
| IN3HCDX | 2026-09-04 11:47:02 | 45.83033 | 13.33026 | 136° | 42km/h | 12137m | 3.6m/s | -56.2°C | 32.1% | 0hPa | 2.7V | 00:00:00 | 00:00:00 | 00:00:00 | |
| OE8JPQ-2 | 2026-09-04 11:47:00 | 45.83056 | 13.32995 | 139° | 40km/h | 12126m | 3.7m/s | -56.1°C | 39.5% | 0hPa | 2.7V | 00:00:00 | 00:00:00 | 00:00:00 | |
| DO3MHA-11 | 2026-09-04 11:46:50 | 45.83132 | 13.32907 | 138° | 38km/h | 12085m | 3.1m/s | -55.8°C | 37.8% | 0hPa | 2.7V | 00:00:00 | 01:20:36 | 00:00:00 | |
| IV3AMH | 2026-09-04 11:46:44 | 45.83168 | 13.32855 | 138° | 38km/h | 12066m | 3.2m/s | -55.5°C | 0% | 0hPa | 2.9V | 00:00:00 | 00:00:00 | 00:00:00 | |
| IN3HCDX | 2026-09-04 11:46:41 | 45.83190 | 13.32826 | 139° | 40km/h | 12054m | 3.7m/s | -55.4°C | 32.5% | 0hPa | 2.9V | 00:00:00 | 00:00:00 | 00:00:00 | |
| OE8JPQ-2 | 2026-09-04 11:46:40 | 45.83205 | 13.32808 | 139° | 40km/h | 12046m | 3.3m/s | -55.3°C | 39.8% | 0hPa | 2.9V | 00:00:00 | 01:20:26 | 00:00:00 | |
| DO3MHA-11 | 2026-09-04 11:46:38 | 45.83219 | 13.32790 | 140° | 38km/h | 12039m | 4.7m/s | -55.3°C | 38.4% | 0hPa | 2.9V | 00:00:00 | 01:20:24 | 00:00:00 | |
| DO3MHA-11 | 2026-09-04 11:46:28 | 45.83293 | 13.32696 | 136° | 42km/h | 11999m | 4.3m/s | -54.9°C | 39.2% | 0hPa | 2.9V | 00:00:00 | 01:20:14 | 00:00:00 | |
| OE8JPQ-2 | 2026-09-04 11:46:20 | 45.83356 | 13.32612 | 141° | 44km/h | 11968m | 4.1m/s | -54.7°C | 39.0% | 0hPa | 2.9V | 00:00:00 | 00:00:00 | 00:00:00 | |
| IN3HCDX | 2026-09-04 11:46:19 | 45.83364 | 13.32603 | 142° | 40km/h | 11963m | 4.8m/s | -54.7°C | 31.7% | 0hPa | 2.9V | 00:00:00 | 00:00:00 | 00:00:00 | |
| DO3MHA-11 | 2026-09-04 11:46:18 | 45.83372 | 13.32593 | 141° | 46km/h | 11959m | 3.7m/s | -54.6°C | 38.6% | 0hPa | 2.9V | 00:00:00 | 01:20:04 | 00:00:00 | |
| IN3HCDX | 2026-09-04 11:45:57 | 45.83529 | 13.32392 | 138° | 44km/h | 11880m | 4.6m/s | -54.0°C | 30.3% | 0hPa | 2.7V | 00:00:00 | 00:00:00 | 00:00:00 | |
| OE8JPQ-2 | 2026-09-04 11:45:49 | 45.83601 | 13.32292 | 131° | 46km/h | 11841m | 3.1m/s | -53.5°C | 36.2% | 0hPa | 2.7V | 00:00:00 | 00:00:00 | 00:00:00 | |
| IV3AMH | 2026-09-04 11:45:39 | 45.83676 | 13.32192 | 141° | 49km/h | 11805m | 3.6m/s | -53.3°C | 0% | 0hPa | 2.7V | 00:00:00 | 00:00:00 | 00:00:00 | |
| 9A1FER-10 | 2026-09-04 11:45:37 | 45.83704 | 13.32158 | 141° | 46km/h | 11792m | 3.7m/s | 0°C | 0% | 0hPa | 2.7V | 00:00:00 | 01:19:23 | 00:00:00 | |
| IN3HCDX | 2026-09-04 11:45:36 | 45.83704 | 13.32158 | 142° | 46km/h | 11792m | 3.7m/s | -53.2°C | 30.4% | 0hPa | 2.7V | 00:00:00 | 00:00:00 | 00:00:00 | |
| OE8JPQ-2 | 2026-09-04 11:45:29 | 45.83767 | 13.32067 | 131° | 46km/h | 11761m | 3.4m/s | -52.9°C | 37.4% | 0hPa | 2.7V | 00:00:00 | 01:19:15 | 00:00:00 | |
| 9A1FER-10 | 2026-09-04 11:45:20 | 45.83840 | 13.31956 | 137° | 46km/h | 11725m | 4.6m/s | 0°C | 0% | 0hPa | 2.7V | 00:00:00 | 01:19:06 | 00:00:00 | |
| IN3HCDX | 2026-09-04 11:45:14 | 45.83882 | 13.31899 | 136° | 44km/h | 11706m | 3.3m/s | -52.5°C | 31.6% | 0hPa | 2.7V | 00:00:00 | 00:00:00 | 00:00:00 | |
| OE8JPQ-2 | 2026-09-04 11:45:09 | 45.83931 | 13.31827 | 136° | 47km/h | 11681m | 3.7m/s | -52.2°C | 37.7% | 0hPa | 2.7V | 00:00:00 | 00:00:00 | 00:00:00 | |
| 9A1FER-10 | 2026-09-04 11:45:05 | 45.83966 | 13.31779 | 136° | 46km/h | 11665m | 4.7m/s | 0°C | 0% | 0hPa | 2.9V | 00:00:00 | 01:18:51 | 00:00:00 | |
| IN3HCDX | 2026-09-04 11:44:54 | 45.84055 | 13.31640 | 134° | 51km/h | 11620m | 3.1m/s | -51.8°C | 31.8% | 0hPa | 2.9V | 00:00:00 | 00:00:00 | 00:00:00 | |
| OE8JPQ-2 | 2026-09-04 11:44:49 | 45.84097 | 13.31575 | 134° | 49km/h | 11601m | 3.4m/s | -51.7°C | 39.2% | 0hPa | 2.9V | 00:00:00 | 00:00:00 | 00:00:00 | |
| IN3HCDX | 2026-09-04 11:44:32 | 45.84233 | 13.31361 | 133° | 49km/h | 11540m | 3.9m/s | -51.2°C | 31.1% | 0hPa | 2.9V | 00:00:00 | 00:00:00 | 00:00:00 | |
| OE8JPQ-2 | 2026-09-04 11:44:29 | 45.84265 | 13.31311 | 133° | 49km/h | 11524m | 4.2m/s | -51.1°C | 35.7% | 0hPa | 2.9V | 00:00:00 | 01:18:15 | 00:00:00 | |
| IV3AMH | 2026-09-04 11:44:28 | 45.84265 | 13.31311 | 133° | 47km/h | 11524m | 4.2m/s | 0°C | 0% | 0hPa | 2.9V | 00:00:00 | 00:00:00 | 00:00:00 | |
| DO3MHA-11 | 2026-09-04 11:44:12 | 45.84409 | 13.31094 | 136° | 51km/h | 11458m | 4.3m/s | -50.5°C | 33.7% | 0hPa | 2.9V | 00:00:00 | 01:17:58 | 00:00:00 | |
| OE8JPQ-2 | 2026-09-04 11:44:09 | 45.84436 | 13.31056 | 133° | 49km/h | 11447m | 3.9m/s | -50.4°C | 33.7% | 0hPa | 2.9V | 00:00:00 | 00:00:00 | 08:30:00 | |
| DO3MHA-11 | 2026-09-04 11:44:02 | 45.84502 | 13.30965 | 134° | 46km/h | 11419m | 3.6m/s | -50.0°C | 32.7% | 0hPa | 2.9V | 00:00:00 | 01:17:48 | 08:30:00 | |
| IV3AMH | 2026-09-04 11:43:57 | 45.84534 | 13.30917 | 135° | 44km/h | 11405m | 2.8m/s | 0°C | 0% | 0hPa | 2.7V | 00:00:00 | 00:00:00 | 00:00:00 | |
| DO3MHA-11 | 2026-09-04 11:43:52 | 45.84581 | 13.30843 | 133° | 47km/h | 11382m | 4.6m/s | -49.7°C | 29.9% | 0hPa | 2.7V | 00:00:00 | 01:17:38 | 00:00:00 | |
| DO3MHA-11 | 2026-09-04 11:43:42 | 45.84665 | 13.30717 | 133° | 47km/h | 11344m | 4.8m/s | -49.5°C | 29.0% | 0hPa | 2.7V | 00:00:00 | 01:17:28 | 00:00:00 | |
| DO3MHA-11 | 2026-09-04 11:43:32 | 45.84743 | 13.30588 | 131° | 49km/h | 11307m | 2.4m/s | -49.2°C | 28.2% | 0hPa | 2.7V | 00:00:00 | 01:17:18 | 00:00:00 | |
| OE8JPQ-2 | 2026-09-04 11:43:29 | 45.84766 | 13.30549 | 131° | 51km/h | 11296m | 4.1m/s | -49.0°C | 27.9% | 0hPa | 2.7V | 00:00:00 | 01:17:15 | 00:00:00 | |
| DO3MHA-11 | 2026-09-04 11:43:22 | 45.84823 | 13.30450 | 132° | 51km/h | 11271m | 2.7m/s | -48.8°C | 26.4% | 0hPa | 2.7V | 00:00:00 | 01:17:08 | 00:00:00 | |
| IV3AMH | 2026-09-04 11:43:18 | 45.84847 | 13.30407 | 129° | 51km/h | 11260m | 3.2m/s | 0°C | 0% | 0hPa | 2.7V | 00:00:00 | 00:00:00 | 00:00:00 | |
| DO3MHA-11 | 2026-09-04 11:43:11 | 45.84911 | 13.30294 | 128° | 49km/h | 11232m | 2.8m/s | -48.4°C | 25.9% | 0hPa | 2.7V | 00:00:00 | 01:16:57 | 00:00:00 | |
| OE8JPQ-2 | 2026-09-04 11:43:09 | 45.84925 | 13.30264 | 126° | 51km/h | 11225m | 2.6m/s | -48.4°C | 26.0% | 0hPa | 2.7V | 00:00:00 | 00:00:00 | 00:00:00 | |
| DO3MHA-11 | 2026-09-04 11:43:01 | 45.84984 | 13.30147 | 122° | 49km/h | 11197m | 3.2m/s | -48.3°C | 24.1% | 0hPa | 2.9V | 00:00:00 | 01:16:47 | 00:00:00 | |
| DO3MHA-11 | 2026-09-04 11:42:51 | 45.85061 | 13.30001 | 125° | 57km/h | 11159m | 3.9m/s | -47.9°C | 23.0% | 0hPa | 2.7V | 00:00:00 | 01:16:37 | 00:00:00 | |
| OE8JPQ-2 | 2026-09-04 11:42:49 | 45.85076 | 13.29967 | 121° | 53km/h | 11151m | 5.0m/s | -47.8°C | 22.7% | 0hPa | 2.7V | 00:00:00 | 00:00:00 | 00:00:00 | |
| IV3AMH | 2026-09-04 11:42:46 | 45.85092 | 13.29932 | 125° | 57km/h | 11143m | 4.6m/s | 0°C | 0% | 0hPa | 2.7V | 00:00:00 | 00:00:00 | 00:00:00 | |
| OE8JPQ-2 | 2026-09-04 11:42:29 | 45.85220 | 13.29653 | 123° | 53km/h | 11077m | 3.2m/s | -47.0°C | 20.9% | 0hPa | 2.7V | 00:00:00 | 01:16:15 | 00:00:00 | |
| OE8JPQ-2 | 2026-09-04 11:42:09 | 45.85364 | 13.29331 | 125° | 51km/h | 11005m | 2.9m/s | -46.5°C | 21.6% | 0hPa | 2.7V | 00:00:00 | 00:00:00 | 00:00:00 | |
| 9A1FER-10 | 2026-09-04 11:41:58 | 45.85440 | 13.29165 | 126° | 51km/h | 10964m | 2.9m/s | 0°C | 0% | 0hPa | 2.9V | 00:00:00 | 01:15:44 | 00:00:00 | |
| OE8JPQ-2 | 2026-09-04 11:41:49 | 45.85510 | 13.29035 | 126° | 49km/h | 10930m | 4.9m/s | -45.9°C | 22.7% | 0hPa | 2.9V | 00:00:00 | 00:00:00 | 00:00:00 | |
| 9A1FER-10 | 2026-09-04 11:41:32 | 45.85645 | 13.28796 | 128° | 47km/h | 10866m | 4.5m/s | 0°C | 0% | 0hPa | 2.9V | 00:00:00 | 01:15:18 | 00:00:00 | |
| OE8JPQ-2 | 2026-09-04 11:41:09 | 45.85833 | 13.28485 | 132° | 49km/h | 10784m | 3.8m/s | -44.6°C | 18.2% | 0hPa | 2.9V | 00:00:00 | 00:00:00 | 08:30:00 | |
| OE8JPQ-2 | 2026-09-04 11:40:49 | 45.85995 | 13.28212 | 130° | 49km/h | 10711m | 3.7m/s | -43.9°C | 17.8% | 0hPa | 2.7V | 00:00:00 | 00:00:00 | 00:00:00 | |
| DO3MHA-11 | 2026-09-04 11:40:47 | 45.86013 | 13.28183 | 132° | 51km/h | 10704m | 4.3m/s | -43.8°C | 17.7% | 0hPa | 2.7V | 00:00:00 | 01:14:33 | 00:00:00 | |
| DO3MHA-11 | 2026-09-04 11:40:36 | 45.86102 | 13.28034 | 129° | 47km/h | 10666m | 3.6m/s | -43.4°C | 16.5% | 0hPa | 2.7V | 00:00:00 | 01:14:22 | 08:30:00 | |
| OE8JPQ-2 | 2026-09-04 11:40:29 | 45.86158 | 13.27942 | 130° | 49km/h | 10640m | 4.8m/s | -43.1°C | 16.6% | 0hPa | 2.7V | 00:00:00 | 01:14:15 | 00:00:00 | |
| DO3MHA-11 | 2026-09-04 11:40:26 | 45.86179 | 13.27901 | 125° | 49km/h | 10629m | 3.8m/s | -43.0°C | 16.4% | 0hPa | 2.7V | 00:00:00 | 01:14:12 | 00:00:00 | |
| DO3MHA-11 | 2026-09-04 11:40:16 | 45.86257 | 13.27764 | 134° | 51km/h | 10591m | 3.4m/s | -42.7°C | 15.4% | 0hPa | 2.7V | 00:00:00 | 01:14:02 | 00:00:00 | |
| OE8JPQ-2 | 2026-09-04 11:40:09 | 45.86316 | 13.27669 | 132° | 49km/h | 10566m | 3.1m/s | -42.5°C | 15.2% | 0hPa | 2.7V | 00:00:00 | 00:00:00 | 00:00:00 | |
| DO3MHA-11 | 2026-09-04 11:40:01 | 45.86379 | 13.27557 | 125° | 49km/h | 10538m | 3.3m/s | -42.2°C | 14.8% | 0hPa | 2.9V | 00:00:00 | 01:13:47 | 00:00:00 | |
| DO3MHA-11 | 2026-09-04 11:39:51 | 45.86458 | 13.27417 | 126° | 49km/h | 10500m | 4.1m/s | -41.9°C | 13.9% | 0hPa | 2.9V | 00:00:00 | 01:13:37 | 00:00:00 | |
| OE8JPQ-2 | 2026-09-04 11:39:48 | 45.86480 | 13.27371 | 125° | 49km/h | 10488m | 3.3m/s | -41.7°C | 14.2% | 0hPa | 2.9V | 00:00:00 | 00:00:00 | 00:00:00 | |
| IV3AMH | 2026-09-04 11:39:45 | 45.86494 | 13.27340 | 126° | 49km/h | 10482m | 4.1m/s | 0°C | 0% | 0hPa | 2.9V | 00:00:00 | 00:00:00 | 00:00:00 | |
| DO3MHA-11 | 2026-09-04 11:39:41 | 45.86531 | 13.27270 | 128° | 49km/h | 10463m | 4.3m/s | -41.6°C | 13.9% | 0hPa | 2.9V | 00:00:00 | 01:13:27 | 00:00:00 | |
| DO3MHA-12 | 2026-09-04 11:39:39 | 45.86545 | 13.27243 | 128° | 49km/h | 10456m | 2.8m/s | 0°C | 0% | 0hPa | 2.9V | 00:00:00 | 01:13:25 | 00:00:00 | |
| DO3MHA-11 | 2026-09-04 11:39:31 | 45.86604 | 13.27127 | 125° | 49km/h | 10427m | 3.8m/s | -41.2°C | 13.7% | 0hPa | 2.9V | 00:00:00 | 01:13:17 | 00:00:00 | |
| DO3MHA-12 | 2026-09-04 11:39:29 | 45.86618 | 13.27098 | 127° | 47km/h | 10419m | 4.1m/s | 0°C | 0% | 0hPa | 2.7V | 00:00:00 | 01:13:15 | 00:00:00 | |
| OE8JPQ-2 | 2026-09-04 11:39:28 | 45.86625 | 13.27084 | 128° | 47km/h | 10415m | 3.3m/s | -41.1°C | 13.9% | 0hPa | 2.7V | 00:00:00 | 01:13:14 | 00:00:00 | |
| DO3MHA-11 | 2026-09-04 11:39:21 | 45.86680 | 13.26987 | 129° | 47km/h | 10388m | 3.4m/s | -40.8°C | 14.0% | 0hPa | 2.7V | 00:00:00 | 01:13:07 | 00:00:00 | |
| DO3MHA-12 | 2026-09-04 11:39:18 | 45.86701 | 13.26945 | 125° | 47km/h | 10376m | 3.5m/s | 0°C | 0% | 0hPa | 2.7V | 00:00:00 | 01:13:04 | 00:00:00 | |
| DO3MHA-11 | 2026-09-04 11:39:11 | 45.86747 | 13.26844 | 126° | 47km/h | 10349m | 3.9m/s | -40.4°C | 14.0% | 0hPa | 2.7V | 00:00:00 | 01:12:57 | 00:00:00 | |
| OE8JPQ-2 | 2026-09-04 11:39:08 | 45.86770 | 13.26804 | 130° | 47km/h | 10337m | 3.9m/s | -40.3°C | 14.1% | 0hPa | 2.7V | 00:00:00 | 00:00:00 | 00:00:00 | |
| DO3MHA-11 | 2026-09-04 11:39:01 | 45.86822 | 13.26706 | 126° | 47km/h | 10310m | 4.2m/s | -40.2°C | 15.0% | 0hPa | 2.7V | 00:00:00 | 01:12:47 | 08:30:00 | |
| DO3MHA-12 | 2026-09-04 11:38:57 | 45.86849 | 13.26647 | 124° | 46km/h | 10295m | 4.6m/s | 0°C | 0% | 0hPa | 2.9V | 00:00:00 | 01:12:43 | 00:00:00 | |
| DO3MHA-11 | 2026-09-04 11:38:51 | 45.86892 | 13.26569 | 125° | 47km/h | 10271m | 3.7m/s | -40.1°C | 16.2% | 0hPa | 2.9V | 00:00:00 | 01:12:37 | 00:00:00 | |
| OE8JPQ-2 | 2026-09-04 11:38:48 | 45.86911 | 13.26528 | 126° | 47km/h | 10259m | 3.8m/s | -40.0°C | 16.0% | 0hPa | 2.9V | 00:00:00 | 00:00:00 | 00:00:00 | |
| DO3MHA-12 | 2026-09-04 11:38:47 | 45.86918 | 13.26514 | 128° | 47km/h | 10255m | 3.9m/s | 0°C | 0% | 0hPa | 2.9V | 00:00:00 | 01:12:33 | 00:00:00 | |
| DO3MHA-11 | 2026-09-04 11:38:41 | 45.86956 | 13.26425 | 119° | 49km/h | 10229m | 5.5m/s | -39.7°C | 14.9% | 0hPa | 2.9V | 00:00:00 | 01:12:27 | 00:00:00 | |
| DO3MHA-12 | 2026-09-04 11:38:37 | 45.86979 | 13.26363 | 118° | 47km/h | 10212m | 3.0m/s | 0°C | 0% | 0hPa | 2.9V | 00:00:00 | 01:12:23 | 00:00:00 | |
| DO3MHA-11 | 2026-09-04 11:38:31 | 45.87014 | 13.26270 | 119° | 47km/h | 10189m | 4.4m/s | -39.3°C | 14.5% | 0hPa | 2.9V | 00:00:00 | 01:12:17 | 00:00:00 | |
| OE8JPQ-2 | 2026-09-04 11:38:28 | 45.87031 | 13.26224 | 117° | 46km/h | 10178m | 4.3m/s | -39.2°C | 16.1% | 0hPa | 2.9V | 00:00:00 | 01:12:14 | 00:00:00 | |
| DO3MHA-12 | 2026-09-04 11:38:27 | 45.87036 | 13.26208 | 116° | 47km/h | 10174m | 2.8m/s | 0°C | 0% | 0hPa | 2.9V | 00:00:00 | 01:12:13 | 00:00:00 | |
| DO3MHA-11 | 2026-09-04 11:38:21 | 45.87068 | 13.26116 | 117° | 44km/h | 10150m | 4.7m/s | 0°C | 0% | 0hPa | 2.9V | 00:00:00 | 01:12:07 | 00:00:00 | |
| DO3MHA-11 | 2026-09-04 11:38:11 | 45.87116 | 13.25974 | 115° | 42km/h | 10112m | 4.6m/s | 0°C | 0% | 0hPa | 2.9V | 00:00:00 | 01:11:57 | 00:00:00 | |
| OE8JPQ-2 | 2026-09-04 11:38:08 | 45.87129 | 13.25930 | 112° | 42km/h | 10099m | 3.1m/s | -38.6°C | 15.9% | 0hPa | 2.9V | 00:00:00 | 00:00:00 | 08:30:00 | |
| DO3MHA-11 | 2026-09-04 11:38:01 | 45.87159 | 13.25834 | 115° | 42km/h | 10072m | 4.0m/s | 0°C | 0% | 0hPa | 2.9V | 00:00:00 | 01:11:47 | 00:00:00 | |
| DO3MHA-11 | 2026-09-04 11:37:51 | 45.87200 | 13.25695 | 113° | 42km/h | 10033m | 3.3m/s | 0°C | 0% | 0hPa | 2.9V | 00:00:00 | 01:11:37 | 00:00:00 | |
| OE8JPQ-2 | 2026-09-04 11:37:48 | 45.87213 | 13.25653 | 114° | 42km/h | 10022m | 4.1m/s | -38.0°C | 12.5% | 0hPa | 2.9V | 00:00:00 | 00:00:00 | 00:00:00 | |
| DO3MHA-11 | 2026-09-04 11:37:41 | 45.87237 | 13.25553 | 109° | 42km/h | 9995m | 3.4m/s | 0°C | 0% | 0hPa | 2.9V | 00:00:00 | 01:11:27 | 00:00:00 | |
| IV3AMH | 2026-09-04 11:37:20 | 45.87323 | 13.25271 | 113° | 44km/h | 9917m | 4.5m/s | 0°C | 0% | 0hPa | 2.9V | 00:00:00 | 00:00:00 | 00:00:00 | |
| OE8JPQ-2 | 2026-09-04 11:37:08 | 45.87378 | 13.25087 | 114° | 44km/h | 9868m | 3.5m/s | -36.7°C | 11.9% | 0hPa | 2.9V | 00:00:00 | 00:00:00 | 00:00:00 | |
| DO3MHA-11 | 2026-09-04 11:36:55 | 45.87442 | 13.24902 | 118° | 46km/h | 9817m | 3.6m/s | 0°C | 0% | 0hPa | 2.9V | 00:00:00 | 01:10:41 | 00:00:00 | |
| IV3AMH | 2026-09-04 11:36:49 | 45.87466 | 13.24828 | 119° | 46km/h | 9797m | 3.9m/s | 0°C | 0% | 0hPa | 2.9V | 00:00:00 | 00:00:00 | 00:00:00 | |
| OE8JPQ-2 | 2026-09-04 11:36:48 | 45.87477 | 13.24799 | 119° | 46km/h | 9790m | 4.1m/s | -36.0°C | 11.5% | 0hPa | 2.9V | 00:00:00 | 00:00:00 | 00:00:00 | |
| OE8JPQ-2 | 2026-09-04 11:36:28 | 45.87564 | 13.24495 | 110° | 47km/h | 9713m | 4.6m/s | -35.4°C | 11.2% | 0hPa | 2.9V | 00:00:00 | 01:10:14 | 00:00:00 | |
| OE8JPQ-2 | 2026-09-04 11:35:54 | 45.87708 | 13.23959 | 117° | 47km/h | 9574m | 3.7m/s | -34.2°C | 10.8% | 0hPa | 2.9V | 00:00:00 | 00:00:00 | 00:00:00 | |
| OE8JPQ-2 | 2026-09-04 11:35:34 | 45.87799 | 13.23640 | 116° | 47km/h | 9496m | 4.2m/s | -33.4°C | 10.2% | 0hPa | 2.9V | 00:00:00 | 00:00:00 | 00:00:00 | |
| OE8JPQ-2 | 2026-09-04 11:35:14 | 45.87891 | 13.23327 | 116° | 47km/h | 9415m | 5.0m/s | -32.8°C | 11.0% | 0hPa | 2.9V | 00:00:00 | 01:09:00 | 00:00:00 | |
| IV3AMH | 2026-09-04 11:34:26 | 45.88175 | 13.22647 | 122° | 44km/h | 9227m | 3.7m/s | 0°C | 0% | 0hPa | 2.9V | 00:00:00 | 00:00:00 | 00:00:00 | |
| OE8JPQ-2 | 2026-09-04 11:34:15 | 45.88255 | 13.22485 | 122° | 46km/h | 9180m | 4.2m/s | -30.7°C | 10.5% | 0hPa | 2.9V | 00:00:00 | 00:00:00 | 00:00:00 | |
| OE8JPQ-2 | 2026-09-04 11:33:55 | 45.88381 | 13.22209 | 128° | 44km/h | 9101m | 4.6m/s | -30.1°C | 10.7% | 0hPa | 2.9V | 00:00:00 | 01:07:41 | 00:00:00 | |
| IV3AMH | 2026-09-04 11:33:43 | 45.88453 | 13.22062 | 126° | 44km/h | 9059m | 4.6m/s | 0°C | 0% | 0hPa | 2.9V | 00:00:00 | 00:00:00 | 00:00:00 | |
| OE8JPQ-2 | 2026-09-04 11:33:35 | 45.88511 | 13.21948 | 126° | 42km/h | 9025m | 3.2m/s | -29.4°C | 11.1% | 0hPa | 2.9V | 00:00:00 | 00:00:00 | 00:00:00 | |
| OE8JPQ-2 | 2026-09-04 11:33:15 | 45.88645 | 13.21704 | 125° | 38km/h | 8950m | 3.3m/s | -28.9°C | 11.7% | 0hPa | 3.0V | 00:00:00 | 00:00:00 | 00:00:00 | |
| OE8JPQ-2 | 2026-09-04 11:32:55 | 45.88753 | 13.21474 | 121° | 40km/h | 8876m | 4.0m/s | -28.7°C | 13.1% | 0hPa | 3.0V | 00:00:00 | 01:06:41 | 00:00:00 | |
| OE8JPQ-2 | 2026-09-04 11:32:35 | 45.88862 | 13.21232 | 121° | 38km/h | 8804m | 2.7m/s | -28.1°C | 13.5% | 0hPa | 3.0V | 00:00:00 | 00:00:00 | 00:00:00 | |
| OE8JPQ-2 | 2026-09-04 11:32:15 | 45.88966 | 13.20994 | 118° | 40km/h | 8731m | 4.1m/s | -27.5°C | 13.4% | 0hPa | 3.0V | 00:00:00 | 00:00:00 | 00:00:00 | |
| OE8JPQ-2 | 2026-09-04 11:31:55 | 45.89067 | 13.20745 | 122° | 42km/h | 8659m | 4.3m/s | -27.3°C | 16.3% | 0hPa | 3.0V | 00:00:00 | 01:05:41 | 00:00:00 | |
| OE8JPQ-2 | 2026-09-04 11:31:35 | 45.89161 | 13.20480 | 113° | 44km/h | 8587m | 4.4m/s | -27.0°C | 17.5% | 0hPa | 3.0V | 00:00:00 | 00:00:00 | 08:30:00 | |
| OE8JPQ-2 | 2026-09-04 11:31:12 | 45.89278 | 13.20161 | 123° | 49km/h | 8499m | 3.9m/s | -26.3°C | 17.6% | 0hPa | 3.0V | 00:00:00 | 00:00:00 | 00:00:00 | |
| OE8JPQ-2 | 2026-09-04 11:30:41 | 45.89503 | 13.19689 | 126° | 53km/h | 8386m | 3.1m/s | -25.4°C | 17.7% | 0hPa | 3.0V | 00:00:00 | 01:04:27 | 00:00:00 | |
| OE8JPQ-2 | 2026-09-04 11:30:21 | 45.89663 | 13.19379 | 128° | 57km/h | 8316m | 3.2m/s | -24.7°C | 17.0% | 0hPa | 3.0V | 00:00:00 | 00:00:00 | 00:00:00 | |
| OE8JPQ-2 | 2026-09-04 11:30:01 | 45.89840 | 13.19062 | 130° | 58km/h | 8245m | 3.1m/s | 0°C | 0% | 0hPa | 0V | 00:00:00 | 00:00:00 | 00:00:00 | |
| OE8JPQ-2 | 2026-09-04 11:29:41 | 45.90020 | 13.18729 | 122° | 60km/h | 8172m | 3.6m/s | 0°C | 0% | 0hPa | 0V | 00:00:00 | 01:03:27 | 00:00:00 | |
| OE8JPQ-2 | 2026-09-04 11:29:21 | 45.90214 | 13.18388 | 130° | 64km/h | 8085m | 5.7m/s | 0°C | 0% | 0hPa | 0V | 00:00:00 | 00:00:00 | 00:00:00 | |
| OE8JPQ-2 | 2026-09-04 11:28:46 | 45.90536 | 13.17808 | 132° | 57km/h | 7901m | 5.6m/s | 0°C | 0% | 0hPa | 0V | 00:00:00 | 00:00:00 | 00:00:00 | |
| OE8JPQ-2 | 2026-09-04 11:28:26 | 45.90718 | 13.17492 | 135° | 53km/h | 7798m | 4.6m/s | 0°C | 0% | 0hPa | 0V | 00:00:00 | 01:02:12 | 00:00:00 | |
| OE8JPQ-2 | 2026-09-04 11:27:51 | 45.91012 | 13.16993 | 132° | 58km/h | 7626m | 5.6m/s | 0°C | 0% | 0hPa | 0V | 00:00:00 | 00:00:00 | 00:00:00 | |
| IN3HCDX | 2026-09-04 11:20:40 | 45.95542 | 13.11680 | 150° | 49km/h | 5457m | 5.1m/s | -6.3°C | 36.8% | 0hPa | 0V | 00:00:00 | 00:00:00 | 00:00:00 | |
| IN3HCDX | 2026-09-04 11:20:19 | 45.95733 | 13.11419 | 137° | 46km/h | 5364m | 3.6m/s | -5.7°C | 36.3% | 0hPa | 0V | 00:00:00 | 00:00:00 | 00:00:00 | |
| IN3HCDX | 2026-09-04 11:19:58 | 45.95932 | 13.11205 | 132° | 55km/h | 5264m | 5.8m/s | -5.1°C | 35.8% | 0hPa | 0V | 00:00:00 | 00:00:00 | 00:00:00 | |
| IN3HCDX | 2026-09-04 11:19:38 | 45.96128 | 13.11011 | 145° | 37km/h | 5155m | 5.2m/s | -4.4°C | 38.9% | 0hPa | 0V | 00:00:00 | 00:00:00 | 00:00:00 | |
| IN3HCDX | 2026-09-04 11:19:16 | 45.96319 | 13.10840 | 153° | 46km/h | 5071m | 3.9m/s | -3.8°C | 39.7% | 0hPa | 0V | 00:00:00 | 00:00:00 | 00:00:00 | |
| IN3HCDX | 2026-09-04 11:18:56 | 45.96497 | 13.10695 | 145° | 40km/h | 4978m | 4.4m/s | -3.1°C | 42.8% | 0hPa | 0V | 00:00:00 | 00:00:00 | 00:00:00 | |
| IN3HCDX | 2026-09-04 11:18:35 | 45.96655 | 13.10531 | 132° | 40km/h | 4893m | 4.2m/s | -2.4°C | 43.3% | 0hPa | 0V | 00:00:00 | 00:00:00 | 00:00:00 | |
| IN3HCDX | 2026-09-04 11:18:14 | 45.96794 | 13.10370 | 135° | 37km/h | 4788m | 6.8m/s | -1.7°C | 48.1% | 0hPa | 0V | 00:00:00 | 00:00:00 | 00:00:00 | |
| IN3HCDX | 2026-09-04 11:17:53 | 45.96923 | 13.10167 | 144° | 37km/h | 4677m | 4.8m/s | -0.8°C | 47.6% | 0hPa | 0V | 00:00:00 | 00:00:00 | 00:00:00 | |
| IN3HCDX | 2026-09-04 11:17:32 | 45.97055 | 13.09948 | 156° | 40km/h | 4563m | 4.4m/s | 0.0°C | 48.0% | 0hPa | 0V | 00:00:00 | 00:00:00 | 00:00:00 | |
| IN3HCDX | 2026-09-04 11:17:11 | 45.97222 | 13.09775 | 157° | 29km/h | 4453m | 4.9m/s | 0.6°C | 52.4% | 0hPa | 0V | 00:00:00 | 00:00:00 | 00:00:00 | |
| IN3HCDX | 2026-09-04 11:16:50 | 45.97373 | 13.09661 | 158° | 26km/h | 4342m | 5.0m/s | 1.4°C | 52.5% | 0hPa | 0V | 00:00:00 | 00:00:00 | 00:00:00 | |
| IN3HCDX | 2026-09-04 11:16:29 | 45.97492 | 13.09549 | 166° | 37km/h | 4231m | 5.3m/s | 2.3°C | 52.1% | 0hPa | 0V | 00:00:00 | 00:00:00 | 00:00:00 | |
| IN3HCDX | 2026-09-04 11:16:09 | 45.97614 | 13.09470 | 160° | 26km/h | 4127m | 4.8m/s | 3.2°C | 44.5% | 0hPa | 0V | 00:00:00 | 00:00:00 | 00:00:00 | |
| IN3HCDX | 2026-09-04 11:15:48 | 45.97731 | 13.09369 | 158° | 37km/h | 4027m | 4.4m/s | 3.9°C | 37.8% | 0hPa | 0V | 00:00:00 | 00:00:00 | 00:00:00 | |
| IN3HCDX | 2026-09-04 11:15:27 | 45.97849 | 13.09246 | 138° | 27km/h | 3931m | 4.3m/s | 4.8°C | 25.4% | 0hPa | 0V | 00:00:00 | 00:00:00 | 00:00:00 | |
| IN3HCDX | 2026-09-04 11:15:04 | 45.97979 | 13.09098 | 139° | 24km/h | 3845m | 4.0m/s | 5.3°C | 23.6% | 0hPa | 0V | 00:00:00 | 00:00:00 | 00:00:00 | |
| IN3HCDX | 2026-09-04 11:14:43 | 45.98088 | 13.08996 | 174° | 29km/h | 3770m | 2.5m/s | 5.4°C | 36.7% | 0hPa | 0V | 00:00:00 | 00:00:00 | 00:00:00 | |
| IN3HCDX | 2026-09-04 11:14:22 | 45.98210 | 13.08891 | 151° | 31km/h | 3677m | 4.8m/s | 5.9°C | 39.5% | 0hPa | 0V | 00:00:00 | 00:00:00 | 00:00:00 |